<?xml version="1.0" encoding="UTF-8" standalone="no" ?>
<gpx xmlns="http://www.topografix.com/GPX/1/1" xmlns:xsi="http://www.w3.org/2001/XMLSchema-instance" xsi:schemaLocation="http://www.topografix.com/GPX/1/1 http://www.topografix.com/GPX/1/1/gpx.xsd" version="1.1" creator="VisuGPX - https://www.visugpx.com">
  <metadata>
    <name>Albertville-Col de Tamié-Faverge-Ugine-Venthon</name>
    <desc><![CDATA[Albertville-Col de Tamié-Faverge-Ugine-Venthon]]></desc>
  </metadata>
  <trk>
    <name><![CDATA[Albertville-Col de Tamié-Faverge-Ugine-Venthon]]></name>
    <trkseg>
      <trkpt lat="45.68854" lon="6.41294">
        <ele>430</ele>
        <time>2013-10-17T13:09:39Z</time>
      </trkpt>
      <trkpt lat="45.68858" lon="6.41293">
        <ele>430</ele>
        <time>2013-10-17T13:09:41Z</time>
      </trkpt>
      <trkpt lat="45.68861" lon="6.41289">
        <ele>430</ele>
        <time>2013-10-17T13:09:43Z</time>
      </trkpt>
      <trkpt lat="45.68868" lon="6.41273">
        <ele>430</ele>
        <time>2013-10-17T13:09:46Z</time>
      </trkpt>
      <trkpt lat="45.68876" lon="6.41244">
        <ele>429</ele>
        <time>2013-10-17T13:09:49Z</time>
      </trkpt>
      <trkpt lat="45.68886" lon="6.41209">
        <ele>428</ele>
        <time>2013-10-17T13:09:52Z</time>
      </trkpt>
      <trkpt lat="45.68894" lon="6.41184">
        <ele>427</ele>
        <time>2013-10-17T13:09:54Z</time>
      </trkpt>
      <trkpt lat="45.68905" lon="6.41146">
        <ele>425</ele>
        <time>2013-10-17T13:09:57Z</time>
      </trkpt>
      <trkpt lat="45.68912" lon="6.41121">
        <ele>423</ele>
        <time>2013-10-17T13:09:59Z</time>
      </trkpt>
      <trkpt lat="45.68921" lon="6.41083">
        <ele>421</ele>
        <time>2013-10-17T13:10:02Z</time>
      </trkpt>
      <trkpt lat="45.68925" lon="6.41057">
        <ele>419</ele>
        <time>2013-10-17T13:10:04Z</time>
      </trkpt>
      <trkpt lat="45.6893" lon="6.41032">
        <ele>417</ele>
        <time>2013-10-17T13:10:06Z</time>
      </trkpt>
      <trkpt lat="45.6894" lon="6.40995">
        <ele>416</ele>
        <time>2013-10-17T13:10:09Z</time>
      </trkpt>
      <trkpt lat="45.68949" lon="6.40958">
        <ele>414</ele>
        <time>2013-10-17T13:10:12Z</time>
      </trkpt>
      <trkpt lat="45.68951" lon="6.40931">
        <ele>412</ele>
        <time>2013-10-17T13:10:14Z</time>
      </trkpt>
      <trkpt lat="45.6895" lon="6.40891">
        <ele>410</ele>
        <time>2013-10-17T13:10:17Z</time>
      </trkpt>
      <trkpt lat="45.6895" lon="6.40865">
        <ele>407</ele>
        <time>2013-10-17T13:10:19Z</time>
      </trkpt>
      <trkpt lat="45.68957" lon="6.40824">
        <ele>404</ele>
        <time>2013-10-17T13:10:22Z</time>
      </trkpt>
      <trkpt lat="45.68966" lon="6.40784">
        <ele>401</ele>
        <time>2013-10-17T13:10:25Z</time>
      </trkpt>
      <trkpt lat="45.6898" lon="6.4075">
        <ele>399</ele>
        <time>2013-10-17T13:10:28Z</time>
      </trkpt>
      <trkpt lat="45.6899" lon="6.40732">
        <ele>396</ele>
        <time>2013-10-17T13:10:31Z</time>
      </trkpt>
      <trkpt lat="45.68998" lon="6.40722">
        <ele>394</ele>
        <time>2013-10-17T13:10:33Z</time>
      </trkpt>
      <trkpt lat="45.6901" lon="6.40709">
        <ele>390</ele>
        <time>2013-10-17T13:10:36Z</time>
      </trkpt>
      <trkpt lat="45.69021" lon="6.40701">
        <ele>388</ele>
        <time>2013-10-17T13:10:39Z</time>
      </trkpt>
      <trkpt lat="45.69031" lon="6.40683">
        <ele>387</ele>
        <time>2013-10-17T13:10:42Z</time>
      </trkpt>
      <trkpt lat="45.69033" lon="6.40654">
        <ele>386</ele>
        <time>2013-10-17T13:10:45Z</time>
      </trkpt>
      <trkpt lat="45.69026" lon="6.40634">
        <ele>386</ele>
        <time>2013-10-17T13:10:47Z</time>
      </trkpt>
      <trkpt lat="45.69006" lon="6.40614">
        <ele>385</ele>
        <time>2013-10-17T13:10:50Z</time>
      </trkpt>
      <trkpt lat="45.6899" lon="6.40602">
        <ele>385</ele>
        <time>2013-10-17T13:10:52Z</time>
      </trkpt>
      <trkpt lat="45.68963" lon="6.40588">
        <ele>383</ele>
        <time>2013-10-17T13:10:55Z</time>
      </trkpt>
      <trkpt lat="45.68935" lon="6.40598">
        <ele>382</ele>
        <time>2013-10-17T13:10:58Z</time>
      </trkpt>
      <trkpt lat="45.68916" lon="6.40606">
        <ele>381</ele>
        <time>2013-10-17T13:11:00Z</time>
      </trkpt>
      <trkpt lat="45.6889" lon="6.40584">
        <ele>379</ele>
        <time>2013-10-17T13:11:03Z</time>
      </trkpt>
      <trkpt lat="45.68876" lon="6.40542">
        <ele>377</ele>
        <time>2013-10-17T13:11:06Z</time>
      </trkpt>
      <trkpt lat="45.68863" lon="6.40518">
        <ele>376</ele>
        <time>2013-10-17T13:11:08Z</time>
      </trkpt>
      <trkpt lat="45.68831" lon="6.4051">
        <ele>375</ele>
        <time>2013-10-17T13:11:11Z</time>
      </trkpt>
      <trkpt lat="45.688" lon="6.40496">
        <ele>372</ele>
        <time>2013-10-17T13:11:14Z</time>
      </trkpt>
      <trkpt lat="45.68787" lon="6.40469">
        <ele>370</ele>
        <time>2013-10-17T13:11:16Z</time>
      </trkpt>
      <trkpt lat="45.68771" lon="6.40443">
        <ele>369</ele>
        <time>2013-10-17T13:11:18Z</time>
      </trkpt>
      <trkpt lat="45.6875" lon="6.40426">
        <ele>368</ele>
        <time>2013-10-17T13:11:20Z</time>
      </trkpt>
      <trkpt lat="45.68716" lon="6.40405">
        <ele>367</ele>
        <time>2013-10-17T13:11:23Z</time>
      </trkpt>
      <trkpt lat="45.68696" lon="6.40386">
        <ele>366</ele>
        <time>2013-10-17T13:11:25Z</time>
      </trkpt>
      <trkpt lat="45.6868" lon="6.40358">
        <ele>364</ele>
        <time>2013-10-17T13:11:27Z</time>
      </trkpt>
      <trkpt lat="45.68671" lon="6.40306">
        <ele>360</ele>
        <time>2013-10-17T13:11:30Z</time>
      </trkpt>
      <trkpt lat="45.68658" lon="6.40257">
        <ele>358</ele>
        <time>2013-10-17T13:11:33Z</time>
      </trkpt>
      <trkpt lat="45.68642" lon="6.4023">
        <ele>356</ele>
        <time>2013-10-17T13:11:35Z</time>
      </trkpt>
      <trkpt lat="45.68626" lon="6.40181">
        <ele>353</ele>
        <time>2013-10-17T13:11:38Z</time>
      </trkpt>
      <trkpt lat="45.68614" lon="6.4015">
        <ele>351</ele>
        <time>2013-10-17T13:11:40Z</time>
      </trkpt>
      <trkpt lat="45.68594" lon="6.40129">
        <ele>348</ele>
        <time>2013-10-17T13:11:42Z</time>
      </trkpt>
      <trkpt lat="45.68572" lon="6.40115">
        <ele>347</ele>
        <time>2013-10-17T13:11:44Z</time>
      </trkpt>
      <trkpt lat="45.68537" lon="6.40099">
        <ele>347</ele>
        <time>2013-10-17T13:11:47Z</time>
      </trkpt>
      <trkpt lat="45.68515" lon="6.40082">
        <ele>345</ele>
        <time>2013-10-17T13:11:49Z</time>
      </trkpt>
      <trkpt lat="45.68483" lon="6.40062">
        <ele>345</ele>
        <time>2013-10-17T13:11:52Z</time>
      </trkpt>
      <trkpt lat="45.68452" lon="6.40034">
        <ele>343</ele>
        <time>2013-10-17T13:11:55Z</time>
      </trkpt>
      <trkpt lat="45.68433" lon="6.40015">
        <ele>341</ele>
        <time>2013-10-17T13:11:57Z</time>
      </trkpt>
      <trkpt lat="45.68401" lon="6.39989">
        <ele>338</ele>
        <time>2013-10-17T13:12:00Z</time>
      </trkpt>
      <trkpt lat="45.6838" lon="6.3997">
        <ele>336</ele>
        <time>2013-10-17T13:12:02Z</time>
      </trkpt>
      <trkpt lat="45.6836" lon="6.39945">
        <ele>334</ele>
        <time>2013-10-17T13:12:04Z</time>
      </trkpt>
      <trkpt lat="45.68345" lon="6.39917">
        <ele>332</ele>
        <time>2013-10-17T13:12:06Z</time>
      </trkpt>
      <trkpt lat="45.6832" lon="6.39876">
        <ele>331</ele>
        <time>2013-10-17T13:12:09Z</time>
      </trkpt>
      <trkpt lat="45.68287" lon="6.39853">
        <ele>329</ele>
        <time>2013-10-17T13:12:12Z</time>
      </trkpt>
      <trkpt lat="45.68262" lon="6.39844">
        <ele>328</ele>
        <time>2013-10-17T13:12:14Z</time>
      </trkpt>
      <trkpt lat="45.68227" lon="6.3983">
        <ele>326</ele>
        <time>2013-10-17T13:12:17Z</time>
      </trkpt>
      <trkpt lat="45.68193" lon="6.39811">
        <ele>324</ele>
        <time>2013-10-17T13:12:20Z</time>
      </trkpt>
      <trkpt lat="45.68159" lon="6.39787">
        <ele>323</ele>
        <time>2013-10-17T13:12:23Z</time>
      </trkpt>
      <trkpt lat="45.68136" lon="6.39776">
        <ele>321</ele>
        <time>2013-10-17T13:12:25Z</time>
      </trkpt>
      <trkpt lat="45.681" lon="6.39763">
        <ele>319</ele>
        <time>2013-10-17T13:12:28Z</time>
      </trkpt>
      <trkpt lat="45.68065" lon="6.39749">
        <ele>318</ele>
        <time>2013-10-17T13:12:31Z</time>
      </trkpt>
      <trkpt lat="45.68029" lon="6.3974">
        <ele>314</ele>
        <time>2013-10-17T13:12:34Z</time>
      </trkpt>
      <trkpt lat="45.68005" lon="6.39733">
        <ele>313</ele>
        <time>2013-10-17T13:12:36Z</time>
      </trkpt>
      <trkpt lat="45.6797" lon="6.39715">
        <ele>310</ele>
        <time>2013-10-17T13:12:39Z</time>
      </trkpt>
      <trkpt lat="45.67936" lon="6.39696">
        <ele>309</ele>
        <time>2013-10-17T13:12:42Z</time>
      </trkpt>
      <trkpt lat="45.67916" lon="6.39679">
        <ele>308</ele>
        <time>2013-10-17T13:12:44Z</time>
      </trkpt>
      <trkpt lat="45.67887" lon="6.39652">
        <ele>307</ele>
        <time>2013-10-17T13:12:47Z</time>
      </trkpt>
      <trkpt lat="45.67868" lon="6.3964">
        <ele>306</ele>
        <time>2013-10-17T13:12:49Z</time>
      </trkpt>
      <trkpt lat="45.67847" lon="6.39631">
        <ele>305</ele>
        <time>2013-10-17T13:12:51Z</time>
      </trkpt>
      <trkpt lat="45.67816" lon="6.39636">
        <ele>302</ele>
        <time>2013-10-17T13:12:54Z</time>
      </trkpt>
      <trkpt lat="45.67795" lon="6.39638">
        <ele>300</ele>
        <time>2013-10-17T13:12:56Z</time>
      </trkpt>
      <trkpt lat="45.67766" lon="6.39621">
        <ele>297</ele>
        <time>2013-10-17T13:12:59Z</time>
      </trkpt>
      <trkpt lat="45.67749" lon="6.39603">
        <ele>296</ele>
        <time>2013-10-17T13:13:01Z</time>
      </trkpt>
      <trkpt lat="45.67731" lon="6.39588">
        <ele>294</ele>
        <time>2013-10-17T13:13:03Z</time>
      </trkpt>
      <trkpt lat="45.67699" lon="6.39576">
        <ele>293</ele>
        <time>2013-10-17T13:13:06Z</time>
      </trkpt>
      <trkpt lat="45.67678" lon="6.39569">
        <ele>292</ele>
        <time>2013-10-17T13:13:08Z</time>
      </trkpt>
      <trkpt lat="45.67658" lon="6.39562">
        <ele>290</ele>
        <time>2013-10-17T13:13:10Z</time>
      </trkpt>
      <trkpt lat="45.6763" lon="6.39551">
        <ele>288</ele>
        <time>2013-10-17T13:13:13Z</time>
      </trkpt>
      <trkpt lat="45.67612" lon="6.39543">
        <ele>285</ele>
        <time>2013-10-17T13:13:16Z</time>
      </trkpt>
      <trkpt lat="45.6761" lon="6.3953">
        <ele>283</ele>
        <time>2013-10-17T13:13:18Z</time>
      </trkpt>
      <trkpt lat="45.67616" lon="6.39512">
        <ele>281</ele>
        <time>2013-10-17T13:13:21Z</time>
      </trkpt>
      <trkpt lat="45.67622" lon="6.395">
        <ele>280</ele>
        <time>2013-10-17T13:13:23Z</time>
      </trkpt>
      <trkpt lat="45.67625" lon="6.39488">
        <ele>280</ele>
        <time>2013-10-17T13:13:25Z</time>
      </trkpt>
      <trkpt lat="45.67628" lon="6.39468">
        <ele>281</ele>
        <time>2013-10-17T13:13:28Z</time>
      </trkpt>
      <trkpt lat="45.6763" lon="6.39455">
        <ele>281</ele>
        <time>2013-10-17T13:13:30Z</time>
      </trkpt>
      <trkpt lat="45.67634" lon="6.39436">
        <ele>281</ele>
        <time>2013-10-17T13:13:33Z</time>
      </trkpt>
      <trkpt lat="45.67635" lon="6.39424">
        <ele>281</ele>
        <time>2013-10-17T13:13:35Z</time>
      </trkpt>
      <trkpt lat="45.67638" lon="6.39408">
        <ele>281</ele>
        <time>2013-10-17T13:13:38Z</time>
      </trkpt>
      <trkpt lat="45.6764" lon="6.39393">
        <ele>281</ele>
        <time>2013-10-17T13:13:41Z</time>
      </trkpt>
      <trkpt lat="45.67643" lon="6.39377">
        <ele>281</ele>
        <time>2013-10-17T13:13:44Z</time>
      </trkpt>
      <trkpt lat="45.67645" lon="6.39362">
        <ele>281</ele>
        <time>2013-10-17T13:13:47Z</time>
      </trkpt>
      <trkpt lat="45.67651" lon="6.39342">
        <ele>280</ele>
        <time>2013-10-17T13:13:50Z</time>
      </trkpt>
      <trkpt lat="45.67656" lon="6.39323">
        <ele>280</ele>
        <time>2013-10-17T13:13:53Z</time>
      </trkpt>
      <trkpt lat="45.67664" lon="6.39311">
        <ele>279</ele>
        <time>2013-10-17T13:13:56Z</time>
      </trkpt>
      <trkpt lat="45.67672" lon="6.39301">
        <ele>278</ele>
        <time>2013-10-17T13:13:59Z</time>
      </trkpt>
      <trkpt lat="45.6768" lon="6.39291">
        <ele>278</ele>
        <time>2013-10-17T13:14:02Z</time>
      </trkpt>
      <trkpt lat="45.67688" lon="6.39281">
        <ele>277</ele>
        <time>2013-10-17T13:14:05Z</time>
      </trkpt>
      <trkpt lat="45.67697" lon="6.39268">
        <ele>277</ele>
        <time>2013-10-17T13:14:08Z</time>
      </trkpt>
      <trkpt lat="45.67706" lon="6.39253">
        <ele>277</ele>
        <time>2013-10-17T13:14:11Z</time>
      </trkpt>
      <trkpt lat="45.67717" lon="6.39237">
        <ele>278</ele>
        <time>2013-10-17T13:14:14Z</time>
      </trkpt>
      <trkpt lat="45.67727" lon="6.39222">
        <ele>278</ele>
        <time>2013-10-17T13:14:17Z</time>
      </trkpt>
      <trkpt lat="45.67735" lon="6.3921">
        <ele>277</ele>
        <time>2013-10-17T13:14:20Z</time>
      </trkpt>
      <trkpt lat="45.67744" lon="6.39199">
        <ele>277</ele>
        <time>2013-10-17T13:14:23Z</time>
      </trkpt>
      <trkpt lat="45.67753" lon="6.39185">
        <ele>277</ele>
        <time>2013-10-17T13:14:26Z</time>
      </trkpt>
      <trkpt lat="45.67759" lon="6.39178">
        <ele>278</ele>
        <time>2013-10-17T13:14:28Z</time>
      </trkpt>
      <trkpt lat="45.67767" lon="6.39164">
        <ele>277</ele>
        <time>2013-10-17T13:14:31Z</time>
      </trkpt>
      <trkpt lat="45.67773" lon="6.39156">
        <ele>277</ele>
        <time>2013-10-17T13:14:33Z</time>
      </trkpt>
      <trkpt lat="45.67784" lon="6.39147">
        <ele>277</ele>
        <time>2013-10-17T13:14:36Z</time>
      </trkpt>
      <trkpt lat="45.67791" lon="6.39138">
        <ele>277</ele>
        <time>2013-10-17T13:14:39Z</time>
      </trkpt>
      <trkpt lat="45.67796" lon="6.39129">
        <ele>278</ele>
        <time>2013-10-17T13:14:42Z</time>
      </trkpt>
      <trkpt lat="45.678" lon="6.39115">
        <ele>278</ele>
        <time>2013-10-17T13:14:45Z</time>
      </trkpt>
      <trkpt lat="45.67802" lon="6.39103">
        <ele>278</ele>
        <time>2013-10-17T13:14:47Z</time>
      </trkpt>
      <trkpt lat="45.67808" lon="6.39083">
        <ele>279</ele>
        <time>2013-10-17T13:14:50Z</time>
      </trkpt>
      <trkpt lat="45.67816" lon="6.39066">
        <ele>280</ele>
        <time>2013-10-17T13:14:53Z</time>
      </trkpt>
      <trkpt lat="45.67822" lon="6.39055">
        <ele>281</ele>
        <time>2013-10-17T13:14:55Z</time>
      </trkpt>
      <trkpt lat="45.6783" lon="6.3904">
        <ele>281</ele>
        <time>2013-10-17T13:14:58Z</time>
      </trkpt>
      <trkpt lat="45.6783" lon="6.3903">
        <ele>281</ele>
        <time>2013-10-17T13:15:00Z</time>
      </trkpt>
      <trkpt lat="45.67822" lon="6.39016">
        <ele>280</ele>
        <time>2013-10-17T13:15:03Z</time>
      </trkpt>
      <trkpt lat="45.67814" lon="6.39007">
        <ele>280</ele>
        <time>2013-10-17T13:15:05Z</time>
      </trkpt>
      <trkpt lat="45.67804" lon="6.38995">
        <ele>280</ele>
        <time>2013-10-17T13:15:07Z</time>
      </trkpt>
      <trkpt lat="45.67786" lon="6.3898">
        <ele>280</ele>
        <time>2013-10-17T13:15:10Z</time>
      </trkpt>
      <trkpt lat="45.67773" lon="6.38971">
        <ele>280</ele>
        <time>2013-10-17T13:15:12Z</time>
      </trkpt>
      <trkpt lat="45.67753" lon="6.3896">
        <ele>280</ele>
        <time>2013-10-17T13:15:15Z</time>
      </trkpt>
      <trkpt lat="45.6774" lon="6.38952">
        <ele>279</ele>
        <time>2013-10-17T13:15:17Z</time>
      </trkpt>
      <trkpt lat="45.67727" lon="6.38943">
        <ele>279</ele>
        <time>2013-10-17T13:15:19Z</time>
      </trkpt>
      <trkpt lat="45.67707" lon="6.38931">
        <ele>279</ele>
        <time>2013-10-17T13:15:22Z</time>
      </trkpt>
      <trkpt lat="45.67694" lon="6.38924">
        <ele>278</ele>
        <time>2013-10-17T13:15:24Z</time>
      </trkpt>
      <trkpt lat="45.67675" lon="6.38913">
        <ele>278</ele>
        <time>2013-10-17T13:15:27Z</time>
      </trkpt>
      <trkpt lat="45.67664" lon="6.38907">
        <ele>277</ele>
        <time>2013-10-17T13:15:29Z</time>
      </trkpt>
      <trkpt lat="45.67653" lon="6.38903">
        <ele>277</ele>
        <time>2013-10-17T13:15:31Z</time>
      </trkpt>
      <trkpt lat="45.67636" lon="6.38895">
        <ele>276</ele>
        <time>2013-10-17T13:15:34Z</time>
      </trkpt>
      <trkpt lat="45.67619" lon="6.38896">
        <ele>277</ele>
        <time>2013-10-17T13:15:37Z</time>
      </trkpt>
      <trkpt lat="45.67608" lon="6.38903">
        <ele>276</ele>
        <time>2013-10-17T13:15:39Z</time>
      </trkpt>
      <trkpt lat="45.676" lon="6.38914">
        <ele>276</ele>
        <time>2013-10-17T13:15:41Z</time>
      </trkpt>
      <trkpt lat="45.67593" lon="6.38926">
        <ele>276</ele>
        <time>2013-10-17T13:15:43Z</time>
      </trkpt>
      <trkpt lat="45.67582" lon="6.3894">
        <ele>275</ele>
        <time>2013-10-17T13:15:46Z</time>
      </trkpt>
      <trkpt lat="45.6757" lon="6.38934">
        <ele>275</ele>
        <time>2013-10-17T13:15:49Z</time>
      </trkpt>
      <trkpt lat="45.67561" lon="6.38924">
        <ele>276</ele>
        <time>2013-10-17T13:15:51Z</time>
      </trkpt>
      <trkpt lat="45.67553" lon="6.38915">
        <ele>276</ele>
        <time>2013-10-17T13:15:53Z</time>
      </trkpt>
      <trkpt lat="45.67543" lon="6.38906">
        <ele>276</ele>
        <time>2013-10-17T13:15:56Z</time>
      </trkpt>
      <trkpt lat="45.67533" lon="6.38896">
        <ele>275</ele>
        <time>2013-10-17T13:15:59Z</time>
      </trkpt>
      <trkpt lat="45.67527" lon="6.38887">
        <ele>275</ele>
        <time>2013-10-17T13:16:02Z</time>
      </trkpt>
      <trkpt lat="45.67519" lon="6.38879">
        <ele>275</ele>
        <time>2013-10-17T13:16:04Z</time>
      </trkpt>
      <trkpt lat="45.67506" lon="6.38865">
        <ele>275</ele>
        <time>2013-10-17T13:16:07Z</time>
      </trkpt>
      <trkpt lat="45.67496" lon="6.38846">
        <ele>275</ele>
        <time>2013-10-17T13:16:10Z</time>
      </trkpt>
      <trkpt lat="45.67485" lon="6.38825">
        <ele>275</ele>
        <time>2013-10-17T13:16:13Z</time>
      </trkpt>
      <trkpt lat="45.6748" lon="6.38809">
        <ele>275</ele>
        <time>2013-10-17T13:16:15Z</time>
      </trkpt>
      <trkpt lat="45.67478" lon="6.38784">
        <ele>275</ele>
        <time>2013-10-17T13:16:18Z</time>
      </trkpt>
      <trkpt lat="45.67486" lon="6.38771">
        <ele>275</ele>
        <time>2013-10-17T13:16:20Z</time>
      </trkpt>
      <trkpt lat="45.67495" lon="6.38759">
        <ele>275</ele>
        <time>2013-10-17T13:16:22Z</time>
      </trkpt>
      <trkpt lat="45.67503" lon="6.38747">
        <ele>274</ele>
        <time>2013-10-17T13:16:24Z</time>
      </trkpt>
      <trkpt lat="45.67516" lon="6.38727">
        <ele>274</ele>
        <time>2013-10-17T13:16:27Z</time>
      </trkpt>
      <trkpt lat="45.67529" lon="6.38706">
        <ele>274</ele>
        <time>2013-10-17T13:16:30Z</time>
      </trkpt>
      <trkpt lat="45.67538" lon="6.38695">
        <ele>274</ele>
        <time>2013-10-17T13:16:32Z</time>
      </trkpt>
      <trkpt lat="45.67553" lon="6.38679">
        <ele>273</ele>
        <time>2013-10-17T13:16:35Z</time>
      </trkpt>
      <trkpt lat="45.67567" lon="6.38663">
        <ele>273</ele>
        <time>2013-10-17T13:16:38Z</time>
      </trkpt>
      <trkpt lat="45.67582" lon="6.38647">
        <ele>274</ele>
        <time>2013-10-17T13:16:41Z</time>
      </trkpt>
      <trkpt lat="45.67596" lon="6.38629">
        <ele>276</ele>
        <time>2013-10-17T13:16:44Z</time>
      </trkpt>
      <trkpt lat="45.67606" lon="6.38618">
        <ele>277</ele>
        <time>2013-10-17T13:16:46Z</time>
      </trkpt>
      <trkpt lat="45.67615" lon="6.38607">
        <ele>277</ele>
        <time>2013-10-17T13:16:48Z</time>
      </trkpt>
      <trkpt lat="45.67629" lon="6.38589">
        <ele>276</ele>
        <time>2013-10-17T13:16:51Z</time>
      </trkpt>
      <trkpt lat="45.67638" lon="6.38578">
        <ele>276</ele>
        <time>2013-10-17T13:16:53Z</time>
      </trkpt>
      <trkpt lat="45.67651" lon="6.38562">
        <ele>275</ele>
        <time>2013-10-17T13:16:56Z</time>
      </trkpt>
      <trkpt lat="45.67666" lon="6.38545">
        <ele>275</ele>
        <time>2013-10-17T13:16:59Z</time>
      </trkpt>
      <trkpt lat="45.67676" lon="6.38534">
        <ele>275</ele>
        <time>2013-10-17T13:17:01Z</time>
      </trkpt>
      <trkpt lat="45.6769" lon="6.38518">
        <ele>275</ele>
        <time>2013-10-17T13:17:04Z</time>
      </trkpt>
      <trkpt lat="45.67698" lon="6.38507">
        <ele>275</ele>
        <time>2013-10-17T13:17:06Z</time>
      </trkpt>
      <trkpt lat="45.67709" lon="6.38489">
        <ele>274</ele>
        <time>2013-10-17T13:17:09Z</time>
      </trkpt>
      <trkpt lat="45.67707" lon="6.38474">
        <ele>274</ele>
        <time>2013-10-17T13:17:11Z</time>
      </trkpt>
      <trkpt lat="45.67701" lon="6.3845">
        <ele>274</ele>
        <time>2013-10-17T13:17:14Z</time>
      </trkpt>
      <trkpt lat="45.67694" lon="6.38426">
        <ele>276</ele>
        <time>2013-10-17T13:17:17Z</time>
      </trkpt>
      <trkpt lat="45.67689" lon="6.38409">
        <ele>275</ele>
        <time>2013-10-17T13:17:19Z</time>
      </trkpt>
      <trkpt lat="45.67684" lon="6.38391">
        <ele>275</ele>
        <time>2013-10-17T13:17:21Z</time>
      </trkpt>
      <trkpt lat="45.67677" lon="6.38366">
        <ele>275</ele>
        <time>2013-10-17T13:17:24Z</time>
      </trkpt>
      <trkpt lat="45.67672" lon="6.38348">
        <ele>275</ele>
        <time>2013-10-17T13:17:26Z</time>
      </trkpt>
      <trkpt lat="45.67664" lon="6.38323">
        <ele>276</ele>
        <time>2013-10-17T13:17:29Z</time>
      </trkpt>
      <trkpt lat="45.67656" lon="6.38297">
        <ele>275</ele>
        <time>2013-10-17T13:17:32Z</time>
      </trkpt>
      <trkpt lat="45.67651" lon="6.38279">
        <ele>276</ele>
        <time>2013-10-17T13:17:34Z</time>
      </trkpt>
      <trkpt lat="45.67646" lon="6.38261">
        <ele>275</ele>
        <time>2013-10-17T13:17:36Z</time>
      </trkpt>
      <trkpt lat="45.67641" lon="6.38244">
        <ele>275</ele>
        <time>2013-10-17T13:17:38Z</time>
      </trkpt>
      <trkpt lat="45.67633" lon="6.38217">
        <ele>275</ele>
        <time>2013-10-17T13:17:41Z</time>
      </trkpt>
      <trkpt lat="45.67627" lon="6.382">
        <ele>274</ele>
        <time>2013-10-17T13:17:43Z</time>
      </trkpt>
      <trkpt lat="45.67616" lon="6.38175">
        <ele>275</ele>
        <time>2013-10-17T13:17:46Z</time>
      </trkpt>
      <trkpt lat="45.67608" lon="6.38159">
        <ele>275</ele>
        <time>2013-10-17T13:17:48Z</time>
      </trkpt>
      <trkpt lat="45.67597" lon="6.38134">
        <ele>276</ele>
        <time>2013-10-17T13:17:51Z</time>
      </trkpt>
      <trkpt lat="45.67586" lon="6.3811">
        <ele>276</ele>
        <time>2013-10-17T13:17:54Z</time>
      </trkpt>
      <trkpt lat="45.67575" lon="6.38088">
        <ele>274</ele>
        <time>2013-10-17T13:17:57Z</time>
      </trkpt>
      <trkpt lat="45.67566" lon="6.38074">
        <ele>274</ele>
        <time>2013-10-17T13:17:59Z</time>
      </trkpt>
      <trkpt lat="45.67553" lon="6.38054">
        <ele>274</ele>
        <time>2013-10-17T13:18:02Z</time>
      </trkpt>
      <trkpt lat="45.67543" lon="6.38041">
        <ele>273</ele>
        <time>2013-10-17T13:18:04Z</time>
      </trkpt>
      <trkpt lat="45.67528" lon="6.38024">
        <ele>273</ele>
        <time>2013-10-17T13:18:07Z</time>
      </trkpt>
      <trkpt lat="45.67511" lon="6.3801">
        <ele>274</ele>
        <time>2013-10-17T13:18:10Z</time>
      </trkpt>
      <trkpt lat="45.67499" lon="6.38001">
        <ele>274</ele>
        <time>2013-10-17T13:18:12Z</time>
      </trkpt>
      <trkpt lat="45.6748" lon="6.37989">
        <ele>274</ele>
        <time>2013-10-17T13:18:15Z</time>
      </trkpt>
      <trkpt lat="45.67467" lon="6.37982">
        <ele>274</ele>
        <time>2013-10-17T13:18:17Z</time>
      </trkpt>
      <trkpt lat="45.6745" lon="6.37968">
        <ele>273</ele>
        <time>2013-10-17T13:18:20Z</time>
      </trkpt>
      <trkpt lat="45.67434" lon="6.37951">
        <ele>273</ele>
        <time>2013-10-17T13:18:23Z</time>
      </trkpt>
      <trkpt lat="45.6742" lon="6.37932">
        <ele>273</ele>
        <time>2013-10-17T13:18:26Z</time>
      </trkpt>
      <trkpt lat="45.67407" lon="6.37913">
        <ele>274</ele>
        <time>2013-10-17T13:18:29Z</time>
      </trkpt>
      <trkpt lat="45.67399" lon="6.379">
        <ele>274</ele>
        <time>2013-10-17T13:18:31Z</time>
      </trkpt>
      <trkpt lat="45.67388" lon="6.37884">
        <ele>273</ele>
        <time>2013-10-17T13:18:34Z</time>
      </trkpt>
      <trkpt lat="45.67393" lon="6.37833">
        <ele>270</ele>
        <time>2013-10-17T13:18:36Z</time>
      </trkpt>
      <trkpt lat="45.67387" lon="6.37824">
        <ele>270</ele>
        <time>2013-10-17T13:18:39Z</time>
      </trkpt>
      <trkpt lat="45.67385" lon="6.3782">
        <ele>270</ele>
        <time>2013-10-17T13:18:41Z</time>
      </trkpt>
      <trkpt lat="45.67384" lon="6.3781">
        <ele>270</ele>
        <time>2013-10-17T13:18:44Z</time>
      </trkpt>
      <trkpt lat="45.67386" lon="6.37798">
        <ele>270</ele>
        <time>2013-10-17T13:18:47Z</time>
      </trkpt>
      <trkpt lat="45.67388" lon="6.37789">
        <ele>270</ele>
        <time>2013-10-17T13:18:49Z</time>
      </trkpt>
      <trkpt lat="45.67393" lon="6.3777">
        <ele>270</ele>
        <time>2013-10-17T13:18:52Z</time>
      </trkpt>
      <trkpt lat="45.67398" lon="6.37749">
        <ele>271</ele>
        <time>2013-10-17T13:18:55Z</time>
      </trkpt>
      <trkpt lat="45.67403" lon="6.37726">
        <ele>271</ele>
        <time>2013-10-17T13:18:58Z</time>
      </trkpt>
      <trkpt lat="45.6741" lon="6.37703">
        <ele>272</ele>
        <time>2013-10-17T13:19:01Z</time>
      </trkpt>
      <trkpt lat="45.67413" lon="6.37687">
        <ele>272</ele>
        <time>2013-10-17T13:19:03Z</time>
      </trkpt>
      <trkpt lat="45.67419" lon="6.37664">
        <ele>272</ele>
        <time>2013-10-17T13:19:06Z</time>
      </trkpt>
      <trkpt lat="45.67425" lon="6.37642">
        <ele>272</ele>
        <time>2013-10-17T13:19:09Z</time>
      </trkpt>
      <trkpt lat="45.67431" lon="6.37621">
        <ele>271</ele>
        <time>2013-10-17T13:19:12Z</time>
      </trkpt>
      <trkpt lat="45.67435" lon="6.37606">
        <ele>272</ele>
        <time>2013-10-17T13:19:14Z</time>
      </trkpt>
      <trkpt lat="45.6744" lon="6.37582">
        <ele>273</ele>
        <time>2013-10-17T13:19:17Z</time>
      </trkpt>
      <trkpt lat="45.67447" lon="6.37558">
        <ele>274</ele>
        <time>2013-10-17T13:19:20Z</time>
      </trkpt>
      <trkpt lat="45.6745" lon="6.37541">
        <ele>274</ele>
        <time>2013-10-17T13:19:22Z</time>
      </trkpt>
      <trkpt lat="45.67454" lon="6.37514">
        <ele>275</ele>
        <time>2013-10-17T13:19:25Z</time>
      </trkpt>
      <trkpt lat="45.67459" lon="6.37489">
        <ele>274</ele>
        <time>2013-10-17T13:19:28Z</time>
      </trkpt>
      <trkpt lat="45.67462" lon="6.37472">
        <ele>275</ele>
        <time>2013-10-17T13:19:30Z</time>
      </trkpt>
      <trkpt lat="45.67464" lon="6.37446">
        <ele>274</ele>
        <time>2013-10-17T13:19:33Z</time>
      </trkpt>
      <trkpt lat="45.67463" lon="6.37429">
        <ele>275</ele>
        <time>2013-10-17T13:19:35Z</time>
      </trkpt>
      <trkpt lat="45.67463" lon="6.37404">
        <ele>275</ele>
        <time>2013-10-17T13:19:38Z</time>
      </trkpt>
      <trkpt lat="45.67463" lon="6.3738">
        <ele>275</ele>
        <time>2013-10-17T13:19:41Z</time>
      </trkpt>
      <trkpt lat="45.67463" lon="6.37355">
        <ele>276</ele>
        <time>2013-10-17T13:19:44Z</time>
      </trkpt>
      <trkpt lat="45.67465" lon="6.37339">
        <ele>276</ele>
        <time>2013-10-17T13:19:46Z</time>
      </trkpt>
      <trkpt lat="45.67467" lon="6.37317">
        <ele>278</ele>
        <time>2013-10-17T13:19:49Z</time>
      </trkpt>
      <trkpt lat="45.6747" lon="6.37302">
        <ele>278</ele>
        <time>2013-10-17T13:19:51Z</time>
      </trkpt>
      <trkpt lat="45.67476" lon="6.37282">
        <ele>278</ele>
        <time>2013-10-17T13:19:54Z</time>
      </trkpt>
      <trkpt lat="45.67483" lon="6.37263">
        <ele>278</ele>
        <time>2013-10-17T13:19:57Z</time>
      </trkpt>
      <trkpt lat="45.67487" lon="6.37252">
        <ele>278</ele>
        <time>2013-10-17T13:19:59Z</time>
      </trkpt>
      <trkpt lat="45.67494" lon="6.37235">
        <ele>279</ele>
        <time>2013-10-17T13:20:02Z</time>
      </trkpt>
      <trkpt lat="45.67498" lon="6.37225">
        <ele>280</ele>
        <time>2013-10-17T13:20:04Z</time>
      </trkpt>
      <trkpt lat="45.67502" lon="6.37216">
        <ele>280</ele>
        <time>2013-10-17T13:20:06Z</time>
      </trkpt>
      <trkpt lat="45.67505" lon="6.37208">
        <ele>281</ele>
        <time>2013-10-17T13:20:08Z</time>
      </trkpt>
      <trkpt lat="45.6751" lon="6.37197">
        <ele>282</ele>
        <time>2013-10-17T13:20:11Z</time>
      </trkpt>
      <trkpt lat="45.67514" lon="6.37187">
        <ele>283</ele>
        <time>2013-10-17T13:20:14Z</time>
      </trkpt>
      <trkpt lat="45.67516" lon="6.37181">
        <ele>283</ele>
        <time>2013-10-17T13:20:16Z</time>
      </trkpt>
      <trkpt lat="45.67518" lon="6.37169">
        <ele>284</ele>
        <time>2013-10-17T13:20:19Z</time>
      </trkpt>
      <trkpt lat="45.6752" lon="6.3716">
        <ele>285</ele>
        <time>2013-10-17T13:20:21Z</time>
      </trkpt>
      <trkpt lat="45.67521" lon="6.37146">
        <ele>286</ele>
        <time>2013-10-17T13:20:24Z</time>
      </trkpt>
      <trkpt lat="45.6752" lon="6.37137">
        <ele>286</ele>
        <time>2013-10-17T13:20:26Z</time>
      </trkpt>
      <trkpt lat="45.67517" lon="6.37123">
        <ele>287</ele>
        <time>2013-10-17T13:20:29Z</time>
      </trkpt>
      <trkpt lat="45.67515" lon="6.37114">
        <ele>288</ele>
        <time>2013-10-17T13:20:31Z</time>
      </trkpt>
      <trkpt lat="45.67512" lon="6.37101">
        <ele>289</ele>
        <time>2013-10-17T13:20:34Z</time>
      </trkpt>
      <trkpt lat="45.6751" lon="6.37093">
        <ele>290</ele>
        <time>2013-10-17T13:20:36Z</time>
      </trkpt>
      <trkpt lat="45.67506" lon="6.37081">
        <ele>291</ele>
        <time>2013-10-17T13:20:39Z</time>
      </trkpt>
      <trkpt lat="45.67503" lon="6.3707">
        <ele>292</ele>
        <time>2013-10-17T13:20:42Z</time>
      </trkpt>
      <trkpt lat="45.67498" lon="6.37059">
        <ele>292</ele>
        <time>2013-10-17T13:20:45Z</time>
      </trkpt>
      <trkpt lat="45.67496" lon="6.37052">
        <ele>293</ele>
        <time>2013-10-17T13:20:47Z</time>
      </trkpt>
      <trkpt lat="45.67491" lon="6.37041">
        <ele>294</ele>
        <time>2013-10-17T13:20:50Z</time>
      </trkpt>
      <trkpt lat="45.67488" lon="6.37034">
        <ele>295</ele>
        <time>2013-10-17T13:20:52Z</time>
      </trkpt>
      <trkpt lat="45.67485" lon="6.37027">
        <ele>295</ele>
        <time>2013-10-17T13:20:54Z</time>
      </trkpt>
      <trkpt lat="45.67479" lon="6.37016">
        <ele>296</ele>
        <time>2013-10-17T13:20:57Z</time>
      </trkpt>
      <trkpt lat="45.67471" lon="6.37007">
        <ele>297</ele>
        <time>2013-10-17T13:21:00Z</time>
      </trkpt>
      <trkpt lat="45.67464" lon="6.36997">
        <ele>298</ele>
        <time>2013-10-17T13:21:03Z</time>
      </trkpt>
      <trkpt lat="45.67455" lon="6.36988">
        <ele>299</ele>
        <time>2013-10-17T13:21:06Z</time>
      </trkpt>
      <trkpt lat="45.67445" lon="6.36979">
        <ele>300</ele>
        <time>2013-10-17T13:21:09Z</time>
      </trkpt>
      <trkpt lat="45.67437" lon="6.36971">
        <ele>301</ele>
        <time>2013-10-17T13:21:12Z</time>
      </trkpt>
      <trkpt lat="45.67432" lon="6.36965">
        <ele>302</ele>
        <time>2013-10-17T13:21:14Z</time>
      </trkpt>
      <trkpt lat="45.67424" lon="6.36955">
        <ele>303</ele>
        <time>2013-10-17T13:21:17Z</time>
      </trkpt>
      <trkpt lat="45.67416" lon="6.36945">
        <ele>303</ele>
        <time>2013-10-17T13:21:20Z</time>
      </trkpt>
      <trkpt lat="45.67411" lon="6.36939">
        <ele>304</ele>
        <time>2013-10-17T13:21:22Z</time>
      </trkpt>
      <trkpt lat="45.67404" lon="6.36929">
        <ele>305</ele>
        <time>2013-10-17T13:21:25Z</time>
      </trkpt>
      <trkpt lat="45.674" lon="6.36922">
        <ele>306</ele>
        <time>2013-10-17T13:21:27Z</time>
      </trkpt>
      <trkpt lat="45.67393" lon="6.36912">
        <ele>307</ele>
        <time>2013-10-17T13:21:30Z</time>
      </trkpt>
      <trkpt lat="45.67388" lon="6.369">
        <ele>308</ele>
        <time>2013-10-17T13:21:33Z</time>
      </trkpt>
      <trkpt lat="45.67384" lon="6.36893">
        <ele>308</ele>
        <time>2013-10-17T13:21:35Z</time>
      </trkpt>
      <trkpt lat="45.6738" lon="6.36884">
        <ele>309</ele>
        <time>2013-10-17T13:21:37Z</time>
      </trkpt>
      <trkpt lat="45.67375" lon="6.36872">
        <ele>310</ele>
        <time>2013-10-17T13:21:40Z</time>
      </trkpt>
      <trkpt lat="45.6737" lon="6.36859">
        <ele>311</ele>
        <time>2013-10-17T13:21:43Z</time>
      </trkpt>
      <trkpt lat="45.67365" lon="6.36846">
        <ele>312</ele>
        <time>2013-10-17T13:21:46Z</time>
      </trkpt>
      <trkpt lat="45.67361" lon="6.36833">
        <ele>313</ele>
        <time>2013-10-17T13:21:49Z</time>
      </trkpt>
      <trkpt lat="45.67356" lon="6.3682">
        <ele>315</ele>
        <time>2013-10-17T13:21:52Z</time>
      </trkpt>
      <trkpt lat="45.67355" lon="6.36811">
        <ele>316</ele>
        <time>2013-10-17T13:21:54Z</time>
      </trkpt>
      <trkpt lat="45.67353" lon="6.36796">
        <ele>316</ele>
        <time>2013-10-17T13:21:57Z</time>
      </trkpt>
      <trkpt lat="45.67355" lon="6.36783">
        <ele>317</ele>
        <time>2013-10-17T13:22:00Z</time>
      </trkpt>
      <trkpt lat="45.67356" lon="6.36774">
        <ele>318</ele>
        <time>2013-10-17T13:22:02Z</time>
      </trkpt>
      <trkpt lat="45.67358" lon="6.36765">
        <ele>319</ele>
        <time>2013-10-17T13:22:04Z</time>
      </trkpt>
      <trkpt lat="45.67361" lon="6.36751">
        <ele>320</ele>
        <time>2013-10-17T13:22:07Z</time>
      </trkpt>
      <trkpt lat="45.67362" lon="6.36743">
        <ele>320</ele>
        <time>2013-10-17T13:22:09Z</time>
      </trkpt>
      <trkpt lat="45.67365" lon="6.3673">
        <ele>321</ele>
        <time>2013-10-17T13:22:12Z</time>
      </trkpt>
      <trkpt lat="45.67366" lon="6.36722">
        <ele>322</ele>
        <time>2013-10-17T13:22:14Z</time>
      </trkpt>
      <trkpt lat="45.67364" lon="6.36708">
        <ele>323</ele>
        <time>2013-10-17T13:22:17Z</time>
      </trkpt>
      <trkpt lat="45.67361" lon="6.367">
        <ele>324</ele>
        <time>2013-10-17T13:22:19Z</time>
      </trkpt>
      <trkpt lat="45.67353" lon="6.36691">
        <ele>324</ele>
        <time>2013-10-17T13:22:22Z</time>
      </trkpt>
      <trkpt lat="45.67348" lon="6.36684">
        <ele>325</ele>
        <time>2013-10-17T13:22:24Z</time>
      </trkpt>
      <trkpt lat="45.67342" lon="6.36677">
        <ele>327</ele>
        <time>2013-10-17T13:22:26Z</time>
      </trkpt>
      <trkpt lat="45.67341" lon="6.36662">
        <ele>328</ele>
        <time>2013-10-17T13:22:29Z</time>
      </trkpt>
      <trkpt lat="45.67345" lon="6.36653">
        <ele>328</ele>
        <time>2013-10-17T13:22:31Z</time>
      </trkpt>
      <trkpt lat="45.67355" lon="6.36648">
        <ele>329</ele>
        <time>2013-10-17T13:22:34Z</time>
      </trkpt>
      <trkpt lat="45.67366" lon="6.36646">
        <ele>330</ele>
        <time>2013-10-17T13:22:37Z</time>
      </trkpt>
      <trkpt lat="45.67373" lon="6.36646">
        <ele>330</ele>
        <time>2013-10-17T13:22:39Z</time>
      </trkpt>
      <trkpt lat="45.67383" lon="6.36644">
        <ele>331</ele>
        <time>2013-10-17T13:22:42Z</time>
      </trkpt>
      <trkpt lat="45.67392" lon="6.36646">
        <ele>332</ele>
        <time>2013-10-17T13:22:45Z</time>
      </trkpt>
      <trkpt lat="45.67398" lon="6.36649">
        <ele>332</ele>
        <time>2013-10-17T13:22:47Z</time>
      </trkpt>
      <trkpt lat="45.67406" lon="6.36656">
        <ele>333</ele>
        <time>2013-10-17T13:22:50Z</time>
      </trkpt>
      <trkpt lat="45.67414" lon="6.36663">
        <ele>333</ele>
        <time>2013-10-17T13:22:53Z</time>
      </trkpt>
      <trkpt lat="45.67421" lon="6.36672">
        <ele>334</ele>
        <time>2013-10-17T13:22:56Z</time>
      </trkpt>
      <trkpt lat="45.67427" lon="6.36677">
        <ele>335</ele>
        <time>2013-10-17T13:22:58Z</time>
      </trkpt>
      <trkpt lat="45.67434" lon="6.36681">
        <ele>335</ele>
        <time>2013-10-17T13:23:00Z</time>
      </trkpt>
      <trkpt lat="45.67445" lon="6.3668">
        <ele>336</ele>
        <time>2013-10-17T13:23:03Z</time>
      </trkpt>
      <trkpt lat="45.6745" lon="6.36671">
        <ele>336</ele>
        <time>2013-10-17T13:23:05Z</time>
      </trkpt>
      <trkpt lat="45.6745" lon="6.3666">
        <ele>337</ele>
        <time>2013-10-17T13:23:07Z</time>
      </trkpt>
      <trkpt lat="45.67448" lon="6.3665">
        <ele>338</ele>
        <time>2013-10-17T13:23:09Z</time>
      </trkpt>
      <trkpt lat="45.67443" lon="6.36635">
        <ele>339</ele>
        <time>2013-10-17T13:23:12Z</time>
      </trkpt>
      <trkpt lat="45.67441" lon="6.36626">
        <ele>340</ele>
        <time>2013-10-17T13:23:14Z</time>
      </trkpt>
      <trkpt lat="45.67441" lon="6.36611">
        <ele>340</ele>
        <time>2013-10-17T13:23:17Z</time>
      </trkpt>
      <trkpt lat="45.67442" lon="6.366">
        <ele>341</ele>
        <time>2013-10-17T13:23:19Z</time>
      </trkpt>
      <trkpt lat="45.67443" lon="6.36591">
        <ele>342</ele>
        <time>2013-10-17T13:23:21Z</time>
      </trkpt>
      <trkpt lat="45.67447" lon="6.36577">
        <ele>342</ele>
        <time>2013-10-17T13:23:24Z</time>
      </trkpt>
      <trkpt lat="45.67446" lon="6.36563">
        <ele>343</ele>
        <time>2013-10-17T13:23:27Z</time>
      </trkpt>
      <trkpt lat="45.67437" lon="6.36551">
        <ele>344</ele>
        <time>2013-10-17T13:23:30Z</time>
      </trkpt>
      <trkpt lat="45.67432" lon="6.36541">
        <ele>345</ele>
        <time>2013-10-17T13:23:32Z</time>
      </trkpt>
      <trkpt lat="45.67434" lon="6.36523">
        <ele>346</ele>
        <time>2013-10-17T13:23:35Z</time>
      </trkpt>
      <trkpt lat="45.67436" lon="6.36511">
        <ele>346</ele>
        <time>2013-10-17T13:23:37Z</time>
      </trkpt>
      <trkpt lat="45.67439" lon="6.36493">
        <ele>347</ele>
        <time>2013-10-17T13:23:40Z</time>
      </trkpt>
      <trkpt lat="45.6744" lon="6.36482">
        <ele>347</ele>
        <time>2013-10-17T13:23:42Z</time>
      </trkpt>
      <trkpt lat="45.67441" lon="6.36468">
        <ele>348</ele>
        <time>2013-10-17T13:23:45Z</time>
      </trkpt>
      <trkpt lat="45.67445" lon="6.3646">
        <ele>348</ele>
        <time>2013-10-17T13:23:47Z</time>
      </trkpt>
      <trkpt lat="45.6745" lon="6.36458">
        <ele>348</ele>
        <time>2013-10-17T13:23:49Z</time>
      </trkpt>
      <trkpt lat="45.67459" lon="6.36463">
        <ele>349</ele>
        <time>2013-10-17T13:23:52Z</time>
      </trkpt>
      <trkpt lat="45.67466" lon="6.36465">
        <ele>350</ele>
        <time>2013-10-17T13:23:54Z</time>
      </trkpt>
      <trkpt lat="45.67472" lon="6.36464">
        <ele>351</ele>
        <time>2013-10-17T13:23:56Z</time>
      </trkpt>
      <trkpt lat="45.6748" lon="6.36456">
        <ele>352</ele>
        <time>2013-10-17T13:23:59Z</time>
      </trkpt>
      <trkpt lat="45.67485" lon="6.36448">
        <ele>352</ele>
        <time>2013-10-17T13:24:01Z</time>
      </trkpt>
      <trkpt lat="45.6749" lon="6.36441">
        <ele>353</ele>
        <time>2013-10-17T13:24:03Z</time>
      </trkpt>
      <trkpt lat="45.67496" lon="6.36429">
        <ele>354</ele>
        <time>2013-10-17T13:24:06Z</time>
      </trkpt>
      <trkpt lat="45.67502" lon="6.36417">
        <ele>355</ele>
        <time>2013-10-17T13:24:09Z</time>
      </trkpt>
      <trkpt lat="45.67505" lon="6.36409">
        <ele>356</ele>
        <time>2013-10-17T13:24:11Z</time>
      </trkpt>
      <trkpt lat="45.67511" lon="6.36397">
        <ele>358</ele>
        <time>2013-10-17T13:24:14Z</time>
      </trkpt>
      <trkpt lat="45.67514" lon="6.36389">
        <ele>358</ele>
        <time>2013-10-17T13:24:16Z</time>
      </trkpt>
      <trkpt lat="45.67516" lon="6.36381">
        <ele>358</ele>
        <time>2013-10-17T13:24:18Z</time>
      </trkpt>
      <trkpt lat="45.67519" lon="6.36369">
        <ele>360</ele>
        <time>2013-10-17T13:24:21Z</time>
      </trkpt>
      <trkpt lat="45.67522" lon="6.36357">
        <ele>360</ele>
        <time>2013-10-17T13:24:24Z</time>
      </trkpt>
      <trkpt lat="45.67524" lon="6.36349">
        <ele>361</ele>
        <time>2013-10-17T13:24:26Z</time>
      </trkpt>
      <trkpt lat="45.67526" lon="6.36336">
        <ele>361</ele>
        <time>2013-10-17T13:24:29Z</time>
      </trkpt>
      <trkpt lat="45.67527" lon="6.36328">
        <ele>362</ele>
        <time>2013-10-17T13:24:31Z</time>
      </trkpt>
      <trkpt lat="45.67529" lon="6.36315">
        <ele>364</ele>
        <time>2013-10-17T13:24:34Z</time>
      </trkpt>
      <trkpt lat="45.67532" lon="6.36307">
        <ele>364</ele>
        <time>2013-10-17T13:24:36Z</time>
      </trkpt>
      <trkpt lat="45.67534" lon="6.36299">
        <ele>365</ele>
        <time>2013-10-17T13:24:38Z</time>
      </trkpt>
      <trkpt lat="45.67537" lon="6.36286">
        <ele>366</ele>
        <time>2013-10-17T13:24:41Z</time>
      </trkpt>
      <trkpt lat="45.6754" lon="6.36278">
        <ele>367</ele>
        <time>2013-10-17T13:24:43Z</time>
      </trkpt>
      <trkpt lat="45.67544" lon="6.36265">
        <ele>367</ele>
        <time>2013-10-17T13:24:46Z</time>
      </trkpt>
      <trkpt lat="45.67547" lon="6.36258">
        <ele>368</ele>
        <time>2013-10-17T13:24:48Z</time>
      </trkpt>
      <trkpt lat="45.6755" lon="6.3625">
        <ele>369</ele>
        <time>2013-10-17T13:24:50Z</time>
      </trkpt>
      <trkpt lat="45.67555" lon="6.36238">
        <ele>370</ele>
        <time>2013-10-17T13:24:53Z</time>
      </trkpt>
      <trkpt lat="45.67562" lon="6.36228">
        <ele>371</ele>
        <time>2013-10-17T13:24:56Z</time>
      </trkpt>
      <trkpt lat="45.67568" lon="6.36221">
        <ele>371</ele>
        <time>2013-10-17T13:24:58Z</time>
      </trkpt>
      <trkpt lat="45.67574" lon="6.36215">
        <ele>373</ele>
        <time>2013-10-17T13:25:00Z</time>
      </trkpt>
      <trkpt lat="45.67584" lon="6.36207">
        <ele>373</ele>
        <time>2013-10-17T13:25:03Z</time>
      </trkpt>
      <trkpt lat="45.67595" lon="6.36201">
        <ele>374</ele>
        <time>2013-10-17T13:25:06Z</time>
      </trkpt>
      <trkpt lat="45.67603" lon="6.36198">
        <ele>375</ele>
        <time>2013-10-17T13:25:08Z</time>
      </trkpt>
      <trkpt lat="45.6761" lon="6.36195">
        <ele>375</ele>
        <time>2013-10-17T13:25:10Z</time>
      </trkpt>
      <trkpt lat="45.67617" lon="6.36193">
        <ele>376</ele>
        <time>2013-10-17T13:25:12Z</time>
      </trkpt>
      <trkpt lat="45.67631" lon="6.36188">
        <ele>377</ele>
        <time>2013-10-17T13:25:15Z</time>
      </trkpt>
      <trkpt lat="45.67643" lon="6.3618">
        <ele>377</ele>
        <time>2013-10-17T13:25:17Z</time>
      </trkpt>
      <trkpt lat="45.6766" lon="6.36161">
        <ele>376</ele>
        <time>2013-10-17T13:25:20Z</time>
      </trkpt>
      <trkpt lat="45.6767" lon="6.36141">
        <ele>376</ele>
        <time>2013-10-17T13:25:22Z</time>
      </trkpt>
      <trkpt lat="45.6768" lon="6.36119">
        <ele>374</ele>
        <time>2013-10-17T13:25:24Z</time>
      </trkpt>
      <trkpt lat="45.67691" lon="6.36096">
        <ele>374</ele>
        <time>2013-10-17T13:25:26Z</time>
      </trkpt>
      <trkpt lat="45.67711" lon="6.36061">
        <ele>373</ele>
        <time>2013-10-17T13:25:29Z</time>
      </trkpt>
      <trkpt lat="45.67728" lon="6.36038">
        <ele>372</ele>
        <time>2013-10-17T13:25:31Z</time>
      </trkpt>
      <trkpt lat="45.67754" lon="6.36003">
        <ele>371</ele>
        <time>2013-10-17T13:25:34Z</time>
      </trkpt>
      <trkpt lat="45.6778" lon="6.35968">
        <ele>369</ele>
        <time>2013-10-17T13:25:37Z</time>
      </trkpt>
      <trkpt lat="45.67799" lon="6.35947">
        <ele>367</ele>
        <time>2013-10-17T13:25:39Z</time>
      </trkpt>
      <trkpt lat="45.67819" lon="6.35932">
        <ele>366</ele>
        <time>2013-10-17T13:25:41Z</time>
      </trkpt>
      <trkpt lat="45.67854" lon="6.35921">
        <ele>363</ele>
        <time>2013-10-17T13:25:44Z</time>
      </trkpt>
      <trkpt lat="45.67887" lon="6.35898">
        <ele>359</ele>
        <time>2013-10-17T13:25:47Z</time>
      </trkpt>
      <trkpt lat="45.67902" lon="6.3587">
        <ele>357</ele>
        <time>2013-10-17T13:25:49Z</time>
      </trkpt>
      <trkpt lat="45.67915" lon="6.35843">
        <ele>356</ele>
        <time>2013-10-17T13:25:51Z</time>
      </trkpt>
      <trkpt lat="45.67939" lon="6.35816">
        <ele>352</ele>
        <time>2013-10-17T13:25:54Z</time>
      </trkpt>
      <trkpt lat="45.67957" lon="6.35806">
        <ele>351</ele>
        <time>2013-10-17T13:25:56Z</time>
      </trkpt>
      <trkpt lat="45.67974" lon="6.35803">
        <ele>350</ele>
        <time>2013-10-17T13:25:58Z</time>
      </trkpt>
      <trkpt lat="45.67999" lon="6.35804">
        <ele>350</ele>
        <time>2013-10-17T13:26:01Z</time>
      </trkpt>
      <trkpt lat="45.68013" lon="6.35806">
        <ele>351</ele>
        <time>2013-10-17T13:26:03Z</time>
      </trkpt>
      <trkpt lat="45.68032" lon="6.35808">
        <ele>351</ele>
        <time>2013-10-17T13:26:06Z</time>
      </trkpt>
      <trkpt lat="45.68044" lon="6.3581">
        <ele>352</ele>
        <time>2013-10-17T13:26:08Z</time>
      </trkpt>
      <trkpt lat="45.68061" lon="6.35813">
        <ele>353</ele>
        <time>2013-10-17T13:26:11Z</time>
      </trkpt>
      <trkpt lat="45.68073" lon="6.35815">
        <ele>353</ele>
        <time>2013-10-17T13:26:13Z</time>
      </trkpt>
      <trkpt lat="45.68089" lon="6.35822">
        <ele>354</ele>
        <time>2013-10-17T13:26:16Z</time>
      </trkpt>
      <trkpt lat="45.681" lon="6.35827">
        <ele>355</ele>
        <time>2013-10-17T13:26:18Z</time>
      </trkpt>
      <trkpt lat="45.68115" lon="6.35835">
        <ele>356</ele>
        <time>2013-10-17T13:26:21Z</time>
      </trkpt>
      <trkpt lat="45.68125" lon="6.35841">
        <ele>356</ele>
        <time>2013-10-17T13:26:23Z</time>
      </trkpt>
      <trkpt lat="45.68139" lon="6.35848">
        <ele>357</ele>
        <time>2013-10-17T13:26:26Z</time>
      </trkpt>
      <trkpt lat="45.68153" lon="6.35856">
        <ele>359</ele>
        <time>2013-10-17T13:26:29Z</time>
      </trkpt>
      <trkpt lat="45.68167" lon="6.35864">
        <ele>360</ele>
        <time>2013-10-17T13:26:32Z</time>
      </trkpt>
      <trkpt lat="45.68182" lon="6.35872">
        <ele>360</ele>
        <time>2013-10-17T13:26:35Z</time>
      </trkpt>
      <trkpt lat="45.68192" lon="6.35877">
        <ele>361</ele>
        <time>2013-10-17T13:26:37Z</time>
      </trkpt>
      <trkpt lat="45.68202" lon="6.35883">
        <ele>361</ele>
        <time>2013-10-17T13:26:39Z</time>
      </trkpt>
      <trkpt lat="45.68216" lon="6.35892">
        <ele>361</ele>
        <time>2013-10-17T13:26:42Z</time>
      </trkpt>
      <trkpt lat="45.68225" lon="6.359">
        <ele>362</ele>
        <time>2013-10-17T13:26:44Z</time>
      </trkpt>
      <trkpt lat="45.68233" lon="6.35908">
        <ele>363</ele>
        <time>2013-10-17T13:26:46Z</time>
      </trkpt>
      <trkpt lat="45.68242" lon="6.35915">
        <ele>364</ele>
        <time>2013-10-17T13:26:48Z</time>
      </trkpt>
      <trkpt lat="45.6825" lon="6.35922">
        <ele>364</ele>
        <time>2013-10-17T13:26:50Z</time>
      </trkpt>
      <trkpt lat="45.68259" lon="6.3593">
        <ele>364</ele>
        <time>2013-10-17T13:26:52Z</time>
      </trkpt>
      <trkpt lat="45.68267" lon="6.35937">
        <ele>365</ele>
        <time>2013-10-17T13:26:54Z</time>
      </trkpt>
      <trkpt lat="45.68275" lon="6.35945">
        <ele>365</ele>
        <time>2013-10-17T13:26:56Z</time>
      </trkpt>
      <trkpt lat="45.68283" lon="6.35952">
        <ele>366</ele>
        <time>2013-10-17T13:26:58Z</time>
      </trkpt>
      <trkpt lat="45.6829" lon="6.35959">
        <ele>367</ele>
        <time>2013-10-17T13:27:00Z</time>
      </trkpt>
      <trkpt lat="45.68298" lon="6.35966">
        <ele>367</ele>
        <time>2013-10-17T13:27:02Z</time>
      </trkpt>
      <trkpt lat="45.68305" lon="6.35973">
        <ele>368</ele>
        <time>2013-10-17T13:27:04Z</time>
      </trkpt>
      <trkpt lat="45.68313" lon="6.3598">
        <ele>369</ele>
        <time>2013-10-17T13:27:06Z</time>
      </trkpt>
      <trkpt lat="45.68324" lon="6.35991">
        <ele>371</ele>
        <time>2013-10-17T13:27:09Z</time>
      </trkpt>
      <trkpt lat="45.68336" lon="6.36002">
        <ele>371</ele>
        <time>2013-10-17T13:27:12Z</time>
      </trkpt>
      <trkpt lat="45.68346" lon="6.36011">
        <ele>372</ele>
        <time>2013-10-17T13:27:15Z</time>
      </trkpt>
      <trkpt lat="45.68353" lon="6.36015">
        <ele>373</ele>
        <time>2013-10-17T13:27:17Z</time>
      </trkpt>
      <trkpt lat="45.68363" lon="6.36021">
        <ele>374</ele>
        <time>2013-10-17T13:27:20Z</time>
      </trkpt>
      <trkpt lat="45.68373" lon="6.36028">
        <ele>375</ele>
        <time>2013-10-17T13:27:23Z</time>
      </trkpt>
      <trkpt lat="45.6838" lon="6.36032">
        <ele>375</ele>
        <time>2013-10-17T13:27:25Z</time>
      </trkpt>
      <trkpt lat="45.68391" lon="6.36038">
        <ele>377</ele>
        <time>2013-10-17T13:27:28Z</time>
      </trkpt>
      <trkpt lat="45.68402" lon="6.36044">
        <ele>378</ele>
        <time>2013-10-17T13:27:31Z</time>
      </trkpt>
      <trkpt lat="45.68409" lon="6.36047">
        <ele>379</ele>
        <time>2013-10-17T13:27:33Z</time>
      </trkpt>
      <trkpt lat="45.68419" lon="6.36053">
        <ele>380</ele>
        <time>2013-10-17T13:27:36Z</time>
      </trkpt>
      <trkpt lat="45.68426" lon="6.36057">
        <ele>381</ele>
        <time>2013-10-17T13:27:38Z</time>
      </trkpt>
      <trkpt lat="45.68437" lon="6.36063">
        <ele>382</ele>
        <time>2013-10-17T13:27:41Z</time>
      </trkpt>
      <trkpt lat="45.68444" lon="6.36067">
        <ele>382</ele>
        <time>2013-10-17T13:27:43Z</time>
      </trkpt>
      <trkpt lat="45.68455" lon="6.36072">
        <ele>382</ele>
        <time>2013-10-17T13:27:46Z</time>
      </trkpt>
      <trkpt lat="45.68467" lon="6.36078">
        <ele>383</ele>
        <time>2013-10-17T13:27:49Z</time>
      </trkpt>
      <trkpt lat="45.68474" lon="6.36081">
        <ele>384</ele>
        <time>2013-10-17T13:27:51Z</time>
      </trkpt>
      <trkpt lat="45.68482" lon="6.36084">
        <ele>385</ele>
        <time>2013-10-17T13:27:53Z</time>
      </trkpt>
      <trkpt lat="45.6849" lon="6.36087">
        <ele>385</ele>
        <time>2013-10-17T13:27:55Z</time>
      </trkpt>
      <trkpt lat="45.68498" lon="6.36089">
        <ele>386</ele>
        <time>2013-10-17T13:27:57Z</time>
      </trkpt>
      <trkpt lat="45.68509" lon="6.36091">
        <ele>387</ele>
        <time>2013-10-17T13:28:00Z</time>
      </trkpt>
      <trkpt lat="45.68517" lon="6.36093">
        <ele>388</ele>
        <time>2013-10-17T13:28:02Z</time>
      </trkpt>
      <trkpt lat="45.68525" lon="6.36094">
        <ele>389</ele>
        <time>2013-10-17T13:28:04Z</time>
      </trkpt>
      <trkpt lat="45.68533" lon="6.36095">
        <ele>390</ele>
        <time>2013-10-17T13:28:06Z</time>
      </trkpt>
      <trkpt lat="45.68541" lon="6.36097">
        <ele>390</ele>
        <time>2013-10-17T13:28:08Z</time>
      </trkpt>
      <trkpt lat="45.68553" lon="6.36099">
        <ele>391</ele>
        <time>2013-10-17T13:28:11Z</time>
      </trkpt>
      <trkpt lat="45.68562" lon="6.36102">
        <ele>392</ele>
        <time>2013-10-17T13:28:13Z</time>
      </trkpt>
      <trkpt lat="45.6857" lon="6.36104">
        <ele>393</ele>
        <time>2013-10-17T13:28:15Z</time>
      </trkpt>
      <trkpt lat="45.68578" lon="6.36108">
        <ele>394</ele>
        <time>2013-10-17T13:28:17Z</time>
      </trkpt>
      <trkpt lat="45.68586" lon="6.36111">
        <ele>394</ele>
        <time>2013-10-17T13:28:19Z</time>
      </trkpt>
      <trkpt lat="45.68593" lon="6.36114">
        <ele>395</ele>
        <time>2013-10-17T13:28:21Z</time>
      </trkpt>
      <trkpt lat="45.68605" lon="6.36119">
        <ele>396</ele>
        <time>2013-10-17T13:28:24Z</time>
      </trkpt>
      <trkpt lat="45.68616" lon="6.36124">
        <ele>397</ele>
        <time>2013-10-17T13:28:27Z</time>
      </trkpt>
      <trkpt lat="45.68624" lon="6.36126">
        <ele>397</ele>
        <time>2013-10-17T13:28:29Z</time>
      </trkpt>
      <trkpt lat="45.68635" lon="6.36131">
        <ele>398</ele>
        <time>2013-10-17T13:28:32Z</time>
      </trkpt>
      <trkpt lat="45.68643" lon="6.36134">
        <ele>399</ele>
        <time>2013-10-17T13:28:34Z</time>
      </trkpt>
      <trkpt lat="45.68655" lon="6.3614">
        <ele>399</ele>
        <time>2013-10-17T13:28:37Z</time>
      </trkpt>
      <trkpt lat="45.68664" lon="6.36143">
        <ele>400</ele>
        <time>2013-10-17T13:28:39Z</time>
      </trkpt>
      <trkpt lat="45.68676" lon="6.36151">
        <ele>401</ele>
        <time>2013-10-17T13:28:42Z</time>
      </trkpt>
      <trkpt lat="45.68684" lon="6.36157">
        <ele>401</ele>
        <time>2013-10-17T13:28:44Z</time>
      </trkpt>
      <trkpt lat="45.68695" lon="6.36167">
        <ele>402</ele>
        <time>2013-10-17T13:28:47Z</time>
      </trkpt>
      <trkpt lat="45.68702" lon="6.36174">
        <ele>403</ele>
        <time>2013-10-17T13:28:49Z</time>
      </trkpt>
      <trkpt lat="45.68708" lon="6.36181">
        <ele>403</ele>
        <time>2013-10-17T13:28:51Z</time>
      </trkpt>
      <trkpt lat="45.68714" lon="6.36187">
        <ele>404</ele>
        <time>2013-10-17T13:28:53Z</time>
      </trkpt>
      <trkpt lat="45.6872" lon="6.36188">
        <ele>405</ele>
        <time>2013-10-17T13:28:55Z</time>
      </trkpt>
      <trkpt lat="45.68728" lon="6.36184">
        <ele>405</ele>
        <time>2013-10-17T13:28:58Z</time>
      </trkpt>
      <trkpt lat="45.68728" lon="6.36176">
        <ele>406</ele>
        <time>2013-10-17T13:29:00Z</time>
      </trkpt>
      <trkpt lat="45.68723" lon="6.36164">
        <ele>406</ele>
        <time>2013-10-17T13:29:03Z</time>
      </trkpt>
      <trkpt lat="45.68717" lon="6.36151">
        <ele>407</ele>
        <time>2013-10-17T13:29:06Z</time>
      </trkpt>
      <trkpt lat="45.68713" lon="6.36133">
        <ele>408</ele>
        <time>2013-10-17T13:29:09Z</time>
      </trkpt>
      <trkpt lat="45.68713" lon="6.3612">
        <ele>408</ele>
        <time>2013-10-17T13:29:11Z</time>
      </trkpt>
      <trkpt lat="45.68715" lon="6.361">
        <ele>409</ele>
        <time>2013-10-17T13:29:14Z</time>
      </trkpt>
      <trkpt lat="45.68717" lon="6.36081">
        <ele>410</ele>
        <time>2013-10-17T13:29:17Z</time>
      </trkpt>
      <trkpt lat="45.68718" lon="6.36069">
        <ele>411</ele>
        <time>2013-10-17T13:29:19Z</time>
      </trkpt>
      <trkpt lat="45.68716" lon="6.36057">
        <ele>412</ele>
        <time>2013-10-17T13:29:21Z</time>
      </trkpt>
      <trkpt lat="45.68707" lon="6.36043">
        <ele>413</ele>
        <time>2013-10-17T13:29:24Z</time>
      </trkpt>
      <trkpt lat="45.687" lon="6.36034">
        <ele>413</ele>
        <time>2013-10-17T13:29:26Z</time>
      </trkpt>
      <trkpt lat="45.68692" lon="6.36026">
        <ele>414</ele>
        <time>2013-10-17T13:29:28Z</time>
      </trkpt>
      <trkpt lat="45.68684" lon="6.36019">
        <ele>414</ele>
        <time>2013-10-17T13:29:30Z</time>
      </trkpt>
      <trkpt lat="45.68676" lon="6.36013">
        <ele>415</ele>
        <time>2013-10-17T13:29:32Z</time>
      </trkpt>
      <trkpt lat="45.68668" lon="6.36004">
        <ele>416</ele>
        <time>2013-10-17T13:29:35Z</time>
      </trkpt>
      <trkpt lat="45.68664" lon="6.35996">
        <ele>417</ele>
        <time>2013-10-17T13:29:37Z</time>
      </trkpt>
      <trkpt lat="45.6866" lon="6.35988">
        <ele>418</ele>
        <time>2013-10-17T13:29:39Z</time>
      </trkpt>
      <trkpt lat="45.68654" lon="6.35975">
        <ele>419</ele>
        <time>2013-10-17T13:29:42Z</time>
      </trkpt>
      <trkpt lat="45.68652" lon="6.35964">
        <ele>420</ele>
        <time>2013-10-17T13:29:44Z</time>
      </trkpt>
      <trkpt lat="45.6865" lon="6.35946">
        <ele>420</ele>
        <time>2013-10-17T13:29:47Z</time>
      </trkpt>
      <trkpt lat="45.68649" lon="6.35935">
        <ele>420</ele>
        <time>2013-10-17T13:29:49Z</time>
      </trkpt>
      <trkpt lat="45.68648" lon="6.35921">
        <ele>421</ele>
        <time>2013-10-17T13:29:52Z</time>
      </trkpt>
      <trkpt lat="45.68649" lon="6.35911">
        <ele>421</ele>
        <time>2013-10-17T13:29:54Z</time>
      </trkpt>
      <trkpt lat="45.68649" lon="6.35902">
        <ele>422</ele>
        <time>2013-10-17T13:29:56Z</time>
      </trkpt>
      <trkpt lat="45.6865" lon="6.35888">
        <ele>422</ele>
        <time>2013-10-17T13:29:59Z</time>
      </trkpt>
      <trkpt lat="45.68651" lon="6.3588">
        <ele>423</ele>
        <time>2013-10-17T13:30:01Z</time>
      </trkpt>
      <trkpt lat="45.68653" lon="6.35866">
        <ele>425</ele>
        <time>2013-10-17T13:30:04Z</time>
      </trkpt>
      <trkpt lat="45.68654" lon="6.35857">
        <ele>425</ele>
        <time>2013-10-17T13:30:06Z</time>
      </trkpt>
      <trkpt lat="45.68656" lon="6.35843">
        <ele>426</ele>
        <time>2013-10-17T13:30:09Z</time>
      </trkpt>
      <trkpt lat="45.68657" lon="6.35832">
        <ele>427</ele>
        <time>2013-10-17T13:30:11Z</time>
      </trkpt>
      <trkpt lat="45.68659" lon="6.35815">
        <ele>427</ele>
        <time>2013-10-17T13:30:14Z</time>
      </trkpt>
      <trkpt lat="45.6866" lon="6.35804">
        <ele>428</ele>
        <time>2013-10-17T13:30:16Z</time>
      </trkpt>
      <trkpt lat="45.68661" lon="6.35792">
        <ele>429</ele>
        <time>2013-10-17T13:30:18Z</time>
      </trkpt>
      <trkpt lat="45.68662" lon="6.3578">
        <ele>430</ele>
        <time>2013-10-17T13:30:20Z</time>
      </trkpt>
      <trkpt lat="45.68662" lon="6.35762">
        <ele>430</ele>
        <time>2013-10-17T13:30:23Z</time>
      </trkpt>
      <trkpt lat="45.68661" lon="6.3575">
        <ele>431</ele>
        <time>2013-10-17T13:30:25Z</time>
      </trkpt>
      <trkpt lat="45.68658" lon="6.3573">
        <ele>432</ele>
        <time>2013-10-17T13:30:28Z</time>
      </trkpt>
      <trkpt lat="45.68656" lon="6.35716">
        <ele>431</ele>
        <time>2013-10-17T13:30:30Z</time>
      </trkpt>
      <trkpt lat="45.68653" lon="6.35702">
        <ele>432</ele>
        <time>2013-10-17T13:30:32Z</time>
      </trkpt>
      <trkpt lat="45.6865" lon="6.35681">
        <ele>432</ele>
        <time>2013-10-17T13:30:35Z</time>
      </trkpt>
      <trkpt lat="45.68647" lon="6.35667">
        <ele>432</ele>
        <time>2013-10-17T13:30:37Z</time>
      </trkpt>
      <trkpt lat="45.68644" lon="6.35653">
        <ele>433</ele>
        <time>2013-10-17T13:30:39Z</time>
      </trkpt>
      <trkpt lat="45.6864" lon="6.3564">
        <ele>433</ele>
        <time>2013-10-17T13:30:41Z</time>
      </trkpt>
      <trkpt lat="45.68637" lon="6.35627">
        <ele>434</ele>
        <time>2013-10-17T13:30:43Z</time>
      </trkpt>
      <trkpt lat="45.68633" lon="6.35607">
        <ele>434</ele>
        <time>2013-10-17T13:30:46Z</time>
      </trkpt>
      <trkpt lat="45.68628" lon="6.35587">
        <ele>435</ele>
        <time>2013-10-17T13:30:49Z</time>
      </trkpt>
      <trkpt lat="45.68623" lon="6.35567">
        <ele>435</ele>
        <time>2013-10-17T13:30:52Z</time>
      </trkpt>
      <trkpt lat="45.68621" lon="6.35554">
        <ele>436</ele>
        <time>2013-10-17T13:30:54Z</time>
      </trkpt>
      <trkpt lat="45.68619" lon="6.3554">
        <ele>436</ele>
        <time>2013-10-17T13:30:56Z</time>
      </trkpt>
      <trkpt lat="45.68617" lon="6.35526">
        <ele>436</ele>
        <time>2013-10-17T13:30:58Z</time>
      </trkpt>
      <trkpt lat="45.68615" lon="6.35505">
        <ele>437</ele>
        <time>2013-10-17T13:31:01Z</time>
      </trkpt>
      <trkpt lat="45.68613" lon="6.35482">
        <ele>438</ele>
        <time>2013-10-17T13:31:04Z</time>
      </trkpt>
      <trkpt lat="45.6861" lon="6.35459">
        <ele>438</ele>
        <time>2013-10-17T13:31:07Z</time>
      </trkpt>
      <trkpt lat="45.68607" lon="6.35434">
        <ele>438</ele>
        <time>2013-10-17T13:31:10Z</time>
      </trkpt>
      <trkpt lat="45.68603" lon="6.35408">
        <ele>438</ele>
        <time>2013-10-17T13:31:13Z</time>
      </trkpt>
      <trkpt lat="45.686" lon="6.35392">
        <ele>439</ele>
        <time>2013-10-17T13:31:15Z</time>
      </trkpt>
      <trkpt lat="45.68595" lon="6.35367">
        <ele>439</ele>
        <time>2013-10-17T13:31:18Z</time>
      </trkpt>
      <trkpt lat="45.68591" lon="6.35352">
        <ele>440</ele>
        <time>2013-10-17T13:31:20Z</time>
      </trkpt>
      <trkpt lat="45.68586" lon="6.35336">
        <ele>440</ele>
        <time>2013-10-17T13:31:22Z</time>
      </trkpt>
      <trkpt lat="45.68576" lon="6.35315">
        <ele>440</ele>
        <time>2013-10-17T13:31:25Z</time>
      </trkpt>
      <trkpt lat="45.68568" lon="6.35301">
        <ele>441</ele>
        <time>2013-10-17T13:31:27Z</time>
      </trkpt>
      <trkpt lat="45.68559" lon="6.35288">
        <ele>441</ele>
        <time>2013-10-17T13:31:29Z</time>
      </trkpt>
      <trkpt lat="45.68545" lon="6.3527">
        <ele>441</ele>
        <time>2013-10-17T13:31:32Z</time>
      </trkpt>
      <trkpt lat="45.68534" lon="6.3526">
        <ele>441</ele>
        <time>2013-10-17T13:31:34Z</time>
      </trkpt>
      <trkpt lat="45.68523" lon="6.3525">
        <ele>442</ele>
        <time>2013-10-17T13:31:36Z</time>
      </trkpt>
      <trkpt lat="45.68507" lon="6.35237">
        <ele>443</ele>
        <time>2013-10-17T13:31:39Z</time>
      </trkpt>
      <trkpt lat="45.68489" lon="6.35225">
        <ele>443</ele>
        <time>2013-10-17T13:31:42Z</time>
      </trkpt>
      <trkpt lat="45.68478" lon="6.35218">
        <ele>444</ele>
        <time>2013-10-17T13:31:44Z</time>
      </trkpt>
      <trkpt lat="45.68468" lon="6.35212">
        <ele>444</ele>
        <time>2013-10-17T13:31:46Z</time>
      </trkpt>
      <trkpt lat="45.68457" lon="6.35206">
        <ele>444</ele>
        <time>2013-10-17T13:31:48Z</time>
      </trkpt>
      <trkpt lat="45.6844" lon="6.35195">
        <ele>445</ele>
        <time>2013-10-17T13:31:51Z</time>
      </trkpt>
      <trkpt lat="45.68424" lon="6.35183">
        <ele>446</ele>
        <time>2013-10-17T13:31:54Z</time>
      </trkpt>
      <trkpt lat="45.68414" lon="6.35175">
        <ele>446</ele>
        <time>2013-10-17T13:31:56Z</time>
      </trkpt>
      <trkpt lat="45.68405" lon="6.35166">
        <ele>446</ele>
        <time>2013-10-17T13:31:58Z</time>
      </trkpt>
      <trkpt lat="45.68399" lon="6.35154">
        <ele>447</ele>
        <time>2013-10-17T13:32:00Z</time>
      </trkpt>
      <trkpt lat="45.68395" lon="6.35142">
        <ele>447</ele>
        <time>2013-10-17T13:32:02Z</time>
      </trkpt>
      <trkpt lat="45.68391" lon="6.35124">
        <ele>448</ele>
        <time>2013-10-17T13:32:05Z</time>
      </trkpt>
      <trkpt lat="45.68389" lon="6.35113">
        <ele>449</ele>
        <time>2013-10-17T13:32:07Z</time>
      </trkpt>
      <trkpt lat="45.68385" lon="6.35097">
        <ele>451</ele>
        <time>2013-10-17T13:32:10Z</time>
      </trkpt>
      <trkpt lat="45.68383" lon="6.35086">
        <ele>451</ele>
        <time>2013-10-17T13:32:12Z</time>
      </trkpt>
      <trkpt lat="45.68379" lon="6.3507">
        <ele>452</ele>
        <time>2013-10-17T13:32:15Z</time>
      </trkpt>
      <trkpt lat="45.68376" lon="6.35058">
        <ele>452</ele>
        <time>2013-10-17T13:32:17Z</time>
      </trkpt>
      <trkpt lat="45.68372" lon="6.35048">
        <ele>453</ele>
        <time>2013-10-17T13:32:19Z</time>
      </trkpt>
      <trkpt lat="45.68368" lon="6.35034">
        <ele>454</ele>
        <time>2013-10-17T13:32:22Z</time>
      </trkpt>
      <trkpt lat="45.68364" lon="6.35025">
        <ele>455</ele>
        <time>2013-10-17T13:32:24Z</time>
      </trkpt>
      <trkpt lat="45.68361" lon="6.35017">
        <ele>456</ele>
        <time>2013-10-17T13:32:26Z</time>
      </trkpt>
      <trkpt lat="45.68355" lon="6.35004">
        <ele>457</ele>
        <time>2013-10-17T13:32:29Z</time>
      </trkpt>
      <trkpt lat="45.68351" lon="6.34996">
        <ele>457</ele>
        <time>2013-10-17T13:32:31Z</time>
      </trkpt>
      <trkpt lat="45.68348" lon="6.34987">
        <ele>458</ele>
        <time>2013-10-17T13:32:33Z</time>
      </trkpt>
      <trkpt lat="45.68343" lon="6.34974">
        <ele>460</ele>
        <time>2013-10-17T13:32:36Z</time>
      </trkpt>
      <trkpt lat="45.6834" lon="6.34965">
        <ele>460</ele>
        <time>2013-10-17T13:32:38Z</time>
      </trkpt>
      <trkpt lat="45.68336" lon="6.34952">
        <ele>461</ele>
        <time>2013-10-17T13:32:41Z</time>
      </trkpt>
      <trkpt lat="45.68335" lon="6.34941">
        <ele>462</ele>
        <time>2013-10-17T13:32:43Z</time>
      </trkpt>
      <trkpt lat="45.68333" lon="6.34929">
        <ele>462</ele>
        <time>2013-10-17T13:32:45Z</time>
      </trkpt>
      <trkpt lat="45.68332" lon="6.34916">
        <ele>463</ele>
        <time>2013-10-17T13:32:47Z</time>
      </trkpt>
      <trkpt lat="45.68328" lon="6.34904">
        <ele>463</ele>
        <time>2013-10-17T13:32:49Z</time>
      </trkpt>
      <trkpt lat="45.68316" lon="6.3489">
        <ele>464</ele>
        <time>2013-10-17T13:32:52Z</time>
      </trkpt>
      <trkpt lat="45.68305" lon="6.3489">
        <ele>464</ele>
        <time>2013-10-17T13:32:54Z</time>
      </trkpt>
      <trkpt lat="45.68295" lon="6.34895">
        <ele>465</ele>
        <time>2013-10-17T13:32:56Z</time>
      </trkpt>
      <trkpt lat="45.68286" lon="6.34899">
        <ele>465</ele>
        <time>2013-10-17T13:32:58Z</time>
      </trkpt>
      <trkpt lat="45.68273" lon="6.34895">
        <ele>466</ele>
        <time>2013-10-17T13:33:01Z</time>
      </trkpt>
      <trkpt lat="45.68262" lon="6.34883">
        <ele>466</ele>
        <time>2013-10-17T13:33:04Z</time>
      </trkpt>
      <trkpt lat="45.68255" lon="6.34874">
        <ele>466</ele>
        <time>2013-10-17T13:33:06Z</time>
      </trkpt>
      <trkpt lat="45.68248" lon="6.34864">
        <ele>467</ele>
        <time>2013-10-17T13:33:08Z</time>
      </trkpt>
      <trkpt lat="45.68238" lon="6.34848">
        <ele>467</ele>
        <time>2013-10-17T13:33:11Z</time>
      </trkpt>
      <trkpt lat="45.68231" lon="6.34837">
        <ele>468</ele>
        <time>2013-10-17T13:33:13Z</time>
      </trkpt>
      <trkpt lat="45.68225" lon="6.34825">
        <ele>468</ele>
        <time>2013-10-17T13:33:15Z</time>
      </trkpt>
      <trkpt lat="45.68218" lon="6.34813">
        <ele>468</ele>
        <time>2013-10-17T13:33:17Z</time>
      </trkpt>
      <trkpt lat="45.68211" lon="6.348">
        <ele>468</ele>
        <time>2013-10-17T13:33:19Z</time>
      </trkpt>
      <trkpt lat="45.682" lon="6.34781">
        <ele>469</ele>
        <time>2013-10-17T13:33:22Z</time>
      </trkpt>
      <trkpt lat="45.68193" lon="6.34767">
        <ele>470</ele>
        <time>2013-10-17T13:33:24Z</time>
      </trkpt>
      <trkpt lat="45.68186" lon="6.34754">
        <ele>470</ele>
        <time>2013-10-17T13:33:26Z</time>
      </trkpt>
      <trkpt lat="45.6818" lon="6.3474">
        <ele>470</ele>
        <time>2013-10-17T13:33:28Z</time>
      </trkpt>
      <trkpt lat="45.68174" lon="6.34728">
        <ele>471</ele>
        <time>2013-10-17T13:33:30Z</time>
      </trkpt>
      <trkpt lat="45.6817" lon="6.34715">
        <ele>471</ele>
        <time>2013-10-17T13:33:32Z</time>
      </trkpt>
      <trkpt lat="45.68167" lon="6.34703">
        <ele>472</ele>
        <time>2013-10-17T13:33:34Z</time>
      </trkpt>
      <trkpt lat="45.68164" lon="6.34692">
        <ele>472</ele>
        <time>2013-10-17T13:33:36Z</time>
      </trkpt>
      <trkpt lat="45.68162" lon="6.34681">
        <ele>473</ele>
        <time>2013-10-17T13:33:38Z</time>
      </trkpt>
      <trkpt lat="45.68159" lon="6.34663">
        <ele>474</ele>
        <time>2013-10-17T13:33:41Z</time>
      </trkpt>
      <trkpt lat="45.68157" lon="6.34652">
        <ele>475</ele>
        <time>2013-10-17T13:33:43Z</time>
      </trkpt>
      <trkpt lat="45.68154" lon="6.34635">
        <ele>476</ele>
        <time>2013-10-17T13:33:46Z</time>
      </trkpt>
      <trkpt lat="45.68151" lon="6.34624">
        <ele>477</ele>
        <time>2013-10-17T13:33:48Z</time>
      </trkpt>
      <trkpt lat="45.68149" lon="6.34613">
        <ele>477</ele>
        <time>2013-10-17T13:33:50Z</time>
      </trkpt>
      <trkpt lat="45.68146" lon="6.34597">
        <ele>478</ele>
        <time>2013-10-17T13:33:53Z</time>
      </trkpt>
      <trkpt lat="45.68143" lon="6.34586">
        <ele>479</ele>
        <time>2013-10-17T13:33:55Z</time>
      </trkpt>
      <trkpt lat="45.68137" lon="6.34572">
        <ele>480</ele>
        <time>2013-10-17T13:33:58Z</time>
      </trkpt>
      <trkpt lat="45.68131" lon="6.34563">
        <ele>481</ele>
        <time>2013-10-17T13:34:00Z</time>
      </trkpt>
      <trkpt lat="45.68121" lon="6.3455">
        <ele>482</ele>
        <time>2013-10-17T13:34:03Z</time>
      </trkpt>
      <trkpt lat="45.68113" lon="6.34542">
        <ele>482</ele>
        <time>2013-10-17T13:34:05Z</time>
      </trkpt>
      <trkpt lat="45.68106" lon="6.34533">
        <ele>483</ele>
        <time>2013-10-17T13:34:07Z</time>
      </trkpt>
      <trkpt lat="45.68093" lon="6.34521">
        <ele>483</ele>
        <time>2013-10-17T13:34:10Z</time>
      </trkpt>
      <trkpt lat="45.68081" lon="6.34508">
        <ele>484</ele>
        <time>2013-10-17T13:34:13Z</time>
      </trkpt>
      <trkpt lat="45.68072" lon="6.34498">
        <ele>484</ele>
        <time>2013-10-17T13:34:15Z</time>
      </trkpt>
      <trkpt lat="45.68064" lon="6.34489">
        <ele>485</ele>
        <time>2013-10-17T13:34:17Z</time>
      </trkpt>
      <trkpt lat="45.68055" lon="6.34473">
        <ele>486</ele>
        <time>2013-10-17T13:34:20Z</time>
      </trkpt>
      <trkpt lat="45.68048" lon="6.34463">
        <ele>486</ele>
        <time>2013-10-17T13:34:22Z</time>
      </trkpt>
      <trkpt lat="45.68037" lon="6.34446">
        <ele>487</ele>
        <time>2013-10-17T13:34:25Z</time>
      </trkpt>
      <trkpt lat="45.68025" lon="6.34428">
        <ele>488</ele>
        <time>2013-10-17T13:34:28Z</time>
      </trkpt>
      <trkpt lat="45.68013" lon="6.34411">
        <ele>488</ele>
        <time>2013-10-17T13:34:31Z</time>
      </trkpt>
      <trkpt lat="45.68005" lon="6.34399">
        <ele>488</ele>
        <time>2013-10-17T13:34:33Z</time>
      </trkpt>
      <trkpt lat="45.67997" lon="6.34386">
        <ele>489</ele>
        <time>2013-10-17T13:34:35Z</time>
      </trkpt>
      <trkpt lat="45.67988" lon="6.34366">
        <ele>489</ele>
        <time>2013-10-17T13:34:38Z</time>
      </trkpt>
      <trkpt lat="45.67982" lon="6.34353">
        <ele>489</ele>
        <time>2013-10-17T13:34:40Z</time>
      </trkpt>
      <trkpt lat="45.67976" lon="6.3434">
        <ele>489</ele>
        <time>2013-10-17T13:34:42Z</time>
      </trkpt>
      <trkpt lat="45.6797" lon="6.34327">
        <ele>490</ele>
        <time>2013-10-17T13:34:44Z</time>
      </trkpt>
      <trkpt lat="45.67963" lon="6.34314">
        <ele>490</ele>
        <time>2013-10-17T13:34:46Z</time>
      </trkpt>
      <trkpt lat="45.67957" lon="6.34301">
        <ele>491</ele>
        <time>2013-10-17T13:34:48Z</time>
      </trkpt>
      <trkpt lat="45.67947" lon="6.34281">
        <ele>492</ele>
        <time>2013-10-17T13:34:51Z</time>
      </trkpt>
      <trkpt lat="45.67941" lon="6.34268">
        <ele>492</ele>
        <time>2013-10-17T13:34:53Z</time>
      </trkpt>
      <trkpt lat="45.67931" lon="6.34247">
        <ele>492</ele>
        <time>2013-10-17T13:34:56Z</time>
      </trkpt>
      <trkpt lat="45.67924" lon="6.34232">
        <ele>492</ele>
        <time>2013-10-17T13:34:58Z</time>
      </trkpt>
      <trkpt lat="45.67918" lon="6.34218">
        <ele>493</ele>
        <time>2013-10-17T13:35:00Z</time>
      </trkpt>
      <trkpt lat="45.67911" lon="6.34203">
        <ele>494</ele>
        <time>2013-10-17T13:35:02Z</time>
      </trkpt>
      <trkpt lat="45.679" lon="6.3418">
        <ele>494</ele>
        <time>2013-10-17T13:35:05Z</time>
      </trkpt>
      <trkpt lat="45.6789" lon="6.34158">
        <ele>494</ele>
        <time>2013-10-17T13:35:08Z</time>
      </trkpt>
      <trkpt lat="45.67883" lon="6.34142">
        <ele>493</ele>
        <time>2013-10-17T13:35:10Z</time>
      </trkpt>
      <trkpt lat="45.67873" lon="6.34129">
        <ele>493</ele>
        <time>2013-10-17T13:35:12Z</time>
      </trkpt>
      <trkpt lat="45.67868" lon="6.34103">
        <ele>493</ele>
        <time>2013-10-17T13:35:15Z</time>
      </trkpt>
      <trkpt lat="45.67876" lon="6.34092">
        <ele>494</ele>
        <time>2013-10-17T13:35:17Z</time>
      </trkpt>
      <trkpt lat="45.67887" lon="6.34083">
        <ele>494</ele>
        <time>2013-10-17T13:35:20Z</time>
      </trkpt>
      <trkpt lat="45.67895" lon="6.3408">
        <ele>494</ele>
        <time>2013-10-17T13:35:22Z</time>
      </trkpt>
      <trkpt lat="45.67907" lon="6.34077">
        <ele>494</ele>
        <time>2013-10-17T13:35:25Z</time>
      </trkpt>
      <trkpt lat="45.67915" lon="6.34076">
        <ele>495</ele>
        <time>2013-10-17T13:35:27Z</time>
      </trkpt>
      <trkpt lat="45.67923" lon="6.34075">
        <ele>496</ele>
        <time>2013-10-17T13:35:29Z</time>
      </trkpt>
      <trkpt lat="45.67936" lon="6.34077">
        <ele>497</ele>
        <time>2013-10-17T13:35:32Z</time>
      </trkpt>
      <trkpt lat="45.67944" lon="6.3408">
        <ele>498</ele>
        <time>2013-10-17T13:35:34Z</time>
      </trkpt>
      <trkpt lat="45.67952" lon="6.34085">
        <ele>498</ele>
        <time>2013-10-17T13:35:36Z</time>
      </trkpt>
      <trkpt lat="45.67963" lon="6.34093">
        <ele>499</ele>
        <time>2013-10-17T13:35:39Z</time>
      </trkpt>
      <trkpt lat="45.67975" lon="6.34101">
        <ele>500</ele>
        <time>2013-10-17T13:35:42Z</time>
      </trkpt>
      <trkpt lat="45.67983" lon="6.34106">
        <ele>501</ele>
        <time>2013-10-17T13:35:44Z</time>
      </trkpt>
      <trkpt lat="45.67991" lon="6.3411">
        <ele>502</ele>
        <time>2013-10-17T13:35:46Z</time>
      </trkpt>
      <trkpt lat="45.68001" lon="6.34117">
        <ele>503</ele>
        <time>2013-10-17T13:35:49Z</time>
      </trkpt>
      <trkpt lat="45.68011" lon="6.34124">
        <ele>503</ele>
        <time>2013-10-17T13:35:52Z</time>
      </trkpt>
      <trkpt lat="45.68021" lon="6.34132">
        <ele>503</ele>
        <time>2013-10-17T13:35:55Z</time>
      </trkpt>
      <trkpt lat="45.68029" lon="6.34139">
        <ele>504</ele>
        <time>2013-10-17T13:35:57Z</time>
      </trkpt>
      <trkpt lat="45.68042" lon="6.34149">
        <ele>505</ele>
        <time>2013-10-17T13:36:00Z</time>
      </trkpt>
      <trkpt lat="45.6805" lon="6.34155">
        <ele>506</ele>
        <time>2013-10-17T13:36:02Z</time>
      </trkpt>
      <trkpt lat="45.68058" lon="6.3416">
        <ele>507</ele>
        <time>2013-10-17T13:36:04Z</time>
      </trkpt>
      <trkpt lat="45.68066" lon="6.34165">
        <ele>508</ele>
        <time>2013-10-17T13:36:06Z</time>
      </trkpt>
      <trkpt lat="45.68078" lon="6.3417">
        <ele>509</ele>
        <time>2013-10-17T13:36:09Z</time>
      </trkpt>
      <trkpt lat="45.68087" lon="6.34168">
        <ele>510</ele>
        <time>2013-10-17T13:36:11Z</time>
      </trkpt>
      <trkpt lat="45.68094" lon="6.34161">
        <ele>510</ele>
        <time>2013-10-17T13:36:13Z</time>
      </trkpt>
      <trkpt lat="45.68096" lon="6.3415">
        <ele>511</ele>
        <time>2013-10-17T13:36:15Z</time>
      </trkpt>
      <trkpt lat="45.68092" lon="6.34139">
        <ele>511</ele>
        <time>2013-10-17T13:36:17Z</time>
      </trkpt>
      <trkpt lat="45.68084" lon="6.34125">
        <ele>512</ele>
        <time>2013-10-17T13:36:20Z</time>
      </trkpt>
      <trkpt lat="45.68078" lon="6.34116">
        <ele>513</ele>
        <time>2013-10-17T13:36:22Z</time>
      </trkpt>
      <trkpt lat="45.68069" lon="6.34101">
        <ele>514</ele>
        <time>2013-10-17T13:36:25Z</time>
      </trkpt>
      <trkpt lat="45.68063" lon="6.34091">
        <ele>514</ele>
        <time>2013-10-17T13:36:27Z</time>
      </trkpt>
      <trkpt lat="45.6806" lon="6.3408">
        <ele>514</ele>
        <time>2013-10-17T13:36:29Z</time>
      </trkpt>
      <trkpt lat="45.68057" lon="6.34064">
        <ele>514</ele>
        <time>2013-10-17T13:36:32Z</time>
      </trkpt>
      <trkpt lat="45.68056" lon="6.34053">
        <ele>515</ele>
        <time>2013-10-17T13:36:34Z</time>
      </trkpt>
      <trkpt lat="45.68056" lon="6.34043">
        <ele>516</ele>
        <time>2013-10-17T13:36:36Z</time>
      </trkpt>
      <trkpt lat="45.68055" lon="6.34032">
        <ele>517</ele>
        <time>2013-10-17T13:36:38Z</time>
      </trkpt>
      <trkpt lat="45.68053" lon="6.34016">
        <ele>518</ele>
        <time>2013-10-17T13:36:41Z</time>
      </trkpt>
      <trkpt lat="45.68052" lon="6.34005">
        <ele>518</ele>
        <time>2013-10-17T13:36:43Z</time>
      </trkpt>
      <trkpt lat="45.6805" lon="6.33993">
        <ele>519</ele>
        <time>2013-10-17T13:36:45Z</time>
      </trkpt>
      <trkpt lat="45.68049" lon="6.33982">
        <ele>519</ele>
        <time>2013-10-17T13:36:47Z</time>
      </trkpt>
      <trkpt lat="45.68046" lon="6.33971">
        <ele>520</ele>
        <time>2013-10-17T13:36:49Z</time>
      </trkpt>
      <trkpt lat="45.6804" lon="6.33955">
        <ele>520</ele>
        <time>2013-10-17T13:36:52Z</time>
      </trkpt>
      <trkpt lat="45.6804" lon="6.33937">
        <ele>521</ele>
        <time>2013-10-17T13:36:55Z</time>
      </trkpt>
      <trkpt lat="45.68046" lon="6.33931">
        <ele>522</ele>
        <time>2013-10-17T13:36:57Z</time>
      </trkpt>
      <trkpt lat="45.68052" lon="6.33932">
        <ele>523</ele>
        <time>2013-10-17T13:36:59Z</time>
      </trkpt>
      <trkpt lat="45.68057" lon="6.33939">
        <ele>523</ele>
        <time>2013-10-17T13:37:01Z</time>
      </trkpt>
      <trkpt lat="45.68062" lon="6.33954">
        <ele>524</ele>
        <time>2013-10-17T13:37:04Z</time>
      </trkpt>
      <trkpt lat="45.68064" lon="6.33965">
        <ele>525</ele>
        <time>2013-10-17T13:37:06Z</time>
      </trkpt>
      <trkpt lat="45.68068" lon="6.33982">
        <ele>527</ele>
        <time>2013-10-17T13:37:09Z</time>
      </trkpt>
      <trkpt lat="45.68071" lon="6.33994">
        <ele>527</ele>
        <time>2013-10-17T13:37:11Z</time>
      </trkpt>
      <trkpt lat="45.68077" lon="6.34009">
        <ele>528</ele>
        <time>2013-10-17T13:37:14Z</time>
      </trkpt>
      <trkpt lat="45.6809" lon="6.34013">
        <ele>528</ele>
        <time>2013-10-17T13:37:17Z</time>
      </trkpt>
      <trkpt lat="45.68096" lon="6.34005">
        <ele>528</ele>
        <time>2013-10-17T13:37:19Z</time>
      </trkpt>
      <trkpt lat="45.68098" lon="6.33995">
        <ele>529</ele>
        <time>2013-10-17T13:37:21Z</time>
      </trkpt>
      <trkpt lat="45.68095" lon="6.3398">
        <ele>529</ele>
        <time>2013-10-17T13:37:24Z</time>
      </trkpt>
      <trkpt lat="45.68093" lon="6.3397">
        <ele>530</ele>
        <time>2013-10-17T13:37:26Z</time>
      </trkpt>
      <trkpt lat="45.6809" lon="6.3396">
        <ele>530</ele>
        <time>2013-10-17T13:37:28Z</time>
      </trkpt>
      <trkpt lat="45.68087" lon="6.3395">
        <ele>531</ele>
        <time>2013-10-17T13:37:30Z</time>
      </trkpt>
      <trkpt lat="45.68085" lon="6.3394">
        <ele>531</ele>
        <time>2013-10-17T13:37:32Z</time>
      </trkpt>
      <trkpt lat="45.68084" lon="6.33925">
        <ele>532</ele>
        <time>2013-10-17T13:37:35Z</time>
      </trkpt>
      <trkpt lat="45.68082" lon="6.33914">
        <ele>533</ele>
        <time>2013-10-17T13:37:37Z</time>
      </trkpt>
      <trkpt lat="45.68081" lon="6.33899">
        <ele>534</ele>
        <time>2013-10-17T13:37:40Z</time>
      </trkpt>
      <trkpt lat="45.68076" lon="6.33884">
        <ele>535</ele>
        <time>2013-10-17T13:37:43Z</time>
      </trkpt>
      <trkpt lat="45.68072" lon="6.33874">
        <ele>535</ele>
        <time>2013-10-17T13:37:45Z</time>
      </trkpt>
      <trkpt lat="45.68068" lon="6.33865">
        <ele>536</ele>
        <time>2013-10-17T13:37:47Z</time>
      </trkpt>
      <trkpt lat="45.68062" lon="6.33851">
        <ele>537</ele>
        <time>2013-10-17T13:37:50Z</time>
      </trkpt>
      <trkpt lat="45.68058" lon="6.33843">
        <ele>538</ele>
        <time>2013-10-17T13:37:52Z</time>
      </trkpt>
      <trkpt lat="45.68053" lon="6.33835">
        <ele>539</ele>
        <time>2013-10-17T13:37:54Z</time>
      </trkpt>
      <trkpt lat="45.68049" lon="6.33826">
        <ele>540</ele>
        <time>2013-10-17T13:37:56Z</time>
      </trkpt>
      <trkpt lat="45.68045" lon="6.33818">
        <ele>541</ele>
        <time>2013-10-17T13:37:58Z</time>
      </trkpt>
      <trkpt lat="45.68042" lon="6.3381">
        <ele>541</ele>
        <time>2013-10-17T13:38:00Z</time>
      </trkpt>
      <trkpt lat="45.68037" lon="6.33798">
        <ele>542</ele>
        <time>2013-10-17T13:38:03Z</time>
      </trkpt>
      <trkpt lat="45.68034" lon="6.33792">
        <ele>543</ele>
        <time>2013-10-17T13:38:05Z</time>
      </trkpt>
      <trkpt lat="45.68031" lon="6.33785">
        <ele>544</ele>
        <time>2013-10-17T13:38:07Z</time>
      </trkpt>
      <trkpt lat="45.68027" lon="6.33775">
        <ele>545</ele>
        <time>2013-10-17T13:38:10Z</time>
      </trkpt>
      <trkpt lat="45.68022" lon="6.33765">
        <ele>546</ele>
        <time>2013-10-17T13:38:13Z</time>
      </trkpt>
      <trkpt lat="45.68019" lon="6.33758">
        <ele>546</ele>
        <time>2013-10-17T13:38:15Z</time>
      </trkpt>
      <trkpt lat="45.68015" lon="6.33747">
        <ele>547</ele>
        <time>2013-10-17T13:38:18Z</time>
      </trkpt>
      <trkpt lat="45.68013" lon="6.33738">
        <ele>548</ele>
        <time>2013-10-17T13:38:20Z</time>
      </trkpt>
      <trkpt lat="45.6801" lon="6.33729">
        <ele>549</ele>
        <time>2013-10-17T13:38:22Z</time>
      </trkpt>
      <trkpt lat="45.68008" lon="6.33716">
        <ele>550</ele>
        <time>2013-10-17T13:38:25Z</time>
      </trkpt>
      <trkpt lat="45.68007" lon="6.33708">
        <ele>551</ele>
        <time>2013-10-17T13:38:27Z</time>
      </trkpt>
      <trkpt lat="45.68006" lon="6.33699">
        <ele>551</ele>
        <time>2013-10-17T13:38:29Z</time>
      </trkpt>
      <trkpt lat="45.68003" lon="6.33686">
        <ele>552</ele>
        <time>2013-10-17T13:38:32Z</time>
      </trkpt>
      <trkpt lat="45.68001" lon="6.33678">
        <ele>553</ele>
        <time>2013-10-17T13:38:34Z</time>
      </trkpt>
      <trkpt lat="45.67997" lon="6.33666">
        <ele>554</ele>
        <time>2013-10-17T13:38:37Z</time>
      </trkpt>
      <trkpt lat="45.67995" lon="6.33658">
        <ele>554</ele>
        <time>2013-10-17T13:38:39Z</time>
      </trkpt>
      <trkpt lat="45.67991" lon="6.33646">
        <ele>556</ele>
        <time>2013-10-17T13:38:42Z</time>
      </trkpt>
      <trkpt lat="45.67988" lon="6.33638">
        <ele>556</ele>
        <time>2013-10-17T13:38:44Z</time>
      </trkpt>
      <trkpt lat="45.67984" lon="6.33625">
        <ele>557</ele>
        <time>2013-10-17T13:38:47Z</time>
      </trkpt>
      <trkpt lat="45.67982" lon="6.33617">
        <ele>558</ele>
        <time>2013-10-17T13:38:49Z</time>
      </trkpt>
      <trkpt lat="45.67979" lon="6.33604">
        <ele>559</ele>
        <time>2013-10-17T13:38:52Z</time>
      </trkpt>
      <trkpt lat="45.67977" lon="6.33591">
        <ele>560</ele>
        <time>2013-10-17T13:38:55Z</time>
      </trkpt>
      <trkpt lat="45.67976" lon="6.33582">
        <ele>561</ele>
        <time>2013-10-17T13:38:57Z</time>
      </trkpt>
      <trkpt lat="45.67976" lon="6.33573">
        <ele>562</ele>
        <time>2013-10-17T13:38:59Z</time>
      </trkpt>
      <trkpt lat="45.67976" lon="6.33564">
        <ele>562</ele>
        <time>2013-10-17T13:39:01Z</time>
      </trkpt>
      <trkpt lat="45.67977" lon="6.33555">
        <ele>563</ele>
        <time>2013-10-17T13:39:03Z</time>
      </trkpt>
      <trkpt lat="45.67979" lon="6.33542">
        <ele>564</ele>
        <time>2013-10-17T13:39:06Z</time>
      </trkpt>
      <trkpt lat="45.67981" lon="6.33534">
        <ele>565</ele>
        <time>2013-10-17T13:39:08Z</time>
      </trkpt>
      <trkpt lat="45.67983" lon="6.33526">
        <ele>565</ele>
        <time>2013-10-17T13:39:10Z</time>
      </trkpt>
      <trkpt lat="45.67986" lon="6.33519">
        <ele>566</ele>
        <time>2013-10-17T13:39:12Z</time>
      </trkpt>
      <trkpt lat="45.67989" lon="6.33512">
        <ele>567</ele>
        <time>2013-10-17T13:39:14Z</time>
      </trkpt>
      <trkpt lat="45.67992" lon="6.33506">
        <ele>568</ele>
        <time>2013-10-17T13:39:16Z</time>
      </trkpt>
      <trkpt lat="45.67997" lon="6.33498">
        <ele>569</ele>
        <time>2013-10-17T13:39:19Z</time>
      </trkpt>
      <trkpt lat="45.68002" lon="6.33492">
        <ele>570</ele>
        <time>2013-10-17T13:39:21Z</time>
      </trkpt>
      <trkpt lat="45.68006" lon="6.33486">
        <ele>570</ele>
        <time>2013-10-17T13:39:23Z</time>
      </trkpt>
      <trkpt lat="45.68011" lon="6.33479">
        <ele>571</ele>
        <time>2013-10-17T13:39:25Z</time>
      </trkpt>
      <trkpt lat="45.68017" lon="6.33468">
        <ele>572</ele>
        <time>2013-10-17T13:39:28Z</time>
      </trkpt>
      <trkpt lat="45.68018" lon="6.3346">
        <ele>572</ele>
        <time>2013-10-17T13:39:30Z</time>
      </trkpt>
      <trkpt lat="45.68016" lon="6.33452">
        <ele>573</ele>
        <time>2013-10-17T13:39:32Z</time>
      </trkpt>
      <trkpt lat="45.6801" lon="6.33442">
        <ele>575</ele>
        <time>2013-10-17T13:39:35Z</time>
      </trkpt>
      <trkpt lat="45.68005" lon="6.33438">
        <ele>576</ele>
        <time>2013-10-17T13:39:37Z</time>
      </trkpt>
      <trkpt lat="45.68" lon="6.33436">
        <ele>576</ele>
        <time>2013-10-17T13:39:39Z</time>
      </trkpt>
      <trkpt lat="45.67994" lon="6.33432">
        <ele>577</ele>
        <time>2013-10-17T13:39:41Z</time>
      </trkpt>
      <trkpt lat="45.67988" lon="6.33428">
        <ele>578</ele>
        <time>2013-10-17T13:39:43Z</time>
      </trkpt>
      <trkpt lat="45.6798" lon="6.3342">
        <ele>579</ele>
        <time>2013-10-17T13:39:46Z</time>
      </trkpt>
      <trkpt lat="45.67974" lon="6.33412">
        <ele>580</ele>
        <time>2013-10-17T13:39:48Z</time>
      </trkpt>
      <trkpt lat="45.67967" lon="6.33397">
        <ele>581</ele>
        <time>2013-10-17T13:39:51Z</time>
      </trkpt>
      <trkpt lat="45.67963" lon="6.33387">
        <ele>582</ele>
        <time>2013-10-17T13:39:53Z</time>
      </trkpt>
      <trkpt lat="45.67959" lon="6.33377">
        <ele>583</ele>
        <time>2013-10-17T13:39:55Z</time>
      </trkpt>
      <trkpt lat="45.67955" lon="6.33367">
        <ele>583</ele>
        <time>2013-10-17T13:39:57Z</time>
      </trkpt>
      <trkpt lat="45.67951" lon="6.33359">
        <ele>584</ele>
        <time>2013-10-17T13:39:59Z</time>
      </trkpt>
      <trkpt lat="45.67947" lon="6.33349">
        <ele>585</ele>
        <time>2013-10-17T13:40:01Z</time>
      </trkpt>
      <trkpt lat="45.67944" lon="6.33339">
        <ele>586</ele>
        <time>2013-10-17T13:40:03Z</time>
      </trkpt>
      <trkpt lat="45.67942" lon="6.33328">
        <ele>586</ele>
        <time>2013-10-17T13:40:05Z</time>
      </trkpt>
      <trkpt lat="45.67939" lon="6.33317">
        <ele>587</ele>
        <time>2013-10-17T13:40:07Z</time>
      </trkpt>
      <trkpt lat="45.67937" lon="6.33305">
        <ele>588</ele>
        <time>2013-10-17T13:40:09Z</time>
      </trkpt>
      <trkpt lat="45.67934" lon="6.33295">
        <ele>588</ele>
        <time>2013-10-17T13:40:11Z</time>
      </trkpt>
      <trkpt lat="45.67929" lon="6.33281">
        <ele>590</ele>
        <time>2013-10-17T13:40:14Z</time>
      </trkpt>
      <trkpt lat="45.67926" lon="6.33269">
        <ele>590</ele>
        <time>2013-10-17T13:40:16Z</time>
      </trkpt>
      <trkpt lat="45.67928" lon="6.33257">
        <ele>591</ele>
        <time>2013-10-17T13:40:18Z</time>
      </trkpt>
      <trkpt lat="45.67937" lon="6.33251">
        <ele>592</ele>
        <time>2013-10-17T13:40:21Z</time>
      </trkpt>
      <trkpt lat="45.67941" lon="6.33256">
        <ele>593</ele>
        <time>2013-10-17T13:40:23Z</time>
      </trkpt>
      <trkpt lat="45.67943" lon="6.33262">
        <ele>593</ele>
        <time>2013-10-17T13:40:25Z</time>
      </trkpt>
      <trkpt lat="45.67944" lon="6.33269">
        <ele>594</ele>
        <time>2013-10-17T13:40:27Z</time>
      </trkpt>
      <trkpt lat="45.67945" lon="6.33276">
        <ele>595</ele>
        <time>2013-10-17T13:40:29Z</time>
      </trkpt>
      <trkpt lat="45.67947" lon="6.33289">
        <ele>595</ele>
        <time>2013-10-17T13:40:32Z</time>
      </trkpt>
      <trkpt lat="45.67951" lon="6.33301">
        <ele>596</ele>
        <time>2013-10-17T13:40:35Z</time>
      </trkpt>
      <trkpt lat="45.67958" lon="6.33309">
        <ele>597</ele>
        <time>2013-10-17T13:40:38Z</time>
      </trkpt>
      <trkpt lat="45.67963" lon="6.33313">
        <ele>598</ele>
        <time>2013-10-17T13:40:40Z</time>
      </trkpt>
      <trkpt lat="45.67969" lon="6.33316">
        <ele>598</ele>
        <time>2013-10-17T13:40:42Z</time>
      </trkpt>
      <trkpt lat="45.67978" lon="6.33321">
        <ele>599</ele>
        <time>2013-10-17T13:40:45Z</time>
      </trkpt>
      <trkpt lat="45.67984" lon="6.33325">
        <ele>600</ele>
        <time>2013-10-17T13:40:47Z</time>
      </trkpt>
      <trkpt lat="45.67989" lon="6.33329">
        <ele>600</ele>
        <time>2013-10-17T13:40:49Z</time>
      </trkpt>
      <trkpt lat="45.67996" lon="6.33336">
        <ele>601</ele>
        <time>2013-10-17T13:40:52Z</time>
      </trkpt>
      <trkpt lat="45.67999" lon="6.33342">
        <ele>602</ele>
        <time>2013-10-17T13:40:54Z</time>
      </trkpt>
      <trkpt lat="45.68003" lon="6.33352">
        <ele>603</ele>
        <time>2013-10-17T13:40:57Z</time>
      </trkpt>
      <trkpt lat="45.68005" lon="6.3336">
        <ele>603</ele>
        <time>2013-10-17T13:40:59Z</time>
      </trkpt>
      <trkpt lat="45.68009" lon="6.33368">
        <ele>604</ele>
        <time>2013-10-17T13:41:01Z</time>
      </trkpt>
      <trkpt lat="45.68013" lon="6.33375">
        <ele>604</ele>
        <time>2013-10-17T13:41:03Z</time>
      </trkpt>
      <trkpt lat="45.68024" lon="6.33379">
        <ele>605</ele>
        <time>2013-10-17T13:41:06Z</time>
      </trkpt>
      <trkpt lat="45.68029" lon="6.33374">
        <ele>606</ele>
        <time>2013-10-17T13:41:08Z</time>
      </trkpt>
      <trkpt lat="45.68029" lon="6.33364">
        <ele>607</ele>
        <time>2013-10-17T13:41:10Z</time>
      </trkpt>
      <trkpt lat="45.68026" lon="6.33351">
        <ele>607</ele>
        <time>2013-10-17T13:41:13Z</time>
      </trkpt>
      <trkpt lat="45.68023" lon="6.33344">
        <ele>608</ele>
        <time>2013-10-17T13:41:15Z</time>
      </trkpt>
      <trkpt lat="45.68018" lon="6.33336">
        <ele>609</ele>
        <time>2013-10-17T13:41:17Z</time>
      </trkpt>
      <trkpt lat="45.68014" lon="6.33327">
        <ele>609</ele>
        <time>2013-10-17T13:41:19Z</time>
      </trkpt>
      <trkpt lat="45.68008" lon="6.33314">
        <ele>610</ele>
        <time>2013-10-17T13:41:22Z</time>
      </trkpt>
      <trkpt lat="45.68004" lon="6.33305">
        <ele>611</ele>
        <time>2013-10-17T13:41:24Z</time>
      </trkpt>
      <trkpt lat="45.68" lon="6.33297">
        <ele>611</ele>
        <time>2013-10-17T13:41:26Z</time>
      </trkpt>
      <trkpt lat="45.67992" lon="6.33283">
        <ele>612</ele>
        <time>2013-10-17T13:41:29Z</time>
      </trkpt>
      <trkpt lat="45.67984" lon="6.33266">
        <ele>613</ele>
        <time>2013-10-17T13:41:32Z</time>
      </trkpt>
      <trkpt lat="45.67978" lon="6.33248">
        <ele>613</ele>
        <time>2013-10-17T13:41:35Z</time>
      </trkpt>
      <trkpt lat="45.67973" lon="6.3323">
        <ele>614</ele>
        <time>2013-10-17T13:41:38Z</time>
      </trkpt>
      <trkpt lat="45.67969" lon="6.33219">
        <ele>615</ele>
        <time>2013-10-17T13:41:40Z</time>
      </trkpt>
      <trkpt lat="45.67966" lon="6.33208">
        <ele>616</ele>
        <time>2013-10-17T13:41:42Z</time>
      </trkpt>
      <trkpt lat="45.67961" lon="6.33193">
        <ele>617</ele>
        <time>2013-10-17T13:41:45Z</time>
      </trkpt>
      <trkpt lat="45.67956" lon="6.33184">
        <ele>618</ele>
        <time>2013-10-17T13:41:47Z</time>
      </trkpt>
      <trkpt lat="45.67948" lon="6.33171">
        <ele>619</ele>
        <time>2013-10-17T13:41:50Z</time>
      </trkpt>
      <trkpt lat="45.67942" lon="6.33162">
        <ele>619</ele>
        <time>2013-10-17T13:41:52Z</time>
      </trkpt>
      <trkpt lat="45.67937" lon="6.33153">
        <ele>620</ele>
        <time>2013-10-17T13:41:54Z</time>
      </trkpt>
      <trkpt lat="45.67939" lon="6.33138">
        <ele>620</ele>
        <time>2013-10-17T13:41:57Z</time>
      </trkpt>
      <trkpt lat="45.67944" lon="6.33136">
        <ele>621</ele>
        <time>2013-10-17T13:41:59Z</time>
      </trkpt>
      <trkpt lat="45.67948" lon="6.33141">
        <ele>622</ele>
        <time>2013-10-17T13:42:01Z</time>
      </trkpt>
      <trkpt lat="45.67952" lon="6.33154">
        <ele>623</ele>
        <time>2013-10-17T13:42:04Z</time>
      </trkpt>
      <trkpt lat="45.67955" lon="6.33164">
        <ele>624</ele>
        <time>2013-10-17T13:42:06Z</time>
      </trkpt>
      <trkpt lat="45.67961" lon="6.33177">
        <ele>624</ele>
        <time>2013-10-17T13:42:09Z</time>
      </trkpt>
      <trkpt lat="45.67966" lon="6.33184">
        <ele>625</ele>
        <time>2013-10-17T13:42:11Z</time>
      </trkpt>
      <trkpt lat="45.67972" lon="6.3319">
        <ele>626</ele>
        <time>2013-10-17T13:42:13Z</time>
      </trkpt>
      <trkpt lat="45.67979" lon="6.33196">
        <ele>627</ele>
        <time>2013-10-17T13:42:15Z</time>
      </trkpt>
      <trkpt lat="45.67985" lon="6.33203">
        <ele>628</ele>
        <time>2013-10-17T13:42:17Z</time>
      </trkpt>
      <trkpt lat="45.6799" lon="6.33209">
        <ele>628</ele>
        <time>2013-10-17T13:42:19Z</time>
      </trkpt>
      <trkpt lat="45.67996" lon="6.33214">
        <ele>629</ele>
        <time>2013-10-17T13:42:21Z</time>
      </trkpt>
      <trkpt lat="45.68004" lon="6.33223">
        <ele>630</ele>
        <time>2013-10-17T13:42:24Z</time>
      </trkpt>
      <trkpt lat="45.68011" lon="6.33232">
        <ele>631</ele>
        <time>2013-10-17T13:42:27Z</time>
      </trkpt>
      <trkpt lat="45.68016" lon="6.33238">
        <ele>632</ele>
        <time>2013-10-17T13:42:29Z</time>
      </trkpt>
      <trkpt lat="45.68021" lon="6.33244">
        <ele>633</ele>
        <time>2013-10-17T13:42:31Z</time>
      </trkpt>
      <trkpt lat="45.68027" lon="6.33255">
        <ele>633</ele>
        <time>2013-10-17T13:42:34Z</time>
      </trkpt>
      <trkpt lat="45.68031" lon="6.33263">
        <ele>634</ele>
        <time>2013-10-17T13:42:36Z</time>
      </trkpt>
      <trkpt lat="45.68035" lon="6.33271">
        <ele>635</ele>
        <time>2013-10-17T13:42:38Z</time>
      </trkpt>
      <trkpt lat="45.6804" lon="6.33284">
        <ele>636</ele>
        <time>2013-10-17T13:42:41Z</time>
      </trkpt>
      <trkpt lat="45.68044" lon="6.33291">
        <ele>637</ele>
        <time>2013-10-17T13:42:43Z</time>
      </trkpt>
      <trkpt lat="45.6805" lon="6.333">
        <ele>638</ele>
        <time>2013-10-17T13:42:46Z</time>
      </trkpt>
      <trkpt lat="45.68058" lon="6.33309">
        <ele>639</ele>
        <time>2013-10-17T13:42:49Z</time>
      </trkpt>
      <trkpt lat="45.68066" lon="6.33317">
        <ele>639</ele>
        <time>2013-10-17T13:42:52Z</time>
      </trkpt>
      <trkpt lat="45.68071" lon="6.33322">
        <ele>640</ele>
        <time>2013-10-17T13:42:54Z</time>
      </trkpt>
      <trkpt lat="45.68076" lon="6.33325">
        <ele>640</ele>
        <time>2013-10-17T13:42:56Z</time>
      </trkpt>
      <trkpt lat="45.68081" lon="6.33328">
        <ele>641</ele>
        <time>2013-10-17T13:42:58Z</time>
      </trkpt>
      <trkpt lat="45.68089" lon="6.33334">
        <ele>641</ele>
        <time>2013-10-17T13:43:01Z</time>
      </trkpt>
      <trkpt lat="45.68097" lon="6.3334">
        <ele>642</ele>
        <time>2013-10-17T13:43:04Z</time>
      </trkpt>
      <trkpt lat="45.68106" lon="6.33348">
        <ele>643</ele>
        <time>2013-10-17T13:43:07Z</time>
      </trkpt>
      <trkpt lat="45.68114" lon="6.3336">
        <ele>644</ele>
        <time>2013-10-17T13:43:10Z</time>
      </trkpt>
      <trkpt lat="45.68118" lon="6.33369">
        <ele>644</ele>
        <time>2013-10-17T13:43:12Z</time>
      </trkpt>
      <trkpt lat="45.68124" lon="6.33382">
        <ele>645</ele>
        <time>2013-10-17T13:43:15Z</time>
      </trkpt>
      <trkpt lat="45.68132" lon="6.33386">
        <ele>646</ele>
        <time>2013-10-17T13:43:18Z</time>
      </trkpt>
      <trkpt lat="45.6814" lon="6.33382">
        <ele>647</ele>
        <time>2013-10-17T13:43:21Z</time>
      </trkpt>
      <trkpt lat="45.6814" lon="6.33373">
        <ele>648</ele>
        <time>2013-10-17T13:43:24Z</time>
      </trkpt>
      <trkpt lat="45.68138" lon="6.33367">
        <ele>648</ele>
        <time>2013-10-17T13:43:26Z</time>
      </trkpt>
      <trkpt lat="45.68132" lon="6.33359">
        <ele>649</ele>
        <time>2013-10-17T13:43:29Z</time>
      </trkpt>
      <trkpt lat="45.68125" lon="6.33352">
        <ele>650</ele>
        <time>2013-10-17T13:43:32Z</time>
      </trkpt>
      <trkpt lat="45.6812" lon="6.33347">
        <ele>650</ele>
        <time>2013-10-17T13:43:34Z</time>
      </trkpt>
      <trkpt lat="45.68113" lon="6.3334">
        <ele>652</ele>
        <time>2013-10-17T13:43:37Z</time>
      </trkpt>
      <trkpt lat="45.68108" lon="6.33335">
        <ele>652</ele>
        <time>2013-10-17T13:43:39Z</time>
      </trkpt>
      <trkpt lat="45.68101" lon="6.33327">
        <ele>653</ele>
        <time>2013-10-17T13:43:42Z</time>
      </trkpt>
      <trkpt lat="45.68097" lon="6.33322">
        <ele>654</ele>
        <time>2013-10-17T13:43:44Z</time>
      </trkpt>
      <trkpt lat="45.68093" lon="6.33316">
        <ele>654</ele>
        <time>2013-10-17T13:43:46Z</time>
      </trkpt>
      <trkpt lat="45.68086" lon="6.33307">
        <ele>655</ele>
        <time>2013-10-17T13:43:49Z</time>
      </trkpt>
      <trkpt lat="45.68082" lon="6.333">
        <ele>656</ele>
        <time>2013-10-17T13:43:51Z</time>
      </trkpt>
      <trkpt lat="45.68076" lon="6.3329">
        <ele>657</ele>
        <time>2013-10-17T13:43:54Z</time>
      </trkpt>
      <trkpt lat="45.68071" lon="6.33284">
        <ele>658</ele>
        <time>2013-10-17T13:43:56Z</time>
      </trkpt>
      <trkpt lat="45.68066" lon="6.33273">
        <ele>659</ele>
        <time>2013-10-17T13:43:59Z</time>
      </trkpt>
      <trkpt lat="45.68063" lon="6.33264">
        <ele>660</ele>
        <time>2013-10-17T13:44:01Z</time>
      </trkpt>
      <trkpt lat="45.68064" lon="6.33254">
        <ele>661</ele>
        <time>2013-10-17T13:44:03Z</time>
      </trkpt>
      <trkpt lat="45.6807" lon="6.33249">
        <ele>661</ele>
        <time>2013-10-17T13:44:05Z</time>
      </trkpt>
      <trkpt lat="45.68076" lon="6.33252">
        <ele>662</ele>
        <time>2013-10-17T13:44:07Z</time>
      </trkpt>
      <trkpt lat="45.68079" lon="6.33259">
        <ele>662</ele>
        <time>2013-10-17T13:44:09Z</time>
      </trkpt>
      <trkpt lat="45.68083" lon="6.33267">
        <ele>663</ele>
        <time>2013-10-17T13:44:11Z</time>
      </trkpt>
      <trkpt lat="45.68088" lon="6.33278">
        <ele>665</ele>
        <time>2013-10-17T13:44:14Z</time>
      </trkpt>
      <trkpt lat="45.68092" lon="6.33285">
        <ele>665</ele>
        <time>2013-10-17T13:44:16Z</time>
      </trkpt>
      <trkpt lat="45.68099" lon="6.33294">
        <ele>666</ele>
        <time>2013-10-17T13:44:19Z</time>
      </trkpt>
      <trkpt lat="45.68104" lon="6.33298">
        <ele>667</ele>
        <time>2013-10-17T13:44:21Z</time>
      </trkpt>
      <trkpt lat="45.6811" lon="6.33303">
        <ele>667</ele>
        <time>2013-10-17T13:44:23Z</time>
      </trkpt>
      <trkpt lat="45.68119" lon="6.33309">
        <ele>669</ele>
        <time>2013-10-17T13:44:26Z</time>
      </trkpt>
      <trkpt lat="45.68125" lon="6.33313">
        <ele>669</ele>
        <time>2013-10-17T13:44:28Z</time>
      </trkpt>
      <trkpt lat="45.68134" lon="6.33317">
        <ele>670</ele>
        <time>2013-10-17T13:44:31Z</time>
      </trkpt>
      <trkpt lat="45.6814" lon="6.33321">
        <ele>671</ele>
        <time>2013-10-17T13:44:33Z</time>
      </trkpt>
      <trkpt lat="45.68148" lon="6.33327">
        <ele>673</ele>
        <time>2013-10-17T13:44:36Z</time>
      </trkpt>
      <trkpt lat="45.68151" lon="6.33334">
        <ele>673</ele>
        <time>2013-10-17T13:44:38Z</time>
      </trkpt>
      <trkpt lat="45.68157" lon="6.33344">
        <ele>674</ele>
        <time>2013-10-17T13:44:41Z</time>
      </trkpt>
      <trkpt lat="45.68164" lon="6.33353">
        <ele>675</ele>
        <time>2013-10-17T13:44:44Z</time>
      </trkpt>
      <trkpt lat="45.68171" lon="6.33361">
        <ele>677</ele>
        <time>2013-10-17T13:44:47Z</time>
      </trkpt>
      <trkpt lat="45.68176" lon="6.33366">
        <ele>678</ele>
        <time>2013-10-17T13:44:49Z</time>
      </trkpt>
      <trkpt lat="45.68182" lon="6.33375">
        <ele>678</ele>
        <time>2013-10-17T13:44:52Z</time>
      </trkpt>
      <trkpt lat="45.68187" lon="6.33382">
        <ele>679</ele>
        <time>2013-10-17T13:44:54Z</time>
      </trkpt>
      <trkpt lat="45.68189" lon="6.33389">
        <ele>680</ele>
        <time>2013-10-17T13:44:56Z</time>
      </trkpt>
      <trkpt lat="45.6819" lon="6.33397">
        <ele>681</ele>
        <time>2013-10-17T13:44:58Z</time>
      </trkpt>
      <trkpt lat="45.68191" lon="6.33405">
        <ele>682</ele>
        <time>2013-10-17T13:45:00Z</time>
      </trkpt>
      <trkpt lat="45.68193" lon="6.33415">
        <ele>682</ele>
        <time>2013-10-17T13:45:03Z</time>
      </trkpt>
      <trkpt lat="45.68194" lon="6.33424">
        <ele>683</ele>
        <time>2013-10-17T13:45:05Z</time>
      </trkpt>
      <trkpt lat="45.68196" lon="6.33437">
        <ele>684</ele>
        <time>2013-10-17T13:45:08Z</time>
      </trkpt>
      <trkpt lat="45.68198" lon="6.33447">
        <ele>684</ele>
        <time>2013-10-17T13:45:10Z</time>
      </trkpt>
      <trkpt lat="45.68201" lon="6.33457">
        <ele>685</ele>
        <time>2013-10-17T13:45:12Z</time>
      </trkpt>
      <trkpt lat="45.68204" lon="6.33471">
        <ele>686</ele>
        <time>2013-10-17T13:45:15Z</time>
      </trkpt>
      <trkpt lat="45.68207" lon="6.3348">
        <ele>687</ele>
        <time>2013-10-17T13:45:17Z</time>
      </trkpt>
      <trkpt lat="45.68209" lon="6.33489">
        <ele>687</ele>
        <time>2013-10-17T13:45:19Z</time>
      </trkpt>
      <trkpt lat="45.68213" lon="6.33502">
        <ele>688</ele>
        <time>2013-10-17T13:45:22Z</time>
      </trkpt>
      <trkpt lat="45.68216" lon="6.33511">
        <ele>688</ele>
        <time>2013-10-17T13:45:24Z</time>
      </trkpt>
      <trkpt lat="45.68219" lon="6.33521">
        <ele>689</ele>
        <time>2013-10-17T13:45:26Z</time>
      </trkpt>
      <trkpt lat="45.68223" lon="6.3353">
        <ele>689</ele>
        <time>2013-10-17T13:45:28Z</time>
      </trkpt>
      <trkpt lat="45.68229" lon="6.33545">
        <ele>690</ele>
        <time>2013-10-17T13:45:31Z</time>
      </trkpt>
      <trkpt lat="45.68236" lon="6.33559">
        <ele>691</ele>
        <time>2013-10-17T13:45:34Z</time>
      </trkpt>
      <trkpt lat="45.68244" lon="6.33572">
        <ele>692</ele>
        <time>2013-10-17T13:45:37Z</time>
      </trkpt>
      <trkpt lat="45.68249" lon="6.3358">
        <ele>693</ele>
        <time>2013-10-17T13:45:39Z</time>
      </trkpt>
      <trkpt lat="45.68256" lon="6.33594">
        <ele>693</ele>
        <time>2013-10-17T13:45:42Z</time>
      </trkpt>
      <trkpt lat="45.68259" lon="6.33603">
        <ele>694</ele>
        <time>2013-10-17T13:45:44Z</time>
      </trkpt>
      <trkpt lat="45.68265" lon="6.33616">
        <ele>694</ele>
        <time>2013-10-17T13:45:47Z</time>
      </trkpt>
      <trkpt lat="45.68269" lon="6.33624">
        <ele>694</ele>
        <time>2013-10-17T13:45:49Z</time>
      </trkpt>
      <trkpt lat="45.68273" lon="6.33632">
        <ele>694</ele>
        <time>2013-10-17T13:45:51Z</time>
      </trkpt>
      <trkpt lat="45.6828" lon="6.3364">
        <ele>695</ele>
        <time>2013-10-17T13:45:54Z</time>
      </trkpt>
      <trkpt lat="45.68286" lon="6.33642">
        <ele>696</ele>
        <time>2013-10-17T13:45:56Z</time>
      </trkpt>
      <trkpt lat="45.68292" lon="6.33639">
        <ele>697</ele>
        <time>2013-10-17T13:45:58Z</time>
      </trkpt>
      <trkpt lat="45.68296" lon="6.33632">
        <ele>697</ele>
        <time>2013-10-17T13:46:00Z</time>
      </trkpt>
      <trkpt lat="45.68297" lon="6.33624">
        <ele>698</ele>
        <time>2013-10-17T13:46:02Z</time>
      </trkpt>
      <trkpt lat="45.68295" lon="6.33616">
        <ele>698</ele>
        <time>2013-10-17T13:46:04Z</time>
      </trkpt>
      <trkpt lat="45.68292" lon="6.33608">
        <ele>699</ele>
        <time>2013-10-17T13:46:06Z</time>
      </trkpt>
      <trkpt lat="45.68288" lon="6.33599">
        <ele>699</ele>
        <time>2013-10-17T13:46:08Z</time>
      </trkpt>
      <trkpt lat="45.68284" lon="6.33591">
        <ele>700</ele>
        <time>2013-10-17T13:46:10Z</time>
      </trkpt>
      <trkpt lat="45.68279" lon="6.33578">
        <ele>700</ele>
        <time>2013-10-17T13:46:13Z</time>
      </trkpt>
      <trkpt lat="45.68276" lon="6.33568">
        <ele>701</ele>
        <time>2013-10-17T13:46:15Z</time>
      </trkpt>
      <trkpt lat="45.68274" lon="6.33557">
        <ele>701</ele>
        <time>2013-10-17T13:46:17Z</time>
      </trkpt>
      <trkpt lat="45.68269" lon="6.33539">
        <ele>703</ele>
        <time>2013-10-17T13:46:20Z</time>
      </trkpt>
      <trkpt lat="45.68266" lon="6.33527">
        <ele>704</ele>
        <time>2013-10-17T13:46:22Z</time>
      </trkpt>
      <trkpt lat="45.68264" lon="6.33506">
        <ele>704</ele>
        <time>2013-10-17T13:46:25Z</time>
      </trkpt>
      <trkpt lat="45.68263" lon="6.33493">
        <ele>705</ele>
        <time>2013-10-17T13:46:27Z</time>
      </trkpt>
      <trkpt lat="45.68263" lon="6.33479">
        <ele>706</ele>
        <time>2013-10-17T13:46:29Z</time>
      </trkpt>
      <trkpt lat="45.68264" lon="6.33466">
        <ele>706</ele>
        <time>2013-10-17T13:46:31Z</time>
      </trkpt>
      <trkpt lat="45.68264" lon="6.33453">
        <ele>707</ele>
        <time>2013-10-17T13:46:33Z</time>
      </trkpt>
      <trkpt lat="45.68265" lon="6.3344">
        <ele>708</ele>
        <time>2013-10-17T13:46:35Z</time>
      </trkpt>
      <trkpt lat="45.68266" lon="6.33428">
        <ele>708</ele>
        <time>2013-10-17T13:46:37Z</time>
      </trkpt>
      <trkpt lat="45.68268" lon="6.33412">
        <ele>709</ele>
        <time>2013-10-17T13:46:40Z</time>
      </trkpt>
      <trkpt lat="45.68269" lon="6.33399">
        <ele>710</ele>
        <time>2013-10-17T13:46:42Z</time>
      </trkpt>
      <trkpt lat="45.68269" lon="6.33387">
        <ele>711</ele>
        <time>2013-10-17T13:46:44Z</time>
      </trkpt>
      <trkpt lat="45.6827" lon="6.33376">
        <ele>712</ele>
        <time>2013-10-17T13:46:46Z</time>
      </trkpt>
      <trkpt lat="45.68268" lon="6.3336">
        <ele>713</ele>
        <time>2013-10-17T13:46:49Z</time>
      </trkpt>
      <trkpt lat="45.68265" lon="6.33348">
        <ele>714</ele>
        <time>2013-10-17T13:46:51Z</time>
      </trkpt>
      <trkpt lat="45.6826" lon="6.33338">
        <ele>715</ele>
        <time>2013-10-17T13:46:53Z</time>
      </trkpt>
      <trkpt lat="45.68256" lon="6.33329">
        <ele>715</ele>
        <time>2013-10-17T13:46:55Z</time>
      </trkpt>
      <trkpt lat="45.68251" lon="6.33322">
        <ele>716</ele>
        <time>2013-10-17T13:46:57Z</time>
      </trkpt>
      <trkpt lat="45.68247" lon="6.33313">
        <ele>717</ele>
        <time>2013-10-17T13:46:59Z</time>
      </trkpt>
      <trkpt lat="45.68243" lon="6.33304">
        <ele>717</ele>
        <time>2013-10-17T13:47:01Z</time>
      </trkpt>
      <trkpt lat="45.68238" lon="6.33295">
        <ele>718</ele>
        <time>2013-10-17T13:47:03Z</time>
      </trkpt>
      <trkpt lat="45.68231" lon="6.33283">
        <ele>718</ele>
        <time>2013-10-17T13:47:06Z</time>
      </trkpt>
      <trkpt lat="45.68225" lon="6.33275">
        <ele>719</ele>
        <time>2013-10-17T13:47:08Z</time>
      </trkpt>
      <trkpt lat="45.68218" lon="6.33261">
        <ele>720</ele>
        <time>2013-10-17T13:47:11Z</time>
      </trkpt>
      <trkpt lat="45.68214" lon="6.33251">
        <ele>720</ele>
        <time>2013-10-17T13:47:13Z</time>
      </trkpt>
      <trkpt lat="45.68211" lon="6.33243">
        <ele>721</ele>
        <time>2013-10-17T13:47:15Z</time>
      </trkpt>
      <trkpt lat="45.68208" lon="6.33235">
        <ele>721</ele>
        <time>2013-10-17T13:47:17Z</time>
      </trkpt>
      <trkpt lat="45.68205" lon="6.33227">
        <ele>722</ele>
        <time>2013-10-17T13:47:19Z</time>
      </trkpt>
      <trkpt lat="45.68202" lon="6.33215">
        <ele>723</ele>
        <time>2013-10-17T13:47:22Z</time>
      </trkpt>
      <trkpt lat="45.68198" lon="6.33203">
        <ele>723</ele>
        <time>2013-10-17T13:47:25Z</time>
      </trkpt>
      <trkpt lat="45.68196" lon="6.33195">
        <ele>724</ele>
        <time>2013-10-17T13:47:27Z</time>
      </trkpt>
      <trkpt lat="45.68192" lon="6.33181">
        <ele>725</ele>
        <time>2013-10-17T13:47:30Z</time>
      </trkpt>
      <trkpt lat="45.68187" lon="6.33172">
        <ele>726</ele>
        <time>2013-10-17T13:47:32Z</time>
      </trkpt>
      <trkpt lat="45.68182" lon="6.33163">
        <ele>726</ele>
        <time>2013-10-17T13:47:34Z</time>
      </trkpt>
      <trkpt lat="45.68171" lon="6.33154">
        <ele>727</ele>
        <time>2013-10-17T13:47:37Z</time>
      </trkpt>
      <trkpt lat="45.68165" lon="6.33151">
        <ele>728</ele>
        <time>2013-10-17T13:47:39Z</time>
      </trkpt>
      <trkpt lat="45.68155" lon="6.33145">
        <ele>729</ele>
        <time>2013-10-17T13:47:42Z</time>
      </trkpt>
      <trkpt lat="45.68143" lon="6.33136">
        <ele>730</ele>
        <time>2013-10-17T13:47:45Z</time>
      </trkpt>
      <trkpt lat="45.68131" lon="6.33127">
        <ele>731</ele>
        <time>2013-10-17T13:47:48Z</time>
      </trkpt>
      <trkpt lat="45.68124" lon="6.33119">
        <ele>732</ele>
        <time>2013-10-17T13:47:50Z</time>
      </trkpt>
      <trkpt lat="45.68118" lon="6.33112">
        <ele>733</ele>
        <time>2013-10-17T13:47:52Z</time>
      </trkpt>
      <trkpt lat="45.68112" lon="6.33104">
        <ele>733</ele>
        <time>2013-10-17T13:47:54Z</time>
      </trkpt>
      <trkpt lat="45.68104" lon="6.33091">
        <ele>734</ele>
        <time>2013-10-17T13:47:57Z</time>
      </trkpt>
      <trkpt lat="45.68099" lon="6.33084">
        <ele>735</ele>
        <time>2013-10-17T13:47:59Z</time>
      </trkpt>
      <trkpt lat="45.68095" lon="6.33074">
        <ele>735</ele>
        <time>2013-10-17T13:48:01Z</time>
      </trkpt>
      <trkpt lat="45.68092" lon="6.33063">
        <ele>736</ele>
        <time>2013-10-17T13:48:03Z</time>
      </trkpt>
      <trkpt lat="45.68088" lon="6.33053">
        <ele>737</ele>
        <time>2013-10-17T13:48:05Z</time>
      </trkpt>
      <trkpt lat="45.68085" lon="6.33044">
        <ele>737</ele>
        <time>2013-10-17T13:48:07Z</time>
      </trkpt>
      <trkpt lat="45.68081" lon="6.33033">
        <ele>738</ele>
        <time>2013-10-17T13:48:09Z</time>
      </trkpt>
      <trkpt lat="45.68077" lon="6.33022">
        <ele>739</ele>
        <time>2013-10-17T13:48:11Z</time>
      </trkpt>
      <trkpt lat="45.68073" lon="6.33011">
        <ele>739</ele>
        <time>2013-10-17T13:48:13Z</time>
      </trkpt>
      <trkpt lat="45.68068" lon="6.32996">
        <ele>740</ele>
        <time>2013-10-17T13:48:16Z</time>
      </trkpt>
      <trkpt lat="45.68064" lon="6.32984">
        <ele>740</ele>
        <time>2013-10-17T13:48:18Z</time>
      </trkpt>
      <trkpt lat="45.6806" lon="6.32967">
        <ele>742</ele>
        <time>2013-10-17T13:48:21Z</time>
      </trkpt>
      <trkpt lat="45.68056" lon="6.32955">
        <ele>742</ele>
        <time>2013-10-17T13:48:23Z</time>
      </trkpt>
      <trkpt lat="45.68053" lon="6.32942">
        <ele>743</ele>
        <time>2013-10-17T13:48:25Z</time>
      </trkpt>
      <trkpt lat="45.68049" lon="6.32931">
        <ele>744</ele>
        <time>2013-10-17T13:48:27Z</time>
      </trkpt>
      <trkpt lat="45.68045" lon="6.3292">
        <ele>744</ele>
        <time>2013-10-17T13:48:29Z</time>
      </trkpt>
      <trkpt lat="45.68042" lon="6.3291">
        <ele>745</ele>
        <time>2013-10-17T13:48:31Z</time>
      </trkpt>
      <trkpt lat="45.68037" lon="6.32896">
        <ele>746</ele>
        <time>2013-10-17T13:48:34Z</time>
      </trkpt>
      <trkpt lat="45.68032" lon="6.32884">
        <ele>747</ele>
        <time>2013-10-17T13:48:36Z</time>
      </trkpt>
      <trkpt lat="45.68027" lon="6.32872">
        <ele>748</ele>
        <time>2013-10-17T13:48:38Z</time>
      </trkpt>
      <trkpt lat="45.68019" lon="6.32853">
        <ele>749</ele>
        <time>2013-10-17T13:48:41Z</time>
      </trkpt>
      <trkpt lat="45.68015" lon="6.32841">
        <ele>750</ele>
        <time>2013-10-17T13:48:43Z</time>
      </trkpt>
      <trkpt lat="45.68005" lon="6.32825">
        <ele>750</ele>
        <time>2013-10-17T13:48:46Z</time>
      </trkpt>
      <trkpt lat="45.67996" lon="6.32815">
        <ele>751</ele>
        <time>2013-10-17T13:48:49Z</time>
      </trkpt>
      <trkpt lat="45.67989" lon="6.32809">
        <ele>751</ele>
        <time>2013-10-17T13:48:51Z</time>
      </trkpt>
      <trkpt lat="45.67982" lon="6.32803">
        <ele>751</ele>
        <time>2013-10-17T13:48:53Z</time>
      </trkpt>
      <trkpt lat="45.67975" lon="6.32797">
        <ele>752</ele>
        <time>2013-10-17T13:48:55Z</time>
      </trkpt>
      <trkpt lat="45.67968" lon="6.32791">
        <ele>753</ele>
        <time>2013-10-17T13:48:57Z</time>
      </trkpt>
      <trkpt lat="45.67958" lon="6.32778">
        <ele>754</ele>
        <time>2013-10-17T13:49:00Z</time>
      </trkpt>
      <trkpt lat="45.67952" lon="6.32769">
        <ele>755</ele>
        <time>2013-10-17T13:49:02Z</time>
      </trkpt>
      <trkpt lat="45.67943" lon="6.32753">
        <ele>756</ele>
        <time>2013-10-17T13:49:05Z</time>
      </trkpt>
      <trkpt lat="45.67937" lon="6.32743">
        <ele>757</ele>
        <time>2013-10-17T13:49:07Z</time>
      </trkpt>
      <trkpt lat="45.67929" lon="6.32728">
        <ele>758</ele>
        <time>2013-10-17T13:49:10Z</time>
      </trkpt>
      <trkpt lat="45.67923" lon="6.32712">
        <ele>759</ele>
        <time>2013-10-17T13:49:13Z</time>
      </trkpt>
      <trkpt lat="45.67917" lon="6.32695">
        <ele>760</ele>
        <time>2013-10-17T13:49:16Z</time>
      </trkpt>
      <trkpt lat="45.67909" lon="6.32679">
        <ele>761</ele>
        <time>2013-10-17T13:49:19Z</time>
      </trkpt>
      <trkpt lat="45.67903" lon="6.32668">
        <ele>762</ele>
        <time>2013-10-17T13:49:21Z</time>
      </trkpt>
      <trkpt lat="45.67894" lon="6.32652">
        <ele>763</ele>
        <time>2013-10-17T13:49:24Z</time>
      </trkpt>
      <trkpt lat="45.67889" lon="6.32642">
        <ele>763</ele>
        <time>2013-10-17T13:49:26Z</time>
      </trkpt>
      <trkpt lat="45.67884" lon="6.32631">
        <ele>764</ele>
        <time>2013-10-17T13:49:28Z</time>
      </trkpt>
      <trkpt lat="45.67876" lon="6.32614">
        <ele>765</ele>
        <time>2013-10-17T13:49:31Z</time>
      </trkpt>
      <trkpt lat="45.67868" lon="6.32599">
        <ele>765</ele>
        <time>2013-10-17T13:49:34Z</time>
      </trkpt>
      <trkpt lat="45.6786" lon="6.32585">
        <ele>766</ele>
        <time>2013-10-17T13:49:37Z</time>
      </trkpt>
      <trkpt lat="45.67853" lon="6.3257">
        <ele>767</ele>
        <time>2013-10-17T13:49:40Z</time>
      </trkpt>
      <trkpt lat="45.67848" lon="6.3256">
        <ele>768</ele>
        <time>2013-10-17T13:49:42Z</time>
      </trkpt>
      <trkpt lat="45.67839" lon="6.32546">
        <ele>768</ele>
        <time>2013-10-17T13:49:45Z</time>
      </trkpt>
      <trkpt lat="45.67832" lon="6.32533">
        <ele>769</ele>
        <time>2013-10-17T13:49:48Z</time>
      </trkpt>
      <trkpt lat="45.67825" lon="6.32522">
        <ele>770</ele>
        <time>2013-10-17T13:49:51Z</time>
      </trkpt>
      <trkpt lat="45.67818" lon="6.32511">
        <ele>771</ele>
        <time>2013-10-17T13:49:54Z</time>
      </trkpt>
      <trkpt lat="45.67815" lon="6.32503">
        <ele>771</ele>
        <time>2013-10-17T13:49:56Z</time>
      </trkpt>
      <trkpt lat="45.67809" lon="6.32492">
        <ele>772</ele>
        <time>2013-10-17T13:49:59Z</time>
      </trkpt>
      <trkpt lat="45.67805" lon="6.32484">
        <ele>773</ele>
        <time>2013-10-17T13:50:01Z</time>
      </trkpt>
      <trkpt lat="45.67799" lon="6.32471">
        <ele>773</ele>
        <time>2013-10-17T13:50:04Z</time>
      </trkpt>
      <trkpt lat="45.67791" lon="6.32463">
        <ele>774</ele>
        <time>2013-10-17T13:50:07Z</time>
      </trkpt>
      <trkpt lat="45.67785" lon="6.32457">
        <ele>775</ele>
        <time>2013-10-17T13:50:09Z</time>
      </trkpt>
      <trkpt lat="45.67778" lon="6.32451">
        <ele>775</ele>
        <time>2013-10-17T13:50:11Z</time>
      </trkpt>
      <trkpt lat="45.67772" lon="6.32443">
        <ele>776</ele>
        <time>2013-10-17T13:50:13Z</time>
      </trkpt>
      <trkpt lat="45.67765" lon="6.32432">
        <ele>777</ele>
        <time>2013-10-17T13:50:16Z</time>
      </trkpt>
      <trkpt lat="45.6776" lon="6.32425">
        <ele>778</ele>
        <time>2013-10-17T13:50:18Z</time>
      </trkpt>
      <trkpt lat="45.67753" lon="6.32413">
        <ele>778</ele>
        <time>2013-10-17T13:50:21Z</time>
      </trkpt>
      <trkpt lat="45.67745" lon="6.32399">
        <ele>779</ele>
        <time>2013-10-17T13:50:24Z</time>
      </trkpt>
      <trkpt lat="45.67738" lon="6.32387">
        <ele>780</ele>
        <time>2013-10-17T13:50:27Z</time>
      </trkpt>
      <trkpt lat="45.67731" lon="6.32374">
        <ele>782</ele>
        <time>2013-10-17T13:50:30Z</time>
      </trkpt>
      <trkpt lat="45.67724" lon="6.3236">
        <ele>783</ele>
        <time>2013-10-17T13:50:33Z</time>
      </trkpt>
      <trkpt lat="45.67719" lon="6.3235">
        <ele>783</ele>
        <time>2013-10-17T13:50:35Z</time>
      </trkpt>
      <trkpt lat="45.6771" lon="6.32336">
        <ele>784</ele>
        <time>2013-10-17T13:50:38Z</time>
      </trkpt>
      <trkpt lat="45.67704" lon="6.32325">
        <ele>785</ele>
        <time>2013-10-17T13:50:40Z</time>
      </trkpt>
      <trkpt lat="45.67694" lon="6.3231">
        <ele>786</ele>
        <time>2013-10-17T13:50:43Z</time>
      </trkpt>
      <trkpt lat="45.67688" lon="6.32302">
        <ele>787</ele>
        <time>2013-10-17T13:50:45Z</time>
      </trkpt>
      <trkpt lat="45.67682" lon="6.32295">
        <ele>788</ele>
        <time>2013-10-17T13:50:47Z</time>
      </trkpt>
      <trkpt lat="45.67677" lon="6.32287">
        <ele>788</ele>
        <time>2013-10-17T13:50:49Z</time>
      </trkpt>
      <trkpt lat="45.6767" lon="6.32279">
        <ele>789</ele>
        <time>2013-10-17T13:50:51Z</time>
      </trkpt>
      <trkpt lat="45.67662" lon="6.32267">
        <ele>789</ele>
        <time>2013-10-17T13:50:54Z</time>
      </trkpt>
      <trkpt lat="45.67656" lon="6.32259">
        <ele>790</ele>
        <time>2013-10-17T13:50:56Z</time>
      </trkpt>
      <trkpt lat="45.67648" lon="6.32246">
        <ele>791</ele>
        <time>2013-10-17T13:50:59Z</time>
      </trkpt>
      <trkpt lat="45.67641" lon="6.32231">
        <ele>792</ele>
        <time>2013-10-17T13:51:02Z</time>
      </trkpt>
      <trkpt lat="45.67634" lon="6.32215">
        <ele>793</ele>
        <time>2013-10-17T13:51:05Z</time>
      </trkpt>
      <trkpt lat="45.67629" lon="6.32205">
        <ele>794</ele>
        <time>2013-10-17T13:51:07Z</time>
      </trkpt>
      <trkpt lat="45.67622" lon="6.32189">
        <ele>795</ele>
        <time>2013-10-17T13:51:10Z</time>
      </trkpt>
      <trkpt lat="45.67617" lon="6.32178">
        <ele>795</ele>
        <time>2013-10-17T13:51:12Z</time>
      </trkpt>
      <trkpt lat="45.67609" lon="6.3216">
        <ele>796</ele>
        <time>2013-10-17T13:51:15Z</time>
      </trkpt>
      <trkpt lat="45.67603" lon="6.32148">
        <ele>797</ele>
        <time>2013-10-17T13:51:17Z</time>
      </trkpt>
      <trkpt lat="45.67593" lon="6.32131">
        <ele>798</ele>
        <time>2013-10-17T13:51:20Z</time>
      </trkpt>
      <trkpt lat="45.67586" lon="6.3212">
        <ele>799</ele>
        <time>2013-10-17T13:51:22Z</time>
      </trkpt>
      <trkpt lat="45.6758" lon="6.3211">
        <ele>800</ele>
        <time>2013-10-17T13:51:24Z</time>
      </trkpt>
      <trkpt lat="45.67572" lon="6.32097">
        <ele>800</ele>
        <time>2013-10-17T13:51:27Z</time>
      </trkpt>
      <trkpt lat="45.67567" lon="6.3209">
        <ele>801</ele>
        <time>2013-10-17T13:51:29Z</time>
      </trkpt>
      <trkpt lat="45.67559" lon="6.32077">
        <ele>802</ele>
        <time>2013-10-17T13:51:32Z</time>
      </trkpt>
      <trkpt lat="45.67552" lon="6.32066">
        <ele>804</ele>
        <time>2013-10-17T13:51:35Z</time>
      </trkpt>
      <trkpt lat="45.67543" lon="6.32051">
        <ele>805</ele>
        <time>2013-10-17T13:51:38Z</time>
      </trkpt>
      <trkpt lat="45.67532" lon="6.32036">
        <ele>806</ele>
        <time>2013-10-17T13:51:41Z</time>
      </trkpt>
      <trkpt lat="45.67524" lon="6.32023">
        <ele>807</ele>
        <time>2013-10-17T13:51:44Z</time>
      </trkpt>
      <trkpt lat="45.67514" lon="6.32009">
        <ele>809</ele>
        <time>2013-10-17T13:51:47Z</time>
      </trkpt>
      <trkpt lat="45.67504" lon="6.31996">
        <ele>810</ele>
        <time>2013-10-17T13:51:50Z</time>
      </trkpt>
      <trkpt lat="45.67495" lon="6.31982">
        <ele>811</ele>
        <time>2013-10-17T13:51:53Z</time>
      </trkpt>
      <trkpt lat="45.67488" lon="6.31973">
        <ele>812</ele>
        <time>2013-10-17T13:51:55Z</time>
      </trkpt>
      <trkpt lat="45.67481" lon="6.31963">
        <ele>813</ele>
        <time>2013-10-17T13:51:57Z</time>
      </trkpt>
      <trkpt lat="45.67474" lon="6.31955">
        <ele>814</ele>
        <time>2013-10-17T13:51:59Z</time>
      </trkpt>
      <trkpt lat="45.67464" lon="6.31942">
        <ele>814</ele>
        <time>2013-10-17T13:52:02Z</time>
      </trkpt>
      <trkpt lat="45.67457" lon="6.31932">
        <ele>814</ele>
        <time>2013-10-17T13:52:04Z</time>
      </trkpt>
      <trkpt lat="45.67447" lon="6.31918">
        <ele>815</ele>
        <time>2013-10-17T13:52:07Z</time>
      </trkpt>
      <trkpt lat="45.67437" lon="6.31905">
        <ele>816</ele>
        <time>2013-10-17T13:52:10Z</time>
      </trkpt>
      <trkpt lat="45.67429" lon="6.31892">
        <ele>817</ele>
        <time>2013-10-17T13:52:13Z</time>
      </trkpt>
      <trkpt lat="45.67426" lon="6.31881">
        <ele>818</ele>
        <time>2013-10-17T13:52:15Z</time>
      </trkpt>
      <trkpt lat="45.67428" lon="6.31868">
        <ele>819</ele>
        <time>2013-10-17T13:52:18Z</time>
      </trkpt>
      <trkpt lat="45.67435" lon="6.31863">
        <ele>820</ele>
        <time>2013-10-17T13:52:20Z</time>
      </trkpt>
      <trkpt lat="45.67441" lon="6.31866">
        <ele>820</ele>
        <time>2013-10-17T13:52:22Z</time>
      </trkpt>
      <trkpt lat="45.67449" lon="6.31874">
        <ele>821</ele>
        <time>2013-10-17T13:52:25Z</time>
      </trkpt>
      <trkpt lat="45.67456" lon="6.31881">
        <ele>822</ele>
        <time>2013-10-17T13:52:28Z</time>
      </trkpt>
      <trkpt lat="45.67461" lon="6.31886">
        <ele>822</ele>
        <time>2013-10-17T13:52:30Z</time>
      </trkpt>
      <trkpt lat="45.67467" lon="6.31889">
        <ele>823</ele>
        <time>2013-10-17T13:52:32Z</time>
      </trkpt>
      <trkpt lat="45.67476" lon="6.31894">
        <ele>823</ele>
        <time>2013-10-17T13:52:35Z</time>
      </trkpt>
      <trkpt lat="45.67485" lon="6.31898">
        <ele>824</ele>
        <time>2013-10-17T13:52:38Z</time>
      </trkpt>
      <trkpt lat="45.6749" lon="6.31902">
        <ele>825</ele>
        <time>2013-10-17T13:52:40Z</time>
      </trkpt>
      <trkpt lat="45.67499" lon="6.31907">
        <ele>826</ele>
        <time>2013-10-17T13:52:43Z</time>
      </trkpt>
      <trkpt lat="45.67505" lon="6.3191">
        <ele>827</ele>
        <time>2013-10-17T13:52:45Z</time>
      </trkpt>
      <trkpt lat="45.67515" lon="6.31917">
        <ele>828</ele>
        <time>2013-10-17T13:52:48Z</time>
      </trkpt>
      <trkpt lat="45.67521" lon="6.31921">
        <ele>829</ele>
        <time>2013-10-17T13:52:50Z</time>
      </trkpt>
      <trkpt lat="45.67529" lon="6.31927">
        <ele>830</ele>
        <time>2013-10-17T13:52:53Z</time>
      </trkpt>
      <trkpt lat="45.67534" lon="6.31932">
        <ele>831</ele>
        <time>2013-10-17T13:52:55Z</time>
      </trkpt>
      <trkpt lat="45.67544" lon="6.31941">
        <ele>831</ele>
        <time>2013-10-17T13:52:58Z</time>
      </trkpt>
      <trkpt lat="45.6755" lon="6.31947">
        <ele>832</ele>
        <time>2013-10-17T13:53:00Z</time>
      </trkpt>
      <trkpt lat="45.67559" lon="6.31956">
        <ele>833</ele>
        <time>2013-10-17T13:53:03Z</time>
      </trkpt>
      <trkpt lat="45.67565" lon="6.31962">
        <ele>833</ele>
        <time>2013-10-17T13:53:05Z</time>
      </trkpt>
      <trkpt lat="45.67571" lon="6.31967">
        <ele>834</ele>
        <time>2013-10-17T13:53:07Z</time>
      </trkpt>
      <trkpt lat="45.6758" lon="6.31975">
        <ele>835</ele>
        <time>2013-10-17T13:53:10Z</time>
      </trkpt>
      <trkpt lat="45.67589" lon="6.31983">
        <ele>836</ele>
        <time>2013-10-17T13:53:13Z</time>
      </trkpt>
      <trkpt lat="45.67596" lon="6.3199">
        <ele>836</ele>
        <time>2013-10-17T13:53:15Z</time>
      </trkpt>
      <trkpt lat="45.67606" lon="6.32003">
        <ele>837</ele>
        <time>2013-10-17T13:53:18Z</time>
      </trkpt>
      <trkpt lat="45.67612" lon="6.32013">
        <ele>838</ele>
        <time>2013-10-17T13:53:20Z</time>
      </trkpt>
      <trkpt lat="45.67622" lon="6.32028">
        <ele>839</ele>
        <time>2013-10-17T13:53:23Z</time>
      </trkpt>
      <trkpt lat="45.6763" lon="6.32043">
        <ele>840</ele>
        <time>2013-10-17T13:53:26Z</time>
      </trkpt>
      <trkpt lat="45.67638" lon="6.3205">
        <ele>841</ele>
        <time>2013-10-17T13:53:28Z</time>
      </trkpt>
      <trkpt lat="45.67648" lon="6.32045">
        <ele>842</ele>
        <time>2013-10-17T13:53:31Z</time>
      </trkpt>
      <trkpt lat="45.67649" lon="6.32037">
        <ele>842</ele>
        <time>2013-10-17T13:53:33Z</time>
      </trkpt>
      <trkpt lat="45.67646" lon="6.32031">
        <ele>843</ele>
        <time>2013-10-17T13:53:35Z</time>
      </trkpt>
      <trkpt lat="45.67639" lon="6.32022">
        <ele>844</ele>
        <time>2013-10-17T13:53:38Z</time>
      </trkpt>
      <trkpt lat="45.67633" lon="6.32014">
        <ele>844</ele>
        <time>2013-10-17T13:53:40Z</time>
      </trkpt>
      <trkpt lat="45.67627" lon="6.32006">
        <ele>844</ele>
        <time>2013-10-17T13:53:42Z</time>
      </trkpt>
      <trkpt lat="45.67619" lon="6.31993">
        <ele>845</ele>
        <time>2013-10-17T13:53:45Z</time>
      </trkpt>
      <trkpt lat="45.67612" lon="6.31981">
        <ele>846</ele>
        <time>2013-10-17T13:53:48Z</time>
      </trkpt>
      <trkpt lat="45.67608" lon="6.31974">
        <ele>846</ele>
        <time>2013-10-17T13:53:50Z</time>
      </trkpt>
      <trkpt lat="45.67603" lon="6.31966">
        <ele>847</ele>
        <time>2013-10-17T13:53:52Z</time>
      </trkpt>
      <trkpt lat="45.67598" lon="6.31957">
        <ele>848</ele>
        <time>2013-10-17T13:53:54Z</time>
      </trkpt>
      <trkpt lat="45.67593" lon="6.31945">
        <ele>849</ele>
        <time>2013-10-17T13:53:57Z</time>
      </trkpt>
      <trkpt lat="45.6759" lon="6.31935">
        <ele>849</ele>
        <time>2013-10-17T13:53:59Z</time>
      </trkpt>
      <trkpt lat="45.67586" lon="6.31924">
        <ele>850</ele>
        <time>2013-10-17T13:54:01Z</time>
      </trkpt>
      <trkpt lat="45.6758" lon="6.31909">
        <ele>850</ele>
        <time>2013-10-17T13:54:04Z</time>
      </trkpt>
      <trkpt lat="45.67575" lon="6.31899">
        <ele>851</ele>
        <time>2013-10-17T13:54:06Z</time>
      </trkpt>
      <trkpt lat="45.67569" lon="6.31885">
        <ele>852</ele>
        <time>2013-10-17T13:54:09Z</time>
      </trkpt>
      <trkpt lat="45.67564" lon="6.31876">
        <ele>853</ele>
        <time>2013-10-17T13:54:11Z</time>
      </trkpt>
      <trkpt lat="45.67557" lon="6.31862">
        <ele>854</ele>
        <time>2013-10-17T13:54:14Z</time>
      </trkpt>
      <trkpt lat="45.67548" lon="6.31848">
        <ele>855</ele>
        <time>2013-10-17T13:54:17Z</time>
      </trkpt>
      <trkpt lat="45.6754" lon="6.31834">
        <ele>856</ele>
        <time>2013-10-17T13:54:20Z</time>
      </trkpt>
      <trkpt lat="45.67533" lon="6.31819">
        <ele>857</ele>
        <time>2013-10-17T13:54:23Z</time>
      </trkpt>
      <trkpt lat="45.67529" lon="6.31808">
        <ele>858</ele>
        <time>2013-10-17T13:54:25Z</time>
      </trkpt>
      <trkpt lat="45.67526" lon="6.31797">
        <ele>859</ele>
        <time>2013-10-17T13:54:27Z</time>
      </trkpt>
      <trkpt lat="45.67523" lon="6.3178">
        <ele>859</ele>
        <time>2013-10-17T13:54:30Z</time>
      </trkpt>
      <trkpt lat="45.67522" lon="6.3177">
        <ele>860</ele>
        <time>2013-10-17T13:54:32Z</time>
      </trkpt>
      <trkpt lat="45.67521" lon="6.31759">
        <ele>861</ele>
        <time>2013-10-17T13:54:34Z</time>
      </trkpt>
      <trkpt lat="45.67517" lon="6.31742">
        <ele>861</ele>
        <time>2013-10-17T13:54:37Z</time>
      </trkpt>
      <trkpt lat="45.67513" lon="6.31725">
        <ele>862</ele>
        <time>2013-10-17T13:54:40Z</time>
      </trkpt>
      <trkpt lat="45.6751" lon="6.31714">
        <ele>863</ele>
        <time>2013-10-17T13:54:42Z</time>
      </trkpt>
      <trkpt lat="45.67506" lon="6.31704">
        <ele>864</ele>
        <time>2013-10-17T13:54:44Z</time>
      </trkpt>
      <trkpt lat="45.67503" lon="6.31695">
        <ele>865</ele>
        <time>2013-10-17T13:54:46Z</time>
      </trkpt>
      <trkpt lat="45.67499" lon="6.31687">
        <ele>865</ele>
        <time>2013-10-17T13:54:48Z</time>
      </trkpt>
      <trkpt lat="45.67493" lon="6.31675">
        <ele>865</ele>
        <time>2013-10-17T13:54:51Z</time>
      </trkpt>
      <trkpt lat="45.6749" lon="6.31665">
        <ele>866</ele>
        <time>2013-10-17T13:54:53Z</time>
      </trkpt>
      <trkpt lat="45.67489" lon="6.31649">
        <ele>867</ele>
        <time>2013-10-17T13:54:56Z</time>
      </trkpt>
      <trkpt lat="45.67489" lon="6.31637">
        <ele>867</ele>
        <time>2013-10-17T13:54:58Z</time>
      </trkpt>
      <trkpt lat="45.6749" lon="6.3162">
        <ele>868</ele>
        <time>2013-10-17T13:55:01Z</time>
      </trkpt>
      <trkpt lat="45.67489" lon="6.31602">
        <ele>870</ele>
        <time>2013-10-17T13:55:04Z</time>
      </trkpt>
      <trkpt lat="45.67488" lon="6.31589">
        <ele>871</ele>
        <time>2013-10-17T13:55:06Z</time>
      </trkpt>
      <trkpt lat="45.67487" lon="6.31576">
        <ele>871</ele>
        <time>2013-10-17T13:55:08Z</time>
      </trkpt>
      <trkpt lat="45.67485" lon="6.31559">
        <ele>872</ele>
        <time>2013-10-17T13:55:11Z</time>
      </trkpt>
      <trkpt lat="45.67486" lon="6.31547">
        <ele>873</ele>
        <time>2013-10-17T13:55:13Z</time>
      </trkpt>
      <trkpt lat="45.67489" lon="6.3153">
        <ele>873</ele>
        <time>2013-10-17T13:55:16Z</time>
      </trkpt>
      <trkpt lat="45.67493" lon="6.31514">
        <ele>874</ele>
        <time>2013-10-17T13:55:19Z</time>
      </trkpt>
      <trkpt lat="45.67495" lon="6.31503">
        <ele>874</ele>
        <time>2013-10-17T13:55:21Z</time>
      </trkpt>
      <trkpt lat="45.67496" lon="6.31491">
        <ele>875</ele>
        <time>2013-10-17T13:55:23Z</time>
      </trkpt>
      <trkpt lat="45.67496" lon="6.31477">
        <ele>875</ele>
        <time>2013-10-17T13:55:25Z</time>
      </trkpt>
      <trkpt lat="45.67497" lon="6.31459">
        <ele>875</ele>
        <time>2013-10-17T13:55:28Z</time>
      </trkpt>
      <trkpt lat="45.67498" lon="6.31448">
        <ele>875</ele>
        <time>2013-10-17T13:55:30Z</time>
      </trkpt>
      <trkpt lat="45.675" lon="6.31437">
        <ele>874</ele>
        <time>2013-10-17T13:55:32Z</time>
      </trkpt>
      <trkpt lat="45.67505" lon="6.31418">
        <ele>874</ele>
        <time>2013-10-17T13:55:35Z</time>
      </trkpt>
      <trkpt lat="45.67509" lon="6.31394">
        <ele>874</ele>
        <time>2013-10-17T13:55:38Z</time>
      </trkpt>
      <trkpt lat="45.67509" lon="6.31365">
        <ele>874</ele>
        <time>2013-10-17T13:55:41Z</time>
      </trkpt>
      <trkpt lat="45.67502" lon="6.31348">
        <ele>874</ele>
        <time>2013-10-17T13:55:43Z</time>
      </trkpt>
      <trkpt lat="45.67488" lon="6.3134">
        <ele>873</ele>
        <time>2013-10-17T13:55:45Z</time>
      </trkpt>
      <trkpt lat="45.67472" lon="6.31337">
        <ele>873</ele>
        <time>2013-10-17T13:55:47Z</time>
      </trkpt>
      <trkpt lat="45.67449" lon="6.31316">
        <ele>872</ele>
        <time>2013-10-17T13:55:50Z</time>
      </trkpt>
      <trkpt lat="45.6744" lon="6.31292">
        <ele>872</ele>
        <time>2013-10-17T13:55:52Z</time>
      </trkpt>
      <trkpt lat="45.67435" lon="6.31257">
        <ele>872</ele>
        <time>2013-10-17T13:55:55Z</time>
      </trkpt>
      <trkpt lat="45.67429" lon="6.31239">
        <ele>872</ele>
        <time>2013-10-17T13:55:57Z</time>
      </trkpt>
      <trkpt lat="45.6741" lon="6.31219">
        <ele>871</ele>
        <time>2013-10-17T13:56:00Z</time>
      </trkpt>
      <trkpt lat="45.674" lon="6.31201">
        <ele>871</ele>
        <time>2013-10-17T13:56:02Z</time>
      </trkpt>
      <trkpt lat="45.67394" lon="6.31173">
        <ele>870</ele>
        <time>2013-10-17T13:56:05Z</time>
      </trkpt>
      <trkpt lat="45.67394" lon="6.31145">
        <ele>871</ele>
        <time>2013-10-17T13:56:08Z</time>
      </trkpt>
      <trkpt lat="45.67396" lon="6.31114">
        <ele>871</ele>
        <time>2013-10-17T13:56:11Z</time>
      </trkpt>
      <trkpt lat="45.67387" lon="6.31084">
        <ele>871</ele>
        <time>2013-10-17T13:56:14Z</time>
      </trkpt>
      <trkpt lat="45.67376" lon="6.31066">
        <ele>870</ele>
        <time>2013-10-17T13:56:16Z</time>
      </trkpt>
      <trkpt lat="45.6736" lon="6.31048">
        <ele>869</ele>
        <time>2013-10-17T13:56:18Z</time>
      </trkpt>
      <trkpt lat="45.67342" lon="6.31031">
        <ele>868</ele>
        <time>2013-10-17T13:56:20Z</time>
      </trkpt>
      <trkpt lat="45.67311" lon="6.31009">
        <ele>867</ele>
        <time>2013-10-17T13:56:23Z</time>
      </trkpt>
      <trkpt lat="45.67288" lon="6.30996">
        <ele>866</ele>
        <time>2013-10-17T13:56:25Z</time>
      </trkpt>
      <trkpt lat="45.67265" lon="6.30985">
        <ele>864</ele>
        <time>2013-10-17T13:56:27Z</time>
      </trkpt>
      <trkpt lat="45.67241" lon="6.30977">
        <ele>863</ele>
        <time>2013-10-17T13:56:29Z</time>
      </trkpt>
      <trkpt lat="45.67202" lon="6.30976">
        <ele>862</ele>
        <time>2013-10-17T13:56:32Z</time>
      </trkpt>
      <trkpt lat="45.67176" lon="6.30974">
        <ele>862</ele>
        <time>2013-10-17T13:56:34Z</time>
      </trkpt>
      <trkpt lat="45.67149" lon="6.30972">
        <ele>860</ele>
        <time>2013-10-17T13:56:36Z</time>
      </trkpt>
      <trkpt lat="45.67122" lon="6.30966">
        <ele>858</ele>
        <time>2013-10-17T13:56:38Z</time>
      </trkpt>
      <trkpt lat="45.67082" lon="6.30955">
        <ele>855</ele>
        <time>2013-10-17T13:56:41Z</time>
      </trkpt>
      <trkpt lat="45.67056" lon="6.30943">
        <ele>852</ele>
        <time>2013-10-17T13:56:43Z</time>
      </trkpt>
      <trkpt lat="45.67031" lon="6.30939">
        <ele>848</ele>
        <time>2013-10-17T13:56:45Z</time>
      </trkpt>
      <trkpt lat="45.67005" lon="6.30922">
        <ele>843</ele>
        <time>2013-10-17T13:56:48Z</time>
      </trkpt>
      <trkpt lat="45.67004" lon="6.30896">
        <ele>840</ele>
        <time>2013-10-17T13:56:50Z</time>
      </trkpt>
      <trkpt lat="45.67008" lon="6.3087">
        <ele>838</ele>
        <time>2013-10-17T13:56:52Z</time>
      </trkpt>
      <trkpt lat="45.67014" lon="6.30845">
        <ele>836</ele>
        <time>2013-10-17T13:56:54Z</time>
      </trkpt>
      <trkpt lat="45.67022" lon="6.30816">
        <ele>834</ele>
        <time>2013-10-17T13:56:57Z</time>
      </trkpt>
      <trkpt lat="45.67028" lon="6.30811">
        <ele>832</ele>
        <time>2013-10-17T13:56:59Z</time>
      </trkpt>
      <trkpt lat="45.67036" lon="6.30819">
        <ele>831</ele>
        <time>2013-10-17T13:57:02Z</time>
      </trkpt>
      <trkpt lat="45.67046" lon="6.30831">
        <ele>829</ele>
        <time>2013-10-17T13:57:05Z</time>
      </trkpt>
      <trkpt lat="45.67055" lon="6.30838">
        <ele>829</ele>
        <time>2013-10-17T13:57:07Z</time>
      </trkpt>
      <trkpt lat="45.67065" lon="6.30844">
        <ele>829</ele>
        <time>2013-10-17T13:57:09Z</time>
      </trkpt>
      <trkpt lat="45.67076" lon="6.30851">
        <ele>829</ele>
        <time>2013-10-17T13:57:11Z</time>
      </trkpt>
      <trkpt lat="45.67094" lon="6.3086">
        <ele>830</ele>
        <time>2013-10-17T13:57:14Z</time>
      </trkpt>
      <trkpt lat="45.67105" lon="6.30865">
        <ele>830</ele>
        <time>2013-10-17T13:57:16Z</time>
      </trkpt>
      <trkpt lat="45.67124" lon="6.30875">
        <ele>829</ele>
        <time>2013-10-17T13:57:19Z</time>
      </trkpt>
      <trkpt lat="45.67138" lon="6.3088">
        <ele>828</ele>
        <time>2013-10-17T13:57:21Z</time>
      </trkpt>
      <trkpt lat="45.67152" lon="6.30882">
        <ele>828</ele>
        <time>2013-10-17T13:57:23Z</time>
      </trkpt>
      <trkpt lat="45.67175" lon="6.30879">
        <ele>828</ele>
        <time>2013-10-17T13:57:26Z</time>
      </trkpt>
      <trkpt lat="45.67192" lon="6.30878">
        <ele>828</ele>
        <time>2013-10-17T13:57:28Z</time>
      </trkpt>
      <trkpt lat="45.67209" lon="6.30876">
        <ele>828</ele>
        <time>2013-10-17T13:57:30Z</time>
      </trkpt>
      <trkpt lat="45.67233" lon="6.30872">
        <ele>829</ele>
        <time>2013-10-17T13:57:33Z</time>
      </trkpt>
      <trkpt lat="45.67249" lon="6.30868">
        <ele>829</ele>
        <time>2013-10-17T13:57:35Z</time>
      </trkpt>
      <trkpt lat="45.67265" lon="6.30866">
        <ele>829</ele>
        <time>2013-10-17T13:57:37Z</time>
      </trkpt>
      <trkpt lat="45.67281" lon="6.30863">
        <ele>828</ele>
        <time>2013-10-17T13:57:39Z</time>
      </trkpt>
      <trkpt lat="45.67296" lon="6.3086">
        <ele>828</ele>
        <time>2013-10-17T13:57:41Z</time>
      </trkpt>
      <trkpt lat="45.6732" lon="6.30856">
        <ele>827</ele>
        <time>2013-10-17T13:57:44Z</time>
      </trkpt>
      <trkpt lat="45.67338" lon="6.30853">
        <ele>827</ele>
        <time>2013-10-17T13:57:46Z</time>
      </trkpt>
      <trkpt lat="45.67358" lon="6.30852">
        <ele>827</ele>
        <time>2013-10-17T13:57:48Z</time>
      </trkpt>
      <trkpt lat="45.67386" lon="6.30857">
        <ele>828</ele>
        <time>2013-10-17T13:57:51Z</time>
      </trkpt>
      <trkpt lat="45.67406" lon="6.30861">
        <ele>828</ele>
        <time>2013-10-17T13:57:53Z</time>
      </trkpt>
      <trkpt lat="45.67435" lon="6.30867">
        <ele>827</ele>
        <time>2013-10-17T13:57:56Z</time>
      </trkpt>
      <trkpt lat="45.67465" lon="6.30872">
        <ele>826</ele>
        <time>2013-10-17T13:57:59Z</time>
      </trkpt>
      <trkpt lat="45.67497" lon="6.30877">
        <ele>824</ele>
        <time>2013-10-17T13:58:02Z</time>
      </trkpt>
      <trkpt lat="45.67519" lon="6.30879">
        <ele>823</ele>
        <time>2013-10-17T13:58:04Z</time>
      </trkpt>
      <trkpt lat="45.67542" lon="6.3088">
        <ele>822</ele>
        <time>2013-10-17T13:58:06Z</time>
      </trkpt>
      <trkpt lat="45.67565" lon="6.30878">
        <ele>821</ele>
        <time>2013-10-17T13:58:08Z</time>
      </trkpt>
      <trkpt lat="45.67589" lon="6.30876">
        <ele>820</ele>
        <time>2013-10-17T13:58:10Z</time>
      </trkpt>
      <trkpt lat="45.67625" lon="6.3087">
        <ele>818</ele>
        <time>2013-10-17T13:58:13Z</time>
      </trkpt>
      <trkpt lat="45.67648" lon="6.30865">
        <ele>817</ele>
        <time>2013-10-17T13:58:15Z</time>
      </trkpt>
      <trkpt lat="45.67673" lon="6.30861">
        <ele>815</ele>
        <time>2013-10-17T13:58:17Z</time>
      </trkpt>
      <trkpt lat="45.67698" lon="6.30855">
        <ele>813</ele>
        <time>2013-10-17T13:58:19Z</time>
      </trkpt>
      <trkpt lat="45.67736" lon="6.30846">
        <ele>811</ele>
        <time>2013-10-17T13:58:22Z</time>
      </trkpt>
      <trkpt lat="45.67762" lon="6.30838">
        <ele>810</ele>
        <time>2013-10-17T13:58:24Z</time>
      </trkpt>
      <trkpt lat="45.67786" lon="6.30829">
        <ele>809</ele>
        <time>2013-10-17T13:58:26Z</time>
      </trkpt>
      <trkpt lat="45.67825" lon="6.3082">
        <ele>805</ele>
        <time>2013-10-17T13:58:29Z</time>
      </trkpt>
      <trkpt lat="45.6785" lon="6.30821">
        <ele>804</ele>
        <time>2013-10-17T13:58:31Z</time>
      </trkpt>
      <trkpt lat="45.67887" lon="6.30837">
        <ele>802</ele>
        <time>2013-10-17T13:58:34Z</time>
      </trkpt>
      <trkpt lat="45.6791" lon="6.3085">
        <ele>801</ele>
        <time>2013-10-17T13:58:36Z</time>
      </trkpt>
      <trkpt lat="45.67934" lon="6.30863">
        <ele>800</ele>
        <time>2013-10-17T13:58:38Z</time>
      </trkpt>
      <trkpt lat="45.67972" lon="6.30883">
        <ele>798</ele>
        <time>2013-10-17T13:58:41Z</time>
      </trkpt>
      <trkpt lat="45.67998" lon="6.30896">
        <ele>796</ele>
        <time>2013-10-17T13:58:43Z</time>
      </trkpt>
      <trkpt lat="45.68037" lon="6.30912">
        <ele>795</ele>
        <time>2013-10-17T13:58:46Z</time>
      </trkpt>
      <trkpt lat="45.68064" lon="6.30923">
        <ele>793</ele>
        <time>2013-10-17T13:58:48Z</time>
      </trkpt>
      <trkpt lat="45.6809" lon="6.30932">
        <ele>793</ele>
        <time>2013-10-17T13:58:50Z</time>
      </trkpt>
      <trkpt lat="45.68116" lon="6.3094">
        <ele>792</ele>
        <time>2013-10-17T13:58:52Z</time>
      </trkpt>
      <trkpt lat="45.68155" lon="6.30949">
        <ele>791</ele>
        <time>2013-10-17T13:58:55Z</time>
      </trkpt>
      <trkpt lat="45.68182" lon="6.30943">
        <ele>789</ele>
        <time>2013-10-17T13:58:57Z</time>
      </trkpt>
      <trkpt lat="45.68205" lon="6.30924">
        <ele>787</ele>
        <time>2013-10-17T13:58:59Z</time>
      </trkpt>
      <trkpt lat="45.68234" lon="6.30886">
        <ele>785</ele>
        <time>2013-10-17T13:59:02Z</time>
      </trkpt>
      <trkpt lat="45.68254" lon="6.30864">
        <ele>783</ele>
        <time>2013-10-17T13:59:04Z</time>
      </trkpt>
      <trkpt lat="45.68277" lon="6.30853">
        <ele>782</ele>
        <time>2013-10-17T13:59:06Z</time>
      </trkpt>
      <trkpt lat="45.68319" lon="6.30846">
        <ele>778</ele>
        <time>2013-10-17T13:59:09Z</time>
      </trkpt>
      <trkpt lat="45.68346" lon="6.30842">
        <ele>777</ele>
        <time>2013-10-17T13:59:11Z</time>
      </trkpt>
      <trkpt lat="45.68388" lon="6.30847">
        <ele>774</ele>
        <time>2013-10-17T13:59:14Z</time>
      </trkpt>
      <trkpt lat="45.68427" lon="6.30862">
        <ele>770</ele>
        <time>2013-10-17T13:59:17Z</time>
      </trkpt>
      <trkpt lat="45.68453" lon="6.30871">
        <ele>768</ele>
        <time>2013-10-17T13:59:19Z</time>
      </trkpt>
      <trkpt lat="45.68478" lon="6.30882">
        <ele>767</ele>
        <time>2013-10-17T13:59:21Z</time>
      </trkpt>
      <trkpt lat="45.68514" lon="6.30897">
        <ele>766</ele>
        <time>2013-10-17T13:59:24Z</time>
      </trkpt>
      <trkpt lat="45.68537" lon="6.30908">
        <ele>764</ele>
        <time>2013-10-17T13:59:26Z</time>
      </trkpt>
      <trkpt lat="45.6856" lon="6.30919">
        <ele>762</ele>
        <time>2013-10-17T13:59:28Z</time>
      </trkpt>
      <trkpt lat="45.68593" lon="6.30934">
        <ele>761</ele>
        <time>2013-10-17T13:59:31Z</time>
      </trkpt>
      <trkpt lat="45.68615" lon="6.30941">
        <ele>760</ele>
        <time>2013-10-17T13:59:33Z</time>
      </trkpt>
      <trkpt lat="45.68636" lon="6.30947">
        <ele>759</ele>
        <time>2013-10-17T13:59:35Z</time>
      </trkpt>
      <trkpt lat="45.68669" lon="6.30955">
        <ele>759</ele>
        <time>2013-10-17T13:59:38Z</time>
      </trkpt>
      <trkpt lat="45.6869" lon="6.30957">
        <ele>758</ele>
        <time>2013-10-17T13:59:40Z</time>
      </trkpt>
      <trkpt lat="45.6872" lon="6.30959">
        <ele>758</ele>
        <time>2013-10-17T13:59:43Z</time>
      </trkpt>
      <trkpt lat="45.68751" lon="6.3096">
        <ele>757</ele>
        <time>2013-10-17T13:59:46Z</time>
      </trkpt>
      <trkpt lat="45.6877" lon="6.30962">
        <ele>757</ele>
        <time>2013-10-17T13:59:48Z</time>
      </trkpt>
      <trkpt lat="45.6879" lon="6.30962">
        <ele>758</ele>
        <time>2013-10-17T13:59:50Z</time>
      </trkpt>
      <trkpt lat="45.68809" lon="6.3096">
        <ele>757</ele>
        <time>2013-10-17T13:59:52Z</time>
      </trkpt>
      <trkpt lat="45.68827" lon="6.30956">
        <ele>757</ele>
        <time>2013-10-17T13:59:54Z</time>
      </trkpt>
      <trkpt lat="45.68855" lon="6.30947">
        <ele>757</ele>
        <time>2013-10-17T13:59:57Z</time>
      </trkpt>
      <trkpt lat="45.68881" lon="6.30937">
        <ele>758</ele>
        <time>2013-10-17T14:00:00Z</time>
      </trkpt>
      <trkpt lat="45.68899" lon="6.3093">
        <ele>758</ele>
        <time>2013-10-17T14:00:02Z</time>
      </trkpt>
      <trkpt lat="45.68916" lon="6.30923">
        <ele>757</ele>
        <time>2013-10-17T14:00:04Z</time>
      </trkpt>
      <trkpt lat="45.68943" lon="6.30911">
        <ele>757</ele>
        <time>2013-10-17T14:00:07Z</time>
      </trkpt>
      <trkpt lat="45.68961" lon="6.30903">
        <ele>757</ele>
        <time>2013-10-17T14:00:09Z</time>
      </trkpt>
      <trkpt lat="45.68987" lon="6.30888">
        <ele>756</ele>
        <time>2013-10-17T14:00:12Z</time>
      </trkpt>
      <trkpt lat="45.69014" lon="6.30874">
        <ele>754</ele>
        <time>2013-10-17T14:00:15Z</time>
      </trkpt>
      <trkpt lat="45.69032" lon="6.30864">
        <ele>753</ele>
        <time>2013-10-17T14:00:17Z</time>
      </trkpt>
      <trkpt lat="45.69058" lon="6.30849">
        <ele>752</ele>
        <time>2013-10-17T14:00:20Z</time>
      </trkpt>
      <trkpt lat="45.69077" lon="6.3084">
        <ele>751</ele>
        <time>2013-10-17T14:00:22Z</time>
      </trkpt>
      <trkpt lat="45.69109" lon="6.30831">
        <ele>751</ele>
        <time>2013-10-17T14:00:25Z</time>
      </trkpt>
      <trkpt lat="45.69129" lon="6.30826">
        <ele>750</ele>
        <time>2013-10-17T14:00:27Z</time>
      </trkpt>
      <trkpt lat="45.69151" lon="6.30822">
        <ele>750</ele>
        <time>2013-10-17T14:00:29Z</time>
      </trkpt>
      <trkpt lat="45.69184" lon="6.30816">
        <ele>749</ele>
        <time>2013-10-17T14:00:32Z</time>
      </trkpt>
      <trkpt lat="45.69205" lon="6.30811">
        <ele>748</ele>
        <time>2013-10-17T14:00:34Z</time>
      </trkpt>
      <trkpt lat="45.69227" lon="6.30806">
        <ele>747</ele>
        <time>2013-10-17T14:00:36Z</time>
      </trkpt>
      <trkpt lat="45.69248" lon="6.30801">
        <ele>746</ele>
        <time>2013-10-17T14:00:38Z</time>
      </trkpt>
      <trkpt lat="45.6928" lon="6.30794">
        <ele>745</ele>
        <time>2013-10-17T14:00:41Z</time>
      </trkpt>
      <trkpt lat="45.69302" lon="6.30789">
        <ele>745</ele>
        <time>2013-10-17T14:00:43Z</time>
      </trkpt>
      <trkpt lat="45.69336" lon="6.3078">
        <ele>744</ele>
        <time>2013-10-17T14:00:46Z</time>
      </trkpt>
      <trkpt lat="45.69358" lon="6.30775">
        <ele>744</ele>
        <time>2013-10-17T14:00:48Z</time>
      </trkpt>
      <trkpt lat="45.69393" lon="6.30768">
        <ele>742</ele>
        <time>2013-10-17T14:00:51Z</time>
      </trkpt>
      <trkpt lat="45.69416" lon="6.30762">
        <ele>741</ele>
        <time>2013-10-17T14:00:53Z</time>
      </trkpt>
      <trkpt lat="45.69453" lon="6.30761">
        <ele>740</ele>
        <time>2013-10-17T14:00:56Z</time>
      </trkpt>
      <trkpt lat="45.69476" lon="6.30765">
        <ele>740</ele>
        <time>2013-10-17T14:00:58Z</time>
      </trkpt>
      <trkpt lat="45.69511" lon="6.30771">
        <ele>738</ele>
        <time>2013-10-17T14:01:01Z</time>
      </trkpt>
      <trkpt lat="45.69534" lon="6.30776">
        <ele>737</ele>
        <time>2013-10-17T14:01:03Z</time>
      </trkpt>
      <trkpt lat="45.6957" lon="6.30784">
        <ele>735</ele>
        <time>2013-10-17T14:01:06Z</time>
      </trkpt>
      <trkpt lat="45.69604" lon="6.30799">
        <ele>734</ele>
        <time>2013-10-17T14:01:09Z</time>
      </trkpt>
      <trkpt lat="45.69627" lon="6.30809">
        <ele>733</ele>
        <time>2013-10-17T14:01:11Z</time>
      </trkpt>
      <trkpt lat="45.69661" lon="6.30824">
        <ele>731</ele>
        <time>2013-10-17T14:01:14Z</time>
      </trkpt>
      <trkpt lat="45.69684" lon="6.30835">
        <ele>730</ele>
        <time>2013-10-17T14:01:16Z</time>
      </trkpt>
      <trkpt lat="45.69721" lon="6.30848">
        <ele>728</ele>
        <time>2013-10-17T14:01:19Z</time>
      </trkpt>
      <trkpt lat="45.69757" lon="6.30856">
        <ele>726</ele>
        <time>2013-10-17T14:01:22Z</time>
      </trkpt>
      <trkpt lat="45.69781" lon="6.30862">
        <ele>725</ele>
        <time>2013-10-17T14:01:24Z</time>
      </trkpt>
      <trkpt lat="45.69817" lon="6.3087">
        <ele>724</ele>
        <time>2013-10-17T14:01:27Z</time>
      </trkpt>
      <trkpt lat="45.69852" lon="6.30878">
        <ele>723</ele>
        <time>2013-10-17T14:01:30Z</time>
      </trkpt>
      <trkpt lat="45.69875" lon="6.30883">
        <ele>723</ele>
        <time>2013-10-17T14:01:32Z</time>
      </trkpt>
      <trkpt lat="45.69909" lon="6.30891">
        <ele>720</ele>
        <time>2013-10-17T14:01:35Z</time>
      </trkpt>
      <trkpt lat="45.69932" lon="6.30896">
        <ele>718</ele>
        <time>2013-10-17T14:01:37Z</time>
      </trkpt>
      <trkpt lat="45.69955" lon="6.30901">
        <ele>715</ele>
        <time>2013-10-17T14:01:39Z</time>
      </trkpt>
      <trkpt lat="45.69978" lon="6.30905">
        <ele>713</ele>
        <time>2013-10-17T14:01:41Z</time>
      </trkpt>
      <trkpt lat="45.70011" lon="6.30912">
        <ele>710</ele>
        <time>2013-10-17T14:01:44Z</time>
      </trkpt>
      <trkpt lat="45.70044" lon="6.30919">
        <ele>709</ele>
        <time>2013-10-17T14:01:47Z</time>
      </trkpt>
      <trkpt lat="45.70076" lon="6.30917">
        <ele>709</ele>
        <time>2013-10-17T14:01:50Z</time>
      </trkpt>
      <trkpt lat="45.70097" lon="6.30911">
        <ele>707</ele>
        <time>2013-10-17T14:01:52Z</time>
      </trkpt>
      <trkpt lat="45.70117" lon="6.30902">
        <ele>706</ele>
        <time>2013-10-17T14:01:54Z</time>
      </trkpt>
      <trkpt lat="45.70138" lon="6.30894">
        <ele>704</ele>
        <time>2013-10-17T14:01:56Z</time>
      </trkpt>
      <trkpt lat="45.7017" lon="6.30882">
        <ele>703</ele>
        <time>2013-10-17T14:01:59Z</time>
      </trkpt>
      <trkpt lat="45.70201" lon="6.30869">
        <ele>703</ele>
        <time>2013-10-17T14:02:02Z</time>
      </trkpt>
      <trkpt lat="45.70233" lon="6.30856">
        <ele>705</ele>
        <time>2013-10-17T14:02:05Z</time>
      </trkpt>
      <trkpt lat="45.70265" lon="6.30843">
        <ele>703</ele>
        <time>2013-10-17T14:02:08Z</time>
      </trkpt>
      <trkpt lat="45.70297" lon="6.30829">
        <ele>700</ele>
        <time>2013-10-17T14:02:11Z</time>
      </trkpt>
      <trkpt lat="45.70318" lon="6.3082">
        <ele>697</ele>
        <time>2013-10-17T14:02:13Z</time>
      </trkpt>
      <trkpt lat="45.7034" lon="6.30811">
        <ele>695</ele>
        <time>2013-10-17T14:02:15Z</time>
      </trkpt>
      <trkpt lat="45.70374" lon="6.30806">
        <ele>694</ele>
        <time>2013-10-17T14:02:18Z</time>
      </trkpt>
      <trkpt lat="45.70396" lon="6.30813">
        <ele>694</ele>
        <time>2013-10-17T14:02:20Z</time>
      </trkpt>
      <trkpt lat="45.70419" lon="6.30824">
        <ele>693</ele>
        <time>2013-10-17T14:02:22Z</time>
      </trkpt>
      <trkpt lat="45.70455" lon="6.3083">
        <ele>693</ele>
        <time>2013-10-17T14:02:25Z</time>
      </trkpt>
      <trkpt lat="45.70492" lon="6.30822">
        <ele>694</ele>
        <time>2013-10-17T14:02:28Z</time>
      </trkpt>
      <trkpt lat="45.70526" lon="6.30804">
        <ele>695</ele>
        <time>2013-10-17T14:02:31Z</time>
      </trkpt>
      <trkpt lat="45.7056" lon="6.30785">
        <ele>694</ele>
        <time>2013-10-17T14:02:34Z</time>
      </trkpt>
      <trkpt lat="45.70582" lon="6.30771">
        <ele>693</ele>
        <time>2013-10-17T14:02:36Z</time>
      </trkpt>
      <trkpt lat="45.70615" lon="6.30752">
        <ele>690</ele>
        <time>2013-10-17T14:02:39Z</time>
      </trkpt>
      <trkpt lat="45.70638" lon="6.3074">
        <ele>690</ele>
        <time>2013-10-17T14:02:41Z</time>
      </trkpt>
      <trkpt lat="45.7066" lon="6.30729">
        <ele>688</ele>
        <time>2013-10-17T14:02:43Z</time>
      </trkpt>
      <trkpt lat="45.70692" lon="6.30705">
        <ele>687</ele>
        <time>2013-10-17T14:02:46Z</time>
      </trkpt>
      <trkpt lat="45.70711" lon="6.30684">
        <ele>688</ele>
        <time>2013-10-17T14:02:48Z</time>
      </trkpt>
      <trkpt lat="45.70741" lon="6.30653">
        <ele>686</ele>
        <time>2013-10-17T14:02:51Z</time>
      </trkpt>
      <trkpt lat="45.70763" lon="6.30638">
        <ele>686</ele>
        <time>2013-10-17T14:02:53Z</time>
      </trkpt>
      <trkpt lat="45.70786" lon="6.30628">
        <ele>685</ele>
        <time>2013-10-17T14:02:55Z</time>
      </trkpt>
      <trkpt lat="45.70821" lon="6.30619">
        <ele>683</ele>
        <time>2013-10-17T14:02:58Z</time>
      </trkpt>
      <trkpt lat="45.70844" lon="6.30615">
        <ele>683</ele>
        <time>2013-10-17T14:03:00Z</time>
      </trkpt>
      <trkpt lat="45.70878" lon="6.30608">
        <ele>681</ele>
        <time>2013-10-17T14:03:03Z</time>
      </trkpt>
      <trkpt lat="45.70901" lon="6.30601">
        <ele>679</ele>
        <time>2013-10-17T14:03:05Z</time>
      </trkpt>
      <trkpt lat="45.70935" lon="6.30582">
        <ele>678</ele>
        <time>2013-10-17T14:03:08Z</time>
      </trkpt>
      <trkpt lat="45.70965" lon="6.30558">
        <ele>677</ele>
        <time>2013-10-17T14:03:11Z</time>
      </trkpt>
      <trkpt lat="45.70984" lon="6.30543">
        <ele>676</ele>
        <time>2013-10-17T14:03:13Z</time>
      </trkpt>
      <trkpt lat="45.71004" lon="6.3053">
        <ele>674</ele>
        <time>2013-10-17T14:03:15Z</time>
      </trkpt>
      <trkpt lat="45.71025" lon="6.30524">
        <ele>673</ele>
        <time>2013-10-17T14:03:17Z</time>
      </trkpt>
      <trkpt lat="45.71047" lon="6.3052">
        <ele>672</ele>
        <time>2013-10-17T14:03:19Z</time>
      </trkpt>
      <trkpt lat="45.7108" lon="6.30515">
        <ele>671</ele>
        <time>2013-10-17T14:03:22Z</time>
      </trkpt>
      <trkpt lat="45.71103" lon="6.30513">
        <ele>671</ele>
        <time>2013-10-17T14:03:24Z</time>
      </trkpt>
      <trkpt lat="45.71135" lon="6.30511">
        <ele>670</ele>
        <time>2013-10-17T14:03:27Z</time>
      </trkpt>
      <trkpt lat="45.71169" lon="6.30502">
        <ele>670</ele>
        <time>2013-10-17T14:03:30Z</time>
      </trkpt>
      <trkpt lat="45.712" lon="6.30485">
        <ele>669</ele>
        <time>2013-10-17T14:03:33Z</time>
      </trkpt>
      <trkpt lat="45.71222" lon="6.30477">
        <ele>668</ele>
        <time>2013-10-17T14:03:35Z</time>
      </trkpt>
      <trkpt lat="45.71254" lon="6.30458">
        <ele>666</ele>
        <time>2013-10-17T14:03:38Z</time>
      </trkpt>
      <trkpt lat="45.71288" lon="6.30453">
        <ele>665</ele>
        <time>2013-10-17T14:03:41Z</time>
      </trkpt>
      <trkpt lat="45.7131" lon="6.30459">
        <ele>664</ele>
        <time>2013-10-17T14:03:43Z</time>
      </trkpt>
      <trkpt lat="45.71347" lon="6.30465">
        <ele>662</ele>
        <time>2013-10-17T14:03:46Z</time>
      </trkpt>
      <trkpt lat="45.71373" lon="6.30464">
        <ele>661</ele>
        <time>2013-10-17T14:03:48Z</time>
      </trkpt>
      <trkpt lat="45.71413" lon="6.30458">
        <ele>659</ele>
        <time>2013-10-17T14:03:51Z</time>
      </trkpt>
      <trkpt lat="45.7145" lon="6.30437">
        <ele>659</ele>
        <time>2013-10-17T14:03:54Z</time>
      </trkpt>
      <trkpt lat="45.71483" lon="6.30414">
        <ele>658</ele>
        <time>2013-10-17T14:03:57Z</time>
      </trkpt>
      <trkpt lat="45.71504" lon="6.30398">
        <ele>656</ele>
        <time>2013-10-17T14:03:59Z</time>
      </trkpt>
      <trkpt lat="45.71526" lon="6.30383">
        <ele>654</ele>
        <time>2013-10-17T14:04:01Z</time>
      </trkpt>
      <trkpt lat="45.71548" lon="6.30369">
        <ele>652</ele>
        <time>2013-10-17T14:04:03Z</time>
      </trkpt>
      <trkpt lat="45.71582" lon="6.30355">
        <ele>651</ele>
        <time>2013-10-17T14:04:06Z</time>
      </trkpt>
      <trkpt lat="45.71618" lon="6.3036">
        <ele>651</ele>
        <time>2013-10-17T14:04:09Z</time>
      </trkpt>
      <trkpt lat="45.71655" lon="6.30385">
        <ele>652</ele>
        <time>2013-10-17T14:04:12Z</time>
      </trkpt>
      <trkpt lat="45.7169" lon="6.30412">
        <ele>651</ele>
        <time>2013-10-17T14:04:15Z</time>
      </trkpt>
      <trkpt lat="45.71714" lon="6.30425">
        <ele>651</ele>
        <time>2013-10-17T14:04:17Z</time>
      </trkpt>
      <trkpt lat="45.71751" lon="6.30432">
        <ele>649</ele>
        <time>2013-10-17T14:04:20Z</time>
      </trkpt>
      <trkpt lat="45.71786" lon="6.30428">
        <ele>648</ele>
        <time>2013-10-17T14:04:23Z</time>
      </trkpt>
      <trkpt lat="45.71804" lon="6.30414">
        <ele>648</ele>
        <time>2013-10-17T14:04:25Z</time>
      </trkpt>
      <trkpt lat="45.71824" lon="6.304">
        <ele>647</ele>
        <time>2013-10-17T14:04:27Z</time>
      </trkpt>
      <trkpt lat="45.71857" lon="6.30388">
        <ele>647</ele>
        <time>2013-10-17T14:04:30Z</time>
      </trkpt>
      <trkpt lat="45.7189" lon="6.30381">
        <ele>645</ele>
        <time>2013-10-17T14:04:33Z</time>
      </trkpt>
      <trkpt lat="45.71912" lon="6.30373">
        <ele>645</ele>
        <time>2013-10-17T14:04:35Z</time>
      </trkpt>
      <trkpt lat="45.71943" lon="6.30356">
        <ele>645</ele>
        <time>2013-10-17T14:04:38Z</time>
      </trkpt>
      <trkpt lat="45.71964" lon="6.30347">
        <ele>645</ele>
        <time>2013-10-17T14:04:40Z</time>
      </trkpt>
      <trkpt lat="45.71996" lon="6.30338">
        <ele>644</ele>
        <time>2013-10-17T14:04:43Z</time>
      </trkpt>
      <trkpt lat="45.72018" lon="6.30336">
        <ele>643</ele>
        <time>2013-10-17T14:04:45Z</time>
      </trkpt>
      <trkpt lat="45.72049" lon="6.30339">
        <ele>643</ele>
        <time>2013-10-17T14:04:48Z</time>
      </trkpt>
      <trkpt lat="45.72068" lon="6.30342">
        <ele>643</ele>
        <time>2013-10-17T14:04:50Z</time>
      </trkpt>
      <trkpt lat="45.72087" lon="6.30346">
        <ele>643</ele>
        <time>2013-10-17T14:04:52Z</time>
      </trkpt>
      <trkpt lat="45.72115" lon="6.30352">
        <ele>642</ele>
        <time>2013-10-17T14:04:55Z</time>
      </trkpt>
      <trkpt lat="45.72134" lon="6.30356">
        <ele>640</ele>
        <time>2013-10-17T14:04:57Z</time>
      </trkpt>
      <trkpt lat="45.72153" lon="6.30359">
        <ele>639</ele>
        <time>2013-10-17T14:04:59Z</time>
      </trkpt>
      <trkpt lat="45.72171" lon="6.30363">
        <ele>637</ele>
        <time>2013-10-17T14:05:01Z</time>
      </trkpt>
      <trkpt lat="45.72196" lon="6.30368">
        <ele>637</ele>
        <time>2013-10-17T14:05:04Z</time>
      </trkpt>
      <trkpt lat="45.72213" lon="6.30371">
        <ele>637</ele>
        <time>2013-10-17T14:05:06Z</time>
      </trkpt>
      <trkpt lat="45.7223" lon="6.30375">
        <ele>637</ele>
        <time>2013-10-17T14:05:08Z</time>
      </trkpt>
      <trkpt lat="45.72256" lon="6.3038">
        <ele>636</ele>
        <time>2013-10-17T14:05:11Z</time>
      </trkpt>
      <trkpt lat="45.72273" lon="6.30384">
        <ele>637</ele>
        <time>2013-10-17T14:05:13Z</time>
      </trkpt>
      <trkpt lat="45.7229" lon="6.30386">
        <ele>637</ele>
        <time>2013-10-17T14:05:15Z</time>
      </trkpt>
      <trkpt lat="45.72314" lon="6.30391">
        <ele>637</ele>
        <time>2013-10-17T14:05:18Z</time>
      </trkpt>
      <trkpt lat="45.7233" lon="6.30397">
        <ele>638</ele>
        <time>2013-10-17T14:05:20Z</time>
      </trkpt>
      <trkpt lat="45.72345" lon="6.30406">
        <ele>638</ele>
        <time>2013-10-17T14:05:22Z</time>
      </trkpt>
      <trkpt lat="45.72365" lon="6.30426">
        <ele>636</ele>
        <time>2013-10-17T14:05:25Z</time>
      </trkpt>
      <trkpt lat="45.7238" lon="6.30453">
        <ele>636</ele>
        <time>2013-10-17T14:05:28Z</time>
      </trkpt>
      <trkpt lat="45.7239" lon="6.30473">
        <ele>636</ele>
        <time>2013-10-17T14:05:30Z</time>
      </trkpt>
      <trkpt lat="45.72404" lon="6.30503">
        <ele>637</ele>
        <time>2013-10-17T14:05:33Z</time>
      </trkpt>
      <trkpt lat="45.72414" lon="6.30524">
        <ele>636</ele>
        <time>2013-10-17T14:05:35Z</time>
      </trkpt>
      <trkpt lat="45.72423" lon="6.30547">
        <ele>637</ele>
        <time>2013-10-17T14:05:37Z</time>
      </trkpt>
      <trkpt lat="45.72432" lon="6.30568">
        <ele>638</ele>
        <time>2013-10-17T14:05:39Z</time>
      </trkpt>
      <trkpt lat="45.72441" lon="6.3059">
        <ele>638</ele>
        <time>2013-10-17T14:05:41Z</time>
      </trkpt>
      <trkpt lat="45.72454" lon="6.30621">
        <ele>639</ele>
        <time>2013-10-17T14:05:44Z</time>
      </trkpt>
      <trkpt lat="45.72469" lon="6.30652">
        <ele>637</ele>
        <time>2013-10-17T14:05:47Z</time>
      </trkpt>
      <trkpt lat="45.72483" lon="6.30668">
        <ele>636</ele>
        <time>2013-10-17T14:05:49Z</time>
      </trkpt>
      <trkpt lat="45.7251" lon="6.30681">
        <ele>634</ele>
        <time>2013-10-17T14:05:52Z</time>
      </trkpt>
      <trkpt lat="45.72538" lon="6.30699">
        <ele>633</ele>
        <time>2013-10-17T14:05:55Z</time>
      </trkpt>
      <trkpt lat="45.72564" lon="6.30728">
        <ele>631</ele>
        <time>2013-10-17T14:05:58Z</time>
      </trkpt>
      <trkpt lat="45.72585" lon="6.30738">
        <ele>630</ele>
        <time>2013-10-17T14:06:00Z</time>
      </trkpt>
      <trkpt lat="45.72616" lon="6.30755">
        <ele>629</ele>
        <time>2013-10-17T14:06:03Z</time>
      </trkpt>
      <trkpt lat="45.72633" lon="6.30776">
        <ele>627</ele>
        <time>2013-10-17T14:06:05Z</time>
      </trkpt>
      <trkpt lat="45.72648" lon="6.30799">
        <ele>627</ele>
        <time>2013-10-17T14:06:07Z</time>
      </trkpt>
      <trkpt lat="45.72671" lon="6.30834">
        <ele>624</ele>
        <time>2013-10-17T14:06:10Z</time>
      </trkpt>
      <trkpt lat="45.72688" lon="6.30855">
        <ele>622</ele>
        <time>2013-10-17T14:06:12Z</time>
      </trkpt>
      <trkpt lat="45.72707" lon="6.30873">
        <ele>621</ele>
        <time>2013-10-17T14:06:14Z</time>
      </trkpt>
      <trkpt lat="45.72736" lon="6.30898">
        <ele>619</ele>
        <time>2013-10-17T14:06:17Z</time>
      </trkpt>
      <trkpt lat="45.72757" lon="6.30913">
        <ele>616</ele>
        <time>2013-10-17T14:06:19Z</time>
      </trkpt>
      <trkpt lat="45.72786" lon="6.30943">
        <ele>614</ele>
        <time>2013-10-17T14:06:22Z</time>
      </trkpt>
      <trkpt lat="45.72801" lon="6.30968">
        <ele>614</ele>
        <time>2013-10-17T14:06:24Z</time>
      </trkpt>
      <trkpt lat="45.72824" lon="6.31003">
        <ele>613</ele>
        <time>2013-10-17T14:06:27Z</time>
      </trkpt>
      <trkpt lat="45.72844" lon="6.31018">
        <ele>612</ele>
        <time>2013-10-17T14:06:29Z</time>
      </trkpt>
      <trkpt lat="45.72876" lon="6.31027">
        <ele>610</ele>
        <time>2013-10-17T14:06:32Z</time>
      </trkpt>
      <trkpt lat="45.72894" lon="6.31043">
        <ele>608</ele>
        <time>2013-10-17T14:06:34Z</time>
      </trkpt>
      <trkpt lat="45.72906" lon="6.3107">
        <ele>606</ele>
        <time>2013-10-17T14:06:36Z</time>
      </trkpt>
      <trkpt lat="45.72935" lon="6.31084">
        <ele>604</ele>
        <time>2013-10-17T14:06:39Z</time>
      </trkpt>
      <trkpt lat="45.72957" lon="6.31086">
        <ele>603</ele>
        <time>2013-10-17T14:06:41Z</time>
      </trkpt>
      <trkpt lat="45.72992" lon="6.31086">
        <ele>601</ele>
        <time>2013-10-17T14:06:44Z</time>
      </trkpt>
      <trkpt lat="45.73015" lon="6.31081">
        <ele>599</ele>
        <time>2013-10-17T14:06:46Z</time>
      </trkpt>
      <trkpt lat="45.73049" lon="6.31063">
        <ele>597</ele>
        <time>2013-10-17T14:06:49Z</time>
      </trkpt>
      <trkpt lat="45.73082" lon="6.31042">
        <ele>595</ele>
        <time>2013-10-17T14:06:52Z</time>
      </trkpt>
      <trkpt lat="45.73104" lon="6.31028">
        <ele>593</ele>
        <time>2013-10-17T14:06:54Z</time>
      </trkpt>
      <trkpt lat="45.73137" lon="6.31009">
        <ele>591</ele>
        <time>2013-10-17T14:06:57Z</time>
      </trkpt>
      <trkpt lat="45.7317" lon="6.30987">
        <ele>587</ele>
        <time>2013-10-17T14:07:00Z</time>
      </trkpt>
      <trkpt lat="45.73204" lon="6.3097">
        <ele>583</ele>
        <time>2013-10-17T14:07:03Z</time>
      </trkpt>
      <trkpt lat="45.7324" lon="6.30962">
        <ele>580</ele>
        <time>2013-10-17T14:07:06Z</time>
      </trkpt>
      <trkpt lat="45.73277" lon="6.30952">
        <ele>578</ele>
        <time>2013-10-17T14:07:09Z</time>
      </trkpt>
      <trkpt lat="45.73313" lon="6.30942">
        <ele>576</ele>
        <time>2013-10-17T14:07:12Z</time>
      </trkpt>
      <trkpt lat="45.73338" lon="6.30936">
        <ele>575</ele>
        <time>2013-10-17T14:07:14Z</time>
      </trkpt>
      <trkpt lat="45.73362" lon="6.3093">
        <ele>574</ele>
        <time>2013-10-17T14:07:16Z</time>
      </trkpt>
      <trkpt lat="45.73386" lon="6.30924">
        <ele>573</ele>
        <time>2013-10-17T14:07:18Z</time>
      </trkpt>
      <trkpt lat="45.73421" lon="6.30916">
        <ele>572</ele>
        <time>2013-10-17T14:07:21Z</time>
      </trkpt>
      <trkpt lat="45.73455" lon="6.30915">
        <ele>570</ele>
        <time>2013-10-17T14:07:24Z</time>
      </trkpt>
      <trkpt lat="45.73487" lon="6.30916">
        <ele>567</ele>
        <time>2013-10-17T14:07:27Z</time>
      </trkpt>
      <trkpt lat="45.73508" lon="6.30915">
        <ele>565</ele>
        <time>2013-10-17T14:07:29Z</time>
      </trkpt>
      <trkpt lat="45.73539" lon="6.30913">
        <ele>562</ele>
        <time>2013-10-17T14:07:32Z</time>
      </trkpt>
      <trkpt lat="45.73569" lon="6.30909">
        <ele>561</ele>
        <time>2013-10-17T14:07:35Z</time>
      </trkpt>
      <trkpt lat="45.73589" lon="6.30904">
        <ele>562</ele>
        <time>2013-10-17T14:07:37Z</time>
      </trkpt>
      <trkpt lat="45.73609" lon="6.30896">
        <ele>561</ele>
        <time>2013-10-17T14:07:39Z</time>
      </trkpt>
      <trkpt lat="45.73628" lon="6.30886">
        <ele>560</ele>
        <time>2013-10-17T14:07:41Z</time>
      </trkpt>
      <trkpt lat="45.73659" lon="6.30873">
        <ele>558</ele>
        <time>2013-10-17T14:07:44Z</time>
      </trkpt>
      <trkpt lat="45.7369" lon="6.30861">
        <ele>555</ele>
        <time>2013-10-17T14:07:47Z</time>
      </trkpt>
      <trkpt lat="45.73717" lon="6.30853">
        <ele>551</ele>
        <time>2013-10-17T14:07:50Z</time>
      </trkpt>
      <trkpt lat="45.73737" lon="6.30845">
        <ele>549</ele>
        <time>2013-10-17T14:07:52Z</time>
      </trkpt>
      <trkpt lat="45.73755" lon="6.30811">
        <ele>547</ele>
        <time>2013-10-17T14:07:55Z</time>
      </trkpt>
      <trkpt lat="45.7377" lon="6.3077">
        <ele>545</ele>
        <time>2013-10-17T14:07:58Z</time>
      </trkpt>
      <trkpt lat="45.73781" lon="6.30743">
        <ele>544</ele>
        <time>2013-10-17T14:08:00Z</time>
      </trkpt>
      <trkpt lat="45.73798" lon="6.30705">
        <ele>543</ele>
        <time>2013-10-17T14:08:03Z</time>
      </trkpt>
      <trkpt lat="45.73807" lon="6.30663">
        <ele>541</ele>
        <time>2013-10-17T14:08:06Z</time>
      </trkpt>
      <trkpt lat="45.73815" lon="6.30619">
        <ele>540</ele>
        <time>2013-10-17T14:08:09Z</time>
      </trkpt>
      <trkpt lat="45.73822" lon="6.30574">
        <ele>539</ele>
        <time>2013-10-17T14:08:12Z</time>
      </trkpt>
      <trkpt lat="45.73825" lon="6.30529">
        <ele>540</ele>
        <time>2013-10-17T14:08:15Z</time>
      </trkpt>
      <trkpt lat="45.73832" lon="6.30487">
        <ele>540</ele>
        <time>2013-10-17T14:08:18Z</time>
      </trkpt>
      <trkpt lat="45.73836" lon="6.3046">
        <ele>540</ele>
        <time>2013-10-17T14:08:20Z</time>
      </trkpt>
      <trkpt lat="45.73844" lon="6.30419">
        <ele>539</ele>
        <time>2013-10-17T14:08:23Z</time>
      </trkpt>
      <trkpt lat="45.73849" lon="6.30393">
        <ele>538</ele>
        <time>2013-10-17T14:08:25Z</time>
      </trkpt>
      <trkpt lat="45.73853" lon="6.30366">
        <ele>538</ele>
        <time>2013-10-17T14:08:27Z</time>
      </trkpt>
      <trkpt lat="45.73855" lon="6.30338">
        <ele>538</ele>
        <time>2013-10-17T14:08:29Z</time>
      </trkpt>
      <trkpt lat="45.73855" lon="6.3031">
        <ele>537</ele>
        <time>2013-10-17T14:08:31Z</time>
      </trkpt>
      <trkpt lat="45.73856" lon="6.30267">
        <ele>537</ele>
        <time>2013-10-17T14:08:34Z</time>
      </trkpt>
      <trkpt lat="45.7386" lon="6.30239">
        <ele>536</ele>
        <time>2013-10-17T14:08:36Z</time>
      </trkpt>
      <trkpt lat="45.73866" lon="6.30212">
        <ele>535</ele>
        <time>2013-10-17T14:08:38Z</time>
      </trkpt>
      <trkpt lat="45.7388" lon="6.30175">
        <ele>535</ele>
        <time>2013-10-17T14:08:41Z</time>
      </trkpt>
      <trkpt lat="45.73898" lon="6.30141">
        <ele>533</ele>
        <time>2013-10-17T14:08:44Z</time>
      </trkpt>
      <trkpt lat="45.73918" lon="6.30109">
        <ele>531</ele>
        <time>2013-10-17T14:08:47Z</time>
      </trkpt>
      <trkpt lat="45.73934" lon="6.30091">
        <ele>529</ele>
        <time>2013-10-17T14:08:49Z</time>
      </trkpt>
      <trkpt lat="45.73964" lon="6.30077">
        <ele>526</ele>
        <time>2013-10-17T14:08:52Z</time>
      </trkpt>
      <trkpt lat="45.73985" lon="6.30067">
        <ele>524</ele>
        <time>2013-10-17T14:08:54Z</time>
      </trkpt>
      <trkpt lat="45.74013" lon="6.30044">
        <ele>522</ele>
        <time>2013-10-17T14:08:57Z</time>
      </trkpt>
      <trkpt lat="45.7404" lon="6.30016">
        <ele>520</ele>
        <time>2013-10-17T14:09:00Z</time>
      </trkpt>
      <trkpt lat="45.7407" lon="6.29998">
        <ele>518</ele>
        <time>2013-10-17T14:09:03Z</time>
      </trkpt>
      <trkpt lat="45.74104" lon="6.29987">
        <ele>516</ele>
        <time>2013-10-17T14:09:06Z</time>
      </trkpt>
      <trkpt lat="45.74135" lon="6.29973">
        <ele>514</ele>
        <time>2013-10-17T14:09:09Z</time>
      </trkpt>
      <trkpt lat="45.74146" lon="6.29931">
        <ele>512</ele>
        <time>2013-10-17T14:09:12Z</time>
      </trkpt>
      <trkpt lat="45.74123" lon="6.29902">
        <ele>510</ele>
        <time>2013-10-17T14:09:15Z</time>
      </trkpt>
      <trkpt lat="45.74102" lon="6.29896">
        <ele>508</ele>
        <time>2013-10-17T14:09:17Z</time>
      </trkpt>
      <trkpt lat="45.74079" lon="6.29889">
        <ele>506</ele>
        <time>2013-10-17T14:09:19Z</time>
      </trkpt>
      <trkpt lat="45.74055" lon="6.29858">
        <ele>505</ele>
        <time>2013-10-17T14:09:22Z</time>
      </trkpt>
      <trkpt lat="45.74058" lon="6.2983">
        <ele>503</ele>
        <time>2013-10-17T14:09:24Z</time>
      </trkpt>
      <trkpt lat="45.74085" lon="6.29809">
        <ele>500</ele>
        <time>2013-10-17T14:09:27Z</time>
      </trkpt>
      <trkpt lat="45.74116" lon="6.29797">
        <ele>498</ele>
        <time>2013-10-17T14:09:30Z</time>
      </trkpt>
      <trkpt lat="45.74146" lon="6.29783">
        <ele>498</ele>
        <time>2013-10-17T14:09:33Z</time>
      </trkpt>
      <trkpt lat="45.7416" lon="6.29761">
        <ele>498</ele>
        <time>2013-10-17T14:09:35Z</time>
      </trkpt>
      <trkpt lat="45.74167" lon="6.29732">
        <ele>497</ele>
        <time>2013-10-17T14:09:37Z</time>
      </trkpt>
      <trkpt lat="45.7417" lon="6.29686">
        <ele>495</ele>
        <time>2013-10-17T14:09:40Z</time>
      </trkpt>
      <trkpt lat="45.74173" lon="6.29655">
        <ele>493</ele>
        <time>2013-10-17T14:09:42Z</time>
      </trkpt>
      <trkpt lat="45.74175" lon="6.29622">
        <ele>491</ele>
        <time>2013-10-17T14:09:44Z</time>
      </trkpt>
      <trkpt lat="45.74176" lon="6.29586">
        <ele>489</ele>
        <time>2013-10-17T14:09:46Z</time>
      </trkpt>
      <trkpt lat="45.74179" lon="6.29533">
        <ele>487</ele>
        <time>2013-10-17T14:09:49Z</time>
      </trkpt>
      <trkpt lat="45.74175" lon="6.295">
        <ele>485</ele>
        <time>2013-10-17T14:09:51Z</time>
      </trkpt>
      <trkpt lat="45.74168" lon="6.29467">
        <ele>483</ele>
        <time>2013-10-17T14:09:53Z</time>
      </trkpt>
      <trkpt lat="45.74172" lon="6.29416">
        <ele>481</ele>
        <time>2013-10-17T14:09:56Z</time>
      </trkpt>
      <trkpt lat="45.74198" lon="6.29383">
        <ele>478</ele>
        <time>2013-10-17T14:09:59Z</time>
      </trkpt>
      <trkpt lat="45.74231" lon="6.29399">
        <ele>476</ele>
        <time>2013-10-17T14:10:02Z</time>
      </trkpt>
      <trkpt lat="45.74245" lon="6.29428">
        <ele>475</ele>
        <time>2013-10-17T14:10:04Z</time>
      </trkpt>
      <trkpt lat="45.74264" lon="6.29475">
        <ele>474</ele>
        <time>2013-10-17T14:10:07Z</time>
      </trkpt>
      <trkpt lat="45.7428" lon="6.29503">
        <ele>473</ele>
        <time>2013-10-17T14:10:09Z</time>
      </trkpt>
      <trkpt lat="45.74313" lon="6.29528">
        <ele>470</ele>
        <time>2013-10-17T14:10:12Z</time>
      </trkpt>
      <trkpt lat="45.74337" lon="6.29538">
        <ele>467</ele>
        <time>2013-10-17T14:10:14Z</time>
      </trkpt>
      <trkpt lat="45.74358" lon="6.29554">
        <ele>465</ele>
        <time>2013-10-17T14:10:16Z</time>
      </trkpt>
      <trkpt lat="45.74386" lon="6.29586">
        <ele>462</ele>
        <time>2013-10-17T14:10:19Z</time>
      </trkpt>
      <trkpt lat="45.74405" lon="6.29608">
        <ele>459</ele>
        <time>2013-10-17T14:10:21Z</time>
      </trkpt>
      <trkpt lat="45.74433" lon="6.29638">
        <ele>456</ele>
        <time>2013-10-17T14:10:24Z</time>
      </trkpt>
      <trkpt lat="45.74461" lon="6.29633">
        <ele>453</ele>
        <time>2013-10-17T14:10:27Z</time>
      </trkpt>
      <trkpt lat="45.74473" lon="6.29613">
        <ele>451</ele>
        <time>2013-10-17T14:10:29Z</time>
      </trkpt>
      <trkpt lat="45.7449" lon="6.29583">
        <ele>449</ele>
        <time>2013-10-17T14:10:32Z</time>
      </trkpt>
      <trkpt lat="45.74511" lon="6.29559">
        <ele>446</ele>
        <time>2013-10-17T14:10:35Z</time>
      </trkpt>
      <trkpt lat="45.74533" lon="6.29539">
        <ele>445</ele>
        <time>2013-10-17T14:10:38Z</time>
      </trkpt>
      <trkpt lat="45.7455" lon="6.29527">
        <ele>444</ele>
        <time>2013-10-17T14:10:41Z</time>
      </trkpt>
      <trkpt lat="45.7456" lon="6.2952">
        <ele>443</ele>
        <time>2013-10-17T14:10:44Z</time>
      </trkpt>
      <trkpt lat="45.74563" lon="6.29517">
        <ele>442</ele>
        <time>2013-10-17T14:10:46Z</time>
      </trkpt>
      <trkpt lat="45.74573" lon="6.29514">
        <ele>442</ele>
        <time>2013-10-17T14:10:49Z</time>
      </trkpt>
      <trkpt lat="45.74586" lon="6.29513">
        <ele>442</ele>
        <time>2013-10-17T14:10:52Z</time>
      </trkpt>
      <trkpt lat="45.74594" lon="6.29513">
        <ele>442</ele>
        <time>2013-10-17T14:10:54Z</time>
      </trkpt>
      <trkpt lat="45.74603" lon="6.29515">
        <ele>442</ele>
        <time>2013-10-17T14:10:56Z</time>
      </trkpt>
      <trkpt lat="45.74612" lon="6.29521">
        <ele>442</ele>
        <time>2013-10-17T14:10:58Z</time>
      </trkpt>
      <trkpt lat="45.74627" lon="6.29532">
        <ele>442</ele>
        <time>2013-10-17T14:11:01Z</time>
      </trkpt>
      <trkpt lat="45.74637" lon="6.29541">
        <ele>442</ele>
        <time>2013-10-17T14:11:03Z</time>
      </trkpt>
      <trkpt lat="45.74651" lon="6.29558">
        <ele>442</ele>
        <time>2013-10-17T14:11:06Z</time>
      </trkpt>
      <trkpt lat="45.7466" lon="6.29572">
        <ele>442</ele>
        <time>2013-10-17T14:11:08Z</time>
      </trkpt>
      <trkpt lat="45.74667" lon="6.29589">
        <ele>442</ele>
        <time>2013-10-17T14:11:10Z</time>
      </trkpt>
      <trkpt lat="45.74676" lon="6.29607">
        <ele>441</ele>
        <time>2013-10-17T14:11:12Z</time>
      </trkpt>
      <trkpt lat="45.74689" lon="6.29634">
        <ele>440</ele>
        <time>2013-10-17T14:11:15Z</time>
      </trkpt>
      <trkpt lat="45.74699" lon="6.29651">
        <ele>440</ele>
        <time>2013-10-17T14:11:17Z</time>
      </trkpt>
      <trkpt lat="45.74709" lon="6.2967">
        <ele>440</ele>
        <time>2013-10-17T14:11:19Z</time>
      </trkpt>
      <trkpt lat="45.74724" lon="6.29698">
        <ele>440</ele>
        <time>2013-10-17T14:11:22Z</time>
      </trkpt>
      <trkpt lat="45.74735" lon="6.29717">
        <ele>440</ele>
        <time>2013-10-17T14:11:24Z</time>
      </trkpt>
      <trkpt lat="45.74751" lon="6.29745">
        <ele>440</ele>
        <time>2013-10-17T14:11:27Z</time>
      </trkpt>
      <trkpt lat="45.74768" lon="6.29772">
        <ele>440</ele>
        <time>2013-10-17T14:11:30Z</time>
      </trkpt>
      <trkpt lat="45.74785" lon="6.29798">
        <ele>439</ele>
        <time>2013-10-17T14:11:33Z</time>
      </trkpt>
      <trkpt lat="45.748" lon="6.29825">
        <ele>439</ele>
        <time>2013-10-17T14:11:36Z</time>
      </trkpt>
      <trkpt lat="45.74811" lon="6.29843">
        <ele>438</ele>
        <time>2013-10-17T14:11:38Z</time>
      </trkpt>
      <trkpt lat="45.74821" lon="6.29858">
        <ele>438</ele>
        <time>2013-10-17T14:11:40Z</time>
      </trkpt>
      <trkpt lat="45.74834" lon="6.2988">
        <ele>437</ele>
        <time>2013-10-17T14:11:43Z</time>
      </trkpt>
      <trkpt lat="45.74847" lon="6.29904">
        <ele>437</ele>
        <time>2013-10-17T14:11:46Z</time>
      </trkpt>
      <trkpt lat="45.74861" lon="6.29928">
        <ele>436</ele>
        <time>2013-10-17T14:11:49Z</time>
      </trkpt>
      <trkpt lat="45.7487" lon="6.29944">
        <ele>436</ele>
        <time>2013-10-17T14:11:51Z</time>
      </trkpt>
      <trkpt lat="45.74886" lon="6.2997">
        <ele>435</ele>
        <time>2013-10-17T14:11:54Z</time>
      </trkpt>
      <trkpt lat="45.74897" lon="6.29988">
        <ele>436</ele>
        <time>2013-10-17T14:11:56Z</time>
      </trkpt>
      <trkpt lat="45.74913" lon="6.30018">
        <ele>436</ele>
        <time>2013-10-17T14:11:59Z</time>
      </trkpt>
      <trkpt lat="45.74931" lon="6.30048">
        <ele>436</ele>
        <time>2013-10-17T14:12:02Z</time>
      </trkpt>
      <trkpt lat="45.74942" lon="6.30068">
        <ele>436</ele>
        <time>2013-10-17T14:12:04Z</time>
      </trkpt>
      <trkpt lat="45.7496" lon="6.30099">
        <ele>435</ele>
        <time>2013-10-17T14:12:07Z</time>
      </trkpt>
      <trkpt lat="45.74972" lon="6.3012">
        <ele>434</ele>
        <time>2013-10-17T14:12:09Z</time>
      </trkpt>
      <trkpt lat="45.74984" lon="6.30141">
        <ele>433</ele>
        <time>2013-10-17T14:12:11Z</time>
      </trkpt>
      <trkpt lat="45.75003" lon="6.30173">
        <ele>433</ele>
        <time>2013-10-17T14:12:14Z</time>
      </trkpt>
      <trkpt lat="45.75014" lon="6.30194">
        <ele>432</ele>
        <time>2013-10-17T14:12:16Z</time>
      </trkpt>
      <trkpt lat="45.75027" lon="6.30214">
        <ele>432</ele>
        <time>2013-10-17T14:12:18Z</time>
      </trkpt>
      <trkpt lat="45.75045" lon="6.30246">
        <ele>431</ele>
        <time>2013-10-17T14:12:21Z</time>
      </trkpt>
      <trkpt lat="45.75058" lon="6.30267">
        <ele>432</ele>
        <time>2013-10-17T14:12:23Z</time>
      </trkpt>
      <trkpt lat="45.75069" lon="6.30289">
        <ele>431</ele>
        <time>2013-10-17T14:12:25Z</time>
      </trkpt>
      <trkpt lat="45.75081" lon="6.3031">
        <ele>431</ele>
        <time>2013-10-17T14:12:27Z</time>
      </trkpt>
      <trkpt lat="45.75098" lon="6.30342">
        <ele>430</ele>
        <time>2013-10-17T14:12:30Z</time>
      </trkpt>
      <trkpt lat="45.75117" lon="6.30373">
        <ele>429</ele>
        <time>2013-10-17T14:12:33Z</time>
      </trkpt>
      <trkpt lat="45.75129" lon="6.30393">
        <ele>429</ele>
        <time>2013-10-17T14:12:35Z</time>
      </trkpt>
      <trkpt lat="45.75143" lon="6.30421">
        <ele>429</ele>
        <time>2013-10-17T14:12:38Z</time>
      </trkpt>
      <trkpt lat="45.75145" lon="6.30436">
        <ele>428</ele>
        <time>2013-10-17T14:12:40Z</time>
      </trkpt>
      <trkpt lat="45.75147" lon="6.30461">
        <ele>427</ele>
        <time>2013-10-17T14:12:43Z</time>
      </trkpt>
      <trkpt lat="45.75149" lon="6.30481">
        <ele>427</ele>
        <time>2013-10-17T14:12:45Z</time>
      </trkpt>
      <trkpt lat="45.75152" lon="6.30504">
        <ele>427</ele>
        <time>2013-10-17T14:12:47Z</time>
      </trkpt>
      <trkpt lat="45.75158" lon="6.30539">
        <ele>427</ele>
        <time>2013-10-17T14:12:50Z</time>
      </trkpt>
      <trkpt lat="45.75166" lon="6.30575">
        <ele>428</ele>
        <time>2013-10-17T14:12:53Z</time>
      </trkpt>
      <trkpt lat="45.75174" lon="6.30611">
        <ele>428</ele>
        <time>2013-10-17T14:12:56Z</time>
      </trkpt>
      <trkpt lat="45.75185" lon="6.30647">
        <ele>427</ele>
        <time>2013-10-17T14:12:59Z</time>
      </trkpt>
      <trkpt lat="45.75197" lon="6.30683">
        <ele>426</ele>
        <time>2013-10-17T14:13:02Z</time>
      </trkpt>
      <trkpt lat="45.75211" lon="6.30717">
        <ele>426</ele>
        <time>2013-10-17T14:13:05Z</time>
      </trkpt>
      <trkpt lat="45.75221" lon="6.30739">
        <ele>426</ele>
        <time>2013-10-17T14:13:07Z</time>
      </trkpt>
      <trkpt lat="45.75232" lon="6.30762">
        <ele>426</ele>
        <time>2013-10-17T14:13:09Z</time>
      </trkpt>
      <trkpt lat="45.75248" lon="6.30797">
        <ele>426</ele>
        <time>2013-10-17T14:13:12Z</time>
      </trkpt>
      <trkpt lat="45.7526" lon="6.30821">
        <ele>425</ele>
        <time>2013-10-17T14:13:14Z</time>
      </trkpt>
      <trkpt lat="45.75276" lon="6.30855">
        <ele>425</ele>
        <time>2013-10-17T14:13:17Z</time>
      </trkpt>
      <trkpt lat="45.75292" lon="6.30891">
        <ele>424</ele>
        <time>2013-10-17T14:13:20Z</time>
      </trkpt>
      <trkpt lat="45.75303" lon="6.30913">
        <ele>424</ele>
        <time>2013-10-17T14:13:22Z</time>
      </trkpt>
      <trkpt lat="45.75314" lon="6.30936">
        <ele>424</ele>
        <time>2013-10-17T14:13:24Z</time>
      </trkpt>
      <trkpt lat="45.75331" lon="6.30969">
        <ele>423</ele>
        <time>2013-10-17T14:13:27Z</time>
      </trkpt>
      <trkpt lat="45.75341" lon="6.30992">
        <ele>423</ele>
        <time>2013-10-17T14:13:29Z</time>
      </trkpt>
      <trkpt lat="45.75357" lon="6.31029">
        <ele>423</ele>
        <time>2013-10-17T14:13:32Z</time>
      </trkpt>
      <trkpt lat="45.75375" lon="6.31068">
        <ele>423</ele>
        <time>2013-10-17T14:13:35Z</time>
      </trkpt>
      <trkpt lat="45.75387" lon="6.31094">
        <ele>423</ele>
        <time>2013-10-17T14:13:37Z</time>
      </trkpt>
      <trkpt lat="45.75406" lon="6.31134">
        <ele>424</ele>
        <time>2013-10-17T14:13:40Z</time>
      </trkpt>
      <trkpt lat="45.75424" lon="6.31172">
        <ele>424</ele>
        <time>2013-10-17T14:13:43Z</time>
      </trkpt>
      <trkpt lat="45.75441" lon="6.31209">
        <ele>424</ele>
        <time>2013-10-17T14:13:46Z</time>
      </trkpt>
      <trkpt lat="45.75458" lon="6.31245">
        <ele>424</ele>
        <time>2013-10-17T14:13:49Z</time>
      </trkpt>
      <trkpt lat="45.75475" lon="6.31281">
        <ele>423</ele>
        <time>2013-10-17T14:13:52Z</time>
      </trkpt>
      <trkpt lat="45.75492" lon="6.31316">
        <ele>423</ele>
        <time>2013-10-17T14:13:55Z</time>
      </trkpt>
      <trkpt lat="45.75503" lon="6.3134">
        <ele>423</ele>
        <time>2013-10-17T14:13:57Z</time>
      </trkpt>
      <trkpt lat="45.75514" lon="6.31363">
        <ele>423</ele>
        <time>2013-10-17T14:13:59Z</time>
      </trkpt>
      <trkpt lat="45.75529" lon="6.31395">
        <ele>423</ele>
        <time>2013-10-17T14:14:02Z</time>
      </trkpt>
      <trkpt lat="45.75544" lon="6.31428">
        <ele>422</ele>
        <time>2013-10-17T14:14:05Z</time>
      </trkpt>
      <trkpt lat="45.7556" lon="6.31463">
        <ele>423</ele>
        <time>2013-10-17T14:14:08Z</time>
      </trkpt>
      <trkpt lat="45.75571" lon="6.31487">
        <ele>423</ele>
        <time>2013-10-17T14:14:10Z</time>
      </trkpt>
      <trkpt lat="45.75587" lon="6.31521">
        <ele>423</ele>
        <time>2013-10-17T14:14:13Z</time>
      </trkpt>
      <trkpt lat="45.75603" lon="6.31554">
        <ele>424</ele>
        <time>2013-10-17T14:14:16Z</time>
      </trkpt>
      <trkpt lat="45.75613" lon="6.31576">
        <ele>425</ele>
        <time>2013-10-17T14:14:18Z</time>
      </trkpt>
      <trkpt lat="45.75628" lon="6.31608">
        <ele>424</ele>
        <time>2013-10-17T14:14:21Z</time>
      </trkpt>
      <trkpt lat="45.75638" lon="6.3163">
        <ele>424</ele>
        <time>2013-10-17T14:14:23Z</time>
      </trkpt>
      <trkpt lat="45.75653" lon="6.31661">
        <ele>423</ele>
        <time>2013-10-17T14:14:26Z</time>
      </trkpt>
      <trkpt lat="45.75663" lon="6.31682">
        <ele>423</ele>
        <time>2013-10-17T14:14:28Z</time>
      </trkpt>
      <trkpt lat="45.75673" lon="6.31703">
        <ele>422</ele>
        <time>2013-10-17T14:14:30Z</time>
      </trkpt>
      <trkpt lat="45.75682" lon="6.31724">
        <ele>423</ele>
        <time>2013-10-17T14:14:32Z</time>
      </trkpt>
      <trkpt lat="45.75697" lon="6.31756">
        <ele>423</ele>
        <time>2013-10-17T14:14:35Z</time>
      </trkpt>
      <trkpt lat="45.75709" lon="6.31777">
        <ele>423</ele>
        <time>2013-10-17T14:14:37Z</time>
      </trkpt>
      <trkpt lat="45.7572" lon="6.31801">
        <ele>423</ele>
        <time>2013-10-17T14:14:39Z</time>
      </trkpt>
      <trkpt lat="45.75737" lon="6.31839">
        <ele>423</ele>
        <time>2013-10-17T14:14:42Z</time>
      </trkpt>
      <trkpt lat="45.75748" lon="6.31863">
        <ele>423</ele>
        <time>2013-10-17T14:14:44Z</time>
      </trkpt>
      <trkpt lat="45.7576" lon="6.31887">
        <ele>423</ele>
        <time>2013-10-17T14:14:46Z</time>
      </trkpt>
      <trkpt lat="45.75776" lon="6.31923">
        <ele>423</ele>
        <time>2013-10-17T14:14:49Z</time>
      </trkpt>
      <trkpt lat="45.75793" lon="6.31958">
        <ele>424</ele>
        <time>2013-10-17T14:14:52Z</time>
      </trkpt>
      <trkpt lat="45.75803" lon="6.3198">
        <ele>424</ele>
        <time>2013-10-17T14:14:54Z</time>
      </trkpt>
      <trkpt lat="45.75818" lon="6.32012">
        <ele>425</ele>
        <time>2013-10-17T14:14:57Z</time>
      </trkpt>
      <trkpt lat="45.75828" lon="6.32031">
        <ele>425</ele>
        <time>2013-10-17T14:14:59Z</time>
      </trkpt>
      <trkpt lat="45.75837" lon="6.3205">
        <ele>425</ele>
        <time>2013-10-17T14:15:01Z</time>
      </trkpt>
      <trkpt lat="45.75852" lon="6.32084">
        <ele>425</ele>
        <time>2013-10-17T14:15:04Z</time>
      </trkpt>
      <trkpt lat="45.75869" lon="6.32121">
        <ele>426</ele>
        <time>2013-10-17T14:15:07Z</time>
      </trkpt>
      <trkpt lat="45.7588" lon="6.32145">
        <ele>426</ele>
        <time>2013-10-17T14:15:09Z</time>
      </trkpt>
      <trkpt lat="45.7589" lon="6.3217">
        <ele>426</ele>
        <time>2013-10-17T14:15:11Z</time>
      </trkpt>
      <trkpt lat="45.75904" lon="6.32206">
        <ele>426</ele>
        <time>2013-10-17T14:15:14Z</time>
      </trkpt>
      <trkpt lat="45.75914" lon="6.32232">
        <ele>425</ele>
        <time>2013-10-17T14:15:16Z</time>
      </trkpt>
      <trkpt lat="45.75927" lon="6.3227">
        <ele>424</ele>
        <time>2013-10-17T14:15:19Z</time>
      </trkpt>
      <trkpt lat="45.7594" lon="6.32309">
        <ele>423</ele>
        <time>2013-10-17T14:15:22Z</time>
      </trkpt>
      <trkpt lat="45.75948" lon="6.32336">
        <ele>423</ele>
        <time>2013-10-17T14:15:24Z</time>
      </trkpt>
      <trkpt lat="45.75956" lon="6.32363">
        <ele>423</ele>
        <time>2013-10-17T14:15:26Z</time>
      </trkpt>
      <trkpt lat="45.75967" lon="6.32404">
        <ele>423</ele>
        <time>2013-10-17T14:15:29Z</time>
      </trkpt>
      <trkpt lat="45.75973" lon="6.32432">
        <ele>422</ele>
        <time>2013-10-17T14:15:31Z</time>
      </trkpt>
      <trkpt lat="45.75982" lon="6.32474">
        <ele>421</ele>
        <time>2013-10-17T14:15:34Z</time>
      </trkpt>
      <trkpt lat="45.75988" lon="6.325">
        <ele>421</ele>
        <time>2013-10-17T14:15:36Z</time>
      </trkpt>
      <trkpt lat="45.75994" lon="6.32529">
        <ele>420</ele>
        <time>2013-10-17T14:15:39Z</time>
      </trkpt>
      <trkpt lat="45.75995" lon="6.32542">
        <ele>419</ele>
        <time>2013-10-17T14:15:41Z</time>
      </trkpt>
      <trkpt lat="45.75999" lon="6.32564">
        <ele>418</ele>
        <time>2013-10-17T14:15:44Z</time>
      </trkpt>
      <trkpt lat="45.76003" lon="6.32582">
        <ele>417</ele>
        <time>2013-10-17T14:15:46Z</time>
      </trkpt>
      <trkpt lat="45.76007" lon="6.32604">
        <ele>417</ele>
        <time>2013-10-17T14:15:48Z</time>
      </trkpt>
      <trkpt lat="45.76015" lon="6.32643">
        <ele>416</ele>
        <time>2013-10-17T14:15:51Z</time>
      </trkpt>
      <trkpt lat="45.7602" lon="6.32672">
        <ele>416</ele>
        <time>2013-10-17T14:15:53Z</time>
      </trkpt>
      <trkpt lat="45.76029" lon="6.32717">
        <ele>417</ele>
        <time>2013-10-17T14:15:56Z</time>
      </trkpt>
      <trkpt lat="45.76035" lon="6.32747">
        <ele>418</ele>
        <time>2013-10-17T14:15:58Z</time>
      </trkpt>
      <trkpt lat="45.7604" lon="6.32777">
        <ele>417</ele>
        <time>2013-10-17T14:16:00Z</time>
      </trkpt>
      <trkpt lat="45.76049" lon="6.32823">
        <ele>416</ele>
        <time>2013-10-17T14:16:03Z</time>
      </trkpt>
      <trkpt lat="45.76054" lon="6.32853">
        <ele>416</ele>
        <time>2013-10-17T14:16:05Z</time>
      </trkpt>
      <trkpt lat="45.7606" lon="6.32883">
        <ele>415</ele>
        <time>2013-10-17T14:16:07Z</time>
      </trkpt>
      <trkpt lat="45.76066" lon="6.32912">
        <ele>415</ele>
        <time>2013-10-17T14:16:09Z</time>
      </trkpt>
      <trkpt lat="45.76072" lon="6.32942">
        <ele>414</ele>
        <time>2013-10-17T14:16:11Z</time>
      </trkpt>
      <trkpt lat="45.7608" lon="6.32987">
        <ele>413</ele>
        <time>2013-10-17T14:16:14Z</time>
      </trkpt>
      <trkpt lat="45.76085" lon="6.33016">
        <ele>413</ele>
        <time>2013-10-17T14:16:16Z</time>
      </trkpt>
      <trkpt lat="45.76094" lon="6.33061">
        <ele>412</ele>
        <time>2013-10-17T14:16:19Z</time>
      </trkpt>
      <trkpt lat="45.761" lon="6.33091">
        <ele>412</ele>
        <time>2013-10-17T14:16:21Z</time>
      </trkpt>
      <trkpt lat="45.76108" lon="6.33138">
        <ele>411</ele>
        <time>2013-10-17T14:16:24Z</time>
      </trkpt>
      <trkpt lat="45.76117" lon="6.33185">
        <ele>410</ele>
        <time>2013-10-17T14:16:27Z</time>
      </trkpt>
      <trkpt lat="45.76123" lon="6.33216">
        <ele>410</ele>
        <time>2013-10-17T14:16:29Z</time>
      </trkpt>
      <trkpt lat="45.76131" lon="6.33262">
        <ele>410</ele>
        <time>2013-10-17T14:16:32Z</time>
      </trkpt>
      <trkpt lat="45.7614" lon="6.33308">
        <ele>409</ele>
        <time>2013-10-17T14:16:35Z</time>
      </trkpt>
      <trkpt lat="45.76148" lon="6.33354">
        <ele>408</ele>
        <time>2013-10-17T14:16:38Z</time>
      </trkpt>
      <trkpt lat="45.76154" lon="6.33385">
        <ele>408</ele>
        <time>2013-10-17T14:16:40Z</time>
      </trkpt>
      <trkpt lat="45.7616" lon="6.33416">
        <ele>407</ele>
        <time>2013-10-17T14:16:42Z</time>
      </trkpt>
      <trkpt lat="45.76165" lon="6.33447">
        <ele>406</ele>
        <time>2013-10-17T14:16:44Z</time>
      </trkpt>
      <trkpt lat="45.76171" lon="6.33477">
        <ele>406</ele>
        <time>2013-10-17T14:16:46Z</time>
      </trkpt>
      <trkpt lat="45.76178" lon="6.33506">
        <ele>406</ele>
        <time>2013-10-17T14:16:48Z</time>
      </trkpt>
      <trkpt lat="45.76186" lon="6.33548">
        <ele>405</ele>
        <time>2013-10-17T14:16:51Z</time>
      </trkpt>
      <trkpt lat="45.76192" lon="6.33574">
        <ele>405</ele>
        <time>2013-10-17T14:16:53Z</time>
      </trkpt>
      <trkpt lat="45.76196" lon="6.33595">
        <ele>405</ele>
        <time>2013-10-17T14:16:55Z</time>
      </trkpt>
      <trkpt lat="45.76197" lon="6.33613">
        <ele>403</ele>
        <time>2013-10-17T14:16:58Z</time>
      </trkpt>
      <trkpt lat="45.76201" lon="6.33631">
        <ele>402</ele>
        <time>2013-10-17T14:17:01Z</time>
      </trkpt>
      <trkpt lat="45.76207" lon="6.33658">
        <ele>400</ele>
        <time>2013-10-17T14:17:04Z</time>
      </trkpt>
      <trkpt lat="45.76211" lon="6.33681">
        <ele>400</ele>
        <time>2013-10-17T14:17:06Z</time>
      </trkpt>
      <trkpt lat="45.76219" lon="6.33722">
        <ele>400</ele>
        <time>2013-10-17T14:17:09Z</time>
      </trkpt>
      <trkpt lat="45.76225" lon="6.33751">
        <ele>400</ele>
        <time>2013-10-17T14:17:11Z</time>
      </trkpt>
      <trkpt lat="45.7623" lon="6.33781">
        <ele>400</ele>
        <time>2013-10-17T14:17:13Z</time>
      </trkpt>
      <trkpt lat="45.76239" lon="6.33826">
        <ele>400</ele>
        <time>2013-10-17T14:17:16Z</time>
      </trkpt>
      <trkpt lat="45.76244" lon="6.33856">
        <ele>400</ele>
        <time>2013-10-17T14:17:18Z</time>
      </trkpt>
      <trkpt lat="45.76253" lon="6.33902">
        <ele>399</ele>
        <time>2013-10-17T14:17:21Z</time>
      </trkpt>
      <trkpt lat="45.76259" lon="6.33931">
        <ele>398</ele>
        <time>2013-10-17T14:17:23Z</time>
      </trkpt>
      <trkpt lat="45.76265" lon="6.33961">
        <ele>398</ele>
        <time>2013-10-17T14:17:25Z</time>
      </trkpt>
      <trkpt lat="45.7627" lon="6.33991">
        <ele>397</ele>
        <time>2013-10-17T14:17:27Z</time>
      </trkpt>
      <trkpt lat="45.76275" lon="6.3402">
        <ele>397</ele>
        <time>2013-10-17T14:17:29Z</time>
      </trkpt>
      <trkpt lat="45.76281" lon="6.34048">
        <ele>397</ele>
        <time>2013-10-17T14:17:31Z</time>
      </trkpt>
      <trkpt lat="45.76287" lon="6.34077">
        <ele>396</ele>
        <time>2013-10-17T14:17:33Z</time>
      </trkpt>
      <trkpt lat="45.76293" lon="6.34121">
        <ele>396</ele>
        <time>2013-10-17T14:17:36Z</time>
      </trkpt>
      <trkpt lat="45.76296" lon="6.3415">
        <ele>395</ele>
        <time>2013-10-17T14:17:38Z</time>
      </trkpt>
      <trkpt lat="45.76303" lon="6.3419">
        <ele>394</ele>
        <time>2013-10-17T14:17:41Z</time>
      </trkpt>
      <trkpt lat="45.7631" lon="6.34227">
        <ele>393</ele>
        <time>2013-10-17T14:17:44Z</time>
      </trkpt>
      <trkpt lat="45.76312" lon="6.34247">
        <ele>393</ele>
        <time>2013-10-17T14:17:46Z</time>
      </trkpt>
      <trkpt lat="45.76313" lon="6.34264">
        <ele>391</ele>
        <time>2013-10-17T14:17:49Z</time>
      </trkpt>
      <trkpt lat="45.76309" lon="6.34283">
        <ele>391</ele>
        <time>2013-10-17T14:17:52Z</time>
      </trkpt>
      <trkpt lat="45.76311" lon="6.343">
        <ele>391</ele>
        <time>2013-10-17T14:17:54Z</time>
      </trkpt>
      <trkpt lat="45.76317" lon="6.3433">
        <ele>391</ele>
        <time>2013-10-17T14:17:57Z</time>
      </trkpt>
      <trkpt lat="45.76334" lon="6.34358">
        <ele>391</ele>
        <time>2013-10-17T14:18:00Z</time>
      </trkpt>
      <trkpt lat="45.76344" lon="6.34379">
        <ele>390</ele>
        <time>2013-10-17T14:18:02Z</time>
      </trkpt>
      <trkpt lat="45.7635" lon="6.34406">
        <ele>390</ele>
        <time>2013-10-17T14:18:04Z</time>
      </trkpt>
      <trkpt lat="45.76355" lon="6.34434">
        <ele>390</ele>
        <time>2013-10-17T14:18:06Z</time>
      </trkpt>
      <trkpt lat="45.76363" lon="6.34477">
        <ele>390</ele>
        <time>2013-10-17T14:18:09Z</time>
      </trkpt>
      <trkpt lat="45.76368" lon="6.34505">
        <ele>391</ele>
        <time>2013-10-17T14:18:11Z</time>
      </trkpt>
      <trkpt lat="45.76373" lon="6.34535">
        <ele>391</ele>
        <time>2013-10-17T14:18:13Z</time>
      </trkpt>
      <trkpt lat="45.76381" lon="6.34577">
        <ele>391</ele>
        <time>2013-10-17T14:18:16Z</time>
      </trkpt>
      <trkpt lat="45.76389" lon="6.34621">
        <ele>390</ele>
        <time>2013-10-17T14:18:19Z</time>
      </trkpt>
      <trkpt lat="45.76395" lon="6.3465">
        <ele>390</ele>
        <time>2013-10-17T14:18:21Z</time>
      </trkpt>
      <trkpt lat="45.76403" lon="6.34694">
        <ele>390</ele>
        <time>2013-10-17T14:18:24Z</time>
      </trkpt>
      <trkpt lat="45.76409" lon="6.34723">
        <ele>390</ele>
        <time>2013-10-17T14:18:26Z</time>
      </trkpt>
      <trkpt lat="45.76416" lon="6.34764">
        <ele>389</ele>
        <time>2013-10-17T14:18:29Z</time>
      </trkpt>
      <trkpt lat="45.76422" lon="6.34791">
        <ele>389</ele>
        <time>2013-10-17T14:18:31Z</time>
      </trkpt>
      <trkpt lat="45.76427" lon="6.34817">
        <ele>388</ele>
        <time>2013-10-17T14:18:33Z</time>
      </trkpt>
      <trkpt lat="45.76435" lon="6.34854">
        <ele>388</ele>
        <time>2013-10-17T14:18:36Z</time>
      </trkpt>
      <trkpt lat="45.7644" lon="6.34882">
        <ele>387</ele>
        <time>2013-10-17T14:18:39Z</time>
      </trkpt>
      <trkpt lat="45.76442" lon="6.34897">
        <ele>387</ele>
        <time>2013-10-17T14:18:41Z</time>
      </trkpt>
      <trkpt lat="45.76447" lon="6.34922">
        <ele>387</ele>
        <time>2013-10-17T14:18:44Z</time>
      </trkpt>
      <trkpt lat="45.76453" lon="6.34955">
        <ele>386</ele>
        <time>2013-10-17T14:18:47Z</time>
      </trkpt>
      <trkpt lat="45.76461" lon="6.34994">
        <ele>386</ele>
        <time>2013-10-17T14:18:50Z</time>
      </trkpt>
      <trkpt lat="45.76469" lon="6.35037">
        <ele>386</ele>
        <time>2013-10-17T14:18:53Z</time>
      </trkpt>
      <trkpt lat="45.76477" lon="6.3508">
        <ele>386</ele>
        <time>2013-10-17T14:18:56Z</time>
      </trkpt>
      <trkpt lat="45.76485" lon="6.35122">
        <ele>386</ele>
        <time>2013-10-17T14:18:59Z</time>
      </trkpt>
      <trkpt lat="45.76491" lon="6.3515">
        <ele>386</ele>
        <time>2013-10-17T14:19:01Z</time>
      </trkpt>
      <trkpt lat="45.76498" lon="6.35192">
        <ele>385</ele>
        <time>2013-10-17T14:19:04Z</time>
      </trkpt>
      <trkpt lat="45.76503" lon="6.3522">
        <ele>385</ele>
        <time>2013-10-17T14:19:06Z</time>
      </trkpt>
      <trkpt lat="45.76508" lon="6.35248">
        <ele>385</ele>
        <time>2013-10-17T14:19:08Z</time>
      </trkpt>
      <trkpt lat="45.76516" lon="6.35289">
        <ele>385</ele>
        <time>2013-10-17T14:19:11Z</time>
      </trkpt>
      <trkpt lat="45.76522" lon="6.35329">
        <ele>385</ele>
        <time>2013-10-17T14:19:14Z</time>
      </trkpt>
      <trkpt lat="45.76525" lon="6.35368">
        <ele>384</ele>
        <time>2013-10-17T14:19:17Z</time>
      </trkpt>
      <trkpt lat="45.76527" lon="6.35395">
        <ele>384</ele>
        <time>2013-10-17T14:19:19Z</time>
      </trkpt>
      <trkpt lat="45.76527" lon="6.35435">
        <ele>384</ele>
        <time>2013-10-17T14:19:22Z</time>
      </trkpt>
      <trkpt lat="45.76527" lon="6.35462">
        <ele>384</ele>
        <time>2013-10-17T14:19:24Z</time>
      </trkpt>
      <trkpt lat="45.76527" lon="6.35488">
        <ele>384</ele>
        <time>2013-10-17T14:19:26Z</time>
      </trkpt>
      <trkpt lat="45.76527" lon="6.35527">
        <ele>383</ele>
        <time>2013-10-17T14:19:29Z</time>
      </trkpt>
      <trkpt lat="45.76527" lon="6.35553">
        <ele>382</ele>
        <time>2013-10-17T14:19:31Z</time>
      </trkpt>
      <trkpt lat="45.76527" lon="6.35592">
        <ele>383</ele>
        <time>2013-10-17T14:19:34Z</time>
      </trkpt>
      <trkpt lat="45.76526" lon="6.35618">
        <ele>383</ele>
        <time>2013-10-17T14:19:36Z</time>
      </trkpt>
      <trkpt lat="45.76525" lon="6.35644">
        <ele>383</ele>
        <time>2013-10-17T14:19:38Z</time>
      </trkpt>
      <trkpt lat="45.76525" lon="6.35681">
        <ele>382</ele>
        <time>2013-10-17T14:19:41Z</time>
      </trkpt>
      <trkpt lat="45.76524" lon="6.35706">
        <ele>382</ele>
        <time>2013-10-17T14:19:43Z</time>
      </trkpt>
      <trkpt lat="45.76523" lon="6.3573">
        <ele>382</ele>
        <time>2013-10-17T14:19:45Z</time>
      </trkpt>
      <trkpt lat="45.76522" lon="6.35752">
        <ele>382</ele>
        <time>2013-10-17T14:19:47Z</time>
      </trkpt>
      <trkpt lat="45.76522" lon="6.35773">
        <ele>383</ele>
        <time>2013-10-17T14:19:49Z</time>
      </trkpt>
      <trkpt lat="45.76522" lon="6.35793">
        <ele>382</ele>
        <time>2013-10-17T14:19:51Z</time>
      </trkpt>
      <trkpt lat="45.76522" lon="6.35816">
        <ele>382</ele>
        <time>2013-10-17T14:19:53Z</time>
      </trkpt>
      <trkpt lat="45.76522" lon="6.35842">
        <ele>382</ele>
        <time>2013-10-17T14:19:55Z</time>
      </trkpt>
      <trkpt lat="45.76524" lon="6.35885">
        <ele>383</ele>
        <time>2013-10-17T14:19:58Z</time>
      </trkpt>
      <trkpt lat="45.76524" lon="6.35914">
        <ele>383</ele>
        <time>2013-10-17T14:20:00Z</time>
      </trkpt>
      <trkpt lat="45.76524" lon="6.35958">
        <ele>383</ele>
        <time>2013-10-17T14:20:03Z</time>
      </trkpt>
      <trkpt lat="45.76525" lon="6.35987">
        <ele>382</ele>
        <time>2013-10-17T14:20:05Z</time>
      </trkpt>
      <trkpt lat="45.76525" lon="6.3603">
        <ele>381</ele>
        <time>2013-10-17T14:20:08Z</time>
      </trkpt>
      <trkpt lat="45.76525" lon="6.36058">
        <ele>381</ele>
        <time>2013-10-17T14:20:10Z</time>
      </trkpt>
      <trkpt lat="45.76525" lon="6.36101">
        <ele>381</ele>
        <time>2013-10-17T14:20:13Z</time>
      </trkpt>
      <trkpt lat="45.76525" lon="6.3613">
        <ele>380</ele>
        <time>2013-10-17T14:20:15Z</time>
      </trkpt>
      <trkpt lat="45.76527" lon="6.36173">
        <ele>380</ele>
        <time>2013-10-17T14:20:18Z</time>
      </trkpt>
      <trkpt lat="45.7653" lon="6.36201">
        <ele>380</ele>
        <time>2013-10-17T14:20:20Z</time>
      </trkpt>
      <trkpt lat="45.76533" lon="6.3623">
        <ele>380</ele>
        <time>2013-10-17T14:20:22Z</time>
      </trkpt>
      <trkpt lat="45.7654" lon="6.36273">
        <ele>380</ele>
        <time>2013-10-17T14:20:25Z</time>
      </trkpt>
      <trkpt lat="45.76546" lon="6.36301">
        <ele>380</ele>
        <time>2013-10-17T14:20:27Z</time>
      </trkpt>
      <trkpt lat="45.76552" lon="6.36328">
        <ele>379</ele>
        <time>2013-10-17T14:20:29Z</time>
      </trkpt>
      <trkpt lat="45.76563" lon="6.36369">
        <ele>378</ele>
        <time>2013-10-17T14:20:32Z</time>
      </trkpt>
      <trkpt lat="45.76577" lon="6.36406">
        <ele>378</ele>
        <time>2013-10-17T14:20:35Z</time>
      </trkpt>
      <trkpt lat="45.76587" lon="6.36431">
        <ele>378</ele>
        <time>2013-10-17T14:20:37Z</time>
      </trkpt>
      <trkpt lat="45.76596" lon="6.36454">
        <ele>377</ele>
        <time>2013-10-17T14:20:39Z</time>
      </trkpt>
      <trkpt lat="45.7661" lon="6.36491">
        <ele>377</ele>
        <time>2013-10-17T14:20:42Z</time>
      </trkpt>
      <trkpt lat="45.76619" lon="6.36515">
        <ele>377</ele>
        <time>2013-10-17T14:20:44Z</time>
      </trkpt>
      <trkpt lat="45.76628" lon="6.36538">
        <ele>377</ele>
        <time>2013-10-17T14:20:46Z</time>
      </trkpt>
      <trkpt lat="45.7664" lon="6.36573">
        <ele>377</ele>
        <time>2013-10-17T14:20:49Z</time>
      </trkpt>
      <trkpt lat="45.76647" lon="6.36597">
        <ele>376</ele>
        <time>2013-10-17T14:20:51Z</time>
      </trkpt>
      <trkpt lat="45.76654" lon="6.36624">
        <ele>376</ele>
        <time>2013-10-17T14:20:53Z</time>
      </trkpt>
      <trkpt lat="45.76664" lon="6.36665">
        <ele>376</ele>
        <time>2013-10-17T14:20:56Z</time>
      </trkpt>
      <trkpt lat="45.76671" lon="6.36706">
        <ele>375</ele>
        <time>2013-10-17T14:20:59Z</time>
      </trkpt>
      <trkpt lat="45.76676" lon="6.36747">
        <ele>375</ele>
        <time>2013-10-17T14:21:02Z</time>
      </trkpt>
      <trkpt lat="45.7668" lon="6.36774">
        <ele>374</ele>
        <time>2013-10-17T14:21:04Z</time>
      </trkpt>
      <trkpt lat="45.76683" lon="6.36816">
        <ele>374</ele>
        <time>2013-10-17T14:21:07Z</time>
      </trkpt>
      <trkpt lat="45.76684" lon="6.36857">
        <ele>374</ele>
        <time>2013-10-17T14:21:10Z</time>
      </trkpt>
      <trkpt lat="45.76685" lon="6.36899">
        <ele>373</ele>
        <time>2013-10-17T14:21:13Z</time>
      </trkpt>
      <trkpt lat="45.76685" lon="6.36926">
        <ele>373</ele>
        <time>2013-10-17T14:21:15Z</time>
      </trkpt>
      <trkpt lat="45.76685" lon="6.36952">
        <ele>372</ele>
        <time>2013-10-17T14:21:17Z</time>
      </trkpt>
      <trkpt lat="45.76685" lon="6.36995">
        <ele>372</ele>
        <time>2013-10-17T14:21:20Z</time>
      </trkpt>
      <trkpt lat="45.76685" lon="6.37037">
        <ele>371</ele>
        <time>2013-10-17T14:21:23Z</time>
      </trkpt>
      <trkpt lat="45.76685" lon="6.37079">
        <ele>372</ele>
        <time>2013-10-17T14:21:26Z</time>
      </trkpt>
      <trkpt lat="45.76684" lon="6.37121">
        <ele>371</ele>
        <time>2013-10-17T14:21:29Z</time>
      </trkpt>
      <trkpt lat="45.76683" lon="6.37163">
        <ele>371</ele>
        <time>2013-10-17T14:21:32Z</time>
      </trkpt>
      <trkpt lat="45.76683" lon="6.37191">
        <ele>370</ele>
        <time>2013-10-17T14:21:34Z</time>
      </trkpt>
      <trkpt lat="45.76682" lon="6.3722">
        <ele>370</ele>
        <time>2013-10-17T14:21:36Z</time>
      </trkpt>
      <trkpt lat="45.76682" lon="6.37262">
        <ele>370</ele>
        <time>2013-10-17T14:21:39Z</time>
      </trkpt>
      <trkpt lat="45.76681" lon="6.3729">
        <ele>370</ele>
        <time>2013-10-17T14:21:41Z</time>
      </trkpt>
      <trkpt lat="45.76679" lon="6.37331">
        <ele>369</ele>
        <time>2013-10-17T14:21:44Z</time>
      </trkpt>
      <trkpt lat="45.76678" lon="6.37359">
        <ele>369</ele>
        <time>2013-10-17T14:21:46Z</time>
      </trkpt>
      <trkpt lat="45.76678" lon="6.37387">
        <ele>369</ele>
        <time>2013-10-17T14:21:48Z</time>
      </trkpt>
      <trkpt lat="45.76679" lon="6.37429">
        <ele>369</ele>
        <time>2013-10-17T14:21:51Z</time>
      </trkpt>
      <trkpt lat="45.76679" lon="6.3747">
        <ele>368</ele>
        <time>2013-10-17T14:21:54Z</time>
      </trkpt>
      <trkpt lat="45.76679" lon="6.37512">
        <ele>368</ele>
        <time>2013-10-17T14:21:57Z</time>
      </trkpt>
      <trkpt lat="45.76678" lon="6.37556">
        <ele>368</ele>
        <time>2013-10-17T14:22:00Z</time>
      </trkpt>
      <trkpt lat="45.76678" lon="6.37597">
        <ele>368</ele>
        <time>2013-10-17T14:22:03Z</time>
      </trkpt>
      <trkpt lat="45.76677" lon="6.37625">
        <ele>368</ele>
        <time>2013-10-17T14:22:05Z</time>
      </trkpt>
      <trkpt lat="45.76676" lon="6.37652">
        <ele>368</ele>
        <time>2013-10-17T14:22:07Z</time>
      </trkpt>
      <trkpt lat="45.76675" lon="6.37691">
        <ele>368</ele>
        <time>2013-10-17T14:22:10Z</time>
      </trkpt>
      <trkpt lat="45.76674" lon="6.37717">
        <ele>368</ele>
        <time>2013-10-17T14:22:12Z</time>
      </trkpt>
      <trkpt lat="45.76671" lon="6.37756">
        <ele>368</ele>
        <time>2013-10-17T14:22:15Z</time>
      </trkpt>
      <trkpt lat="45.76668" lon="6.37782">
        <ele>368</ele>
        <time>2013-10-17T14:22:17Z</time>
      </trkpt>
      <trkpt lat="45.76663" lon="6.37822">
        <ele>368</ele>
        <time>2013-10-17T14:22:19Z</time>
      </trkpt>
      <trkpt lat="45.76658" lon="6.37848">
        <ele>368</ele>
        <time>2013-10-17T14:22:22Z</time>
      </trkpt>
      <trkpt lat="45.76653" lon="6.37875">
        <ele>368</ele>
        <time>2013-10-17T14:22:24Z</time>
      </trkpt>
      <trkpt lat="45.76648" lon="6.37902">
        <ele>367</ele>
        <time>2013-10-17T14:22:26Z</time>
      </trkpt>
      <trkpt lat="45.76639" lon="6.37942">
        <ele>367</ele>
        <time>2013-10-17T14:22:29Z</time>
      </trkpt>
      <trkpt lat="45.76629" lon="6.37982">
        <ele>367</ele>
        <time>2013-10-17T14:22:32Z</time>
      </trkpt>
      <trkpt lat="45.76622" lon="6.38008">
        <ele>367</ele>
        <time>2013-10-17T14:22:34Z</time>
      </trkpt>
      <trkpt lat="45.7661" lon="6.38048">
        <ele>366</ele>
        <time>2013-10-17T14:22:37Z</time>
      </trkpt>
      <trkpt lat="45.76598" lon="6.38085">
        <ele>366</ele>
        <time>2013-10-17T14:22:40Z</time>
      </trkpt>
      <trkpt lat="45.7659" lon="6.38109">
        <ele>366</ele>
        <time>2013-10-17T14:22:42Z</time>
      </trkpt>
      <trkpt lat="45.76577" lon="6.38144">
        <ele>366</ele>
        <time>2013-10-17T14:22:45Z</time>
      </trkpt>
      <trkpt lat="45.76568" lon="6.38166">
        <ele>366</ele>
        <time>2013-10-17T14:22:47Z</time>
      </trkpt>
      <trkpt lat="45.76558" lon="6.38188">
        <ele>366</ele>
        <time>2013-10-17T14:22:49Z</time>
      </trkpt>
      <trkpt lat="45.76548" lon="6.38211">
        <ele>366</ele>
        <time>2013-10-17T14:22:51Z</time>
      </trkpt>
      <trkpt lat="45.76538" lon="6.38234">
        <ele>365</ele>
        <time>2013-10-17T14:22:53Z</time>
      </trkpt>
      <trkpt lat="45.76527" lon="6.38255">
        <ele>366</ele>
        <time>2013-10-17T14:22:55Z</time>
      </trkpt>
      <trkpt lat="45.76516" lon="6.38276">
        <ele>366</ele>
        <time>2013-10-17T14:22:57Z</time>
      </trkpt>
      <trkpt lat="45.76499" lon="6.38307">
        <ele>366</ele>
        <time>2013-10-17T14:23:00Z</time>
      </trkpt>
      <trkpt lat="45.76487" lon="6.38327">
        <ele>366</ele>
        <time>2013-10-17T14:23:02Z</time>
      </trkpt>
      <trkpt lat="45.76469" lon="6.38355">
        <ele>365</ele>
        <time>2013-10-17T14:23:05Z</time>
      </trkpt>
      <trkpt lat="45.76449" lon="6.38381">
        <ele>365</ele>
        <time>2013-10-17T14:23:08Z</time>
      </trkpt>
      <trkpt lat="45.76437" lon="6.38398">
        <ele>364</ele>
        <time>2013-10-17T14:23:10Z</time>
      </trkpt>
      <trkpt lat="45.76417" lon="6.38422">
        <ele>363</ele>
        <time>2013-10-17T14:23:13Z</time>
      </trkpt>
      <trkpt lat="45.76396" lon="6.38448">
        <ele>363</ele>
        <time>2013-10-17T14:23:16Z</time>
      </trkpt>
      <trkpt lat="45.76382" lon="6.38465">
        <ele>363</ele>
        <time>2013-10-17T14:23:18Z</time>
      </trkpt>
      <trkpt lat="45.76361" lon="6.3849">
        <ele>364</ele>
        <time>2013-10-17T14:23:21Z</time>
      </trkpt>
      <trkpt lat="45.7634" lon="6.38514">
        <ele>364</ele>
        <time>2013-10-17T14:23:24Z</time>
      </trkpt>
      <trkpt lat="45.7632" lon="6.38539">
        <ele>364</ele>
        <time>2013-10-17T14:23:27Z</time>
      </trkpt>
      <trkpt lat="45.76298" lon="6.38564">
        <ele>363</ele>
        <time>2013-10-17T14:23:30Z</time>
      </trkpt>
      <trkpt lat="45.76277" lon="6.38589">
        <ele>363</ele>
        <time>2013-10-17T14:23:33Z</time>
      </trkpt>
      <trkpt lat="45.76263" lon="6.38606">
        <ele>363</ele>
        <time>2013-10-17T14:23:35Z</time>
      </trkpt>
      <trkpt lat="45.76249" lon="6.38623">
        <ele>363</ele>
        <time>2013-10-17T14:23:37Z</time>
      </trkpt>
      <trkpt lat="45.7623" lon="6.38649">
        <ele>363</ele>
        <time>2013-10-17T14:23:40Z</time>
      </trkpt>
      <trkpt lat="45.76212" lon="6.38676">
        <ele>363</ele>
        <time>2013-10-17T14:23:43Z</time>
      </trkpt>
      <trkpt lat="45.76193" lon="6.38704">
        <ele>363</ele>
        <time>2013-10-17T14:23:46Z</time>
      </trkpt>
      <trkpt lat="45.76175" lon="6.38733">
        <ele>363</ele>
        <time>2013-10-17T14:23:49Z</time>
      </trkpt>
      <trkpt lat="45.76157" lon="6.38763">
        <ele>363</ele>
        <time>2013-10-17T14:23:52Z</time>
      </trkpt>
      <trkpt lat="45.76146" lon="6.38784">
        <ele>363</ele>
        <time>2013-10-17T14:23:54Z</time>
      </trkpt>
      <trkpt lat="45.76129" lon="6.38816">
        <ele>363</ele>
        <time>2013-10-17T14:23:57Z</time>
      </trkpt>
      <trkpt lat="45.76118" lon="6.38838">
        <ele>363</ele>
        <time>2013-10-17T14:23:59Z</time>
      </trkpt>
      <trkpt lat="45.76103" lon="6.3887">
        <ele>363</ele>
        <time>2013-10-17T14:24:02Z</time>
      </trkpt>
      <trkpt lat="45.76093" lon="6.38891">
        <ele>363</ele>
        <time>2013-10-17T14:24:04Z</time>
      </trkpt>
      <trkpt lat="45.76083" lon="6.38912">
        <ele>362</ele>
        <time>2013-10-17T14:24:06Z</time>
      </trkpt>
      <trkpt lat="45.76074" lon="6.38933">
        <ele>362</ele>
        <time>2013-10-17T14:24:08Z</time>
      </trkpt>
      <trkpt lat="45.7606" lon="6.38963">
        <ele>363</ele>
        <time>2013-10-17T14:24:11Z</time>
      </trkpt>
      <trkpt lat="45.76051" lon="6.38983">
        <ele>363</ele>
        <time>2013-10-17T14:24:13Z</time>
      </trkpt>
      <trkpt lat="45.7604" lon="6.3901">
        <ele>362</ele>
        <time>2013-10-17T14:24:16Z</time>
      </trkpt>
      <trkpt lat="45.76031" lon="6.39028">
        <ele>362</ele>
        <time>2013-10-17T14:24:18Z</time>
      </trkpt>
      <trkpt lat="45.76018" lon="6.39053">
        <ele>361</ele>
        <time>2013-10-17T14:24:21Z</time>
      </trkpt>
      <trkpt lat="45.76009" lon="6.39073">
        <ele>360</ele>
        <time>2013-10-17T14:24:23Z</time>
      </trkpt>
      <trkpt lat="45.75993" lon="6.39107">
        <ele>360</ele>
        <time>2013-10-17T14:24:26Z</time>
      </trkpt>
      <trkpt lat="45.75982" lon="6.39131">
        <ele>360</ele>
        <time>2013-10-17T14:24:28Z</time>
      </trkpt>
      <trkpt lat="45.75965" lon="6.39168">
        <ele>361</ele>
        <time>2013-10-17T14:24:31Z</time>
      </trkpt>
      <trkpt lat="45.75953" lon="6.39193">
        <ele>361</ele>
        <time>2013-10-17T14:24:33Z</time>
      </trkpt>
      <trkpt lat="45.75935" lon="6.39232">
        <ele>360</ele>
        <time>2013-10-17T14:24:36Z</time>
      </trkpt>
      <trkpt lat="45.75917" lon="6.3927">
        <ele>360</ele>
        <time>2013-10-17T14:24:39Z</time>
      </trkpt>
      <trkpt lat="45.75906" lon="6.39296">
        <ele>360</ele>
        <time>2013-10-17T14:24:41Z</time>
      </trkpt>
      <trkpt lat="45.75888" lon="6.39334">
        <ele>360</ele>
        <time>2013-10-17T14:24:44Z</time>
      </trkpt>
      <trkpt lat="45.75877" lon="6.39359">
        <ele>359</ele>
        <time>2013-10-17T14:24:46Z</time>
      </trkpt>
      <trkpt lat="45.75866" lon="6.39383">
        <ele>359</ele>
        <time>2013-10-17T14:24:48Z</time>
      </trkpt>
      <trkpt lat="45.75849" lon="6.39419">
        <ele>358</ele>
        <time>2013-10-17T14:24:51Z</time>
      </trkpt>
      <trkpt lat="45.75838" lon="6.39442">
        <ele>358</ele>
        <time>2013-10-17T14:24:53Z</time>
      </trkpt>
      <trkpt lat="45.75827" lon="6.39466">
        <ele>358</ele>
        <time>2013-10-17T14:24:55Z</time>
      </trkpt>
      <trkpt lat="45.75817" lon="6.3949">
        <ele>359</ele>
        <time>2013-10-17T14:24:57Z</time>
      </trkpt>
      <trkpt lat="45.75801" lon="6.39524">
        <ele>359</ele>
        <time>2013-10-17T14:25:00Z</time>
      </trkpt>
      <trkpt lat="45.75791" lon="6.39547">
        <ele>359</ele>
        <time>2013-10-17T14:25:02Z</time>
      </trkpt>
      <trkpt lat="45.7578" lon="6.39571">
        <ele>358</ele>
        <time>2013-10-17T14:25:04Z</time>
      </trkpt>
      <trkpt lat="45.75769" lon="6.39594">
        <ele>358</ele>
        <time>2013-10-17T14:25:06Z</time>
      </trkpt>
      <trkpt lat="45.75753" lon="6.39628">
        <ele>357</ele>
        <time>2013-10-17T14:25:09Z</time>
      </trkpt>
      <trkpt lat="45.75737" lon="6.39663">
        <ele>356</ele>
        <time>2013-10-17T14:25:12Z</time>
      </trkpt>
      <trkpt lat="45.75727" lon="6.39685">
        <ele>356</ele>
        <time>2013-10-17T14:25:14Z</time>
      </trkpt>
      <trkpt lat="45.75711" lon="6.39719">
        <ele>356</ele>
        <time>2013-10-17T14:25:17Z</time>
      </trkpt>
      <trkpt lat="45.75697" lon="6.39753">
        <ele>356</ele>
        <time>2013-10-17T14:25:20Z</time>
      </trkpt>
      <trkpt lat="45.75686" lon="6.39776">
        <ele>356</ele>
        <time>2013-10-17T14:25:22Z</time>
      </trkpt>
      <trkpt lat="45.75676" lon="6.39797">
        <ele>356</ele>
        <time>2013-10-17T14:25:24Z</time>
      </trkpt>
      <trkpt lat="45.75667" lon="6.39819">
        <ele>356</ele>
        <time>2013-10-17T14:25:26Z</time>
      </trkpt>
      <trkpt lat="45.75658" lon="6.39839">
        <ele>355</ele>
        <time>2013-10-17T14:25:28Z</time>
      </trkpt>
      <trkpt lat="45.75644" lon="6.39867">
        <ele>355</ele>
        <time>2013-10-17T14:25:31Z</time>
      </trkpt>
      <trkpt lat="45.75634" lon="6.39883">
        <ele>355</ele>
        <time>2013-10-17T14:25:33Z</time>
      </trkpt>
      <trkpt lat="45.75617" lon="6.39912">
        <ele>354</ele>
        <time>2013-10-17T14:25:36Z</time>
      </trkpt>
      <trkpt lat="45.75605" lon="6.39932">
        <ele>354</ele>
        <time>2013-10-17T14:25:38Z</time>
      </trkpt>
      <trkpt lat="45.75586" lon="6.39963">
        <ele>354</ele>
        <time>2013-10-17T14:25:41Z</time>
      </trkpt>
      <trkpt lat="45.75565" lon="6.39992">
        <ele>354</ele>
        <time>2013-10-17T14:25:44Z</time>
      </trkpt>
      <trkpt lat="45.75551" lon="6.40011">
        <ele>354</ele>
        <time>2013-10-17T14:25:46Z</time>
      </trkpt>
      <trkpt lat="45.7553" lon="6.40037">
        <ele>354</ele>
        <time>2013-10-17T14:25:49Z</time>
      </trkpt>
      <trkpt lat="45.75517" lon="6.40054">
        <ele>354</ele>
        <time>2013-10-17T14:25:51Z</time>
      </trkpt>
      <trkpt lat="45.75495" lon="6.40076">
        <ele>354</ele>
        <time>2013-10-17T14:25:54Z</time>
      </trkpt>
      <trkpt lat="45.75481" lon="6.40092">
        <ele>354</ele>
        <time>2013-10-17T14:25:56Z</time>
      </trkpt>
      <trkpt lat="45.75457" lon="6.40114">
        <ele>354</ele>
        <time>2013-10-17T14:25:59Z</time>
      </trkpt>
      <trkpt lat="45.75434" lon="6.40135">
        <ele>354</ele>
        <time>2013-10-17T14:26:02Z</time>
      </trkpt>
      <trkpt lat="45.75417" lon="6.40148">
        <ele>354</ele>
        <time>2013-10-17T14:26:04Z</time>
      </trkpt>
      <trkpt lat="45.75401" lon="6.40163">
        <ele>354</ele>
        <time>2013-10-17T14:26:06Z</time>
      </trkpt>
      <trkpt lat="45.75375" lon="6.40185">
        <ele>354</ele>
        <time>2013-10-17T14:26:09Z</time>
      </trkpt>
      <trkpt lat="45.7535" lon="6.40205">
        <ele>353</ele>
        <time>2013-10-17T14:26:12Z</time>
      </trkpt>
      <trkpt lat="45.75333" lon="6.40218">
        <ele>353</ele>
        <time>2013-10-17T14:26:14Z</time>
      </trkpt>
      <trkpt lat="45.75307" lon="6.40238">
        <ele>353</ele>
        <time>2013-10-17T14:26:17Z</time>
      </trkpt>
      <trkpt lat="45.75282" lon="6.40259">
        <ele>352</ele>
        <time>2013-10-17T14:26:20Z</time>
      </trkpt>
      <trkpt lat="45.75259" lon="6.4028">
        <ele>352</ele>
        <time>2013-10-17T14:26:23Z</time>
      </trkpt>
      <trkpt lat="45.7524" lon="6.40302">
        <ele>352</ele>
        <time>2013-10-17T14:26:26Z</time>
      </trkpt>
      <trkpt lat="45.75227" lon="6.40315">
        <ele>352</ele>
        <time>2013-10-17T14:26:28Z</time>
      </trkpt>
      <trkpt lat="45.7521" lon="6.40335">
        <ele>351</ele>
        <time>2013-10-17T14:26:31Z</time>
      </trkpt>
      <trkpt lat="45.75198" lon="6.40352">
        <ele>351</ele>
        <time>2013-10-17T14:26:33Z</time>
      </trkpt>
      <trkpt lat="45.75185" lon="6.40372">
        <ele>351</ele>
        <time>2013-10-17T14:26:35Z</time>
      </trkpt>
      <trkpt lat="45.75171" lon="6.40394">
        <ele>351</ele>
        <time>2013-10-17T14:26:37Z</time>
      </trkpt>
      <trkpt lat="45.75152" lon="6.40429">
        <ele>351</ele>
        <time>2013-10-17T14:26:39Z</time>
      </trkpt>
      <trkpt lat="45.7514" lon="6.40453">
        <ele>351</ele>
        <time>2013-10-17T14:26:42Z</time>
      </trkpt>
      <trkpt lat="45.75124" lon="6.40489">
        <ele>350</ele>
        <time>2013-10-17T14:26:45Z</time>
      </trkpt>
      <trkpt lat="45.75115" lon="6.40514">
        <ele>350</ele>
        <time>2013-10-17T14:26:47Z</time>
      </trkpt>
      <trkpt lat="45.75103" lon="6.40552">
        <ele>350</ele>
        <time>2013-10-17T14:26:50Z</time>
      </trkpt>
      <trkpt lat="45.7509" lon="6.40591">
        <ele>350</ele>
        <time>2013-10-17T14:26:53Z</time>
      </trkpt>
      <trkpt lat="45.75078" lon="6.40629">
        <ele>350</ele>
        <time>2013-10-17T14:26:56Z</time>
      </trkpt>
      <trkpt lat="45.75065" lon="6.40668">
        <ele>349</ele>
        <time>2013-10-17T14:26:58Z</time>
      </trkpt>
      <trkpt lat="45.75058" lon="6.40693">
        <ele>349</ele>
        <time>2013-10-17T14:27:01Z</time>
      </trkpt>
      <trkpt lat="45.7505" lon="6.40717">
        <ele>349</ele>
        <time>2013-10-17T14:27:03Z</time>
      </trkpt>
      <trkpt lat="45.75043" lon="6.40739">
        <ele>348</ele>
        <time>2013-10-17T14:27:05Z</time>
      </trkpt>
      <trkpt lat="45.75033" lon="6.40772">
        <ele>348</ele>
        <time>2013-10-17T14:27:08Z</time>
      </trkpt>
      <trkpt lat="45.75026" lon="6.40793">
        <ele>348</ele>
        <time>2013-10-17T14:27:10Z</time>
      </trkpt>
      <trkpt lat="45.75018" lon="6.4082">
        <ele>347</ele>
        <time>2013-10-17T14:27:12Z</time>
      </trkpt>
      <trkpt lat="45.75014" lon="6.40832">
        <ele>346</ele>
        <time>2013-10-17T14:27:15Z</time>
      </trkpt>
      <trkpt lat="45.75009" lon="6.40846">
        <ele>346</ele>
        <time>2013-10-17T14:27:17Z</time>
      </trkpt>
      <trkpt lat="45.75" lon="6.40875">
        <ele>345</ele>
        <time>2013-10-17T14:27:20Z</time>
      </trkpt>
      <trkpt lat="45.7499" lon="6.40908">
        <ele>345</ele>
        <time>2013-10-17T14:27:23Z</time>
      </trkpt>
      <trkpt lat="45.74982" lon="6.40933">
        <ele>345</ele>
        <time>2013-10-17T14:27:25Z</time>
      </trkpt>
      <trkpt lat="45.7497" lon="6.40969">
        <ele>345</ele>
        <time>2013-10-17T14:27:27Z</time>
      </trkpt>
      <trkpt lat="45.74961" lon="6.40993">
        <ele>345</ele>
        <time>2013-10-17T14:27:30Z</time>
      </trkpt>
      <trkpt lat="45.74949" lon="6.41028">
        <ele>346</ele>
        <time>2013-10-17T14:27:32Z</time>
      </trkpt>
      <trkpt lat="45.7494" lon="6.41049">
        <ele>346</ele>
        <time>2013-10-17T14:27:35Z</time>
      </trkpt>
      <trkpt lat="45.74925" lon="6.41082">
        <ele>345</ele>
        <time>2013-10-17T14:27:37Z</time>
      </trkpt>
      <trkpt lat="45.74914" lon="6.41105">
        <ele>344</ele>
        <time>2013-10-17T14:27:40Z</time>
      </trkpt>
      <trkpt lat="45.74894" lon="6.41135">
        <ele>344</ele>
        <time>2013-10-17T14:27:43Z</time>
      </trkpt>
      <trkpt lat="45.74877" lon="6.41167">
        <ele>344</ele>
        <time>2013-10-17T14:27:45Z</time>
      </trkpt>
      <trkpt lat="45.7486" lon="6.41198">
        <ele>344</ele>
        <time>2013-10-17T14:27:49Z</time>
      </trkpt>
      <trkpt lat="45.74849" lon="6.41218">
        <ele>344</ele>
        <time>2013-10-17T14:27:51Z</time>
      </trkpt>
      <trkpt lat="45.74829" lon="6.41246">
        <ele>343</ele>
        <time>2013-10-17T14:27:54Z</time>
      </trkpt>
      <trkpt lat="45.74807" lon="6.4127">
        <ele>342</ele>
        <time>2013-10-17T14:27:57Z</time>
      </trkpt>
      <trkpt lat="45.74794" lon="6.41288">
        <ele>342</ele>
        <time>2013-10-17T14:27:59Z</time>
      </trkpt>
      <trkpt lat="45.7477" lon="6.41298">
        <ele>342</ele>
        <time>2013-10-17T14:28:01Z</time>
      </trkpt>
      <trkpt lat="45.74744" lon="6.41305">
        <ele>342</ele>
        <time>2013-10-17T14:28:05Z</time>
      </trkpt>
      <trkpt lat="45.74717" lon="6.41317">
        <ele>342</ele>
        <time>2013-10-17T14:28:08Z</time>
      </trkpt>
      <trkpt lat="45.74699" lon="6.41322">
        <ele>341</ele>
        <time>2013-10-17T14:28:10Z</time>
      </trkpt>
      <trkpt lat="45.74681" lon="6.41328">
        <ele>340</ele>
        <time>2013-10-17T14:28:12Z</time>
      </trkpt>
      <trkpt lat="45.74656" lon="6.41343">
        <ele>340</ele>
        <time>2013-10-17T14:28:15Z</time>
      </trkpt>
      <trkpt lat="45.74631" lon="6.41359">
        <ele>340</ele>
        <time>2013-10-17T14:28:17Z</time>
      </trkpt>
      <trkpt lat="45.74616" lon="6.41374">
        <ele>340</ele>
        <time>2013-10-17T14:28:20Z</time>
      </trkpt>
      <trkpt lat="45.74601" lon="6.41393">
        <ele>340</ele>
        <time>2013-10-17T14:28:22Z</time>
      </trkpt>
      <trkpt lat="45.74586" lon="6.41413">
        <ele>339</ele>
        <time>2013-10-17T14:28:24Z</time>
      </trkpt>
      <trkpt lat="45.74574" lon="6.41435">
        <ele>339</ele>
        <time>2013-10-17T14:28:26Z</time>
      </trkpt>
      <trkpt lat="45.7456" lon="6.41471">
        <ele>340</ele>
        <time>2013-10-17T14:28:28Z</time>
      </trkpt>
      <trkpt lat="45.74556" lon="6.41498">
        <ele>340</ele>
        <time>2013-10-17T14:28:31Z</time>
      </trkpt>
      <trkpt lat="45.74563" lon="6.41537">
        <ele>340</ele>
        <time>2013-10-17T14:28:33Z</time>
      </trkpt>
      <trkpt lat="45.74576" lon="6.41556">
        <ele>340</ele>
        <time>2013-10-17T14:28:36Z</time>
      </trkpt>
      <trkpt lat="45.74601" lon="6.41574">
        <ele>338</ele>
        <time>2013-10-17T14:28:38Z</time>
      </trkpt>
      <trkpt lat="45.74615" lon="6.41592">
        <ele>338</ele>
        <time>2013-10-17T14:28:41Z</time>
      </trkpt>
      <trkpt lat="45.74632" lon="6.41625">
        <ele>338</ele>
        <time>2013-10-17T14:28:43Z</time>
      </trkpt>
      <trkpt lat="45.74635" lon="6.4165">
        <ele>338</ele>
        <time>2013-10-17T14:28:46Z</time>
      </trkpt>
      <trkpt lat="45.74634" lon="6.41675">
        <ele>338</ele>
        <time>2013-10-17T14:28:48Z</time>
      </trkpt>
      <trkpt lat="45.74622" lon="6.41709">
        <ele>338</ele>
        <time>2013-10-17T14:28:50Z</time>
      </trkpt>
      <trkpt lat="45.74605" lon="6.41741">
        <ele>338</ele>
        <time>2013-10-17T14:28:54Z</time>
      </trkpt>
      <trkpt lat="45.74594" lon="6.41763">
        <ele>338</ele>
        <time>2013-10-17T14:28:56Z</time>
      </trkpt>
      <trkpt lat="45.74582" lon="6.41799">
        <ele>337</ele>
        <time>2013-10-17T14:28:59Z</time>
      </trkpt>
      <trkpt lat="45.74574" lon="6.41824">
        <ele>337</ele>
        <time>2013-10-17T14:29:01Z</time>
      </trkpt>
      <trkpt lat="45.74561" lon="6.4186">
        <ele>337</ele>
        <time>2013-10-17T14:29:04Z</time>
      </trkpt>
      <trkpt lat="45.74544" lon="6.41891">
        <ele>337</ele>
        <time>2013-10-17T14:29:07Z</time>
      </trkpt>
      <trkpt lat="45.74526" lon="6.41918">
        <ele>336</ele>
        <time>2013-10-17T14:29:09Z</time>
      </trkpt>
      <trkpt lat="45.74516" lon="6.41934">
        <ele>336</ele>
        <time>2013-10-17T14:29:12Z</time>
      </trkpt>
      <trkpt lat="45.74509" lon="6.41963">
        <ele>336</ele>
        <time>2013-10-17T14:29:14Z</time>
      </trkpt>
      <trkpt lat="45.74506" lon="6.41979">
        <ele>336</ele>
        <time>2013-10-17T14:29:17Z</time>
      </trkpt>
      <trkpt lat="45.74495" lon="6.41993">
        <ele>336</ele>
        <time>2013-10-17T14:29:19Z</time>
      </trkpt>
      <trkpt lat="45.74485" lon="6.42004">
        <ele>335</ele>
        <time>2013-10-17T14:29:22Z</time>
      </trkpt>
      <trkpt lat="45.74477" lon="6.42018">
        <ele>335</ele>
        <time>2013-10-17T14:29:24Z</time>
      </trkpt>
      <trkpt lat="45.7447" lon="6.42041">
        <ele>335</ele>
        <time>2013-10-17T14:29:27Z</time>
      </trkpt>
      <trkpt lat="45.74464" lon="6.42055">
        <ele>335</ele>
        <time>2013-10-17T14:29:29Z</time>
      </trkpt>
      <trkpt lat="45.7445" lon="6.42069">
        <ele>335</ele>
        <time>2013-10-17T14:29:31Z</time>
      </trkpt>
      <trkpt lat="45.74436" lon="6.42077">
        <ele>335</ele>
        <time>2013-10-17T14:29:34Z</time>
      </trkpt>
      <trkpt lat="45.74413" lon="6.42092">
        <ele>335</ele>
        <time>2013-10-17T14:29:36Z</time>
      </trkpt>
      <trkpt lat="45.74396" lon="6.42103">
        <ele>335</ele>
        <time>2013-10-17T14:29:39Z</time>
      </trkpt>
      <trkpt lat="45.74369" lon="6.42121">
        <ele>335</ele>
        <time>2013-10-17T14:29:41Z</time>
      </trkpt>
      <trkpt lat="45.7435" lon="6.42131">
        <ele>335</ele>
        <time>2013-10-17T14:29:44Z</time>
      </trkpt>
      <trkpt lat="45.74323" lon="6.42146">
        <ele>335</ele>
        <time>2013-10-17T14:29:47Z</time>
      </trkpt>
      <trkpt lat="45.74305" lon="6.42157">
        <ele>335</ele>
        <time>2013-10-17T14:29:49Z</time>
      </trkpt>
      <trkpt lat="45.74278" lon="6.42172">
        <ele>334</ele>
        <time>2013-10-17T14:29:51Z</time>
      </trkpt>
      <trkpt lat="45.74251" lon="6.42188">
        <ele>334</ele>
        <time>2013-10-17T14:29:55Z</time>
      </trkpt>
      <trkpt lat="45.74225" lon="6.42202">
        <ele>334</ele>
        <time>2013-10-17T14:29:57Z</time>
      </trkpt>
      <trkpt lat="45.74208" lon="6.42211">
        <ele>334</ele>
        <time>2013-10-17T14:29:59Z</time>
      </trkpt>
      <trkpt lat="45.74191" lon="6.4222">
        <ele>334</ele>
        <time>2013-10-17T14:30:02Z</time>
      </trkpt>
      <trkpt lat="45.74175" lon="6.42228">
        <ele>334</ele>
        <time>2013-10-17T14:30:04Z</time>
      </trkpt>
      <trkpt lat="45.74153" lon="6.42232">
        <ele>334</ele>
        <time>2013-10-17T14:30:06Z</time>
      </trkpt>
      <trkpt lat="45.74133" lon="6.4224">
        <ele>333</ele>
        <time>2013-10-17T14:30:09Z</time>
      </trkpt>
      <trkpt lat="45.74121" lon="6.42256">
        <ele>332</ele>
        <time>2013-10-17T14:30:12Z</time>
      </trkpt>
      <trkpt lat="45.74098" lon="6.42272">
        <ele>332</ele>
        <time>2013-10-17T14:30:15Z</time>
      </trkpt>
      <trkpt lat="45.7407" lon="6.42286">
        <ele>332</ele>
        <time>2013-10-17T14:30:18Z</time>
      </trkpt>
      <trkpt lat="45.74051" lon="6.42295">
        <ele>333</ele>
        <time>2013-10-17T14:30:20Z</time>
      </trkpt>
      <trkpt lat="45.74032" lon="6.42304">
        <ele>333</ele>
        <time>2013-10-17T14:30:22Z</time>
      </trkpt>
      <trkpt lat="45.74013" lon="6.42312">
        <ele>333</ele>
        <time>2013-10-17T14:30:24Z</time>
      </trkpt>
      <trkpt lat="45.73986" lon="6.42323">
        <ele>333</ele>
        <time>2013-10-17T14:30:26Z</time>
      </trkpt>
      <trkpt lat="45.73968" lon="6.42329">
        <ele>332</ele>
        <time>2013-10-17T14:30:29Z</time>
      </trkpt>
      <trkpt lat="45.73946" lon="6.42335">
        <ele>332</ele>
        <time>2013-10-17T14:30:31Z</time>
      </trkpt>
      <trkpt lat="45.73926" lon="6.42344">
        <ele>332</ele>
        <time>2013-10-17T14:30:34Z</time>
      </trkpt>
      <trkpt lat="45.7391" lon="6.42345">
        <ele>332</ele>
        <time>2013-10-17T14:30:36Z</time>
      </trkpt>
      <trkpt lat="45.73893" lon="6.42345">
        <ele>331</ele>
        <time>2013-10-17T14:30:39Z</time>
      </trkpt>
      <trkpt lat="45.73866" lon="6.42345">
        <ele>331</ele>
        <time>2013-10-17T14:30:41Z</time>
      </trkpt>
      <trkpt lat="45.73847" lon="6.42343">
        <ele>331</ele>
        <time>2013-10-17T14:30:44Z</time>
      </trkpt>
      <trkpt lat="45.73819" lon="6.4234">
        <ele>331</ele>
        <time>2013-10-17T14:30:46Z</time>
      </trkpt>
      <trkpt lat="45.73799" lon="6.42337">
        <ele>331</ele>
        <time>2013-10-17T14:30:49Z</time>
      </trkpt>
      <trkpt lat="45.7377" lon="6.42332">
        <ele>330</ele>
        <time>2013-10-17T14:30:51Z</time>
      </trkpt>
      <trkpt lat="45.73751" lon="6.42327">
        <ele>330</ele>
        <time>2013-10-17T14:30:54Z</time>
      </trkpt>
      <trkpt lat="45.73732" lon="6.42321">
        <ele>330</ele>
        <time>2013-10-17T14:30:56Z</time>
      </trkpt>
      <trkpt lat="45.73713" lon="6.42316">
        <ele>330</ele>
        <time>2013-10-17T14:30:58Z</time>
      </trkpt>
      <trkpt lat="45.73694" lon="6.42311">
        <ele>330</ele>
        <time>2013-10-17T14:31:00Z</time>
      </trkpt>
      <trkpt lat="45.73676" lon="6.42306">
        <ele>330</ele>
        <time>2013-10-17T14:31:02Z</time>
      </trkpt>
      <trkpt lat="45.73648" lon="6.42297">
        <ele>330</ele>
        <time>2013-10-17T14:31:04Z</time>
      </trkpt>
      <trkpt lat="45.7363" lon="6.4229">
        <ele>330</ele>
        <time>2013-10-17T14:31:06Z</time>
      </trkpt>
      <trkpt lat="45.73612" lon="6.42282">
        <ele>329</ele>
        <time>2013-10-17T14:31:09Z</time>
      </trkpt>
      <trkpt lat="45.73587" lon="6.42269">
        <ele>329</ele>
        <time>2013-10-17T14:31:11Z</time>
      </trkpt>
      <trkpt lat="45.73569" lon="6.4226">
        <ele>329</ele>
        <time>2013-10-17T14:31:13Z</time>
      </trkpt>
      <trkpt lat="45.73552" lon="6.42251">
        <ele>329</ele>
        <time>2013-10-17T14:31:16Z</time>
      </trkpt>
      <trkpt lat="45.73532" lon="6.42237">
        <ele>329</ele>
        <time>2013-10-17T14:31:18Z</time>
      </trkpt>
      <trkpt lat="45.73519" lon="6.42241">
        <ele>328</ele>
        <time>2013-10-17T14:31:20Z</time>
      </trkpt>
      <trkpt lat="45.73504" lon="6.42237">
        <ele>328</ele>
        <time>2013-10-17T14:31:23Z</time>
      </trkpt>
      <trkpt lat="45.73481" lon="6.42222">
        <ele>327</ele>
        <time>2013-10-17T14:31:25Z</time>
      </trkpt>
      <trkpt lat="45.73466" lon="6.4221">
        <ele>327</ele>
        <time>2013-10-17T14:31:27Z</time>
      </trkpt>
      <trkpt lat="45.73449" lon="6.42196">
        <ele>328</ele>
        <time>2013-10-17T14:31:30Z</time>
      </trkpt>
      <trkpt lat="45.73424" lon="6.42175">
        <ele>327</ele>
        <time>2013-10-17T14:31:32Z</time>
      </trkpt>
      <trkpt lat="45.73408" lon="6.42162">
        <ele>328</ele>
        <time>2013-10-17T14:31:34Z</time>
      </trkpt>
      <trkpt lat="45.73383" lon="6.42141">
        <ele>327</ele>
        <time>2013-10-17T14:31:37Z</time>
      </trkpt>
      <trkpt lat="45.73366" lon="6.42127">
        <ele>327</ele>
        <time>2013-10-17T14:31:39Z</time>
      </trkpt>
      <trkpt lat="45.73349" lon="6.42113">
        <ele>327</ele>
        <time>2013-10-17T14:31:42Z</time>
      </trkpt>
      <trkpt lat="45.73323" lon="6.42091">
        <ele>327</ele>
        <time>2013-10-17T14:31:44Z</time>
      </trkpt>
      <trkpt lat="45.73305" lon="6.42076">
        <ele>327</ele>
        <time>2013-10-17T14:31:46Z</time>
      </trkpt>
      <trkpt lat="45.73288" lon="6.42062">
        <ele>327</ele>
        <time>2013-10-17T14:31:49Z</time>
      </trkpt>
      <trkpt lat="45.7327" lon="6.42048">
        <ele>327</ele>
        <time>2013-10-17T14:31:51Z</time>
      </trkpt>
      <trkpt lat="45.73244" lon="6.42027">
        <ele>326</ele>
        <time>2013-10-17T14:31:53Z</time>
      </trkpt>
      <trkpt lat="45.73219" lon="6.42005">
        <ele>325</ele>
        <time>2013-10-17T14:31:56Z</time>
      </trkpt>
      <trkpt lat="45.73202" lon="6.41989">
        <ele>325</ele>
        <time>2013-10-17T14:31:59Z</time>
      </trkpt>
      <trkpt lat="45.73178" lon="6.41964">
        <ele>325</ele>
        <time>2013-10-17T14:32:01Z</time>
      </trkpt>
      <trkpt lat="45.73154" lon="6.4194">
        <ele>325</ele>
        <time>2013-10-17T14:32:04Z</time>
      </trkpt>
      <trkpt lat="45.73138" lon="6.41925">
        <ele>326</ele>
        <time>2013-10-17T14:32:07Z</time>
      </trkpt>
      <trkpt lat="45.73114" lon="6.41905">
        <ele>327</ele>
        <time>2013-10-17T14:32:09Z</time>
      </trkpt>
      <trkpt lat="45.73097" lon="6.41891">
        <ele>327</ele>
        <time>2013-10-17T14:32:11Z</time>
      </trkpt>
      <trkpt lat="45.7308" lon="6.41878">
        <ele>327</ele>
        <time>2013-10-17T14:32:14Z</time>
      </trkpt>
      <trkpt lat="45.73051" lon="6.41858">
        <ele>326</ele>
        <time>2013-10-17T14:32:16Z</time>
      </trkpt>
      <trkpt lat="45.73019" lon="6.41835">
        <ele>324</ele>
        <time>2013-10-17T14:32:19Z</time>
      </trkpt>
      <trkpt lat="45.72989" lon="6.4181">
        <ele>323</ele>
        <time>2013-10-17T14:32:22Z</time>
      </trkpt>
      <trkpt lat="45.7297" lon="6.41793">
        <ele>322</ele>
        <time>2013-10-17T14:32:24Z</time>
      </trkpt>
      <trkpt lat="45.72941" lon="6.41769">
        <ele>323</ele>
        <time>2013-10-17T14:32:27Z</time>
      </trkpt>
      <trkpt lat="45.72921" lon="6.41753">
        <ele>322</ele>
        <time>2013-10-17T14:32:30Z</time>
      </trkpt>
      <trkpt lat="45.72892" lon="6.41729">
        <ele>322</ele>
        <time>2013-10-17T14:32:32Z</time>
      </trkpt>
      <trkpt lat="45.72874" lon="6.41713">
        <ele>322</ele>
        <time>2013-10-17T14:32:35Z</time>
      </trkpt>
      <trkpt lat="45.72845" lon="6.4169">
        <ele>321</ele>
        <time>2013-10-17T14:32:37Z</time>
      </trkpt>
      <trkpt lat="45.72827" lon="6.41674">
        <ele>320</ele>
        <time>2013-10-17T14:32:40Z</time>
      </trkpt>
      <trkpt lat="45.72808" lon="6.41659">
        <ele>320</ele>
        <time>2013-10-17T14:32:42Z</time>
      </trkpt>
      <trkpt lat="45.7279" lon="6.41643">
        <ele>320</ele>
        <time>2013-10-17T14:32:44Z</time>
      </trkpt>
      <trkpt lat="45.72763" lon="6.4162">
        <ele>320</ele>
        <time>2013-10-17T14:32:46Z</time>
      </trkpt>
      <trkpt lat="45.72744" lon="6.41605">
        <ele>319</ele>
        <time>2013-10-17T14:32:48Z</time>
      </trkpt>
      <trkpt lat="45.72717" lon="6.41582">
        <ele>319</ele>
        <time>2013-10-17T14:32:51Z</time>
      </trkpt>
      <trkpt lat="45.727" lon="6.41567">
        <ele>319</ele>
        <time>2013-10-17T14:32:53Z</time>
      </trkpt>
      <trkpt lat="45.72678" lon="6.41541">
        <ele>319</ele>
        <time>2013-10-17T14:32:56Z</time>
      </trkpt>
      <trkpt lat="45.72665" lon="6.41522">
        <ele>319</ele>
        <time>2013-10-17T14:32:58Z</time>
      </trkpt>
      <trkpt lat="45.72648" lon="6.41495">
        <ele>318</ele>
        <time>2013-10-17T14:33:01Z</time>
      </trkpt>
      <trkpt lat="45.72631" lon="6.41485">
        <ele>317</ele>
        <time>2013-10-17T14:33:03Z</time>
      </trkpt>
      <trkpt lat="45.72602" lon="6.41473">
        <ele>316</ele>
        <time>2013-10-17T14:33:06Z</time>
      </trkpt>
      <trkpt lat="45.72583" lon="6.41464">
        <ele>316</ele>
        <time>2013-10-17T14:33:08Z</time>
      </trkpt>
      <trkpt lat="45.72556" lon="6.41445">
        <ele>317</ele>
        <time>2013-10-17T14:33:12Z</time>
      </trkpt>
      <trkpt lat="45.7253" lon="6.41424">
        <ele>318</ele>
        <time>2013-10-17T14:33:14Z</time>
      </trkpt>
      <trkpt lat="45.72513" lon="6.41409">
        <ele>318</ele>
        <time>2013-10-17T14:33:16Z</time>
      </trkpt>
      <trkpt lat="45.72496" lon="6.41394">
        <ele>318</ele>
        <time>2013-10-17T14:33:19Z</time>
      </trkpt>
      <trkpt lat="45.72469" lon="6.41371">
        <ele>318</ele>
        <time>2013-10-17T14:33:21Z</time>
      </trkpt>
      <trkpt lat="45.72443" lon="6.4135">
        <ele>318</ele>
        <time>2013-10-17T14:33:24Z</time>
      </trkpt>
      <trkpt lat="45.72418" lon="6.41329">
        <ele>317</ele>
        <time>2013-10-17T14:33:28Z</time>
      </trkpt>
      <trkpt lat="45.72393" lon="6.41309">
        <ele>317</ele>
        <time>2013-10-17T14:33:30Z</time>
      </trkpt>
      <trkpt lat="45.72377" lon="6.41295">
        <ele>317</ele>
        <time>2013-10-17T14:33:32Z</time>
      </trkpt>
      <trkpt lat="45.72353" lon="6.41275">
        <ele>316</ele>
        <time>2013-10-17T14:33:36Z</time>
      </trkpt>
      <trkpt lat="45.72328" lon="6.41255">
        <ele>316</ele>
        <time>2013-10-17T14:33:38Z</time>
      </trkpt>
      <trkpt lat="45.72311" lon="6.41241">
        <ele>316</ele>
        <time>2013-10-17T14:33:40Z</time>
      </trkpt>
      <trkpt lat="45.72295" lon="6.41226">
        <ele>316</ele>
        <time>2013-10-17T14:33:42Z</time>
      </trkpt>
      <trkpt lat="45.72278" lon="6.41213">
        <ele>316</ele>
        <time>2013-10-17T14:33:44Z</time>
      </trkpt>
      <trkpt lat="45.72261" lon="6.41199">
        <ele>316</ele>
        <time>2013-10-17T14:33:46Z</time>
      </trkpt>
      <trkpt lat="45.72236" lon="6.41177">
        <ele>315</ele>
        <time>2013-10-17T14:33:49Z</time>
      </trkpt>
      <trkpt lat="45.72219" lon="6.41162">
        <ele>315</ele>
        <time>2013-10-17T14:33:52Z</time>
      </trkpt>
      <trkpt lat="45.72192" lon="6.41141">
        <ele>315</ele>
        <time>2013-10-17T14:33:54Z</time>
      </trkpt>
      <trkpt lat="45.72166" lon="6.41119">
        <ele>315</ele>
        <time>2013-10-17T14:33:57Z</time>
      </trkpt>
      <trkpt lat="45.72149" lon="6.41105">
        <ele>315</ele>
        <time>2013-10-17T14:33:59Z</time>
      </trkpt>
      <trkpt lat="45.72123" lon="6.41083">
        <ele>315</ele>
        <time>2013-10-17T14:34:02Z</time>
      </trkpt>
      <trkpt lat="45.72106" lon="6.41069">
        <ele>314</ele>
        <time>2013-10-17T14:34:04Z</time>
      </trkpt>
      <trkpt lat="45.7208" lon="6.4105">
        <ele>314</ele>
        <time>2013-10-17T14:34:07Z</time>
      </trkpt>
      <trkpt lat="45.72064" lon="6.41038">
        <ele>313</ele>
        <time>2013-10-17T14:34:09Z</time>
      </trkpt>
      <trkpt lat="45.72037" lon="6.41019">
        <ele>312</ele>
        <time>2013-10-17T14:34:12Z</time>
      </trkpt>
      <trkpt lat="45.7202" lon="6.41007">
        <ele>312</ele>
        <time>2013-10-17T14:34:14Z</time>
      </trkpt>
      <trkpt lat="45.72002" lon="6.40995">
        <ele>312</ele>
        <time>2013-10-17T14:34:16Z</time>
      </trkpt>
      <trkpt lat="45.71976" lon="6.40979">
        <ele>312</ele>
        <time>2013-10-17T14:34:19Z</time>
      </trkpt>
      <trkpt lat="45.7195" lon="6.40964">
        <ele>312</ele>
        <time>2013-10-17T14:34:22Z</time>
      </trkpt>
      <trkpt lat="45.71933" lon="6.40953">
        <ele>312</ele>
        <time>2013-10-17T14:34:24Z</time>
      </trkpt>
      <trkpt lat="45.71907" lon="6.40939">
        <ele>312</ele>
        <time>2013-10-17T14:34:27Z</time>
      </trkpt>
      <trkpt lat="45.71891" lon="6.4093">
        <ele>311</ele>
        <time>2013-10-17T14:34:29Z</time>
      </trkpt>
      <trkpt lat="45.71873" lon="6.4092">
        <ele>311</ele>
        <time>2013-10-17T14:34:31Z</time>
      </trkpt>
      <trkpt lat="45.71855" lon="6.40911">
        <ele>311</ele>
        <time>2013-10-17T14:34:34Z</time>
      </trkpt>
      <trkpt lat="45.71835" lon="6.40902">
        <ele>310</ele>
        <time>2013-10-17T14:34:36Z</time>
      </trkpt>
      <trkpt lat="45.71806" lon="6.40888">
        <ele>310</ele>
        <time>2013-10-17T14:34:38Z</time>
      </trkpt>
      <trkpt lat="45.71786" lon="6.4088">
        <ele>310</ele>
        <time>2013-10-17T14:34:40Z</time>
      </trkpt>
      <trkpt lat="45.71757" lon="6.40867">
        <ele>310</ele>
        <time>2013-10-17T14:34:43Z</time>
      </trkpt>
      <trkpt lat="45.71738" lon="6.40859">
        <ele>310</ele>
        <time>2013-10-17T14:34:45Z</time>
      </trkpt>
      <trkpt lat="45.71719" lon="6.40851">
        <ele>309</ele>
        <time>2013-10-17T14:34:47Z</time>
      </trkpt>
      <trkpt lat="45.7169" lon="6.40838">
        <ele>309</ele>
        <time>2013-10-17T14:34:50Z</time>
      </trkpt>
      <trkpt lat="45.71671" lon="6.4083">
        <ele>309</ele>
        <time>2013-10-17T14:34:52Z</time>
      </trkpt>
      <trkpt lat="45.71642" lon="6.40816">
        <ele>309</ele>
        <time>2013-10-17T14:34:55Z</time>
      </trkpt>
      <trkpt lat="45.71623" lon="6.40807">
        <ele>309</ele>
        <time>2013-10-17T14:34:57Z</time>
      </trkpt>
      <trkpt lat="45.71604" lon="6.40798">
        <ele>309</ele>
        <time>2013-10-17T14:34:59Z</time>
      </trkpt>
      <trkpt lat="45.71575" lon="6.40784">
        <ele>308</ele>
        <time>2013-10-17T14:35:02Z</time>
      </trkpt>
      <trkpt lat="45.71555" lon="6.40775">
        <ele>308</ele>
        <time>2013-10-17T14:35:04Z</time>
      </trkpt>
      <trkpt lat="45.71536" lon="6.40766">
        <ele>308</ele>
        <time>2013-10-17T14:35:06Z</time>
      </trkpt>
      <trkpt lat="45.71507" lon="6.40752">
        <ele>308</ele>
        <time>2013-10-17T14:35:09Z</time>
      </trkpt>
      <trkpt lat="45.71488" lon="6.40743">
        <ele>307</ele>
        <time>2013-10-17T14:35:11Z</time>
      </trkpt>
      <trkpt lat="45.7146" lon="6.4073">
        <ele>307</ele>
        <time>2013-10-17T14:35:14Z</time>
      </trkpt>
      <trkpt lat="45.71441" lon="6.40721">
        <ele>307</ele>
        <time>2013-10-17T14:35:16Z</time>
      </trkpt>
      <trkpt lat="45.71422" lon="6.40712">
        <ele>307</ele>
        <time>2013-10-17T14:35:18Z</time>
      </trkpt>
      <trkpt lat="45.71404" lon="6.40703">
        <ele>306</ele>
        <time>2013-10-17T14:35:21Z</time>
      </trkpt>
      <trkpt lat="45.71385" lon="6.40695">
        <ele>306</ele>
        <time>2013-10-17T14:35:23Z</time>
      </trkpt>
      <trkpt lat="45.71366" lon="6.40686">
        <ele>306</ele>
        <time>2013-10-17T14:35:25Z</time>
      </trkpt>
      <trkpt lat="45.71338" lon="6.40671">
        <ele>306</ele>
        <time>2013-10-17T14:35:27Z</time>
      </trkpt>
      <trkpt lat="45.71319" lon="6.40662">
        <ele>306</ele>
        <time>2013-10-17T14:35:29Z</time>
      </trkpt>
      <trkpt lat="45.71291" lon="6.40649">
        <ele>305</ele>
        <time>2013-10-17T14:35:32Z</time>
      </trkpt>
      <trkpt lat="45.71264" lon="6.40636">
        <ele>305</ele>
        <time>2013-10-17T14:35:35Z</time>
      </trkpt>
      <trkpt lat="45.71236" lon="6.40624">
        <ele>304</ele>
        <time>2013-10-17T14:35:38Z</time>
      </trkpt>
      <trkpt lat="45.71218" lon="6.40615">
        <ele>304</ele>
        <time>2013-10-17T14:35:41Z</time>
      </trkpt>
      <trkpt lat="45.71193" lon="6.40603">
        <ele>304</ele>
        <time>2013-10-17T14:35:43Z</time>
      </trkpt>
      <trkpt lat="45.71167" lon="6.40593">
        <ele>304</ele>
        <time>2013-10-17T14:35:46Z</time>
      </trkpt>
      <trkpt lat="45.7114" lon="6.40584">
        <ele>303</ele>
        <time>2013-10-17T14:35:49Z</time>
      </trkpt>
      <trkpt lat="45.71121" lon="6.40578">
        <ele>304</ele>
        <time>2013-10-17T14:35:52Z</time>
      </trkpt>
      <trkpt lat="45.71103" lon="6.40573">
        <ele>304</ele>
        <time>2013-10-17T14:35:54Z</time>
      </trkpt>
      <trkpt lat="45.71074" lon="6.40567">
        <ele>304</ele>
        <time>2013-10-17T14:35:56Z</time>
      </trkpt>
      <trkpt lat="45.71045" lon="6.40562">
        <ele>304</ele>
        <time>2013-10-17T14:35:59Z</time>
      </trkpt>
      <trkpt lat="45.71016" lon="6.40558">
        <ele>303</ele>
        <time>2013-10-17T14:36:02Z</time>
      </trkpt>
      <trkpt lat="45.70987" lon="6.40556">
        <ele>303</ele>
        <time>2013-10-17T14:36:05Z</time>
      </trkpt>
      <trkpt lat="45.70958" lon="6.40557">
        <ele>303</ele>
        <time>2013-10-17T14:36:08Z</time>
      </trkpt>
      <trkpt lat="45.70929" lon="6.40557">
        <ele>303</ele>
        <time>2013-10-17T14:36:11Z</time>
      </trkpt>
      <trkpt lat="45.70909" lon="6.40557">
        <ele>302</ele>
        <time>2013-10-17T14:36:13Z</time>
      </trkpt>
      <trkpt lat="45.7088" lon="6.40556">
        <ele>302</ele>
        <time>2013-10-17T14:36:16Z</time>
      </trkpt>
      <trkpt lat="45.7086" lon="6.40553">
        <ele>302</ele>
        <time>2013-10-17T14:36:18Z</time>
      </trkpt>
      <trkpt lat="45.70841" lon="6.40549">
        <ele>301</ele>
        <time>2013-10-17T14:36:20Z</time>
      </trkpt>
      <trkpt lat="45.70822" lon="6.40543">
        <ele>301</ele>
        <time>2013-10-17T14:36:23Z</time>
      </trkpt>
      <trkpt lat="45.70803" lon="6.40536">
        <ele>301</ele>
        <time>2013-10-17T14:36:25Z</time>
      </trkpt>
      <trkpt lat="45.70774" lon="6.40526">
        <ele>301</ele>
        <time>2013-10-17T14:36:27Z</time>
      </trkpt>
      <trkpt lat="45.70745" lon="6.40518">
        <ele>301</ele>
        <time>2013-10-17T14:36:30Z</time>
      </trkpt>
      <trkpt lat="45.70726" lon="6.40514">
        <ele>300</ele>
        <time>2013-10-17T14:36:32Z</time>
      </trkpt>
      <trkpt lat="45.70697" lon="6.40512">
        <ele>300</ele>
        <time>2013-10-17T14:36:35Z</time>
      </trkpt>
      <trkpt lat="45.70677" lon="6.40513">
        <ele>300</ele>
        <time>2013-10-17T14:36:37Z</time>
      </trkpt>
      <trkpt lat="45.70647" lon="6.40519">
        <ele>300</ele>
        <time>2013-10-17T14:36:40Z</time>
      </trkpt>
      <trkpt lat="45.70628" lon="6.40524">
        <ele>300</ele>
        <time>2013-10-17T14:36:42Z</time>
      </trkpt>
      <trkpt lat="45.706" lon="6.40533">
        <ele>299</ele>
        <time>2013-10-17T14:36:45Z</time>
      </trkpt>
      <trkpt lat="45.70582" lon="6.40538">
        <ele>299</ele>
        <time>2013-10-17T14:36:47Z</time>
      </trkpt>
      <trkpt lat="45.70554" lon="6.40547">
        <ele>299</ele>
        <time>2013-10-17T14:36:50Z</time>
      </trkpt>
      <trkpt lat="45.70536" lon="6.40553">
        <ele>299</ele>
        <time>2013-10-17T14:36:52Z</time>
      </trkpt>
      <trkpt lat="45.70509" lon="6.40561">
        <ele>298</ele>
        <time>2013-10-17T14:36:55Z</time>
      </trkpt>
      <trkpt lat="45.70492" lon="6.40565">
        <ele>299</ele>
        <time>2013-10-17T14:36:57Z</time>
      </trkpt>
      <trkpt lat="45.70475" lon="6.40569">
        <ele>298</ele>
        <time>2013-10-17T14:37:00Z</time>
      </trkpt>
      <trkpt lat="45.70458" lon="6.40571">
        <ele>298</ele>
        <time>2013-10-17T14:37:02Z</time>
      </trkpt>
      <trkpt lat="45.70433" lon="6.40574">
        <ele>299</ele>
        <time>2013-10-17T14:37:04Z</time>
      </trkpt>
      <trkpt lat="45.70409" lon="6.40575">
        <ele>300</ele>
        <time>2013-10-17T14:37:07Z</time>
      </trkpt>
      <trkpt lat="45.70393" lon="6.40575">
        <ele>300</ele>
        <time>2013-10-17T14:37:09Z</time>
      </trkpt>
      <trkpt lat="45.70372" lon="6.40575">
        <ele>301</ele>
        <time>2013-10-17T14:37:12Z</time>
      </trkpt>
      <trkpt lat="45.70361" lon="6.40578">
        <ele>302</ele>
        <time>2013-10-17T14:37:14Z</time>
      </trkpt>
      <trkpt lat="45.70353" lon="6.40592">
        <ele>302</ele>
        <time>2013-10-17T14:37:17Z</time>
      </trkpt>
      <trkpt lat="45.70352" lon="6.40604">
        <ele>301</ele>
        <time>2013-10-17T14:37:19Z</time>
      </trkpt>
      <trkpt lat="45.70351" lon="6.40624">
        <ele>301</ele>
        <time>2013-10-17T14:37:22Z</time>
      </trkpt>
      <trkpt lat="45.7035" lon="6.40637">
        <ele>302</ele>
        <time>2013-10-17T14:37:24Z</time>
      </trkpt>
      <trkpt lat="45.7035" lon="6.40661">
        <ele>302</ele>
        <time>2013-10-17T14:37:27Z</time>
      </trkpt>
      <trkpt lat="45.70349" lon="6.40678">
        <ele>301</ele>
        <time>2013-10-17T14:37:29Z</time>
      </trkpt>
      <trkpt lat="45.70349" lon="6.40707">
        <ele>301</ele>
        <time>2013-10-17T14:37:32Z</time>
      </trkpt>
      <trkpt lat="45.70341" lon="6.40738">
        <ele>300</ele>
        <time>2013-10-17T14:37:35Z</time>
      </trkpt>
      <trkpt lat="45.70318" lon="6.40753">
        <ele>299</ele>
        <time>2013-10-17T14:37:38Z</time>
      </trkpt>
      <trkpt lat="45.70289" lon="6.40749">
        <ele>299</ele>
        <time>2013-10-17T14:37:41Z</time>
      </trkpt>
      <trkpt lat="45.70268" lon="6.40747">
        <ele>299</ele>
        <time>2013-10-17T14:37:43Z</time>
      </trkpt>
      <trkpt lat="45.70247" lon="6.40748">
        <ele>298</ele>
        <time>2013-10-17T14:37:45Z</time>
      </trkpt>
      <trkpt lat="45.70214" lon="6.40751">
        <ele>298</ele>
        <time>2013-10-17T14:37:48Z</time>
      </trkpt>
      <trkpt lat="45.70192" lon="6.40751">
        <ele>298</ele>
        <time>2013-10-17T14:37:50Z</time>
      </trkpt>
      <trkpt lat="45.7016" lon="6.40747">
        <ele>297</ele>
        <time>2013-10-17T14:37:53Z</time>
      </trkpt>
      <trkpt lat="45.70139" lon="6.40742">
        <ele>297</ele>
        <time>2013-10-17T14:37:55Z</time>
      </trkpt>
      <trkpt lat="45.70108" lon="6.40731">
        <ele>297</ele>
        <time>2013-10-17T14:37:58Z</time>
      </trkpt>
      <trkpt lat="45.70077" lon="6.40717">
        <ele>296</ele>
        <time>2013-10-17T14:38:01Z</time>
      </trkpt>
      <trkpt lat="45.70058" lon="6.40705">
        <ele>295</ele>
        <time>2013-10-17T14:38:03Z</time>
      </trkpt>
      <trkpt lat="45.7003" lon="6.40685">
        <ele>294</ele>
        <time>2013-10-17T14:38:06Z</time>
      </trkpt>
      <trkpt lat="45.70011" lon="6.4067">
        <ele>294</ele>
        <time>2013-10-17T14:38:08Z</time>
      </trkpt>
      <trkpt lat="45.69992" lon="6.40654">
        <ele>293</ele>
        <time>2013-10-17T14:38:10Z</time>
      </trkpt>
      <trkpt lat="45.69973" lon="6.4064">
        <ele>293</ele>
        <time>2013-10-17T14:38:13Z</time>
      </trkpt>
      <trkpt lat="45.69944" lon="6.40621">
        <ele>293</ele>
        <time>2013-10-17T14:38:15Z</time>
      </trkpt>
      <trkpt lat="45.69915" lon="6.40606">
        <ele>293</ele>
        <time>2013-10-17T14:38:18Z</time>
      </trkpt>
      <trkpt lat="45.69897" lon="6.40597">
        <ele>293</ele>
        <time>2013-10-17T14:38:20Z</time>
      </trkpt>
      <trkpt lat="45.6987" lon="6.40585">
        <ele>293</ele>
        <time>2013-10-17T14:38:23Z</time>
      </trkpt>
      <trkpt lat="45.69852" lon="6.40576">
        <ele>293</ele>
        <time>2013-10-17T14:38:25Z</time>
      </trkpt>
      <trkpt lat="45.69834" lon="6.40568">
        <ele>293</ele>
        <time>2013-10-17T14:38:27Z</time>
      </trkpt>
      <trkpt lat="45.69807" lon="6.40556">
        <ele>292</ele>
        <time>2013-10-17T14:38:30Z</time>
      </trkpt>
      <trkpt lat="45.6978" lon="6.40544">
        <ele>291</ele>
        <time>2013-10-17T14:38:33Z</time>
      </trkpt>
      <trkpt lat="45.69753" lon="6.40532">
        <ele>291</ele>
        <time>2013-10-17T14:38:36Z</time>
      </trkpt>
      <trkpt lat="45.69735" lon="6.40525">
        <ele>291</ele>
        <time>2013-10-17T14:38:38Z</time>
      </trkpt>
      <trkpt lat="45.69717" lon="6.40518">
        <ele>292</ele>
        <time>2013-10-17T14:38:40Z</time>
      </trkpt>
      <trkpt lat="45.6969" lon="6.40507">
        <ele>292</ele>
        <time>2013-10-17T14:38:43Z</time>
      </trkpt>
      <trkpt lat="45.69664" lon="6.40496">
        <ele>291</ele>
        <time>2013-10-17T14:38:46Z</time>
      </trkpt>
      <trkpt lat="45.69639" lon="6.40486">
        <ele>291</ele>
        <time>2013-10-17T14:38:49Z</time>
      </trkpt>
      <trkpt lat="45.69613" lon="6.40476">
        <ele>290</ele>
        <time>2013-10-17T14:38:52Z</time>
      </trkpt>
      <trkpt lat="45.69585" lon="6.40464">
        <ele>290</ele>
        <time>2013-10-17T14:38:55Z</time>
      </trkpt>
      <trkpt lat="45.69568" lon="6.40456">
        <ele>290</ele>
        <time>2013-10-17T14:38:57Z</time>
      </trkpt>
      <trkpt lat="45.69551" lon="6.4045">
        <ele>290</ele>
        <time>2013-10-17T14:38:59Z</time>
      </trkpt>
      <trkpt lat="45.69536" lon="6.40443">
        <ele>290</ele>
        <time>2013-10-17T14:39:01Z</time>
      </trkpt>
      <trkpt lat="45.69513" lon="6.40433">
        <ele>291</ele>
        <time>2013-10-17T14:39:04Z</time>
      </trkpt>
      <trkpt lat="45.69498" lon="6.40424">
        <ele>291</ele>
        <time>2013-10-17T14:39:07Z</time>
      </trkpt>
      <trkpt lat="45.69479" lon="6.40406">
        <ele>292</ele>
        <time>2013-10-17T14:39:09Z</time>
      </trkpt>
      <trkpt lat="45.69468" lon="6.40391">
        <ele>292</ele>
        <time>2013-10-17T14:39:11Z</time>
      </trkpt>
      <trkpt lat="45.69453" lon="6.40371">
        <ele>292</ele>
        <time>2013-10-17T14:39:14Z</time>
      </trkpt>
      <trkpt lat="45.69435" lon="6.40375">
        <ele>291</ele>
        <time>2013-10-17T14:39:17Z</time>
      </trkpt>
      <trkpt lat="45.6943" lon="6.4039">
        <ele>291</ele>
        <time>2013-10-17T14:39:19Z</time>
      </trkpt>
      <trkpt lat="45.69433" lon="6.40411">
        <ele>291</ele>
        <time>2013-10-17T14:39:22Z</time>
      </trkpt>
      <trkpt lat="45.69437" lon="6.40423">
        <ele>292</ele>
        <time>2013-10-17T14:39:24Z</time>
      </trkpt>
      <trkpt lat="45.69444" lon="6.40434">
        <ele>292</ele>
        <time>2013-10-17T14:39:27Z</time>
      </trkpt>
      <trkpt lat="45.6945" lon="6.40438">
        <ele>292</ele>
        <time>2013-10-17T14:39:29Z</time>
      </trkpt>
      <trkpt lat="45.69459" lon="6.40437">
        <ele>293</ele>
        <time>2013-10-17T14:39:32Z</time>
      </trkpt>
      <trkpt lat="45.69469" lon="6.40435">
        <ele>294</ele>
        <time>2013-10-17T14:39:35Z</time>
      </trkpt>
      <trkpt lat="45.69476" lon="6.40436">
        <ele>295</ele>
        <time>2013-10-17T14:39:37Z</time>
      </trkpt>
      <trkpt lat="45.69484" lon="6.4044">
        <ele>296</ele>
        <time>2013-10-17T14:39:40Z</time>
      </trkpt>
      <trkpt lat="45.6949" lon="6.40443">
        <ele>297</ele>
        <time>2013-10-17T14:39:42Z</time>
      </trkpt>
      <trkpt lat="45.69497" lon="6.40447">
        <ele>298</ele>
        <time>2013-10-17T14:39:44Z</time>
      </trkpt>
      <trkpt lat="45.69507" lon="6.40453">
        <ele>298</ele>
        <time>2013-10-17T14:39:47Z</time>
      </trkpt>
      <trkpt lat="45.69512" lon="6.40456">
        <ele>299</ele>
        <time>2013-10-17T14:39:49Z</time>
      </trkpt>
      <trkpt lat="45.69522" lon="6.40462">
        <ele>300</ele>
        <time>2013-10-17T14:39:52Z</time>
      </trkpt>
      <trkpt lat="45.69534" lon="6.40466">
        <ele>301</ele>
        <time>2013-10-17T14:39:55Z</time>
      </trkpt>
      <trkpt lat="45.69549" lon="6.40471">
        <ele>302</ele>
        <time>2013-10-17T14:39:58Z</time>
      </trkpt>
      <trkpt lat="45.69564" lon="6.40478">
        <ele>303</ele>
        <time>2013-10-17T14:40:01Z</time>
      </trkpt>
      <trkpt lat="45.69572" lon="6.40484">
        <ele>304</ele>
        <time>2013-10-17T14:40:03Z</time>
      </trkpt>
      <trkpt lat="45.69584" lon="6.40495">
        <ele>305</ele>
        <time>2013-10-17T14:40:06Z</time>
      </trkpt>
      <trkpt lat="45.69593" lon="6.40499">
        <ele>306</ele>
        <time>2013-10-17T14:40:08Z</time>
      </trkpt>
      <trkpt lat="45.69608" lon="6.40501">
        <ele>308</ele>
        <time>2013-10-17T14:40:11Z</time>
      </trkpt>
      <trkpt lat="45.69622" lon="6.40511">
        <ele>309</ele>
        <time>2013-10-17T14:40:14Z</time>
      </trkpt>
      <trkpt lat="45.69629" lon="6.40518">
        <ele>310</ele>
        <time>2013-10-17T14:40:16Z</time>
      </trkpt>
      <trkpt lat="45.69637" lon="6.40531">
        <ele>311</ele>
        <time>2013-10-17T14:40:19Z</time>
      </trkpt>
      <trkpt lat="45.69639" lon="6.40543">
        <ele>311</ele>
        <time>2013-10-17T14:40:21Z</time>
      </trkpt>
      <trkpt lat="45.69631" lon="6.40554">
        <ele>312</ele>
        <time>2013-10-17T14:40:24Z</time>
      </trkpt>
      <trkpt lat="45.69624" lon="6.40553">
        <ele>313</ele>
        <time>2013-10-17T14:40:26Z</time>
      </trkpt>
      <trkpt lat="45.69614" lon="6.40552">
        <ele>314</ele>
        <time>2013-10-17T14:40:29Z</time>
      </trkpt>
      <trkpt lat="45.69607" lon="6.40552">
        <ele>315</ele>
        <time>2013-10-17T14:40:31Z</time>
      </trkpt>
      <trkpt lat="45.69597" lon="6.40551">
        <ele>315</ele>
        <time>2013-10-17T14:40:34Z</time>
      </trkpt>
      <trkpt lat="45.69591" lon="6.40549">
        <ele>316</ele>
        <time>2013-10-17T14:40:36Z</time>
      </trkpt>
      <trkpt lat="45.6958" lon="6.40547">
        <ele>317</ele>
        <time>2013-10-17T14:40:39Z</time>
      </trkpt>
      <trkpt lat="45.69572" lon="6.40546">
        <ele>317</ele>
        <time>2013-10-17T14:40:41Z</time>
      </trkpt>
      <trkpt lat="45.69565" lon="6.40543">
        <ele>318</ele>
        <time>2013-10-17T14:40:43Z</time>
      </trkpt>
      <trkpt lat="45.69554" lon="6.40538">
        <ele>319</ele>
        <time>2013-10-17T14:40:46Z</time>
      </trkpt>
      <trkpt lat="45.69548" lon="6.40535">
        <ele>320</ele>
        <time>2013-10-17T14:40:49Z</time>
      </trkpt>
      <trkpt lat="45.69537" lon="6.40529">
        <ele>320</ele>
        <time>2013-10-17T14:40:51Z</time>
      </trkpt>
      <trkpt lat="45.6953" lon="6.40525">
        <ele>321</ele>
        <time>2013-10-17T14:40:53Z</time>
      </trkpt>
      <trkpt lat="45.6952" lon="6.40523">
        <ele>322</ele>
        <time>2013-10-17T14:40:56Z</time>
      </trkpt>
      <trkpt lat="45.69513" lon="6.40527">
        <ele>323</ele>
        <time>2013-10-17T14:40:58Z</time>
      </trkpt>
      <trkpt lat="45.69513" lon="6.40541">
        <ele>324</ele>
        <time>2013-10-17T14:41:01Z</time>
      </trkpt>
      <trkpt lat="45.69517" lon="6.40549">
        <ele>324</ele>
        <time>2013-10-17T14:41:03Z</time>
      </trkpt>
      <trkpt lat="45.69525" lon="6.40557">
        <ele>325</ele>
        <time>2013-10-17T14:41:06Z</time>
      </trkpt>
      <trkpt lat="45.69531" lon="6.40561">
        <ele>326</ele>
        <time>2013-10-17T14:41:08Z</time>
      </trkpt>
      <trkpt lat="45.69539" lon="6.40569">
        <ele>328</ele>
        <time>2013-10-17T14:41:11Z</time>
      </trkpt>
      <trkpt lat="45.69545" lon="6.40577">
        <ele>328</ele>
        <time>2013-10-17T14:41:13Z</time>
      </trkpt>
      <trkpt lat="45.69553" lon="6.40589">
        <ele>329</ele>
        <time>2013-10-17T14:41:16Z</time>
      </trkpt>
      <trkpt lat="45.69558" lon="6.40596">
        <ele>330</ele>
        <time>2013-10-17T14:41:18Z</time>
      </trkpt>
      <trkpt lat="45.69564" lon="6.40604">
        <ele>330</ele>
        <time>2013-10-17T14:41:20Z</time>
      </trkpt>
      <trkpt lat="45.69569" lon="6.4061">
        <ele>331</ele>
        <time>2013-10-17T14:41:23Z</time>
      </trkpt>
      <trkpt lat="45.69577" lon="6.4062">
        <ele>332</ele>
        <time>2013-10-17T14:41:25Z</time>
      </trkpt>
      <trkpt lat="45.69583" lon="6.40627">
        <ele>333</ele>
        <time>2013-10-17T14:41:27Z</time>
      </trkpt>
      <trkpt lat="45.69592" lon="6.40637">
        <ele>334</ele>
        <time>2013-10-17T14:41:30Z</time>
      </trkpt>
      <trkpt lat="45.69599" lon="6.40644">
        <ele>335</ele>
        <time>2013-10-17T14:41:32Z</time>
      </trkpt>
      <trkpt lat="45.69608" lon="6.40655">
        <ele>336</ele>
        <time>2013-10-17T14:41:35Z</time>
      </trkpt>
      <trkpt lat="45.69614" lon="6.4066">
        <ele>337</ele>
        <time>2013-10-17T14:41:37Z</time>
      </trkpt>
      <trkpt lat="45.69619" lon="6.40665">
        <ele>337</ele>
        <time>2013-10-17T14:41:39Z</time>
      </trkpt>
      <trkpt lat="45.69627" lon="6.40673">
        <ele>339</ele>
        <time>2013-10-17T14:41:42Z</time>
      </trkpt>
      <trkpt lat="45.69632" lon="6.40676">
        <ele>339</ele>
        <time>2013-10-17T14:41:44Z</time>
      </trkpt>
      <trkpt lat="45.69638" lon="6.40678">
        <ele>340</ele>
        <time>2013-10-17T14:41:46Z</time>
      </trkpt>
      <trkpt lat="45.69646" lon="6.40679">
        <ele>340</ele>
        <time>2013-10-17T14:41:49Z</time>
      </trkpt>
      <trkpt lat="45.69651" lon="6.4068">
        <ele>341</ele>
        <time>2013-10-17T14:41:51Z</time>
      </trkpt>
      <trkpt lat="45.69659" lon="6.40683">
        <ele>342</ele>
        <time>2013-10-17T14:41:54Z</time>
      </trkpt>
      <trkpt lat="45.69665" lon="6.40684">
        <ele>342</ele>
        <time>2013-10-17T14:41:56Z</time>
      </trkpt>
      <trkpt lat="45.69673" lon="6.40687">
        <ele>344</ele>
        <time>2013-10-17T14:41:59Z</time>
      </trkpt>
      <trkpt lat="45.69682" lon="6.40689">
        <ele>345</ele>
        <time>2013-10-17T14:42:02Z</time>
      </trkpt>
      <trkpt lat="45.69688" lon="6.40691">
        <ele>345</ele>
        <time>2013-10-17T14:42:04Z</time>
      </trkpt>
      <trkpt lat="45.69696" lon="6.40695">
        <ele>346</ele>
        <time>2013-10-17T14:42:07Z</time>
      </trkpt>
      <trkpt lat="45.69702" lon="6.40698">
        <ele>347</ele>
        <time>2013-10-17T14:42:09Z</time>
      </trkpt>
      <trkpt lat="45.69711" lon="6.40706">
        <ele>348</ele>
        <time>2013-10-17T14:42:12Z</time>
      </trkpt>
      <trkpt lat="45.69717" lon="6.40712">
        <ele>349</ele>
        <time>2013-10-17T14:42:14Z</time>
      </trkpt>
      <trkpt lat="45.69724" lon="6.40719">
        <ele>350</ele>
        <time>2013-10-17T14:42:16Z</time>
      </trkpt>
      <trkpt lat="45.69731" lon="6.40728">
        <ele>351</ele>
        <time>2013-10-17T14:42:18Z</time>
      </trkpt>
      <trkpt lat="45.69738" lon="6.40736">
        <ele>352</ele>
        <time>2013-10-17T14:42:21Z</time>
      </trkpt>
      <trkpt lat="45.69749" lon="6.40749">
        <ele>352</ele>
        <time>2013-10-17T14:42:23Z</time>
      </trkpt>
      <trkpt lat="45.69754" lon="6.40756">
        <ele>353</ele>
        <time>2013-10-17T14:42:25Z</time>
      </trkpt>
      <trkpt lat="45.69762" lon="6.40766">
        <ele>355</ele>
        <time>2013-10-17T14:42:28Z</time>
      </trkpt>
      <trkpt lat="45.69769" lon="6.40772">
        <ele>355</ele>
        <time>2013-10-17T14:42:30Z</time>
      </trkpt>
      <trkpt lat="45.69778" lon="6.4078">
        <ele>356</ele>
        <time>2013-10-17T14:42:33Z</time>
      </trkpt>
      <trkpt lat="45.69783" lon="6.40785">
        <ele>357</ele>
        <time>2013-10-17T14:42:35Z</time>
      </trkpt>
      <trkpt lat="45.69791" lon="6.40794">
        <ele>358</ele>
        <time>2013-10-17T14:42:38Z</time>
      </trkpt>
      <trkpt lat="45.69797" lon="6.40802">
        <ele>358</ele>
        <time>2013-10-17T14:42:40Z</time>
      </trkpt>
      <trkpt lat="45.69804" lon="6.40814">
        <ele>359</ele>
        <time>2013-10-17T14:42:43Z</time>
      </trkpt>
      <trkpt lat="45.69807" lon="6.40823">
        <ele>360</ele>
        <time>2013-10-17T14:42:45Z</time>
      </trkpt>
      <trkpt lat="45.69811" lon="6.40835">
        <ele>361</ele>
        <time>2013-10-17T14:42:48Z</time>
      </trkpt>
      <trkpt lat="45.69812" lon="6.40843">
        <ele>361</ele>
        <time>2013-10-17T14:42:50Z</time>
      </trkpt>
      <trkpt lat="45.69813" lon="6.40856">
        <ele>363</ele>
        <time>2013-10-17T14:42:53Z</time>
      </trkpt>
      <trkpt lat="45.69814" lon="6.40865">
        <ele>364</ele>
        <time>2013-10-17T14:42:55Z</time>
      </trkpt>
      <trkpt lat="45.69815" lon="6.40873">
        <ele>364</ele>
        <time>2013-10-17T14:42:57Z</time>
      </trkpt>
      <trkpt lat="45.69817" lon="6.40881">
        <ele>365</ele>
        <time>2013-10-17T14:42:59Z</time>
      </trkpt>
      <trkpt lat="45.69818" lon="6.40891">
        <ele>366</ele>
        <time>2013-10-17T14:43:02Z</time>
      </trkpt>
      <trkpt lat="45.6982" lon="6.40905">
        <ele>367</ele>
        <time>2013-10-17T14:43:04Z</time>
      </trkpt>
      <trkpt lat="45.69823" lon="6.40916">
        <ele>368</ele>
        <time>2013-10-17T14:43:06Z</time>
      </trkpt>
      <trkpt lat="45.6983" lon="6.40933">
        <ele>369</ele>
        <time>2013-10-17T14:43:09Z</time>
      </trkpt>
      <trkpt lat="45.69835" lon="6.40943">
        <ele>370</ele>
        <time>2013-10-17T14:43:11Z</time>
      </trkpt>
      <trkpt lat="45.69841" lon="6.40958">
        <ele>370</ele>
        <time>2013-10-17T14:43:14Z</time>
      </trkpt>
      <trkpt lat="45.69844" lon="6.40974">
        <ele>372</ele>
        <time>2013-10-17T14:43:17Z</time>
      </trkpt>
      <trkpt lat="45.69843" lon="6.40985">
        <ele>373</ele>
        <time>2013-10-17T14:43:19Z</time>
      </trkpt>
      <trkpt lat="45.69841" lon="6.40997">
        <ele>374</ele>
        <time>2013-10-17T14:43:22Z</time>
      </trkpt>
      <trkpt lat="45.69837" lon="6.41007">
        <ele>375</ele>
        <time>2013-10-17T14:43:25Z</time>
      </trkpt>
      <trkpt lat="45.69834" lon="6.41014">
        <ele>376</ele>
        <time>2013-10-17T14:43:27Z</time>
      </trkpt>
      <trkpt lat="45.69828" lon="6.41026">
        <ele>377</ele>
        <time>2013-10-17T14:43:30Z</time>
      </trkpt>
      <trkpt lat="45.69825" lon="6.41036">
        <ele>378</ele>
        <time>2013-10-17T14:43:32Z</time>
      </trkpt>
      <trkpt lat="45.69822" lon="6.41045">
        <ele>379</ele>
        <time>2013-10-17T14:43:34Z</time>
      </trkpt>
      <trkpt lat="45.6982" lon="6.41056">
        <ele>379</ele>
        <time>2013-10-17T14:43:36Z</time>
      </trkpt>
      <trkpt lat="45.69818" lon="6.4107">
        <ele>380</ele>
        <time>2013-10-17T14:43:39Z</time>
      </trkpt>
      <trkpt lat="45.69819" lon="6.4108">
        <ele>381</ele>
        <time>2013-10-17T14:43:41Z</time>
      </trkpt>
      <trkpt lat="45.69825" lon="6.41091">
        <ele>382</ele>
        <time>2013-10-17T14:43:44Z</time>
      </trkpt>
      <trkpt lat="45.69831" lon="6.41097">
        <ele>383</ele>
        <time>2013-10-17T14:43:47Z</time>
      </trkpt>
      <trkpt lat="45.69837" lon="6.41097">
        <ele>384</ele>
        <time>2013-10-17T14:43:49Z</time>
      </trkpt>
      <trkpt lat="45.69845" lon="6.41099">
        <ele>385</ele>
        <time>2013-10-17T14:43:52Z</time>
      </trkpt>
      <trkpt lat="45.69853" lon="6.41102">
        <ele>385</ele>
        <time>2013-10-17T14:43:55Z</time>
      </trkpt>
      <trkpt lat="45.69859" lon="6.41108">
        <ele>386</ele>
        <time>2013-10-17T14:43:58Z</time>
      </trkpt>
      <trkpt lat="45.69864" lon="6.41117">
        <ele>388</ele>
        <time>2013-10-17T14:44:01Z</time>
      </trkpt>
      <trkpt lat="45.69867" lon="6.41124">
        <ele>389</ele>
        <time>2013-10-17T14:44:03Z</time>
      </trkpt>
      <trkpt lat="45.6987" lon="6.41132">
        <ele>389</ele>
        <time>2013-10-17T14:44:05Z</time>
      </trkpt>
      <trkpt lat="45.69874" lon="6.41145">
        <ele>390</ele>
        <time>2013-10-17T14:44:08Z</time>
      </trkpt>
      <trkpt lat="45.69882" lon="6.41158">
        <ele>392</ele>
        <time>2013-10-17T14:44:11Z</time>
      </trkpt>
      <trkpt lat="45.69892" lon="6.41166">
        <ele>393</ele>
        <time>2013-10-17T14:44:14Z</time>
      </trkpt>
      <trkpt lat="45.69904" lon="6.41168">
        <ele>394</ele>
        <time>2013-10-17T14:44:17Z</time>
      </trkpt>
      <trkpt lat="45.69916" lon="6.41167">
        <ele>395</ele>
        <time>2013-10-17T14:44:20Z</time>
      </trkpt>
      <trkpt lat="45.69928" lon="6.41168">
        <ele>396</ele>
        <time>2013-10-17T14:44:23Z</time>
      </trkpt>
      <trkpt lat="45.69934" lon="6.41182">
        <ele>398</ele>
        <time>2013-10-17T14:44:26Z</time>
      </trkpt>
      <trkpt lat="45.6993" lon="6.41189">
        <ele>398</ele>
        <time>2013-10-17T14:44:28Z</time>
      </trkpt>
      <trkpt lat="45.69921" lon="6.41192">
        <ele>399</ele>
        <time>2013-10-17T14:44:31Z</time>
      </trkpt>
      <trkpt lat="45.69911" lon="6.41195">
        <ele>400</ele>
        <time>2013-10-17T14:44:34Z</time>
      </trkpt>
      <trkpt lat="45.69899" lon="6.41197">
        <ele>401</ele>
        <time>2013-10-17T14:44:37Z</time>
      </trkpt>
      <trkpt lat="45.69888" lon="6.41201">
        <ele>402</ele>
        <time>2013-10-17T14:44:40Z</time>
      </trkpt>
      <trkpt lat="45.69876" lon="6.41203">
        <ele>403</ele>
        <time>2013-10-17T14:44:43Z</time>
      </trkpt>
      <trkpt lat="45.69864" lon="6.41206">
        <ele>404</ele>
        <time>2013-10-17T14:44:46Z</time>
      </trkpt>
      <trkpt lat="45.69852" lon="6.4121">
        <ele>405</ele>
        <time>2013-10-17T14:44:49Z</time>
      </trkpt>
      <trkpt lat="45.69845" lon="6.4121">
        <ele>405</ele>
        <time>2013-10-17T14:44:51Z</time>
      </trkpt>
      <trkpt lat="45.69836" lon="6.41206">
        <ele>406</ele>
        <time>2013-10-17T14:44:54Z</time>
      </trkpt>
      <trkpt lat="45.69827" lon="6.412">
        <ele>407</ele>
        <time>2013-10-17T14:44:57Z</time>
      </trkpt>
      <trkpt lat="45.69817" lon="6.41194">
        <ele>408</ele>
        <time>2013-10-17T14:45:00Z</time>
      </trkpt>
      <trkpt lat="45.69806" lon="6.41189">
        <ele>409</ele>
        <time>2013-10-17T14:45:03Z</time>
      </trkpt>
      <trkpt lat="45.69793" lon="6.41188">
        <ele>409</ele>
        <time>2013-10-17T14:45:06Z</time>
      </trkpt>
      <trkpt lat="45.69778" lon="6.41192">
        <ele>410</ele>
        <time>2013-10-17T14:45:09Z</time>
      </trkpt>
      <trkpt lat="45.69764" lon="6.41197">
        <ele>410</ele>
        <time>2013-10-17T14:45:12Z</time>
      </trkpt>
      <trkpt lat="45.69755" lon="6.41201">
        <ele>412</ele>
        <time>2013-10-17T14:45:14Z</time>
      </trkpt>
      <trkpt lat="45.69746" lon="6.41203">
        <ele>413</ele>
        <time>2013-10-17T14:45:16Z</time>
      </trkpt>
      <trkpt lat="45.69735" lon="6.41204">
        <ele>414</ele>
        <time>2013-10-17T14:45:19Z</time>
      </trkpt>
      <trkpt lat="45.69724" lon="6.41202">
        <ele>415</ele>
        <time>2013-10-17T14:45:22Z</time>
      </trkpt>
      <trkpt lat="45.69714" lon="6.41203">
        <ele>416</ele>
        <time>2013-10-17T14:45:25Z</time>
      </trkpt>
      <trkpt lat="45.69705" lon="6.41209">
        <ele>417</ele>
        <time>2013-10-17T14:45:28Z</time>
      </trkpt>
      <trkpt lat="45.69699" lon="6.41215">
        <ele>418</ele>
        <time>2013-10-17T14:45:30Z</time>
      </trkpt>
      <trkpt lat="45.69693" lon="6.41219">
        <ele>419</ele>
        <time>2013-10-17T14:45:32Z</time>
      </trkpt>
      <trkpt lat="45.69687" lon="6.41223">
        <ele>419</ele>
        <time>2013-10-17T14:45:34Z</time>
      </trkpt>
      <trkpt lat="45.69677" lon="6.41231">
        <ele>420</ele>
        <time>2013-10-17T14:45:37Z</time>
      </trkpt>
      <trkpt lat="45.69671" lon="6.41237">
        <ele>420</ele>
        <time>2013-10-17T14:45:39Z</time>
      </trkpt>
      <trkpt lat="45.69665" lon="6.41243">
        <ele>421</ele>
        <time>2013-10-17T14:45:41Z</time>
      </trkpt>
      <trkpt lat="45.69655" lon="6.41253">
        <ele>422</ele>
        <time>2013-10-17T14:45:44Z</time>
      </trkpt>
      <trkpt lat="45.69648" lon="6.41258">
        <ele>423</ele>
        <time>2013-10-17T14:45:46Z</time>
      </trkpt>
      <trkpt lat="45.69641" lon="6.41263">
        <ele>424</ele>
        <time>2013-10-17T14:45:48Z</time>
      </trkpt>
      <trkpt lat="45.69633" lon="6.41266">
        <ele>425</ele>
        <time>2013-10-17T14:45:50Z</time>
      </trkpt>
      <trkpt lat="45.69625" lon="6.41269">
        <ele>426</ele>
        <time>2013-10-17T14:45:52Z</time>
      </trkpt>
      <trkpt lat="45.69614" lon="6.41274">
        <ele>426</ele>
        <time>2013-10-17T14:45:55Z</time>
      </trkpt>
      <trkpt lat="45.69604" lon="6.41278">
        <ele>427</ele>
        <time>2013-10-17T14:45:58Z</time>
      </trkpt>
      <trkpt lat="45.69598" lon="6.41283">
        <ele>428</ele>
        <time>2013-10-17T14:46:00Z</time>
      </trkpt>
      <trkpt lat="45.69593" lon="6.41288">
        <ele>428</ele>
        <time>2013-10-17T14:46:02Z</time>
      </trkpt>
      <trkpt lat="45.69585" lon="6.41296">
        <ele>429</ele>
        <time>2013-10-17T14:46:05Z</time>
      </trkpt>
      <trkpt lat="45.69577" lon="6.41306">
        <ele>431</ele>
        <time>2013-10-17T14:46:08Z</time>
      </trkpt>
      <trkpt lat="45.69571" lon="6.41317">
        <ele>432</ele>
        <time>2013-10-17T14:46:11Z</time>
      </trkpt>
      <trkpt lat="45.69566" lon="6.41324">
        <ele>433</ele>
        <time>2013-10-17T14:46:13Z</time>
      </trkpt>
      <trkpt lat="45.69558" lon="6.41332">
        <ele>434</ele>
        <time>2013-10-17T14:46:16Z</time>
      </trkpt>
      <trkpt lat="45.69552" lon="6.41336">
        <ele>434</ele>
        <time>2013-10-17T14:46:18Z</time>
      </trkpt>
      <trkpt lat="45.69541" lon="6.41337">
        <ele>435</ele>
        <time>2013-10-17T14:46:21Z</time>
      </trkpt>
      <trkpt lat="45.69531" lon="6.41334">
        <ele>437</ele>
        <time>2013-10-17T14:46:24Z</time>
      </trkpt>
      <trkpt lat="45.69522" lon="6.41331">
        <ele>438</ele>
        <time>2013-10-17T14:46:27Z</time>
      </trkpt>
      <trkpt lat="45.69513" lon="6.4133">
        <ele>439</ele>
        <time>2013-10-17T14:46:30Z</time>
      </trkpt>
      <trkpt lat="45.69503" lon="6.41332">
        <ele>440</ele>
        <time>2013-10-17T14:46:33Z</time>
      </trkpt>
      <trkpt lat="45.69497" lon="6.41334">
        <ele>440</ele>
        <time>2013-10-17T14:46:35Z</time>
      </trkpt>
      <trkpt lat="45.69487" lon="6.41338">
        <ele>441</ele>
        <time>2013-10-17T14:46:38Z</time>
      </trkpt>
      <trkpt lat="45.69481" lon="6.41341">
        <ele>442</ele>
        <time>2013-10-17T14:46:40Z</time>
      </trkpt>
      <trkpt lat="45.69474" lon="6.41346">
        <ele>443</ele>
        <time>2013-10-17T14:46:43Z</time>
      </trkpt>
      <trkpt lat="45.69467" lon="6.41353">
        <ele>444</ele>
        <time>2013-10-17T14:46:46Z</time>
      </trkpt>
      <trkpt lat="45.6946" lon="6.41361">
        <ele>445</ele>
        <time>2013-10-17T14:46:49Z</time>
      </trkpt>
      <trkpt lat="45.69453" lon="6.41369">
        <ele>445</ele>
        <time>2013-10-17T14:46:52Z</time>
      </trkpt>
      <trkpt lat="45.69447" lon="6.41374">
        <ele>446</ele>
        <time>2013-10-17T14:46:54Z</time>
      </trkpt>
      <trkpt lat="45.69441" lon="6.41379">
        <ele>447</ele>
        <time>2013-10-17T14:46:56Z</time>
      </trkpt>
      <trkpt lat="45.6943" lon="6.41384">
        <ele>447</ele>
        <time>2013-10-17T14:46:59Z</time>
      </trkpt>
      <trkpt lat="45.6942" lon="6.41386">
        <ele>448</ele>
        <time>2013-10-17T14:47:02Z</time>
      </trkpt>
      <trkpt lat="45.6941" lon="6.41393">
        <ele>450</ele>
        <time>2013-10-17T14:47:05Z</time>
      </trkpt>
      <trkpt lat="45.69412" lon="6.41403">
        <ele>451</ele>
        <time>2013-10-17T14:47:08Z</time>
      </trkpt>
      <trkpt lat="45.69422" lon="6.41405">
        <ele>452</ele>
        <time>2013-10-17T14:47:11Z</time>
      </trkpt>
      <trkpt lat="45.69436" lon="6.41404">
        <ele>453</ele>
        <time>2013-10-17T14:47:14Z</time>
      </trkpt>
      <trkpt lat="45.69449" lon="6.41403">
        <ele>454</ele>
        <time>2013-10-17T14:47:17Z</time>
      </trkpt>
      <trkpt lat="45.69456" lon="6.41401">
        <ele>455</ele>
        <time>2013-10-17T14:47:19Z</time>
      </trkpt>
      <trkpt lat="45.69465" lon="6.41398">
        <ele>456</ele>
        <time>2013-10-17T14:47:22Z</time>
      </trkpt>
      <trkpt lat="45.69475" lon="6.41396">
        <ele>457</ele>
        <time>2013-10-17T14:47:25Z</time>
      </trkpt>
      <trkpt lat="45.69484" lon="6.41395">
        <ele>458</ele>
        <time>2013-10-17T14:47:28Z</time>
      </trkpt>
      <trkpt lat="45.69493" lon="6.41393">
        <ele>459</ele>
        <time>2013-10-17T14:47:31Z</time>
      </trkpt>
      <trkpt lat="45.69504" lon="6.41392">
        <ele>460</ele>
        <time>2013-10-17T14:47:34Z</time>
      </trkpt>
      <trkpt lat="45.69514" lon="6.4139">
        <ele>461</ele>
        <time>2013-10-17T14:47:37Z</time>
      </trkpt>
      <trkpt lat="45.69524" lon="6.41389">
        <ele>462</ele>
        <time>2013-10-17T14:47:40Z</time>
      </trkpt>
      <trkpt lat="45.69531" lon="6.41388">
        <ele>463</ele>
        <time>2013-10-17T14:47:42Z</time>
      </trkpt>
      <trkpt lat="45.69537" lon="6.41387">
        <ele>464</ele>
        <time>2013-10-17T14:47:44Z</time>
      </trkpt>
      <trkpt lat="45.69547" lon="6.41386">
        <ele>465</ele>
        <time>2013-10-17T14:47:47Z</time>
      </trkpt>
      <trkpt lat="45.69558" lon="6.41382">
        <ele>466</ele>
        <time>2013-10-17T14:47:50Z</time>
      </trkpt>
      <trkpt lat="45.69567" lon="6.41379">
        <ele>467</ele>
        <time>2013-10-17T14:47:53Z</time>
      </trkpt>
      <trkpt lat="45.69577" lon="6.41378">
        <ele>468</ele>
        <time>2013-10-17T14:47:56Z</time>
      </trkpt>
      <trkpt lat="45.69588" lon="6.41379">
        <ele>468</ele>
        <time>2013-10-17T14:47:59Z</time>
      </trkpt>
      <trkpt lat="45.696" lon="6.4138">
        <ele>469</ele>
        <time>2013-10-17T14:48:02Z</time>
      </trkpt>
      <trkpt lat="45.69612" lon="6.4138">
        <ele>470</ele>
        <time>2013-10-17T14:48:05Z</time>
      </trkpt>
      <trkpt lat="45.6962" lon="6.41379">
        <ele>471</ele>
        <time>2013-10-17T14:48:07Z</time>
      </trkpt>
      <trkpt lat="45.69631" lon="6.41379">
        <ele>472</ele>
        <time>2013-10-17T14:48:10Z</time>
      </trkpt>
      <trkpt lat="45.69645" lon="6.41379">
        <ele>473</ele>
        <time>2013-10-17T14:48:13Z</time>
      </trkpt>
      <trkpt lat="45.69659" lon="6.41379">
        <ele>474</ele>
        <time>2013-10-17T14:48:16Z</time>
      </trkpt>
      <trkpt lat="45.69673" lon="6.41382">
        <ele>475</ele>
        <time>2013-10-17T14:48:19Z</time>
      </trkpt>
      <trkpt lat="45.69686" lon="6.41385">
        <ele>476</ele>
        <time>2013-10-17T14:48:22Z</time>
      </trkpt>
      <trkpt lat="45.69698" lon="6.41391">
        <ele>478</ele>
        <time>2013-10-17T14:48:25Z</time>
      </trkpt>
      <trkpt lat="45.69709" lon="6.41395">
        <ele>479</ele>
        <time>2013-10-17T14:48:28Z</time>
      </trkpt>
      <trkpt lat="45.69715" lon="6.41398">
        <ele>479</ele>
        <time>2013-10-17T14:48:30Z</time>
      </trkpt>
      <trkpt lat="45.69722" lon="6.41401">
        <ele>479</ele>
        <time>2013-10-17T14:48:32Z</time>
      </trkpt>
      <trkpt lat="45.69732" lon="6.41406">
        <ele>480</ele>
        <time>2013-10-17T14:48:35Z</time>
      </trkpt>
      <trkpt lat="45.69743" lon="6.4141">
        <ele>481</ele>
        <time>2013-10-17T14:48:38Z</time>
      </trkpt>
      <trkpt lat="45.69751" lon="6.41412">
        <ele>482</ele>
        <time>2013-10-17T14:48:41Z</time>
      </trkpt>
      <trkpt lat="45.69763" lon="6.41416">
        <ele>484</ele>
        <time>2013-10-17T14:48:44Z</time>
      </trkpt>
      <trkpt lat="45.69775" lon="6.4142">
        <ele>484</ele>
        <time>2013-10-17T14:48:47Z</time>
      </trkpt>
      <trkpt lat="45.69782" lon="6.41421">
        <ele>485</ele>
        <time>2013-10-17T14:48:49Z</time>
      </trkpt>
      <trkpt lat="45.69789" lon="6.41423">
        <ele>486</ele>
        <time>2013-10-17T14:48:51Z</time>
      </trkpt>
      <trkpt lat="45.69799" lon="6.41429">
        <ele>486</ele>
        <time>2013-10-17T14:48:54Z</time>
      </trkpt>
      <trkpt lat="45.6981" lon="6.41434">
        <ele>487</ele>
        <time>2013-10-17T14:48:57Z</time>
      </trkpt>
      <trkpt lat="45.69821" lon="6.41438">
        <ele>488</ele>
        <time>2013-10-17T14:49:00Z</time>
      </trkpt>
      <trkpt lat="45.69832" lon="6.41438">
        <ele>489</ele>
        <time>2013-10-17T14:49:03Z</time>
      </trkpt>
      <trkpt lat="45.69843" lon="6.41437">
        <ele>490</ele>
        <time>2013-10-17T14:49:06Z</time>
      </trkpt>
      <trkpt lat="45.69855" lon="6.41436">
        <ele>490</ele>
        <time>2013-10-17T14:49:09Z</time>
      </trkpt>
      <trkpt lat="45.69867" lon="6.41432">
        <ele>491</ele>
        <time>2013-10-17T14:49:12Z</time>
      </trkpt>
      <trkpt lat="45.69875" lon="6.4143">
        <ele>492</ele>
        <time>2013-10-17T14:49:14Z</time>
      </trkpt>
      <trkpt lat="45.69883" lon="6.4143">
        <ele>493</ele>
        <time>2013-10-17T14:49:16Z</time>
      </trkpt>
      <trkpt lat="45.69897" lon="6.41427">
        <ele>493</ele>
        <time>2013-10-17T14:49:19Z</time>
      </trkpt>
      <trkpt lat="45.69909" lon="6.41423">
        <ele>494</ele>
        <time>2013-10-17T14:49:22Z</time>
      </trkpt>
      <trkpt lat="45.69915" lon="6.4142">
        <ele>494</ele>
        <time>2013-10-17T14:49:24Z</time>
      </trkpt>
      <trkpt lat="45.69928" lon="6.41419">
        <ele>495</ele>
        <time>2013-10-17T14:49:27Z</time>
      </trkpt>
      <trkpt lat="45.69939" lon="6.41421">
        <ele>496</ele>
        <time>2013-10-17T14:49:30Z</time>
      </trkpt>
      <trkpt lat="45.69952" lon="6.41426">
        <ele>497</ele>
        <time>2013-10-17T14:49:33Z</time>
      </trkpt>
      <trkpt lat="45.69963" lon="6.41427">
        <ele>498</ele>
        <time>2013-10-17T14:49:36Z</time>
      </trkpt>
      <trkpt lat="45.69974" lon="6.41433">
        <ele>499</ele>
        <time>2013-10-17T14:49:39Z</time>
      </trkpt>
      <trkpt lat="45.69982" lon="6.41441">
        <ele>500</ele>
        <time>2013-10-17T14:49:41Z</time>
      </trkpt>
      <trkpt lat="45.6999" lon="6.41449">
        <ele>500</ele>
        <time>2013-10-17T14:49:43Z</time>
      </trkpt>
      <trkpt lat="45.70004" lon="6.41459">
        <ele>501</ele>
        <time>2013-10-17T14:49:46Z</time>
      </trkpt>
      <trkpt lat="45.70018" lon="6.41467">
        <ele>502</ele>
        <time>2013-10-17T14:49:49Z</time>
      </trkpt>
      <trkpt lat="45.70033" lon="6.41467">
        <ele>503</ele>
        <time>2013-10-17T14:49:52Z</time>
      </trkpt>
      <trkpt lat="45.70048" lon="6.41464">
        <ele>504</ele>
        <time>2013-10-17T14:49:55Z</time>
      </trkpt>
      <trkpt lat="45.70063" lon="6.41463">
        <ele>505</ele>
        <time>2013-10-17T14:49:58Z</time>
      </trkpt>
      <trkpt lat="45.70075" lon="6.41466">
        <ele>506</ele>
        <time>2013-10-17T14:50:01Z</time>
      </trkpt>
      <trkpt lat="45.70082" lon="6.41472">
        <ele>507</ele>
        <time>2013-10-17T14:50:03Z</time>
      </trkpt>
      <trkpt lat="45.70091" lon="6.41484">
        <ele>508</ele>
        <time>2013-10-17T14:50:06Z</time>
      </trkpt>
      <trkpt lat="45.70098" lon="6.41491">
        <ele>508</ele>
        <time>2013-10-17T14:50:08Z</time>
      </trkpt>
      <trkpt lat="45.70105" lon="6.41497">
        <ele>509</ele>
        <time>2013-10-17T14:50:10Z</time>
      </trkpt>
      <trkpt lat="45.70115" lon="6.41505">
        <ele>510</ele>
        <time>2013-10-17T14:50:13Z</time>
      </trkpt>
      <trkpt lat="45.70125" lon="6.4151">
        <ele>511</ele>
        <time>2013-10-17T14:50:16Z</time>
      </trkpt>
      <trkpt lat="45.70135" lon="6.41515">
        <ele>511</ele>
        <time>2013-10-17T14:50:19Z</time>
      </trkpt>
      <trkpt lat="45.70144" lon="6.41517">
        <ele>512</ele>
        <time>2013-10-17T14:50:21Z</time>
      </trkpt>
      <trkpt lat="45.70155" lon="6.41523">
        <ele>513</ele>
        <time>2013-10-17T14:50:24Z</time>
      </trkpt>
      <trkpt lat="45.70166" lon="6.41525">
        <ele>514</ele>
        <time>2013-10-17T14:50:27Z</time>
      </trkpt>
      <trkpt lat="45.70176" lon="6.41521">
        <ele>515</ele>
        <time>2013-10-17T14:50:30Z</time>
      </trkpt>
      <trkpt lat="45.70184" lon="6.41516">
        <ele>515</ele>
        <time>2013-10-17T14:50:32Z</time>
      </trkpt>
      <trkpt lat="45.70198" lon="6.41511">
        <ele>516</ele>
        <time>2013-10-17T14:50:35Z</time>
      </trkpt>
      <trkpt lat="45.70207" lon="6.41511">
        <ele>517</ele>
        <time>2013-10-17T14:50:37Z</time>
      </trkpt>
      <trkpt lat="45.70214" lon="6.41514">
        <ele>518</ele>
        <time>2013-10-17T14:50:39Z</time>
      </trkpt>
      <trkpt lat="45.70227" lon="6.41518">
        <ele>519</ele>
        <time>2013-10-17T14:50:42Z</time>
      </trkpt>
      <trkpt lat="45.70238" lon="6.41519">
        <ele>520</ele>
        <time>2013-10-17T14:50:45Z</time>
      </trkpt>
      <trkpt lat="45.70251" lon="6.41521">
        <ele>520</ele>
        <time>2013-10-17T14:50:48Z</time>
      </trkpt>
      <trkpt lat="45.70264" lon="6.41521">
        <ele>521</ele>
        <time>2013-10-17T14:50:51Z</time>
      </trkpt>
      <trkpt lat="45.70274" lon="6.41521">
        <ele>521</ele>
        <time>2013-10-17T14:50:53Z</time>
      </trkpt>
      <trkpt lat="45.70288" lon="6.41522">
        <ele>523</ele>
        <time>2013-10-17T14:50:56Z</time>
      </trkpt>
      <trkpt lat="45.703" lon="6.41527">
        <ele>524</ele>
        <time>2013-10-17T14:50:59Z</time>
      </trkpt>
      <trkpt lat="45.70313" lon="6.41535">
        <ele>524</ele>
        <time>2013-10-17T14:51:02Z</time>
      </trkpt>
      <trkpt lat="45.70321" lon="6.41539">
        <ele>525</ele>
        <time>2013-10-17T14:51:04Z</time>
      </trkpt>
      <trkpt lat="45.7033" lon="6.41541">
        <ele>526</ele>
        <time>2013-10-17T14:51:06Z</time>
      </trkpt>
      <trkpt lat="45.7034" lon="6.4154">
        <ele>526</ele>
        <time>2013-10-17T14:51:09Z</time>
      </trkpt>
      <trkpt lat="45.70344" lon="6.41549">
        <ele>527</ele>
        <time>2013-10-17T14:51:12Z</time>
      </trkpt>
      <trkpt lat="45.70338" lon="6.41553">
        <ele>528</ele>
        <time>2013-10-17T14:51:15Z</time>
      </trkpt>
      <trkpt lat="45.70329" lon="6.4155">
        <ele>529</ele>
        <time>2013-10-17T14:51:18Z</time>
      </trkpt>
      <trkpt lat="45.70323" lon="6.41549">
        <ele>529</ele>
        <time>2013-10-17T14:51:20Z</time>
      </trkpt>
      <trkpt lat="45.70316" lon="6.41549">
        <ele>530</ele>
        <time>2013-10-17T14:51:22Z</time>
      </trkpt>
      <trkpt lat="45.7031" lon="6.41547">
        <ele>530</ele>
        <time>2013-10-17T14:51:24Z</time>
      </trkpt>
      <trkpt lat="45.70299" lon="6.41545">
        <ele>531</ele>
        <time>2013-10-17T14:51:27Z</time>
      </trkpt>
      <trkpt lat="45.70291" lon="6.41544">
        <ele>531</ele>
        <time>2013-10-17T14:51:29Z</time>
      </trkpt>
      <trkpt lat="45.70282" lon="6.41545">
        <ele>532</ele>
        <time>2013-10-17T14:51:31Z</time>
      </trkpt>
      <trkpt lat="45.70269" lon="6.41549">
        <ele>533</ele>
        <time>2013-10-17T14:51:34Z</time>
      </trkpt>
      <trkpt lat="45.7026" lon="6.41553">
        <ele>534</ele>
        <time>2013-10-17T14:51:36Z</time>
      </trkpt>
      <trkpt lat="45.70251" lon="6.41558">
        <ele>535</ele>
        <time>2013-10-17T14:51:38Z</time>
      </trkpt>
      <trkpt lat="45.70237" lon="6.41564">
        <ele>536</ele>
        <time>2013-10-17T14:51:41Z</time>
      </trkpt>
      <trkpt lat="45.70228" lon="6.4157">
        <ele>536</ele>
        <time>2013-10-17T14:51:43Z</time>
      </trkpt>
      <trkpt lat="45.70219" lon="6.41575">
        <ele>537</ele>
        <time>2013-10-17T14:51:45Z</time>
      </trkpt>
      <trkpt lat="45.70211" lon="6.4158">
        <ele>538</ele>
        <time>2013-10-17T14:51:47Z</time>
      </trkpt>
      <trkpt lat="45.702" lon="6.41587">
        <ele>539</ele>
        <time>2013-10-17T14:51:50Z</time>
      </trkpt>
      <trkpt lat="45.70194" lon="6.41592">
        <ele>540</ele>
        <time>2013-10-17T14:51:52Z</time>
      </trkpt>
      <trkpt lat="45.70189" lon="6.41596">
        <ele>540</ele>
        <time>2013-10-17T14:51:54Z</time>
      </trkpt>
      <trkpt lat="45.70179" lon="6.41602">
        <ele>541</ele>
        <time>2013-10-17T14:51:57Z</time>
      </trkpt>
      <trkpt lat="45.70173" lon="6.41606">
        <ele>541</ele>
        <time>2013-10-17T14:51:59Z</time>
      </trkpt>
      <trkpt lat="45.70166" lon="6.41611">
        <ele>542</ele>
        <time>2013-10-17T14:52:01Z</time>
      </trkpt>
      <trkpt lat="45.70159" lon="6.41615">
        <ele>542</ele>
        <time>2013-10-17T14:52:03Z</time>
      </trkpt>
      <trkpt lat="45.70147" lon="6.41622">
        <ele>543</ele>
        <time>2013-10-17T14:52:06Z</time>
      </trkpt>
      <trkpt lat="45.70133" lon="6.41628">
        <ele>544</ele>
        <time>2013-10-17T14:52:09Z</time>
      </trkpt>
      <trkpt lat="45.70124" lon="6.41633">
        <ele>545</ele>
        <time>2013-10-17T14:52:11Z</time>
      </trkpt>
      <trkpt lat="45.70116" lon="6.41638">
        <ele>546</ele>
        <time>2013-10-17T14:52:13Z</time>
      </trkpt>
      <trkpt lat="45.70107" lon="6.41644">
        <ele>547</ele>
        <time>2013-10-17T14:52:15Z</time>
      </trkpt>
      <trkpt lat="45.70095" lon="6.41653">
        <ele>548</ele>
        <time>2013-10-17T14:52:18Z</time>
      </trkpt>
      <trkpt lat="45.70087" lon="6.4166">
        <ele>548</ele>
        <time>2013-10-17T14:52:20Z</time>
      </trkpt>
      <trkpt lat="45.70081" lon="6.41667">
        <ele>549</ele>
        <time>2013-10-17T14:52:22Z</time>
      </trkpt>
      <trkpt lat="45.70073" lon="6.41677">
        <ele>550</ele>
        <time>2013-10-17T14:52:25Z</time>
      </trkpt>
      <trkpt lat="45.70068" lon="6.41684">
        <ele>550</ele>
        <time>2013-10-17T14:52:27Z</time>
      </trkpt>
      <trkpt lat="45.70063" lon="6.41691">
        <ele>551</ele>
        <time>2013-10-17T14:52:29Z</time>
      </trkpt>
      <trkpt lat="45.70058" lon="6.41699">
        <ele>552</ele>
        <time>2013-10-17T14:52:31Z</time>
      </trkpt>
      <trkpt lat="45.7005" lon="6.41709">
        <ele>553</ele>
        <time>2013-10-17T14:52:34Z</time>
      </trkpt>
      <trkpt lat="45.70044" lon="6.41715">
        <ele>554</ele>
        <time>2013-10-17T14:52:36Z</time>
      </trkpt>
      <trkpt lat="45.70033" lon="6.4172">
        <ele>554</ele>
        <time>2013-10-17T14:52:39Z</time>
      </trkpt>
      <trkpt lat="45.70025" lon="6.41722">
        <ele>555</ele>
        <time>2013-10-17T14:52:41Z</time>
      </trkpt>
      <trkpt lat="45.70018" lon="6.41727">
        <ele>556</ele>
        <time>2013-10-17T14:52:43Z</time>
      </trkpt>
      <trkpt lat="45.7001" lon="6.41731">
        <ele>556</ele>
        <time>2013-10-17T14:52:45Z</time>
      </trkpt>
      <trkpt lat="45.69999" lon="6.41741">
        <ele>557</ele>
        <time>2013-10-17T14:52:48Z</time>
      </trkpt>
      <trkpt lat="45.69992" lon="6.41747">
        <ele>558</ele>
        <time>2013-10-17T14:52:50Z</time>
      </trkpt>
      <trkpt lat="45.69982" lon="6.41757">
        <ele>558</ele>
        <time>2013-10-17T14:52:53Z</time>
      </trkpt>
      <trkpt lat="45.69975" lon="6.41765">
        <ele>559</ele>
        <time>2013-10-17T14:52:55Z</time>
      </trkpt>
      <trkpt lat="45.69967" lon="6.41771">
        <ele>560</ele>
        <time>2013-10-17T14:52:57Z</time>
      </trkpt>
      <trkpt lat="45.69957" lon="6.41776">
        <ele>560</ele>
        <time>2013-10-17T14:52:59Z</time>
      </trkpt>
      <trkpt lat="45.69942" lon="6.41782">
        <ele>561</ele>
        <time>2013-10-17T14:53:02Z</time>
      </trkpt>
      <trkpt lat="45.69933" lon="6.41788">
        <ele>561</ele>
        <time>2013-10-17T14:53:04Z</time>
      </trkpt>
      <trkpt lat="45.69925" lon="6.41795">
        <ele>561</ele>
        <time>2013-10-17T14:53:06Z</time>
      </trkpt>
      <trkpt lat="45.69918" lon="6.41804">
        <ele>561</ele>
        <time>2013-10-17T14:53:08Z</time>
      </trkpt>
      <trkpt lat="45.6991" lon="6.41817">
        <ele>562</ele>
        <time>2013-10-17T14:53:11Z</time>
      </trkpt>
      <trkpt lat="45.69906" lon="6.41827">
        <ele>562</ele>
        <time>2013-10-17T14:53:13Z</time>
      </trkpt>
      <trkpt lat="45.69902" lon="6.41839">
        <ele>563</ele>
        <time>2013-10-17T14:53:15Z</time>
      </trkpt>
      <trkpt lat="45.69897" lon="6.41857">
        <ele>564</ele>
        <time>2013-10-17T14:53:18Z</time>
      </trkpt>
      <trkpt lat="45.69895" lon="6.41868">
        <ele>564</ele>
        <time>2013-10-17T14:53:20Z</time>
      </trkpt>
      <trkpt lat="45.69893" lon="6.41878">
        <ele>565</ele>
        <time>2013-10-17T14:53:22Z</time>
      </trkpt>
      <trkpt lat="45.69892" lon="6.41891">
        <ele>565</ele>
        <time>2013-10-17T14:53:25Z</time>
      </trkpt>
      <trkpt lat="45.69894" lon="6.41901">
        <ele>566</ele>
        <time>2013-10-17T14:53:27Z</time>
      </trkpt>
      <trkpt lat="45.69898" lon="6.41911">
        <ele>566</ele>
        <time>2013-10-17T14:53:29Z</time>
      </trkpt>
      <trkpt lat="45.69902" lon="6.41923">
        <ele>566</ele>
        <time>2013-10-17T14:53:31Z</time>
      </trkpt>
      <trkpt lat="45.69906" lon="6.41935">
        <ele>566</ele>
        <time>2013-10-17T14:53:33Z</time>
      </trkpt>
      <trkpt lat="45.69911" lon="6.41949">
        <ele>567</ele>
        <time>2013-10-17T14:53:35Z</time>
      </trkpt>
      <trkpt lat="45.69916" lon="6.41964">
        <ele>567</ele>
        <time>2013-10-17T14:53:37Z</time>
      </trkpt>
      <trkpt lat="45.69925" lon="6.41988">
        <ele>568</ele>
        <time>2013-10-17T14:53:40Z</time>
      </trkpt>
      <trkpt lat="45.69929" lon="6.42003">
        <ele>568</ele>
        <time>2013-10-17T14:53:42Z</time>
      </trkpt>
      <trkpt lat="45.69934" lon="6.42018">
        <ele>569</ele>
        <time>2013-10-17T14:53:44Z</time>
      </trkpt>
      <trkpt lat="45.69939" lon="6.42033">
        <ele>569</ele>
        <time>2013-10-17T14:53:46Z</time>
      </trkpt>
      <trkpt lat="45.69945" lon="6.42048">
        <ele>570</ele>
        <time>2013-10-17T14:53:48Z</time>
      </trkpt>
      <trkpt lat="45.69953" lon="6.42069">
        <ele>570</ele>
        <time>2013-10-17T14:53:51Z</time>
      </trkpt>
      <trkpt lat="45.69958" lon="6.42084">
        <ele>570</ele>
        <time>2013-10-17T14:53:53Z</time>
      </trkpt>
      <trkpt lat="45.69967" lon="6.42106">
        <ele>571</ele>
        <time>2013-10-17T14:53:56Z</time>
      </trkpt>
      <trkpt lat="45.69972" lon="6.4212">
        <ele>571</ele>
        <time>2013-10-17T14:53:58Z</time>
      </trkpt>
      <trkpt lat="45.69978" lon="6.42139">
        <ele>571</ele>
        <time>2013-10-17T14:54:01Z</time>
      </trkpt>
      <trkpt lat="45.69983" lon="6.42151">
        <ele>571</ele>
        <time>2013-10-17T14:54:03Z</time>
      </trkpt>
      <trkpt lat="45.69987" lon="6.42162">
        <ele>571</ele>
        <time>2013-10-17T14:54:05Z</time>
      </trkpt>
      <trkpt lat="45.69991" lon="6.42173">
        <ele>571</ele>
        <time>2013-10-17T14:54:07Z</time>
      </trkpt>
      <trkpt lat="45.69995" lon="6.42188">
        <ele>571</ele>
        <time>2013-10-17T14:54:09Z</time>
      </trkpt>
      <trkpt lat="45.70004" lon="6.42213">
        <ele>571</ele>
        <time>2013-10-17T14:54:12Z</time>
      </trkpt>
      <trkpt lat="45.70012" lon="6.42233">
        <ele>571</ele>
        <time>2013-10-17T14:54:14Z</time>
      </trkpt>
      <trkpt lat="45.70021" lon="6.42253">
        <ele>570</ele>
        <time>2013-10-17T14:54:16Z</time>
      </trkpt>
      <trkpt lat="45.7003" lon="6.42273">
        <ele>568</ele>
        <time>2013-10-17T14:54:18Z</time>
      </trkpt>
      <trkpt lat="45.70037" lon="6.42289">
        <ele>567</ele>
        <time>2013-10-17T14:54:20Z</time>
      </trkpt>
      <trkpt lat="45.70046" lon="6.42306">
        <ele>565</ele>
        <time>2013-10-17T14:54:22Z</time>
      </trkpt>
      <trkpt lat="45.70055" lon="6.42321">
        <ele>564</ele>
        <time>2013-10-17T14:54:24Z</time>
      </trkpt>
      <trkpt lat="45.7007" lon="6.42344">
        <ele>564</ele>
        <time>2013-10-17T14:54:27Z</time>
      </trkpt>
      <trkpt lat="45.70082" lon="6.42355">
        <ele>563</ele>
        <time>2013-10-17T14:54:29Z</time>
      </trkpt>
      <trkpt lat="45.70096" lon="6.42366">
        <ele>562</ele>
        <time>2013-10-17T14:54:31Z</time>
      </trkpt>
      <trkpt lat="45.7011" lon="6.42373">
        <ele>562</ele>
        <time>2013-10-17T14:54:33Z</time>
      </trkpt>
      <trkpt lat="45.70133" lon="6.42381">
        <ele>560</ele>
        <time>2013-10-17T14:54:36Z</time>
      </trkpt>
      <trkpt lat="45.70148" lon="6.42388">
        <ele>560</ele>
        <time>2013-10-17T14:54:38Z</time>
      </trkpt>
      <trkpt lat="45.70164" lon="6.42398">
        <ele>558</ele>
        <time>2013-10-17T14:54:40Z</time>
      </trkpt>
      <trkpt lat="45.70188" lon="6.42418">
        <ele>556</ele>
        <time>2013-10-17T14:54:43Z</time>
      </trkpt>
      <trkpt lat="45.70203" lon="6.42435">
        <ele>555</ele>
        <time>2013-10-17T14:54:45Z</time>
      </trkpt>
      <trkpt lat="45.70217" lon="6.42456">
        <ele>553</ele>
        <time>2013-10-17T14:54:47Z</time>
      </trkpt>
      <trkpt lat="45.70231" lon="6.42482">
        <ele>552</ele>
        <time>2013-10-17T14:54:49Z</time>
      </trkpt>
      <trkpt lat="45.70255" lon="6.42516">
        <ele>551</ele>
        <time>2013-10-17T14:54:52Z</time>
      </trkpt>
      <trkpt lat="45.70271" lon="6.42536">
        <ele>548</ele>
        <time>2013-10-17T14:54:55Z</time>
      </trkpt>
      <trkpt lat="45.70258" lon="6.42544">
        <ele>544</ele>
        <time>2013-10-17T14:54:58Z</time>
      </trkpt>
      <trkpt lat="45.70246" lon="6.42533">
        <ele>542</ele>
        <time>2013-10-17T14:55:00Z</time>
      </trkpt>
      <trkpt lat="45.70231" lon="6.4252">
        <ele>541</ele>
        <time>2013-10-17T14:55:02Z</time>
      </trkpt>
      <trkpt lat="45.70214" lon="6.42506">
        <ele>540</ele>
        <time>2013-10-17T14:55:04Z</time>
      </trkpt>
      <trkpt lat="45.70197" lon="6.42492">
        <ele>538</ele>
        <time>2013-10-17T14:55:06Z</time>
      </trkpt>
      <trkpt lat="45.70166" lon="6.42492">
        <ele>536</ele>
        <time>2013-10-17T14:55:09Z</time>
      </trkpt>
      <trkpt lat="45.70145" lon="6.42504">
        <ele>534</ele>
        <time>2013-10-17T14:55:11Z</time>
      </trkpt>
      <trkpt lat="45.70124" lon="6.42516">
        <ele>532</ele>
        <time>2013-10-17T14:55:13Z</time>
      </trkpt>
      <trkpt lat="45.70108" lon="6.42528">
        <ele>530</ele>
        <time>2013-10-17T14:55:15Z</time>
      </trkpt>
      <trkpt lat="45.701" lon="6.42545">
        <ele>528</ele>
        <time>2013-10-17T14:55:17Z</time>
      </trkpt>
      <trkpt lat="45.70116" lon="6.42559">
        <ele>526</ele>
        <time>2013-10-17T14:55:20Z</time>
      </trkpt>
      <trkpt lat="45.70132" lon="6.42551">
        <ele>524</ele>
        <time>2013-10-17T14:55:22Z</time>
      </trkpt>
      <trkpt lat="45.70158" lon="6.42547">
        <ele>524</ele>
        <time>2013-10-17T14:55:25Z</time>
      </trkpt>
      <trkpt lat="45.70179" lon="6.42566">
        <ele>521</ele>
        <time>2013-10-17T14:55:28Z</time>
      </trkpt>
      <trkpt lat="45.70192" lon="6.42585">
        <ele>520</ele>
        <time>2013-10-17T14:55:30Z</time>
      </trkpt>
      <trkpt lat="45.70207" lon="6.42604">
        <ele>518</ele>
        <time>2013-10-17T14:55:32Z</time>
      </trkpt>
      <trkpt lat="45.70233" lon="6.4263">
        <ele>516</ele>
        <time>2013-10-17T14:55:35Z</time>
      </trkpt>
      <trkpt lat="45.7025" lon="6.42649">
        <ele>515</ele>
        <time>2013-10-17T14:55:37Z</time>
      </trkpt>
      <trkpt lat="45.70266" lon="6.42672">
        <ele>513</ele>
        <time>2013-10-17T14:55:39Z</time>
      </trkpt>
      <trkpt lat="45.70284" lon="6.42697">
        <ele>511</ele>
        <time>2013-10-17T14:55:41Z</time>
      </trkpt>
      <trkpt lat="45.70316" lon="6.42727">
        <ele>509</ele>
        <time>2013-10-17T14:55:44Z</time>
      </trkpt>
      <trkpt lat="45.70338" lon="6.42747">
        <ele>506</ele>
        <time>2013-10-17T14:55:46Z</time>
      </trkpt>
      <trkpt lat="45.70358" lon="6.42769">
        <ele>504</ele>
        <time>2013-10-17T14:55:48Z</time>
      </trkpt>
      <trkpt lat="45.70385" lon="6.42803">
        <ele>500</ele>
        <time>2013-10-17T14:55:51Z</time>
      </trkpt>
      <trkpt lat="45.70397" lon="6.42823">
        <ele>497</ele>
        <time>2013-10-17T14:55:53Z</time>
      </trkpt>
      <trkpt lat="45.70409" lon="6.42842">
        <ele>493</ele>
        <time>2013-10-17T14:55:55Z</time>
      </trkpt>
      <trkpt lat="45.70422" lon="6.42859">
        <ele>491</ele>
        <time>2013-10-17T14:55:57Z</time>
      </trkpt>
      <trkpt lat="45.70443" lon="6.42889">
        <ele>489</ele>
        <time>2013-10-17T14:56:00Z</time>
      </trkpt>
      <trkpt lat="45.70458" lon="6.4291">
        <ele>488</ele>
        <time>2013-10-17T14:56:02Z</time>
      </trkpt>
      <trkpt lat="45.70483" lon="6.42942">
        <ele>485</ele>
        <time>2013-10-17T14:56:05Z</time>
      </trkpt>
      <trkpt lat="45.70501" lon="6.42962">
        <ele>482</ele>
        <time>2013-10-17T14:56:07Z</time>
      </trkpt>
      <trkpt lat="45.70527" lon="6.42988">
        <ele>478</ele>
        <time>2013-10-17T14:56:10Z</time>
      </trkpt>
      <trkpt lat="45.70547" lon="6.4301">
        <ele>474</ele>
        <time>2013-10-17T14:56:13Z</time>
      </trkpt>
      <trkpt lat="45.70559" lon="6.43033">
        <ele>471</ele>
        <time>2013-10-17T14:56:15Z</time>
      </trkpt>
      <trkpt lat="45.70573" lon="6.43075">
        <ele>469</ele>
        <time>2013-10-17T14:56:18Z</time>
      </trkpt>
      <trkpt lat="45.70582" lon="6.43105">
        <ele>467</ele>
        <time>2013-10-17T14:56:20Z</time>
      </trkpt>
      <trkpt lat="45.7059" lon="6.43132">
        <ele>465</ele>
        <time>2013-10-17T14:56:22Z</time>
      </trkpt>
      <trkpt lat="45.70594" lon="6.4316">
        <ele>463</ele>
        <time>2013-10-17T14:56:24Z</time>
      </trkpt>
      <trkpt lat="45.70601" lon="6.4319">
        <ele>461</ele>
        <time>2013-10-17T14:56:26Z</time>
      </trkpt>
      <trkpt lat="45.70608" lon="6.43222">
        <ele>458</ele>
        <time>2013-10-17T14:56:28Z</time>
      </trkpt>
      <trkpt lat="45.70624" lon="6.43266">
        <ele>456</ele>
        <time>2013-10-17T14:56:31Z</time>
      </trkpt>
      <trkpt lat="45.70635" lon="6.43296">
        <ele>453</ele>
        <time>2013-10-17T14:56:33Z</time>
      </trkpt>
      <trkpt lat="45.70649" lon="6.43324">
        <ele>450</ele>
        <time>2013-10-17T14:56:35Z</time>
      </trkpt>
      <trkpt lat="45.70667" lon="6.43349">
        <ele>447</ele>
        <time>2013-10-17T14:56:37Z</time>
      </trkpt>
      <trkpt lat="45.7069" lon="6.43382">
        <ele>442</ele>
        <time>2013-10-17T14:56:40Z</time>
      </trkpt>
      <trkpt lat="45.70708" lon="6.434">
        <ele>438</ele>
        <time>2013-10-17T14:56:43Z</time>
      </trkpt>
      <trkpt lat="45.70716" lon="6.43404">
        <ele>436</ele>
        <time>2013-10-17T14:56:45Z</time>
      </trkpt>
      <trkpt lat="45.70718" lon="6.43413">
        <ele>434</ele>
        <time>2013-10-17T14:56:48Z</time>
      </trkpt>
      <trkpt lat="45.70713" lon="6.43414">
        <ele>433</ele>
        <time>2013-10-17T14:56:50Z</time>
      </trkpt>
      <trkpt lat="45.70706" lon="6.43411">
        <ele>433</ele>
        <time>2013-10-17T14:56:52Z</time>
      </trkpt>
      <trkpt lat="45.70698" lon="6.43405">
        <ele>433</ele>
        <time>2013-10-17T14:56:54Z</time>
      </trkpt>
      <trkpt lat="45.70689" lon="6.43396">
        <ele>433</ele>
        <time>2013-10-17T14:56:56Z</time>
      </trkpt>
      <trkpt lat="45.70673" lon="6.43382">
        <ele>434</ele>
        <time>2013-10-17T14:56:59Z</time>
      </trkpt>
      <trkpt lat="45.70663" lon="6.43372">
        <ele>433</ele>
        <time>2013-10-17T14:57:01Z</time>
      </trkpt>
      <trkpt lat="45.70648" lon="6.43355">
        <ele>433</ele>
        <time>2013-10-17T14:57:04Z</time>
      </trkpt>
      <trkpt lat="45.70638" lon="6.4334">
        <ele>432</ele>
        <time>2013-10-17T14:57:06Z</time>
      </trkpt>
      <trkpt lat="45.70628" lon="6.43321">
        <ele>432</ele>
        <time>2013-10-17T14:57:08Z</time>
      </trkpt>
      <trkpt lat="45.70615" lon="6.4329">
        <ele>432</ele>
        <time>2013-10-17T14:57:11Z</time>
      </trkpt>
      <trkpt lat="45.70599" lon="6.43263">
        <ele>433</ele>
        <time>2013-10-17T14:57:14Z</time>
      </trkpt>
      <trkpt lat="45.70585" lon="6.43248">
        <ele>433</ele>
        <time>2013-10-17T14:57:16Z</time>
      </trkpt>
      <trkpt lat="45.70565" lon="6.43225">
        <ele>432</ele>
        <time>2013-10-17T14:57:19Z</time>
      </trkpt>
      <trkpt lat="45.70552" lon="6.4321">
        <ele>432</ele>
        <time>2013-10-17T14:57:21Z</time>
      </trkpt>
      <trkpt lat="45.70541" lon="6.4319">
        <ele>432</ele>
        <time>2013-10-17T14:57:23Z</time>
      </trkpt>
      <trkpt lat="45.70526" lon="6.43157">
        <ele>431</ele>
        <time>2013-10-17T14:57:26Z</time>
      </trkpt>
      <trkpt lat="45.70515" lon="6.43135">
        <ele>431</ele>
        <time>2013-10-17T14:57:28Z</time>
      </trkpt>
      <trkpt lat="45.70502" lon="6.43117">
        <ele>431</ele>
        <time>2013-10-17T14:57:30Z</time>
      </trkpt>
      <trkpt lat="45.70477" lon="6.43099">
        <ele>431</ele>
        <time>2013-10-17T14:57:33Z</time>
      </trkpt>
      <trkpt lat="45.70451" lon="6.43083">
        <ele>431</ele>
        <time>2013-10-17T14:57:36Z</time>
      </trkpt>
      <trkpt lat="45.70433" lon="6.43075">
        <ele>432</ele>
        <time>2013-10-17T14:57:38Z</time>
      </trkpt>
      <trkpt lat="45.70415" lon="6.43066">
        <ele>431</ele>
        <time>2013-10-17T14:57:40Z</time>
      </trkpt>
      <trkpt lat="45.70396" lon="6.43063">
        <ele>431</ele>
        <time>2013-10-17T14:57:42Z</time>
      </trkpt>
      <trkpt lat="45.70372" lon="6.4308">
        <ele>431</ele>
        <time>2013-10-17T14:57:45Z</time>
      </trkpt>
      <trkpt lat="45.70359" lon="6.43099">
        <ele>431</ele>
        <time>2013-10-17T14:57:47Z</time>
      </trkpt>
      <trkpt lat="45.70333" lon="6.43103">
        <ele>431</ele>
        <time>2013-10-17T14:57:50Z</time>
      </trkpt>
      <trkpt lat="45.70309" lon="6.4309">
        <ele>431</ele>
        <time>2013-10-17T14:57:53Z</time>
      </trkpt>
      <trkpt lat="45.70294" lon="6.43079">
        <ele>432</ele>
        <time>2013-10-17T14:57:55Z</time>
      </trkpt>
      <trkpt lat="45.70275" lon="6.43062">
        <ele>433</ele>
        <time>2013-10-17T14:57:58Z</time>
      </trkpt>
      <trkpt lat="45.70262" lon="6.43052">
        <ele>433</ele>
        <time>2013-10-17T14:58:00Z</time>
      </trkpt>
      <trkpt lat="45.7025" lon="6.43041">
        <ele>434</ele>
        <time>2013-10-17T14:58:02Z</time>
      </trkpt>
      <trkpt lat="45.70234" lon="6.43026">
        <ele>435</ele>
        <time>2013-10-17T14:58:05Z</time>
      </trkpt>
      <trkpt lat="45.70224" lon="6.43015">
        <ele>436</ele>
        <time>2013-10-17T14:58:07Z</time>
      </trkpt>
      <trkpt lat="45.70214" lon="6.43004">
        <ele>436</ele>
        <time>2013-10-17T14:58:09Z</time>
      </trkpt>
      <trkpt lat="45.70207" lon="6.42991">
        <ele>436</ele>
        <time>2013-10-17T14:58:11Z</time>
      </trkpt>
      <trkpt lat="45.702" lon="6.42978">
        <ele>437</ele>
        <time>2013-10-17T14:58:13Z</time>
      </trkpt>
      <trkpt lat="45.70188" lon="6.42959">
        <ele>437</ele>
        <time>2013-10-17T14:58:16Z</time>
      </trkpt>
      <trkpt lat="45.70175" lon="6.42941">
        <ele>437</ele>
        <time>2013-10-17T14:58:19Z</time>
      </trkpt>
      <trkpt lat="45.70164" lon="6.4293">
        <ele>438</ele>
        <time>2013-10-17T14:58:21Z</time>
      </trkpt>
      <trkpt lat="45.70146" lon="6.42918">
        <ele>438</ele>
        <time>2013-10-17T14:58:24Z</time>
      </trkpt>
      <trkpt lat="45.70134" lon="6.42913">
        <ele>438</ele>
        <time>2013-10-17T14:58:26Z</time>
      </trkpt>
      <trkpt lat="45.70121" lon="6.42908">
        <ele>439</ele>
        <time>2013-10-17T14:58:28Z</time>
      </trkpt>
      <trkpt lat="45.70101" lon="6.42899">
        <ele>439</ele>
        <time>2013-10-17T14:58:31Z</time>
      </trkpt>
      <trkpt lat="45.70087" lon="6.42879">
        <ele>441</ele>
        <time>2013-10-17T14:58:34Z</time>
      </trkpt>
      <trkpt lat="45.70077" lon="6.42866">
        <ele>441</ele>
        <time>2013-10-17T14:58:36Z</time>
      </trkpt>
      <trkpt lat="45.70066" lon="6.42857">
        <ele>442</ele>
        <time>2013-10-17T14:58:38Z</time>
      </trkpt>
      <trkpt lat="45.70046" lon="6.42854">
        <ele>442</ele>
        <time>2013-10-17T14:58:41Z</time>
      </trkpt>
      <trkpt lat="45.70026" lon="6.4286">
        <ele>442</ele>
        <time>2013-10-17T14:58:44Z</time>
      </trkpt>
      <trkpt lat="45.70006" lon="6.42861">
        <ele>443</ele>
        <time>2013-10-17T14:58:47Z</time>
      </trkpt>
      <trkpt lat="45.69987" lon="6.42851">
        <ele>443</ele>
        <time>2013-10-17T14:58:50Z</time>
      </trkpt>
      <trkpt lat="45.69971" lon="6.42838">
        <ele>444</ele>
        <time>2013-10-17T14:58:53Z</time>
      </trkpt>
      <trkpt lat="45.69954" lon="6.42825">
        <ele>444</ele>
        <time>2013-10-17T14:58:56Z</time>
      </trkpt>
      <trkpt lat="45.69943" lon="6.42816">
        <ele>444</ele>
        <time>2013-10-17T14:58:58Z</time>
      </trkpt>
      <trkpt lat="45.69926" lon="6.42802">
        <ele>445</ele>
        <time>2013-10-17T14:59:01Z</time>
      </trkpt>
      <trkpt lat="45.69914" lon="6.42793">
        <ele>445</ele>
        <time>2013-10-17T14:59:03Z</time>
      </trkpt>
      <trkpt lat="45.69901" lon="6.42783">
        <ele>446</ele>
        <time>2013-10-17T14:59:05Z</time>
      </trkpt>
      <trkpt lat="45.69889" lon="6.42774">
        <ele>446</ele>
        <time>2013-10-17T14:59:07Z</time>
      </trkpt>
      <trkpt lat="45.6987" lon="6.4276">
        <ele>447</ele>
        <time>2013-10-17T14:59:10Z</time>
      </trkpt>
      <trkpt lat="45.69858" lon="6.4275">
        <ele>447</ele>
        <time>2013-10-17T14:59:12Z</time>
      </trkpt>
      <trkpt lat="45.69839" lon="6.42737">
        <ele>448</ele>
        <time>2013-10-17T14:59:15Z</time>
      </trkpt>
      <trkpt lat="45.6982" lon="6.42727">
        <ele>449</ele>
        <time>2013-10-17T14:59:18Z</time>
      </trkpt>
      <trkpt lat="45.69801" lon="6.42718">
        <ele>449</ele>
        <time>2013-10-17T14:59:21Z</time>
      </trkpt>
      <trkpt lat="45.69785" lon="6.42701">
        <ele>450</ele>
        <time>2013-10-17T14:59:24Z</time>
      </trkpt>
      <trkpt lat="45.69769" lon="6.42681">
        <ele>450</ele>
        <time>2013-10-17T14:59:27Z</time>
      </trkpt>
      <trkpt lat="45.69748" lon="6.42676">
        <ele>451</ele>
        <time>2013-10-17T14:59:30Z</time>
      </trkpt>
      <trkpt lat="45.69734" lon="6.42681">
        <ele>451</ele>
        <time>2013-10-17T14:59:32Z</time>
      </trkpt>
      <trkpt lat="45.6972" lon="6.42684">
        <ele>452</ele>
        <time>2013-10-17T14:59:34Z</time>
      </trkpt>
      <trkpt lat="45.69707" lon="6.42678">
        <ele>452</ele>
        <time>2013-10-17T14:59:36Z</time>
      </trkpt>
      <trkpt lat="45.69695" lon="6.42669">
        <ele>452</ele>
        <time>2013-10-17T14:59:38Z</time>
      </trkpt>
      <trkpt lat="45.69675" lon="6.42664">
        <ele>453</ele>
        <time>2013-10-17T14:59:41Z</time>
      </trkpt>
      <trkpt lat="45.69661" lon="6.42662">
        <ele>453</ele>
        <time>2013-10-17T14:59:43Z</time>
      </trkpt>
      <trkpt lat="45.69642" lon="6.4265">
        <ele>454</ele>
        <time>2013-10-17T14:59:46Z</time>
      </trkpt>
      <trkpt lat="45.6963" lon="6.4264">
        <ele>454</ele>
        <time>2013-10-17T14:59:48Z</time>
      </trkpt>
      <trkpt lat="45.6962" lon="6.42627">
        <ele>455</ele>
        <time>2013-10-17T14:59:50Z</time>
      </trkpt>
      <trkpt lat="45.69609" lon="6.42601">
        <ele>455</ele>
        <time>2013-10-17T14:59:53Z</time>
      </trkpt>
      <trkpt lat="45.69602" lon="6.42583">
        <ele>455</ele>
        <time>2013-10-17T14:59:55Z</time>
      </trkpt>
      <trkpt lat="45.69585" lon="6.42562">
        <ele>455</ele>
        <time>2013-10-17T14:59:58Z</time>
      </trkpt>
      <trkpt lat="45.69573" lon="6.4255">
        <ele>455</ele>
        <time>2013-10-17T15:00:00Z</time>
      </trkpt>
      <trkpt lat="45.69561" lon="6.42526">
        <ele>456</ele>
        <time>2013-10-17T15:00:03Z</time>
      </trkpt>
      <trkpt lat="45.69548" lon="6.42505">
        <ele>457</ele>
        <time>2013-10-17T15:00:06Z</time>
      </trkpt>
      <trkpt lat="45.69538" lon="6.42494">
        <ele>457</ele>
        <time>2013-10-17T15:00:08Z</time>
      </trkpt>
      <trkpt lat="45.69527" lon="6.42485">
        <ele>458</ele>
        <time>2013-10-17T15:00:10Z</time>
      </trkpt>
      <trkpt lat="45.6951" lon="6.42475">
        <ele>458</ele>
        <time>2013-10-17T15:00:13Z</time>
      </trkpt>
      <trkpt lat="45.69493" lon="6.42468">
        <ele>459</ele>
        <time>2013-10-17T15:00:16Z</time>
      </trkpt>
      <trkpt lat="45.69478" lon="6.42463">
        <ele>459</ele>
        <time>2013-10-17T15:00:19Z</time>
      </trkpt>
      <trkpt lat="45.69468" lon="6.4246">
        <ele>460</ele>
        <time>2013-10-17T15:00:21Z</time>
      </trkpt>
      <trkpt lat="45.69453" lon="6.42452">
        <ele>460</ele>
        <time>2013-10-17T15:00:24Z</time>
      </trkpt>
      <trkpt lat="45.69445" lon="6.42442">
        <ele>461</ele>
        <time>2013-10-17T15:00:26Z</time>
      </trkpt>
      <trkpt lat="45.69434" lon="6.42427">
        <ele>462</ele>
        <time>2013-10-17T15:00:29Z</time>
      </trkpt>
      <trkpt lat="45.69426" lon="6.42416">
        <ele>462</ele>
        <time>2013-10-17T15:00:31Z</time>
      </trkpt>
      <trkpt lat="45.69415" lon="6.424">
        <ele>463</ele>
        <time>2013-10-17T15:00:34Z</time>
      </trkpt>
      <trkpt lat="45.69403" lon="6.42382">
        <ele>464</ele>
        <time>2013-10-17T15:00:37Z</time>
      </trkpt>
      <trkpt lat="45.69395" lon="6.4237">
        <ele>464</ele>
        <time>2013-10-17T15:00:39Z</time>
      </trkpt>
      <trkpt lat="45.69387" lon="6.42356">
        <ele>464</ele>
        <time>2013-10-17T15:00:41Z</time>
      </trkpt>
      <trkpt lat="45.69377" lon="6.42342">
        <ele>464</ele>
        <time>2013-10-17T15:00:43Z</time>
      </trkpt>
      <trkpt lat="45.69368" lon="6.42327">
        <ele>463</ele>
        <time>2013-10-17T15:00:45Z</time>
      </trkpt>
      <trkpt lat="45.69355" lon="6.42303">
        <ele>463</ele>
        <time>2013-10-17T15:00:48Z</time>
      </trkpt>
      <trkpt lat="45.69345" lon="6.42274">
        <ele>463</ele>
        <time>2013-10-17T15:00:51Z</time>
      </trkpt>
      <trkpt lat="45.69337" lon="6.42254">
        <ele>463</ele>
        <time>2013-10-17T15:00:53Z</time>
      </trkpt>
      <trkpt lat="45.69321" lon="6.42226">
        <ele>463</ele>
        <time>2013-10-17T15:00:56Z</time>
      </trkpt>
      <trkpt lat="45.69309" lon="6.42206">
        <ele>463</ele>
        <time>2013-10-17T15:00:58Z</time>
      </trkpt>
      <trkpt lat="45.69292" lon="6.42179">
        <ele>463</ele>
        <time>2013-10-17T15:01:01Z</time>
      </trkpt>
      <trkpt lat="45.69279" lon="6.42162">
        <ele>463</ele>
        <time>2013-10-17T15:01:03Z</time>
      </trkpt>
      <trkpt lat="45.69258" lon="6.42142">
        <ele>462</ele>
        <time>2013-10-17T15:01:06Z</time>
      </trkpt>
      <trkpt lat="45.69241" lon="6.42136">
        <ele>462</ele>
        <time>2013-10-17T15:01:08Z</time>
      </trkpt>
      <trkpt lat="45.69218" lon="6.42126">
        <ele>461</ele>
        <time>2013-10-17T15:01:11Z</time>
      </trkpt>
      <trkpt lat="45.69203" lon="6.42118">
        <ele>461</ele>
        <time>2013-10-17T15:01:13Z</time>
      </trkpt>
      <trkpt lat="45.69178" lon="6.42116">
        <ele>461</ele>
        <time>2013-10-17T15:01:16Z</time>
      </trkpt>
      <trkpt lat="45.69162" lon="6.42116">
        <ele>461</ele>
        <time>2013-10-17T15:01:18Z</time>
      </trkpt>
      <trkpt lat="45.69149" lon="6.42104">
        <ele>461</ele>
        <time>2013-10-17T15:01:20Z</time>
      </trkpt>
      <trkpt lat="45.69144" lon="6.42084">
        <ele>460</ele>
        <time>2013-10-17T15:01:22Z</time>
      </trkpt>
      <trkpt lat="45.69137" lon="6.42064">
        <ele>460</ele>
        <time>2013-10-17T15:01:24Z</time>
      </trkpt>
      <trkpt lat="45.69116" lon="6.42043">
        <ele>460</ele>
        <time>2013-10-17T15:01:27Z</time>
      </trkpt>
      <trkpt lat="45.69094" lon="6.42022">
        <ele>460</ele>
        <time>2013-10-17T15:01:30Z</time>
      </trkpt>
      <trkpt lat="45.6908" lon="6.42006">
        <ele>460</ele>
        <time>2013-10-17T15:01:32Z</time>
      </trkpt>
      <trkpt lat="45.69054" lon="6.41993">
        <ele>460</ele>
        <time>2013-10-17T15:01:35Z</time>
      </trkpt>
      <trkpt lat="45.6903" lon="6.41978">
        <ele>459</ele>
        <time>2013-10-17T15:01:38Z</time>
      </trkpt>
      <trkpt lat="45.69003" lon="6.41967">
        <ele>458</ele>
        <time>2013-10-17T15:01:41Z</time>
      </trkpt>
      <trkpt lat="45.68975" lon="6.41951">
        <ele>457</ele>
        <time>2013-10-17T15:01:44Z</time>
      </trkpt>
      <trkpt lat="45.68964" lon="6.41926">
        <ele>457</ele>
        <time>2013-10-17T15:01:46Z</time>
      </trkpt>
      <trkpt lat="45.68951" lon="6.41881">
        <ele>456</ele>
        <time>2013-10-17T15:01:49Z</time>
      </trkpt>
      <trkpt lat="45.68943" lon="6.4185">
        <ele>454</ele>
        <time>2013-10-17T15:01:51Z</time>
      </trkpt>
      <trkpt lat="45.68941" lon="6.41802">
        <ele>452</ele>
        <time>2013-10-17T15:01:54Z</time>
      </trkpt>
      <trkpt lat="45.68945" lon="6.41771">
        <ele>451</ele>
        <time>2013-10-17T15:01:56Z</time>
      </trkpt>
      <trkpt lat="45.68938" lon="6.41727">
        <ele>449</ele>
        <time>2013-10-17T15:01:59Z</time>
      </trkpt>
      <trkpt lat="45.68931" lon="6.41698">
        <ele>449</ele>
        <time>2013-10-17T15:02:01Z</time>
      </trkpt>
      <trkpt lat="45.68919" lon="6.41655">
        <ele>447</ele>
        <time>2013-10-17T15:02:04Z</time>
      </trkpt>
      <trkpt lat="45.68913" lon="6.4161">
        <ele>445</ele>
        <time>2013-10-17T15:02:07Z</time>
      </trkpt>
      <trkpt lat="45.68924" lon="6.41585">
        <ele>442</ele>
        <time>2013-10-17T15:02:09Z</time>
      </trkpt>
      <trkpt lat="45.68943" lon="6.4155">
        <ele>440</ele>
        <time>2013-10-17T15:02:12Z</time>
      </trkpt>
      <trkpt lat="45.68949" lon="6.41506">
        <ele>438</ele>
        <time>2013-10-17T15:02:15Z</time>
      </trkpt>
      <trkpt lat="45.68951" lon="6.41476">
        <ele>437</ele>
        <time>2013-10-17T15:02:17Z</time>
      </trkpt>
      <trkpt lat="45.6896" lon="6.41431">
        <ele>435</ele>
        <time>2013-10-17T15:02:20Z</time>
      </trkpt>
      <trkpt lat="45.68975" lon="6.41393">
        <ele>433</ele>
        <time>2013-10-17T15:02:23Z</time>
      </trkpt>
      <trkpt lat="45.68979" lon="6.41371">
        <ele>431</ele>
        <time>2013-10-17T15:02:25Z</time>
      </trkpt>
      <trkpt lat="45.68967" lon="6.41354">
        <ele>429</ele>
        <time>2013-10-17T15:02:28Z</time>
      </trkpt>
      <trkpt lat="45.68953" lon="6.41348">
        <ele>429</ele>
        <time>2013-10-17T15:02:31Z</time>
      </trkpt>
      <trkpt lat="45.68943" lon="6.41341">
        <ele>429</ele>
        <time>2013-10-17T15:02:33Z</time>
      </trkpt>
      <trkpt lat="45.68929" lon="6.41334">
        <ele>430</ele>
        <time>2013-10-17T15:02:36Z</time>
      </trkpt>
      <trkpt lat="45.68915" lon="6.41327">
        <ele>431</ele>
        <time>2013-10-17T15:02:39Z</time>
      </trkpt>
      <trkpt lat="45.68901" lon="6.41322">
        <ele>432</ele>
        <time>2013-10-17T15:02:42Z</time>
      </trkpt>
      <trkpt lat="45.68888" lon="6.41317">
        <ele>432</ele>
        <time>2013-10-17T15:02:45Z</time>
      </trkpt>
      <trkpt lat="45.6888" lon="6.41314">
        <ele>433</ele>
        <time>2013-10-17T15:02:47Z</time>
      </trkpt>
      <trkpt lat="45.68868" lon="6.41308">
        <ele>433</ele>
        <time>2013-10-17T15:02:50Z</time>
      </trkpt>
      <trkpt lat="45.68863" lon="6.413">
        <ele>433</ele>
        <time>2013-10-17T15:02:52Z</time>
      </trkpt>
      <trkpt lat="45.68855" lon="6.41295">
        <ele>433</ele>
        <time>2013-10-17T15:02:54Z</time>
      </trkpt>
      <trkpt lat="45.68847" lon="6.41297">
        <ele>433</ele>
        <time>2013-10-17T15:02:56Z</time>
      </trkpt>
    </trkseg>
  </trk>
</gpx>